<?xml version="1.0" encoding="UTF-8" standalone="no" ?>
<gpx xmlns="http://www.topografix.com/GPX/1/1" xmlns:xsi="http://www.w3.org/2001/XMLSchema-instance" xsi:schemaLocation="http://www.topografix.com/GPX/1/1 http://www.topografix.com/GPX/1/1/gpx.xsd" version="1.1" creator="VisuGPX - https://www.visugpx.com">
  <metadata>
    <name>Rando Lamonzie-Monstatruc (par St Sauveur) : 14,5 km</name>
    <desc><![CDATA[Départ de la halle de Lamonzie-Monstatruc (24) :
Rando très agréable, particulièrement en été, puisqu'elle emprunte beaucoup de chemins forestiers (DFCI). Elle ne présente pas de difficultés particulières mais attention, comme elle mixe plusieurs autres parcours, il ne faut pas trop se fier au balisage (différentes couleurs ou inexistant).]]></desc>
  </metadata>
  <trk>
    <name><![CDATA[Rando Lamonzie-Monstatruc (par St Sauveur) : 14,5 km_1]]></name>
    <trkseg>
      <trkpt lat="44.89313" lon="0.59048">
        <ele>132.488</ele>
        <time>2020-06-09T13:46:26Z</time>
      </trkpt>
      <trkpt lat="44.89318" lon="0.59044">
        <ele>132.452</ele>
        <time>2020-06-09T13:46:30Z</time>
      </trkpt>
      <trkpt lat="44.8932" lon="0.59042">
        <ele>131.967</ele>
        <time>2020-06-09T13:46:31Z</time>
      </trkpt>
      <trkpt lat="44.89324" lon="0.59039">
        <ele>132.018</ele>
        <time>2020-06-09T13:46:33Z</time>
      </trkpt>
      <trkpt lat="44.89329" lon="0.59038">
        <ele>130.977</ele>
        <time>2020-06-09T13:46:36Z</time>
      </trkpt>
      <trkpt lat="44.89333" lon="0.59039">
        <ele>130.6</ele>
        <time>2020-06-09T13:46:39Z</time>
      </trkpt>
      <trkpt lat="44.89338" lon="0.59043">
        <ele>128.984</ele>
        <time>2020-06-09T13:46:43Z</time>
      </trkpt>
      <trkpt lat="44.89342" lon="0.59047">
        <ele>128.992</ele>
        <time>2020-06-09T13:46:47Z</time>
      </trkpt>
      <trkpt lat="44.89345" lon="0.59049">
        <ele>128.909</ele>
        <time>2020-06-09T13:46:48Z</time>
      </trkpt>
      <trkpt lat="44.89349" lon="0.59053">
        <ele>128.953</ele>
        <time>2020-06-09T13:46:50Z</time>
      </trkpt>
      <trkpt lat="44.89352" lon="0.5906">
        <ele>128.972</ele>
        <time>2020-06-09T13:46:53Z</time>
      </trkpt>
      <trkpt lat="44.89356" lon="0.59066">
        <ele>128.97</ele>
        <time>2020-06-09T13:46:56Z</time>
      </trkpt>
      <trkpt lat="44.89361" lon="0.59071">
        <ele>128.96</ele>
        <time>2020-06-09T13:46:59Z</time>
      </trkpt>
      <trkpt lat="44.89364" lon="0.59077">
        <ele>128.919</ele>
        <time>2020-06-09T13:47:02Z</time>
      </trkpt>
      <trkpt lat="44.89368" lon="0.59083">
        <ele>128.86</ele>
        <time>2020-06-09T13:47:05Z</time>
      </trkpt>
      <trkpt lat="44.8937" lon="0.59086">
        <ele>128.8</ele>
        <time>2020-06-09T13:47:07Z</time>
      </trkpt>
      <trkpt lat="44.89374" lon="0.59093">
        <ele>128.636</ele>
        <time>2020-06-09T13:47:11Z</time>
      </trkpt>
      <trkpt lat="44.89378" lon="0.59098">
        <ele>128.431</ele>
        <time>2020-06-09T13:47:15Z</time>
      </trkpt>
      <trkpt lat="44.89381" lon="0.59103">
        <ele>128.263</ele>
        <time>2020-06-09T13:47:18Z</time>
      </trkpt>
      <trkpt lat="44.89384" lon="0.59109">
        <ele>128.043</ele>
        <time>2020-06-09T13:47:22Z</time>
      </trkpt>
      <trkpt lat="44.89387" lon="0.59114">
        <ele>127.854</ele>
        <time>2020-06-09T13:47:25Z</time>
      </trkpt>
      <trkpt lat="44.8939" lon="0.59121">
        <ele>127.657</ele>
        <time>2020-06-09T13:47:28Z</time>
      </trkpt>
      <trkpt lat="44.89392" lon="0.59125">
        <ele>127.472</ele>
        <time>2020-06-09T13:47:31Z</time>
      </trkpt>
      <trkpt lat="44.89393" lon="0.59129">
        <ele>127.347</ele>
        <time>2020-06-09T13:47:33Z</time>
      </trkpt>
      <trkpt lat="44.89395" lon="0.59136">
        <ele>127.161</ele>
        <time>2020-06-09T13:47:36Z</time>
      </trkpt>
      <trkpt lat="44.89399" lon="0.59142">
        <ele>126.876</ele>
        <time>2020-06-09T13:47:41Z</time>
      </trkpt>
      <trkpt lat="44.89402" lon="0.59149">
        <ele>126.698</ele>
        <time>2020-06-09T13:47:44Z</time>
      </trkpt>
      <trkpt lat="44.89404" lon="0.59153">
        <ele>126.566</ele>
        <time>2020-06-09T13:47:46Z</time>
      </trkpt>
      <trkpt lat="44.89409" lon="0.59158">
        <ele>126.281</ele>
        <time>2020-06-09T13:47:50Z</time>
      </trkpt>
      <trkpt lat="44.89411" lon="0.59162">
        <ele>126.127</ele>
        <time>2020-06-09T13:47:52Z</time>
      </trkpt>
      <trkpt lat="44.89417" lon="0.59168">
        <ele>125.891</ele>
        <time>2020-06-09T13:47:55Z</time>
      </trkpt>
      <trkpt lat="44.89418" lon="0.5917">
        <ele>125.812</ele>
        <time>2020-06-09T13:47:56Z</time>
      </trkpt>
      <trkpt lat="44.89422" lon="0.59175">
        <ele>125.654</ele>
        <time>2020-06-09T13:47:58Z</time>
      </trkpt>
      <trkpt lat="44.89425" lon="0.59181">
        <ele>125.413</ele>
        <time>2020-06-09T13:48:01Z</time>
      </trkpt>
      <trkpt lat="44.89427" lon="0.59186">
        <ele>125.253</ele>
        <time>2020-06-09T13:48:03Z</time>
      </trkpt>
      <trkpt lat="44.8943" lon="0.59193">
        <ele>124.92</ele>
        <time>2020-06-09T13:48:07Z</time>
      </trkpt>
      <trkpt lat="44.89431" lon="0.59196">
        <ele>124.751</ele>
        <time>2020-06-09T13:48:09Z</time>
      </trkpt>
      <trkpt lat="44.89433" lon="0.592">
        <ele>124.583</ele>
        <time>2020-06-09T13:48:11Z</time>
      </trkpt>
      <trkpt lat="44.89436" lon="0.59205">
        <ele>124.333</ele>
        <time>2020-06-09T13:48:14Z</time>
      </trkpt>
      <trkpt lat="44.89439" lon="0.59209">
        <ele>124.169</ele>
        <time>2020-06-09T13:48:16Z</time>
      </trkpt>
      <trkpt lat="44.89443" lon="0.59215">
        <ele>123.926</ele>
        <time>2020-06-09T13:48:19Z</time>
      </trkpt>
      <trkpt lat="44.89447" lon="0.59221">
        <ele>123.695</ele>
        <time>2020-06-09T13:48:22Z</time>
      </trkpt>
      <trkpt lat="44.8945" lon="0.59224">
        <ele>123.544</ele>
        <time>2020-06-09T13:48:24Z</time>
      </trkpt>
      <trkpt lat="44.89455" lon="0.59228">
        <ele>123.311</ele>
        <time>2020-06-09T13:48:27Z</time>
      </trkpt>
      <trkpt lat="44.89458" lon="0.5923">
        <ele>123.158</ele>
        <time>2020-06-09T13:48:29Z</time>
      </trkpt>
      <trkpt lat="44.89464" lon="0.59234">
        <ele>122.943</ele>
        <time>2020-06-09T13:48:32Z</time>
      </trkpt>
      <trkpt lat="44.89469" lon="0.59239">
        <ele>122.723</ele>
        <time>2020-06-09T13:48:35Z</time>
      </trkpt>
      <trkpt lat="44.89472" lon="0.59242">
        <ele>122.438</ele>
        <time>2020-06-09T13:48:39Z</time>
      </trkpt>
      <trkpt lat="44.89476" lon="0.59247">
        <ele>122.087</ele>
        <time>2020-06-09T13:48:44Z</time>
      </trkpt>
      <trkpt lat="44.8948" lon="0.5925">
        <ele>121.867</ele>
        <time>2020-06-09T13:48:47Z</time>
      </trkpt>
      <trkpt lat="44.89484" lon="0.59258">
        <ele>121.648</ele>
        <time>2020-06-09T13:48:50Z</time>
      </trkpt>
      <trkpt lat="44.89489" lon="0.59264">
        <ele>121.442</ele>
        <time>2020-06-09T13:48:53Z</time>
      </trkpt>
      <trkpt lat="44.89491" lon="0.59266">
        <ele>121.312</ele>
        <time>2020-06-09T13:48:55Z</time>
      </trkpt>
      <trkpt lat="44.89496" lon="0.59269">
        <ele>121.065</ele>
        <time>2020-06-09T13:48:59Z</time>
      </trkpt>
      <trkpt lat="44.89499" lon="0.59274">
        <ele>120.89</ele>
        <time>2020-06-09T13:49:02Z</time>
      </trkpt>
      <trkpt lat="44.89504" lon="0.59278">
        <ele>120.724</ele>
        <time>2020-06-09T13:49:05Z</time>
      </trkpt>
      <trkpt lat="44.89507" lon="0.59281">
        <ele>120.568</ele>
        <time>2020-06-09T13:49:08Z</time>
      </trkpt>
      <trkpt lat="44.89511" lon="0.59283">
        <ele>120.47</ele>
        <time>2020-06-09T13:49:10Z</time>
      </trkpt>
      <trkpt lat="44.89517" lon="0.59286">
        <ele>120.341</ele>
        <time>2020-06-09T13:49:13Z</time>
      </trkpt>
      <trkpt lat="44.89523" lon="0.5929">
        <ele>120.225</ele>
        <time>2020-06-09T13:49:16Z</time>
      </trkpt>
      <trkpt lat="44.89526" lon="0.59295">
        <ele>120.116</ele>
        <time>2020-06-09T13:49:19Z</time>
      </trkpt>
      <trkpt lat="44.89528" lon="0.59298">
        <ele>119.977</ele>
        <time>2020-06-09T13:49:23Z</time>
      </trkpt>
      <trkpt lat="44.89531" lon="0.59302">
        <ele>119.875</ele>
        <time>2020-06-09T13:49:26Z</time>
      </trkpt>
      <trkpt lat="44.89534" lon="0.5931">
        <ele>119.775</ele>
        <time>2020-06-09T13:49:29Z</time>
      </trkpt>
      <trkpt lat="44.89537" lon="0.59316">
        <ele>119.68</ele>
        <time>2020-06-09T13:49:32Z</time>
      </trkpt>
      <trkpt lat="44.8954" lon="0.5932">
        <ele>119.592</ele>
        <time>2020-06-09T13:49:35Z</time>
      </trkpt>
      <trkpt lat="44.89542" lon="0.59323">
        <ele>119.535</ele>
        <time>2020-06-09T13:49:37Z</time>
      </trkpt>
      <trkpt lat="44.89545" lon="0.59329">
        <ele>119.455</ele>
        <time>2020-06-09T13:49:40Z</time>
      </trkpt>
      <trkpt lat="44.89547" lon="0.59332">
        <ele>119.405</ele>
        <time>2020-06-09T13:49:42Z</time>
      </trkpt>
      <trkpt lat="44.89548" lon="0.59335">
        <ele>119.357</ele>
        <time>2020-06-09T13:49:44Z</time>
      </trkpt>
      <trkpt lat="44.8955" lon="0.59343">
        <ele>119.271</ele>
        <time>2020-06-09T13:49:48Z</time>
      </trkpt>
      <trkpt lat="44.89552" lon="0.59354">
        <ele>119.181</ele>
        <time>2020-06-09T13:49:53Z</time>
      </trkpt>
      <trkpt lat="44.89548" lon="0.59361">
        <ele>119.107</ele>
        <time>2020-06-09T13:49:59Z</time>
      </trkpt>
      <trkpt lat="44.89549" lon="0.59368">
        <ele>119.058</ele>
        <time>2020-06-09T13:50:03Z</time>
      </trkpt>
      <trkpt lat="44.8955" lon="0.59371">
        <ele>119.035</ele>
        <time>2020-06-09T13:50:05Z</time>
      </trkpt>
      <trkpt lat="44.89551" lon="0.59376">
        <ele>119.014</ele>
        <time>2020-06-09T13:50:07Z</time>
      </trkpt>
      <trkpt lat="44.8955" lon="0.59384">
        <ele>118.974</ele>
        <time>2020-06-09T13:50:11Z</time>
      </trkpt>
      <trkpt lat="44.89552" lon="0.5939">
        <ele>118.941</ele>
        <time>2020-06-09T13:50:15Z</time>
      </trkpt>
      <trkpt lat="44.89554" lon="0.59397">
        <ele>118.921</ele>
        <time>2020-06-09T13:50:18Z</time>
      </trkpt>
      <trkpt lat="44.89555" lon="0.594">
        <ele>118.916</ele>
        <time>2020-06-09T13:50:19Z</time>
      </trkpt>
      <trkpt lat="44.89557" lon="0.59409">
        <ele>118.904</ele>
        <time>2020-06-09T13:50:22Z</time>
      </trkpt>
      <trkpt lat="44.89558" lon="0.59414">
        <ele>118.896</ele>
        <time>2020-06-09T13:50:24Z</time>
      </trkpt>
      <trkpt lat="44.8956" lon="0.59422">
        <ele>118.883</ele>
        <time>2020-06-09T13:50:28Z</time>
      </trkpt>
      <trkpt lat="44.89563" lon="0.59427">
        <ele>118.877</ele>
        <time>2020-06-09T13:50:31Z</time>
      </trkpt>
      <trkpt lat="44.89567" lon="0.59434">
        <ele>118.875</ele>
        <time>2020-06-09T13:50:34Z</time>
      </trkpt>
      <trkpt lat="44.89569" lon="0.59439">
        <ele>118.878</ele>
        <time>2020-06-09T13:50:37Z</time>
      </trkpt>
      <trkpt lat="44.89574" lon="0.59444">
        <ele>118.882</ele>
        <time>2020-06-09T13:50:40Z</time>
      </trkpt>
      <trkpt lat="44.89577" lon="0.5945">
        <ele>118.89</ele>
        <time>2020-06-09T13:50:44Z</time>
      </trkpt>
      <trkpt lat="44.89578" lon="0.59457">
        <ele>118.899</ele>
        <time>2020-06-09T13:50:47Z</time>
      </trkpt>
      <trkpt lat="44.89579" lon="0.59465">
        <ele>118.91</ele>
        <time>2020-06-09T13:50:50Z</time>
      </trkpt>
      <trkpt lat="44.8958" lon="0.59471">
        <ele>118.925</ele>
        <time>2020-06-09T13:50:53Z</time>
      </trkpt>
      <trkpt lat="44.89581" lon="0.59475">
        <ele>118.935</ele>
        <time>2020-06-09T13:50:55Z</time>
      </trkpt>
      <trkpt lat="44.89584" lon="0.5948">
        <ele>118.951</ele>
        <time>2020-06-09T13:50:58Z</time>
      </trkpt>
      <trkpt lat="44.89586" lon="0.59489">
        <ele>118.995</ele>
        <time>2020-06-09T13:51:04Z</time>
      </trkpt>
      <trkpt lat="44.89589" lon="0.59496">
        <ele>119.027</ele>
        <time>2020-06-09T13:51:08Z</time>
      </trkpt>
      <trkpt lat="44.89593" lon="0.59501">
        <ele>119.052</ele>
        <time>2020-06-09T13:51:11Z</time>
      </trkpt>
      <trkpt lat="44.89595" lon="0.59509">
        <ele>119.076</ele>
        <time>2020-06-09T13:51:14Z</time>
      </trkpt>
      <trkpt lat="44.89596" lon="0.59512">
        <ele>119.082</ele>
        <time>2020-06-09T13:51:15Z</time>
      </trkpt>
      <trkpt lat="44.89598" lon="0.59517">
        <ele>119.095</ele>
        <time>2020-06-09T13:51:17Z</time>
      </trkpt>
      <trkpt lat="44.89599" lon="0.59521">
        <ele>119.108</ele>
        <time>2020-06-09T13:51:19Z</time>
      </trkpt>
      <trkpt lat="44.89602" lon="0.59528">
        <ele>119.129</ele>
        <time>2020-06-09T13:51:22Z</time>
      </trkpt>
      <trkpt lat="44.89604" lon="0.59535">
        <ele>119.151</ele>
        <time>2020-06-09T13:51:25Z</time>
      </trkpt>
      <trkpt lat="44.89605" lon="0.59539">
        <ele>119.167</ele>
        <time>2020-06-09T13:51:27Z</time>
      </trkpt>
      <trkpt lat="44.89608" lon="0.59544">
        <ele>119.191</ele>
        <time>2020-06-09T13:51:30Z</time>
      </trkpt>
      <trkpt lat="44.8961" lon="0.5955">
        <ele>119.218</ele>
        <time>2020-06-09T13:51:33Z</time>
      </trkpt>
      <trkpt lat="44.89613" lon="0.59555">
        <ele>119.243</ele>
        <time>2020-06-09T13:51:36Z</time>
      </trkpt>
      <trkpt lat="44.89616" lon="0.59559">
        <ele>119.27</ele>
        <time>2020-06-09T13:51:39Z</time>
      </trkpt>
      <trkpt lat="44.89619" lon="0.59566">
        <ele>119.301</ele>
        <time>2020-06-09T13:51:42Z</time>
      </trkpt>
      <trkpt lat="44.89621" lon="0.5957">
        <ele>119.322</ele>
        <time>2020-06-09T13:51:44Z</time>
      </trkpt>
      <trkpt lat="44.89622" lon="0.59573">
        <ele>119.344</ele>
        <time>2020-06-09T13:51:46Z</time>
      </trkpt>
      <trkpt lat="44.89624" lon="0.59578">
        <ele>119.381</ele>
        <time>2020-06-09T13:51:49Z</time>
      </trkpt>
      <trkpt lat="44.89628" lon="0.59584">
        <ele>119.44</ele>
        <time>2020-06-09T13:51:53Z</time>
      </trkpt>
      <trkpt lat="44.89629" lon="0.5959">
        <ele>119.491</ele>
        <time>2020-06-09T13:51:56Z</time>
      </trkpt>
      <trkpt lat="44.8963" lon="0.59593">
        <ele>119.529</ele>
        <time>2020-06-09T13:51:58Z</time>
      </trkpt>
      <trkpt lat="44.89631" lon="0.596">
        <ele>119.61</ele>
        <time>2020-06-09T13:52:02Z</time>
      </trkpt>
      <trkpt lat="44.89631" lon="0.59606">
        <ele>119.652</ele>
        <time>2020-06-09T13:52:04Z</time>
      </trkpt>
      <trkpt lat="44.89633" lon="0.59612">
        <ele>119.713</ele>
        <time>2020-06-09T13:52:07Z</time>
      </trkpt>
      <trkpt lat="44.89636" lon="0.59618">
        <ele>119.792</ele>
        <time>2020-06-09T13:52:11Z</time>
      </trkpt>
      <trkpt lat="44.89637" lon="0.59622">
        <ele>119.832</ele>
        <time>2020-06-09T13:52:13Z</time>
      </trkpt>
      <trkpt lat="44.89638" lon="0.59625">
        <ele>119.872</ele>
        <time>2020-06-09T13:52:15Z</time>
      </trkpt>
      <trkpt lat="44.8964" lon="0.59629">
        <ele>119.913</ele>
        <time>2020-06-09T13:52:17Z</time>
      </trkpt>
      <trkpt lat="44.89641" lon="0.59632">
        <ele>119.953</ele>
        <time>2020-06-09T13:52:19Z</time>
      </trkpt>
      <trkpt lat="44.89644" lon="0.59638">
        <ele>120.012</ele>
        <time>2020-06-09T13:52:22Z</time>
      </trkpt>
      <trkpt lat="44.89645" lon="0.59642">
        <ele>120.051</ele>
        <time>2020-06-09T13:52:24Z</time>
      </trkpt>
      <trkpt lat="44.89647" lon="0.59647">
        <ele>120.107</ele>
        <time>2020-06-09T13:52:27Z</time>
      </trkpt>
      <trkpt lat="44.89651" lon="0.59652">
        <ele>120.161</ele>
        <time>2020-06-09T13:52:30Z</time>
      </trkpt>
      <trkpt lat="44.89652" lon="0.5966">
        <ele>120.228</ele>
        <time>2020-06-09T13:52:34Z</time>
      </trkpt>
      <trkpt lat="44.89652" lon="0.59664">
        <ele>120.26</ele>
        <time>2020-06-09T13:52:36Z</time>
      </trkpt>
      <trkpt lat="44.89655" lon="0.59672">
        <ele>120.308</ele>
        <time>2020-06-09T13:52:39Z</time>
      </trkpt>
      <trkpt lat="44.89656" lon="0.59677">
        <ele>120.358</ele>
        <time>2020-06-09T13:52:42Z</time>
      </trkpt>
      <trkpt lat="44.89657" lon="0.59682">
        <ele>120.426</ele>
        <time>2020-06-09T13:52:46Z</time>
      </trkpt>
      <trkpt lat="44.89658" lon="0.59687">
        <ele>120.459</ele>
        <time>2020-06-09T13:52:48Z</time>
      </trkpt>
      <trkpt lat="44.8966" lon="0.59693">
        <ele>120.507</ele>
        <time>2020-06-09T13:52:51Z</time>
      </trkpt>
      <trkpt lat="44.89661" lon="0.59698">
        <ele>120.539</ele>
        <time>2020-06-09T13:52:53Z</time>
      </trkpt>
      <trkpt lat="44.89662" lon="0.59703">
        <ele>120.571</ele>
        <time>2020-06-09T13:52:55Z</time>
      </trkpt>
      <trkpt lat="44.89665" lon="0.59709">
        <ele>120.632</ele>
        <time>2020-06-09T13:52:59Z</time>
      </trkpt>
      <trkpt lat="44.89668" lon="0.59717">
        <ele>120.692</ele>
        <time>2020-06-09T13:53:03Z</time>
      </trkpt>
      <trkpt lat="44.89669" lon="0.5972">
        <ele>120.721</ele>
        <time>2020-06-09T13:53:05Z</time>
      </trkpt>
      <trkpt lat="44.89673" lon="0.59726">
        <ele>120.78</ele>
        <time>2020-06-09T13:53:09Z</time>
      </trkpt>
      <trkpt lat="44.89675" lon="0.59728">
        <ele>120.809</ele>
        <time>2020-06-09T13:53:11Z</time>
      </trkpt>
      <trkpt lat="44.89678" lon="0.59735">
        <ele>120.882</ele>
        <time>2020-06-09T13:53:16Z</time>
      </trkpt>
      <trkpt lat="44.89681" lon="0.59741">
        <ele>120.957</ele>
        <time>2020-06-09T13:53:21Z</time>
      </trkpt>
      <trkpt lat="44.89684" lon="0.59747">
        <ele>121.005</ele>
        <time>2020-06-09T13:53:24Z</time>
      </trkpt>
      <trkpt lat="44.89685" lon="0.59755">
        <ele>121.052</ele>
        <time>2020-06-09T13:53:27Z</time>
      </trkpt>
      <trkpt lat="44.89687" lon="0.59762">
        <ele>121.095</ele>
        <time>2020-06-09T13:53:30Z</time>
      </trkpt>
      <trkpt lat="44.89688" lon="0.59765">
        <ele>121.123</ele>
        <time>2020-06-09T13:53:32Z</time>
      </trkpt>
      <trkpt lat="44.89689" lon="0.59769">
        <ele>121.15</ele>
        <time>2020-06-09T13:53:34Z</time>
      </trkpt>
      <trkpt lat="44.8969" lon="0.59775">
        <ele>121.188</ele>
        <time>2020-06-09T13:53:37Z</time>
      </trkpt>
      <trkpt lat="44.89693" lon="0.59782">
        <ele>121.24</ele>
        <time>2020-06-09T13:53:41Z</time>
      </trkpt>
      <trkpt lat="44.89695" lon="0.59787">
        <ele>121.28</ele>
        <time>2020-06-09T13:53:44Z</time>
      </trkpt>
      <trkpt lat="44.89697" lon="0.59793">
        <ele>121.321</ele>
        <time>2020-06-09T13:53:47Z</time>
      </trkpt>
      <trkpt lat="44.89699" lon="0.598">
        <ele>121.375</ele>
        <time>2020-06-09T13:53:51Z</time>
      </trkpt>
      <trkpt lat="44.897" lon="0.59803">
        <ele>121.4</ele>
        <time>2020-06-09T13:53:53Z</time>
      </trkpt>
      <trkpt lat="44.89701" lon="0.59811">
        <ele>121.437</ele>
        <time>2020-06-09T13:53:56Z</time>
      </trkpt>
      <trkpt lat="44.89704" lon="0.59818">
        <ele>121.484</ele>
        <time>2020-06-09T13:54:00Z</time>
      </trkpt>
      <trkpt lat="44.89706" lon="0.59821">
        <ele>121.506</ele>
        <time>2020-06-09T13:54:02Z</time>
      </trkpt>
      <trkpt lat="44.89708" lon="0.59827">
        <ele>121.539</ele>
        <time>2020-06-09T13:54:05Z</time>
      </trkpt>
      <trkpt lat="44.89709" lon="0.59832">
        <ele>121.561</ele>
        <time>2020-06-09T13:54:07Z</time>
      </trkpt>
      <trkpt lat="44.89712" lon="0.5984">
        <ele>121.595</ele>
        <time>2020-06-09T13:54:10Z</time>
      </trkpt>
      <trkpt lat="44.89713" lon="0.59843">
        <ele>121.607</ele>
        <time>2020-06-09T13:54:11Z</time>
      </trkpt>
      <trkpt lat="44.89715" lon="0.59847">
        <ele>121.63</ele>
        <time>2020-06-09T13:54:13Z</time>
      </trkpt>
      <trkpt lat="44.89716" lon="0.59851">
        <ele>121.653</ele>
        <time>2020-06-09T13:54:15Z</time>
      </trkpt>
      <trkpt lat="44.89717" lon="0.59858">
        <ele>121.698</ele>
        <time>2020-06-09T13:54:19Z</time>
      </trkpt>
      <trkpt lat="44.8972" lon="0.59865">
        <ele>121.758</ele>
        <time>2020-06-09T13:54:24Z</time>
      </trkpt>
      <trkpt lat="44.89722" lon="0.59869">
        <ele>121.783</ele>
        <time>2020-06-09T13:54:26Z</time>
      </trkpt>
      <trkpt lat="44.89723" lon="0.59876">
        <ele>121.851</ele>
        <time>2020-06-09T13:54:31Z</time>
      </trkpt>
      <trkpt lat="44.89725" lon="0.59882">
        <ele>121.896</ele>
        <time>2020-06-09T13:54:34Z</time>
      </trkpt>
      <trkpt lat="44.89727" lon="0.59889">
        <ele>121.952</ele>
        <time>2020-06-09T13:54:37Z</time>
      </trkpt>
      <trkpt lat="44.89729" lon="0.59892">
        <ele>121.996</ele>
        <time>2020-06-09T13:54:39Z</time>
      </trkpt>
      <trkpt lat="44.8973" lon="0.59895">
        <ele>122.043</ele>
        <time>2020-06-09T13:54:41Z</time>
      </trkpt>
      <trkpt lat="44.89731" lon="0.59898">
        <ele>122.092</ele>
        <time>2020-06-09T13:54:43Z</time>
      </trkpt>
      <trkpt lat="44.89733" lon="0.59902">
        <ele>122.169</ele>
        <time>2020-06-09T13:54:46Z</time>
      </trkpt>
      <trkpt lat="44.89736" lon="0.59908">
        <ele>122.247</ele>
        <time>2020-06-09T13:54:49Z</time>
      </trkpt>
      <trkpt lat="44.89739" lon="0.59913">
        <ele>122.357</ele>
        <time>2020-06-09T13:54:53Z</time>
      </trkpt>
      <trkpt lat="44.89741" lon="0.59917">
        <ele>122.441</ele>
        <time>2020-06-09T13:54:56Z</time>
      </trkpt>
      <trkpt lat="44.89738" lon="0.59923">
        <ele>122.608</ele>
        <time>2020-06-09T13:55:02Z</time>
      </trkpt>
      <trkpt lat="44.89737" lon="0.5993">
        <ele>122.688</ele>
        <time>2020-06-09T13:55:05Z</time>
      </trkpt>
      <trkpt lat="44.89739" lon="0.59936">
        <ele>122.739</ele>
        <time>2020-06-09T13:55:07Z</time>
      </trkpt>
      <trkpt lat="44.8974" lon="0.59942">
        <ele>122.789</ele>
        <time>2020-06-09T13:55:09Z</time>
      </trkpt>
      <trkpt lat="44.89742" lon="0.59947">
        <ele>122.863</ele>
        <time>2020-06-09T13:55:12Z</time>
      </trkpt>
      <trkpt lat="44.89743" lon="0.59953">
        <ele>122.911</ele>
        <time>2020-06-09T13:55:14Z</time>
      </trkpt>
      <trkpt lat="44.89746" lon="0.59959">
        <ele>122.979</ele>
        <time>2020-06-09T13:55:17Z</time>
      </trkpt>
      <trkpt lat="44.89748" lon="0.59966">
        <ele>123.066</ele>
        <time>2020-06-09T13:55:21Z</time>
      </trkpt>
      <trkpt lat="44.89749" lon="0.59975">
        <ele>123.147</ele>
        <time>2020-06-09T13:55:25Z</time>
      </trkpt>
      <trkpt lat="44.89748" lon="0.59984">
        <ele>123.207</ele>
        <time>2020-06-09T13:55:28Z</time>
      </trkpt>
      <trkpt lat="44.89747" lon="0.59991">
        <ele>123.247</ele>
        <time>2020-06-09T13:55:30Z</time>
      </trkpt>
      <trkpt lat="44.89746" lon="0.59999">
        <ele>123.289</ele>
        <time>2020-06-09T13:55:32Z</time>
      </trkpt>
      <trkpt lat="44.89746" lon="0.60007">
        <ele>123.332</ele>
        <time>2020-06-09T13:55:34Z</time>
      </trkpt>
      <trkpt lat="44.89745" lon="0.60014">
        <ele>123.392</ele>
        <time>2020-06-09T13:55:37Z</time>
      </trkpt>
      <trkpt lat="44.89743" lon="0.6002">
        <ele>123.45</ele>
        <time>2020-06-09T13:55:40Z</time>
      </trkpt>
      <trkpt lat="44.8974" lon="0.60028">
        <ele>123.504</ele>
        <time>2020-06-09T13:55:43Z</time>
      </trkpt>
      <trkpt lat="44.89739" lon="0.60036">
        <ele>123.556</ele>
        <time>2020-06-09T13:55:46Z</time>
      </trkpt>
      <trkpt lat="44.89738" lon="0.60044">
        <ele>123.623</ele>
        <time>2020-06-09T13:55:50Z</time>
      </trkpt>
      <trkpt lat="44.89737" lon="0.60049">
        <ele>123.669</ele>
        <time>2020-06-09T13:55:53Z</time>
      </trkpt>
      <trkpt lat="44.89734" lon="0.60055">
        <ele>123.712</ele>
        <time>2020-06-09T13:55:56Z</time>
      </trkpt>
      <trkpt lat="44.89732" lon="0.6006">
        <ele>123.765</ele>
        <time>2020-06-09T13:56:00Z</time>
      </trkpt>
      <trkpt lat="44.8973" lon="0.60069">
        <ele>123.812</ele>
        <time>2020-06-09T13:56:04Z</time>
      </trkpt>
      <trkpt lat="44.89729" lon="0.60073">
        <ele>123.844</ele>
        <time>2020-06-09T13:56:07Z</time>
      </trkpt>
      <trkpt lat="44.89728" lon="0.60077">
        <ele>123.865</ele>
        <time>2020-06-09T13:56:09Z</time>
      </trkpt>
      <trkpt lat="44.89728" lon="0.60081">
        <ele>123.884</ele>
        <time>2020-06-09T13:56:11Z</time>
      </trkpt>
      <trkpt lat="44.89727" lon="0.60088">
        <ele>123.912</ele>
        <time>2020-06-09T13:56:14Z</time>
      </trkpt>
      <trkpt lat="44.89727" lon="0.60092">
        <ele>123.93</ele>
        <time>2020-06-09T13:56:16Z</time>
      </trkpt>
      <trkpt lat="44.89725" lon="0.60101">
        <ele>123.967</ele>
        <time>2020-06-09T13:56:20Z</time>
      </trkpt>
      <trkpt lat="44.89725" lon="0.60105">
        <ele>123.976</ele>
        <time>2020-06-09T13:56:21Z</time>
      </trkpt>
      <trkpt lat="44.89725" lon="0.60114">
        <ele>124.004</ele>
        <time>2020-06-09T13:56:24Z</time>
      </trkpt>
      <trkpt lat="44.89725" lon="0.60122">
        <ele>124.034</ele>
        <time>2020-06-09T13:56:28Z</time>
      </trkpt>
      <trkpt lat="44.89726" lon="0.60129">
        <ele>124.065</ele>
        <time>2020-06-09T13:56:32Z</time>
      </trkpt>
      <trkpt lat="44.89727" lon="0.60138">
        <ele>124.094</ele>
        <time>2020-06-09T13:56:36Z</time>
      </trkpt>
      <trkpt lat="44.89727" lon="0.60143">
        <ele>124.107</ele>
        <time>2020-06-09T13:56:38Z</time>
      </trkpt>
      <trkpt lat="44.89729" lon="0.6015">
        <ele>124.126</ele>
        <time>2020-06-09T13:56:41Z</time>
      </trkpt>
      <trkpt lat="44.89732" lon="0.60155">
        <ele>124.144</ele>
        <time>2020-06-09T13:56:44Z</time>
      </trkpt>
      <trkpt lat="44.89734" lon="0.6016">
        <ele>124.162</ele>
        <time>2020-06-09T13:56:47Z</time>
      </trkpt>
      <trkpt lat="44.89736" lon="0.60164">
        <ele>124.187</ele>
        <time>2020-06-09T13:56:52Z</time>
      </trkpt>
      <trkpt lat="44.89738" lon="0.6017">
        <ele>124.213</ele>
        <time>2020-06-09T13:56:58Z</time>
      </trkpt>
      <trkpt lat="44.89739" lon="0.60175">
        <ele>124.227</ele>
        <time>2020-06-09T13:57:02Z</time>
      </trkpt>
      <trkpt lat="44.89741" lon="0.60178">
        <ele>124.233</ele>
        <time>2020-06-09T13:57:04Z</time>
      </trkpt>
      <trkpt lat="44.89743" lon="0.60183">
        <ele>124.246</ele>
        <time>2020-06-09T13:57:09Z</time>
      </trkpt>
      <trkpt lat="44.89745" lon="0.60193">
        <ele>124.254</ele>
        <time>2020-06-09T13:57:13Z</time>
      </trkpt>
      <trkpt lat="44.89746" lon="0.60197">
        <ele>124.258</ele>
        <time>2020-06-09T13:57:15Z</time>
      </trkpt>
      <trkpt lat="44.89749" lon="0.60205">
        <ele>124.265</ele>
        <time>2020-06-09T13:57:18Z</time>
      </trkpt>
      <trkpt lat="44.89751" lon="0.60211">
        <ele>124.27</ele>
        <time>2020-06-09T13:57:20Z</time>
      </trkpt>
      <trkpt lat="44.89752" lon="0.60217">
        <ele>124.275</ele>
        <time>2020-06-09T13:57:22Z</time>
      </trkpt>
      <trkpt lat="44.89753" lon="0.6022">
        <ele>124.278</ele>
        <time>2020-06-09T13:57:23Z</time>
      </trkpt>
      <trkpt lat="44.89753" lon="0.60225">
        <ele>124.284</ele>
        <time>2020-06-09T13:57:25Z</time>
      </trkpt>
      <trkpt lat="44.89756" lon="0.60231">
        <ele>124.294</ele>
        <time>2020-06-09T13:57:29Z</time>
      </trkpt>
      <trkpt lat="44.89757" lon="0.60234">
        <ele>124.297</ele>
        <time>2020-06-09T13:57:30Z</time>
      </trkpt>
      <trkpt lat="44.89759" lon="0.60241">
        <ele>124.306</ele>
        <time>2020-06-09T13:57:33Z</time>
      </trkpt>
      <trkpt lat="44.89759" lon="0.60249">
        <ele>124.317</ele>
        <time>2020-06-09T13:57:37Z</time>
      </trkpt>
      <trkpt lat="44.89761" lon="0.60256">
        <ele>124.326</ele>
        <time>2020-06-09T13:57:40Z</time>
      </trkpt>
      <trkpt lat="44.89763" lon="0.60262">
        <ele>124.34</ele>
        <time>2020-06-09T13:57:44Z</time>
      </trkpt>
      <trkpt lat="44.89765" lon="0.60267">
        <ele>124.347</ele>
        <time>2020-06-09T13:57:46Z</time>
      </trkpt>
      <trkpt lat="44.89767" lon="0.60274">
        <ele>124.362</ele>
        <time>2020-06-09T13:57:50Z</time>
      </trkpt>
      <trkpt lat="44.89772" lon="0.60278">
        <ele>124.379</ele>
        <time>2020-06-09T13:57:55Z</time>
      </trkpt>
      <trkpt lat="44.89776" lon="0.60283">
        <ele>124.388</ele>
        <time>2020-06-09T13:57:58Z</time>
      </trkpt>
      <trkpt lat="44.89778" lon="0.60285">
        <ele>124.391</ele>
        <time>2020-06-09T13:58:00Z</time>
      </trkpt>
      <trkpt lat="44.89781" lon="0.60289">
        <ele>124.396</ele>
        <time>2020-06-09T13:58:03Z</time>
      </trkpt>
      <trkpt lat="44.89785" lon="0.60296">
        <ele>124.399</ele>
        <time>2020-06-09T13:58:06Z</time>
      </trkpt>
      <trkpt lat="44.89788" lon="0.60304">
        <ele>124.402</ele>
        <time>2020-06-09T13:58:10Z</time>
      </trkpt>
      <trkpt lat="44.89791" lon="0.60312">
        <ele>124.404</ele>
        <time>2020-06-09T13:58:13Z</time>
      </trkpt>
      <trkpt lat="44.89794" lon="0.60318">
        <ele>124.403</ele>
        <time>2020-06-09T13:58:17Z</time>
      </trkpt>
      <trkpt lat="44.89798" lon="0.60323">
        <ele>124.404</ele>
        <time>2020-06-09T13:58:22Z</time>
      </trkpt>
      <trkpt lat="44.89801" lon="0.60326">
        <ele>124.404</ele>
        <time>2020-06-09T13:58:24Z</time>
      </trkpt>
      <trkpt lat="44.89804" lon="0.60332">
        <ele>124.402</ele>
        <time>2020-06-09T13:58:27Z</time>
      </trkpt>
      <trkpt lat="44.89808" lon="0.60338">
        <ele>124.403</ele>
        <time>2020-06-09T13:58:31Z</time>
      </trkpt>
      <trkpt lat="44.89809" lon="0.60346">
        <ele>124.403</ele>
        <time>2020-06-09T13:58:36Z</time>
      </trkpt>
      <trkpt lat="44.8981" lon="0.60353">
        <ele>124.401</ele>
        <time>2020-06-09T13:58:39Z</time>
      </trkpt>
      <trkpt lat="44.89813" lon="0.6036">
        <ele>124.398</ele>
        <time>2020-06-09T13:58:42Z</time>
      </trkpt>
      <trkpt lat="44.89815" lon="0.60364">
        <ele>124.397</ele>
        <time>2020-06-09T13:58:44Z</time>
      </trkpt>
      <trkpt lat="44.89819" lon="0.60369">
        <ele>124.392</ele>
        <time>2020-06-09T13:58:49Z</time>
      </trkpt>
      <trkpt lat="44.8982" lon="0.60376">
        <ele>124.39</ele>
        <time>2020-06-09T13:58:52Z</time>
      </trkpt>
      <trkpt lat="44.89821" lon="0.60383">
        <ele>124.39</ele>
        <time>2020-06-09T13:58:54Z</time>
      </trkpt>
      <trkpt lat="44.89826" lon="0.6039">
        <ele>124.391</ele>
        <time>2020-06-09T13:58:57Z</time>
      </trkpt>
      <trkpt lat="44.8983" lon="0.60397">
        <ele>124.392</ele>
        <time>2020-06-09T13:59:00Z</time>
      </trkpt>
      <trkpt lat="44.89833" lon="0.60405">
        <ele>124.395</ele>
        <time>2020-06-09T13:59:05Z</time>
      </trkpt>
      <trkpt lat="44.89834" lon="0.60412">
        <ele>124.403</ele>
        <time>2020-06-09T13:59:09Z</time>
      </trkpt>
      <trkpt lat="44.89838" lon="0.60418">
        <ele>124.41</ele>
        <time>2020-06-09T13:59:13Z</time>
      </trkpt>
      <trkpt lat="44.89843" lon="0.60422">
        <ele>124.416</ele>
        <time>2020-06-09T13:59:17Z</time>
      </trkpt>
      <trkpt lat="44.89846" lon="0.60427">
        <ele>124.421</ele>
        <time>2020-06-09T13:59:21Z</time>
      </trkpt>
      <trkpt lat="44.8985" lon="0.6043">
        <ele>124.422</ele>
        <time>2020-06-09T13:59:26Z</time>
      </trkpt>
      <trkpt lat="44.89854" lon="0.60436">
        <ele>124.42</ele>
        <time>2020-06-09T13:59:30Z</time>
      </trkpt>
      <trkpt lat="44.89856" lon="0.60443">
        <ele>124.415</ele>
        <time>2020-06-09T13:59:35Z</time>
      </trkpt>
      <trkpt lat="44.89858" lon="0.60451">
        <ele>124.411</ele>
        <time>2020-06-09T13:59:39Z</time>
      </trkpt>
      <trkpt lat="44.89859" lon="0.6046">
        <ele>124.41</ele>
        <time>2020-06-09T13:59:44Z</time>
      </trkpt>
      <trkpt lat="44.89859" lon="0.60464">
        <ele>124.411</ele>
        <time>2020-06-09T13:59:47Z</time>
      </trkpt>
      <trkpt lat="44.89859" lon="0.60471">
        <ele>124.412</ele>
        <time>2020-06-09T13:59:49Z</time>
      </trkpt>
      <trkpt lat="44.8986" lon="0.6048">
        <ele>124.414</ele>
        <time>2020-06-09T13:59:53Z</time>
      </trkpt>
      <trkpt lat="44.89861" lon="0.60488">
        <ele>124.416</ele>
        <time>2020-06-09T13:59:56Z</time>
      </trkpt>
      <trkpt lat="44.89862" lon="0.60495">
        <ele>124.418</ele>
        <time>2020-06-09T13:59:58Z</time>
      </trkpt>
      <trkpt lat="44.89864" lon="0.60502">
        <ele>124.42</ele>
        <time>2020-06-09T14:00:01Z</time>
      </trkpt>
      <trkpt lat="44.89865" lon="0.60509">
        <ele>124.426</ele>
        <time>2020-06-09T14:00:04Z</time>
      </trkpt>
      <trkpt lat="44.89868" lon="0.60515">
        <ele>124.439</ele>
        <time>2020-06-09T14:00:08Z</time>
      </trkpt>
      <trkpt lat="44.89871" lon="0.6052">
        <ele>124.452</ele>
        <time>2020-06-09T14:00:12Z</time>
      </trkpt>
      <trkpt lat="44.89874" lon="0.60526">
        <ele>124.461</ele>
        <time>2020-06-09T14:00:15Z</time>
      </trkpt>
      <trkpt lat="44.89878" lon="0.60531">
        <ele>124.471</ele>
        <time>2020-06-09T14:00:18Z</time>
      </trkpt>
      <trkpt lat="44.89881" lon="0.6054">
        <ele>124.48</ele>
        <time>2020-06-09T14:00:20Z</time>
      </trkpt>
      <trkpt lat="44.89884" lon="0.60546">
        <ele>124.491</ele>
        <time>2020-06-09T14:00:22Z</time>
      </trkpt>
      <trkpt lat="44.89886" lon="0.60553">
        <ele>124.508</ele>
        <time>2020-06-09T14:00:25Z</time>
      </trkpt>
      <trkpt lat="44.89887" lon="0.60556">
        <ele>124.514</ele>
        <time>2020-06-09T14:00:26Z</time>
      </trkpt>
      <trkpt lat="44.89888" lon="0.60561">
        <ele>124.527</ele>
        <time>2020-06-09T14:00:28Z</time>
      </trkpt>
      <trkpt lat="44.89892" lon="0.60569">
        <ele>124.548</ele>
        <time>2020-06-09T14:00:31Z</time>
      </trkpt>
      <trkpt lat="44.89894" lon="0.60575">
        <ele>124.563</ele>
        <time>2020-06-09T14:00:33Z</time>
      </trkpt>
      <trkpt lat="44.89895" lon="0.60579">
        <ele>124.58</ele>
        <time>2020-06-09T14:00:35Z</time>
      </trkpt>
      <trkpt lat="44.89898" lon="0.60585">
        <ele>124.605</ele>
        <time>2020-06-09T14:00:38Z</time>
      </trkpt>
      <trkpt lat="44.899" lon="0.60592">
        <ele>124.646</ele>
        <time>2020-06-09T14:00:43Z</time>
      </trkpt>
      <trkpt lat="44.89904" lon="0.60596">
        <ele>124.663</ele>
        <time>2020-06-09T14:00:45Z</time>
      </trkpt>
      <trkpt lat="44.89907" lon="0.60604">
        <ele>124.692</ele>
        <time>2020-06-09T14:00:48Z</time>
      </trkpt>
      <trkpt lat="44.89908" lon="0.60608">
        <ele>124.714</ele>
        <time>2020-06-09T14:00:50Z</time>
      </trkpt>
      <trkpt lat="44.89912" lon="0.60614">
        <ele>124.761</ele>
        <time>2020-06-09T14:00:54Z</time>
      </trkpt>
      <trkpt lat="44.89915" lon="0.60619">
        <ele>124.81</ele>
        <time>2020-06-09T14:00:58Z</time>
      </trkpt>
      <trkpt lat="44.89919" lon="0.60623">
        <ele>124.865</ele>
        <time>2020-06-09T14:01:02Z</time>
      </trkpt>
      <trkpt lat="44.8992" lon="0.60626">
        <ele>124.896</ele>
        <time>2020-06-09T14:01:04Z</time>
      </trkpt>
      <trkpt lat="44.89922" lon="0.60628">
        <ele>124.928</ele>
        <time>2020-06-09T14:01:06Z</time>
      </trkpt>
      <trkpt lat="44.89925" lon="0.60631">
        <ele>124.993</ele>
        <time>2020-06-09T14:01:10Z</time>
      </trkpt>
      <trkpt lat="44.89929" lon="0.60637">
        <ele>125.059</ele>
        <time>2020-06-09T14:01:14Z</time>
      </trkpt>
      <trkpt lat="44.89934" lon="0.60642">
        <ele>125.111</ele>
        <time>2020-06-09T14:01:17Z</time>
      </trkpt>
      <trkpt lat="44.89938" lon="0.60647">
        <ele>125.189</ele>
        <time>2020-06-09T14:01:23Z</time>
      </trkpt>
      <trkpt lat="44.89943" lon="0.6065">
        <ele>125.273</ele>
        <time>2020-06-09T14:01:26Z</time>
      </trkpt>
      <trkpt lat="44.89947" lon="0.60655">
        <ele>125.4</ele>
        <time>2020-06-09T14:01:30Z</time>
      </trkpt>
      <trkpt lat="44.8995" lon="0.60659">
        <ele>125.467</ele>
        <time>2020-06-09T14:01:32Z</time>
      </trkpt>
      <trkpt lat="44.89952" lon="0.60665">
        <ele>125.535</ele>
        <time>2020-06-09T14:01:34Z</time>
      </trkpt>
      <trkpt lat="44.89954" lon="0.6067">
        <ele>125.605</ele>
        <time>2020-06-09T14:01:36Z</time>
      </trkpt>
      <trkpt lat="44.89955" lon="0.60675">
        <ele>125.677</ele>
        <time>2020-06-09T14:01:38Z</time>
      </trkpt>
      <trkpt lat="44.89957" lon="0.60679">
        <ele>125.751</ele>
        <time>2020-06-09T14:01:40Z</time>
      </trkpt>
      <trkpt lat="44.89959" lon="0.60684">
        <ele>125.825</ele>
        <time>2020-06-09T14:01:42Z</time>
      </trkpt>
      <trkpt lat="44.89961" lon="0.60689">
        <ele>125.903</ele>
        <time>2020-06-09T14:01:44Z</time>
      </trkpt>
      <trkpt lat="44.89965" lon="0.60695">
        <ele>126.024</ele>
        <time>2020-06-09T14:01:47Z</time>
      </trkpt>
      <trkpt lat="44.89967" lon="0.60699">
        <ele>126.108</ele>
        <time>2020-06-09T14:01:49Z</time>
      </trkpt>
      <trkpt lat="44.8997" lon="0.60705">
        <ele>126.238</ele>
        <time>2020-06-09T14:01:52Z</time>
      </trkpt>
      <trkpt lat="44.89973" lon="0.60712">
        <ele>126.371</ele>
        <time>2020-06-09T14:01:55Z</time>
      </trkpt>
      <trkpt lat="44.89975" lon="0.60716">
        <ele>126.46</ele>
        <time>2020-06-09T14:01:57Z</time>
      </trkpt>
      <trkpt lat="44.89976" lon="0.6072">
        <ele>126.55</ele>
        <time>2020-06-09T14:01:59Z</time>
      </trkpt>
      <trkpt lat="44.89979" lon="0.60727">
        <ele>126.683</ele>
        <time>2020-06-09T14:02:02Z</time>
      </trkpt>
      <trkpt lat="44.8998" lon="0.6073">
        <ele>126.769</ele>
        <time>2020-06-09T14:02:04Z</time>
      </trkpt>
      <trkpt lat="44.89984" lon="0.60735">
        <ele>126.941</ele>
        <time>2020-06-09T14:02:08Z</time>
      </trkpt>
      <trkpt lat="44.89986" lon="0.60737">
        <ele>127.111</ele>
        <time>2020-06-09T14:02:12Z</time>
      </trkpt>
      <trkpt lat="44.89982" lon="0.60745">
        <ele>127.326</ele>
        <time>2020-06-09T14:02:17Z</time>
      </trkpt>
      <trkpt lat="44.89978" lon="0.60749">
        <ele>127.412</ele>
        <time>2020-06-09T14:02:19Z</time>
      </trkpt>
      <trkpt lat="44.89973" lon="0.60754">
        <ele>127.538</ele>
        <time>2020-06-09T14:02:22Z</time>
      </trkpt>
      <trkpt lat="44.89969" lon="0.60761">
        <ele>127.726</ele>
        <time>2020-06-09T14:02:26Z</time>
      </trkpt>
      <trkpt lat="44.89964" lon="0.60766">
        <ele>127.873</ele>
        <time>2020-06-09T14:02:29Z</time>
      </trkpt>
      <trkpt lat="44.89961" lon="0.60769">
        <ele>127.97</ele>
        <time>2020-06-09T14:02:31Z</time>
      </trkpt>
      <trkpt lat="44.89959" lon="0.60772">
        <ele>128.067</ele>
        <time>2020-06-09T14:02:33Z</time>
      </trkpt>
      <trkpt lat="44.89956" lon="0.60778">
        <ele>128.22</ele>
        <time>2020-06-09T14:02:36Z</time>
      </trkpt>
      <trkpt lat="44.89954" lon="0.60781">
        <ele>128.326</ele>
        <time>2020-06-09T14:02:38Z</time>
      </trkpt>
      <trkpt lat="44.89951" lon="0.60787">
        <ele>128.544</ele>
        <time>2020-06-09T14:02:42Z</time>
      </trkpt>
      <trkpt lat="44.89948" lon="0.60794">
        <ele>128.708</ele>
        <time>2020-06-09T14:02:45Z</time>
      </trkpt>
      <trkpt lat="44.89944" lon="0.60802">
        <ele>128.874</ele>
        <time>2020-06-09T14:02:48Z</time>
      </trkpt>
      <trkpt lat="44.89942" lon="0.60805">
        <ele>128.987</ele>
        <time>2020-06-09T14:02:50Z</time>
      </trkpt>
      <trkpt lat="44.8994" lon="0.60808">
        <ele>129.101</ele>
        <time>2020-06-09T14:02:52Z</time>
      </trkpt>
      <trkpt lat="44.89939" lon="0.60811">
        <ele>129.214</ele>
        <time>2020-06-09T14:02:54Z</time>
      </trkpt>
      <trkpt lat="44.89937" lon="0.60814">
        <ele>129.384</ele>
        <time>2020-06-09T14:02:57Z</time>
      </trkpt>
      <trkpt lat="44.89935" lon="0.6082">
        <ele>129.659</ele>
        <time>2020-06-09T14:03:02Z</time>
      </trkpt>
      <trkpt lat="44.89934" lon="0.60827">
        <ele>129.776</ele>
        <time>2020-06-09T14:03:04Z</time>
      </trkpt>
      <trkpt lat="44.89933" lon="0.6083">
        <ele>129.839</ele>
        <time>2020-06-09T14:03:05Z</time>
      </trkpt>
      <trkpt lat="44.89933" lon="0.60834">
        <ele>130.029</ele>
        <time>2020-06-09T14:03:08Z</time>
      </trkpt>
      <trkpt lat="44.89929" lon="0.6084">
        <ele>130.279</ele>
        <time>2020-06-09T14:03:12Z</time>
      </trkpt>
      <trkpt lat="44.89927" lon="0.60843">
        <ele>130.4</ele>
        <time>2020-06-09T14:03:14Z</time>
      </trkpt>
      <trkpt lat="44.89925" lon="0.60848">
        <ele>130.576</ele>
        <time>2020-06-09T14:03:17Z</time>
      </trkpt>
      <trkpt lat="44.89922" lon="0.60852">
        <ele>130.632</ele>
        <time>2020-06-09T14:03:18Z</time>
      </trkpt>
      <trkpt lat="44.89918" lon="0.6086">
        <ele>130.744</ele>
        <time>2020-06-09T14:03:20Z</time>
      </trkpt>
      <trkpt lat="44.89916" lon="0.60865">
        <ele>130.853</ele>
        <time>2020-06-09T14:03:22Z</time>
      </trkpt>
      <trkpt lat="44.89914" lon="0.60872">
        <ele>131.011</ele>
        <time>2020-06-09T14:03:25Z</time>
      </trkpt>
      <trkpt lat="44.89913" lon="0.60878">
        <ele>131.159</ele>
        <time>2020-06-09T14:03:28Z</time>
      </trkpt>
      <trkpt lat="44.89912" lon="0.60885">
        <ele>131.345</ele>
        <time>2020-06-09T14:03:32Z</time>
      </trkpt>
      <trkpt lat="44.89912" lon="0.60894">
        <ele>131.476</ele>
        <time>2020-06-09T14:03:35Z</time>
      </trkpt>
      <trkpt lat="44.89912" lon="0.60899">
        <ele>131.518</ele>
        <time>2020-06-09T14:03:36Z</time>
      </trkpt>
      <trkpt lat="44.89912" lon="0.60909">
        <ele>131.641</ele>
        <time>2020-06-09T14:03:39Z</time>
      </trkpt>
      <trkpt lat="44.89915" lon="0.60917">
        <ele>131.764</ele>
        <time>2020-06-09T14:03:42Z</time>
      </trkpt>
      <trkpt lat="44.89917" lon="0.60926">
        <ele>131.924</ele>
        <time>2020-06-09T14:03:46Z</time>
      </trkpt>
      <trkpt lat="44.89919" lon="0.60932">
        <ele>132.079</ele>
        <time>2020-06-09T14:03:50Z</time>
      </trkpt>
      <trkpt lat="44.89919" lon="0.60939">
        <ele>132.233</ele>
        <time>2020-06-09T14:03:54Z</time>
      </trkpt>
      <trkpt lat="44.89921" lon="0.60946">
        <ele>132.384</ele>
        <time>2020-06-09T14:03:58Z</time>
      </trkpt>
      <trkpt lat="44.89922" lon="0.60953">
        <ele>132.529</ele>
        <time>2020-06-09T14:04:02Z</time>
      </trkpt>
      <trkpt lat="44.89923" lon="0.60956">
        <ele>132.599</ele>
        <time>2020-06-09T14:04:04Z</time>
      </trkpt>
      <trkpt lat="44.89925" lon="0.6096">
        <ele>132.666</ele>
        <time>2020-06-09T14:04:06Z</time>
      </trkpt>
      <trkpt lat="44.89927" lon="0.6097">
        <ele>132.731</ele>
        <time>2020-06-09T14:04:08Z</time>
      </trkpt>
      <trkpt lat="44.89928" lon="0.60974">
        <ele>132.763</ele>
        <time>2020-06-09T14:04:09Z</time>
      </trkpt>
      <trkpt lat="44.89929" lon="0.60981">
        <ele>132.856</ele>
        <time>2020-06-09T14:04:12Z</time>
      </trkpt>
      <trkpt lat="44.89931" lon="0.60986">
        <ele>132.919</ele>
        <time>2020-06-09T14:04:14Z</time>
      </trkpt>
      <trkpt lat="44.89934" lon="0.60991">
        <ele>133.044</ele>
        <time>2020-06-09T14:04:18Z</time>
      </trkpt>
      <trkpt lat="44.89937" lon="0.60996">
        <ele>133.14</ele>
        <time>2020-06-09T14:04:21Z</time>
      </trkpt>
      <trkpt lat="44.89941" lon="0.61001">
        <ele>133.244</ele>
        <time>2020-06-09T14:04:24Z</time>
      </trkpt>
      <trkpt lat="44.89946" lon="0.61007">
        <ele>133.361</ele>
        <time>2020-06-09T14:04:27Z</time>
      </trkpt>
      <trkpt lat="44.89949" lon="0.61012">
        <ele>133.482</ele>
        <time>2020-06-09T14:04:30Z</time>
      </trkpt>
      <trkpt lat="44.89948" lon="0.61019">
        <ele>133.644</ele>
        <time>2020-06-09T14:04:34Z</time>
      </trkpt>
      <trkpt lat="44.89949" lon="0.61027">
        <ele>133.765</ele>
        <time>2020-06-09T14:04:37Z</time>
      </trkpt>
      <trkpt lat="44.8995" lon="0.61031">
        <ele>133.887</ele>
        <time>2020-06-09T14:04:40Z</time>
      </trkpt>
      <trkpt lat="44.8995" lon="0.61037">
        <ele>133.998</ele>
        <time>2020-06-09T14:04:43Z</time>
      </trkpt>
      <trkpt lat="44.8995" lon="0.61041">
        <ele>134.14</ele>
        <time>2020-06-09T14:04:48Z</time>
      </trkpt>
      <trkpt lat="44.89947" lon="0.61047">
        <ele>134.266</ele>
        <time>2020-06-09T14:04:52Z</time>
      </trkpt>
      <trkpt lat="44.89947" lon="0.61059">
        <ele>134.388</ele>
        <time>2020-06-09T14:04:56Z</time>
      </trkpt>
      <trkpt lat="44.89948" lon="0.61066">
        <ele>134.447</ele>
        <time>2020-06-09T14:04:58Z</time>
      </trkpt>
      <trkpt lat="44.89948" lon="0.61074">
        <ele>134.503</ele>
        <time>2020-06-09T14:05:00Z</time>
      </trkpt>
      <trkpt lat="44.89947" lon="0.61082">
        <ele>134.582</ele>
        <time>2020-06-09T14:05:03Z</time>
      </trkpt>
      <trkpt lat="44.89945" lon="0.61089">
        <ele>134.633</ele>
        <time>2020-06-09T14:05:05Z</time>
      </trkpt>
      <trkpt lat="44.89944" lon="0.61098">
        <ele>134.749</ele>
        <time>2020-06-09T14:05:10Z</time>
      </trkpt>
      <trkpt lat="44.89943" lon="0.61103">
        <ele>134.812</ele>
        <time>2020-06-09T14:05:13Z</time>
      </trkpt>
      <trkpt lat="44.89941" lon="0.61112">
        <ele>134.871</ele>
        <time>2020-06-09T14:05:16Z</time>
      </trkpt>
      <trkpt lat="44.8994" lon="0.61119">
        <ele>134.926</ele>
        <time>2020-06-09T14:05:19Z</time>
      </trkpt>
      <trkpt lat="44.89937" lon="0.61124">
        <ele>134.961</ele>
        <time>2020-06-09T14:05:21Z</time>
      </trkpt>
      <trkpt lat="44.89934" lon="0.6113">
        <ele>135.01</ele>
        <time>2020-06-09T14:05:24Z</time>
      </trkpt>
      <trkpt lat="44.89932" lon="0.61136">
        <ele>135.057</ele>
        <time>2020-06-09T14:05:27Z</time>
      </trkpt>
      <trkpt lat="44.8993" lon="0.61143">
        <ele>135.118</ele>
        <time>2020-06-09T14:05:31Z</time>
      </trkpt>
      <trkpt lat="44.89929" lon="0.61151">
        <ele>135.152</ele>
        <time>2020-06-09T14:05:33Z</time>
      </trkpt>
      <trkpt lat="44.89927" lon="0.61157">
        <ele>135.187</ele>
        <time>2020-06-09T14:05:35Z</time>
      </trkpt>
      <trkpt lat="44.89926" lon="0.6116">
        <ele>135.206</ele>
        <time>2020-06-09T14:05:36Z</time>
      </trkpt>
      <trkpt lat="44.89924" lon="0.61167">
        <ele>135.3</ele>
        <time>2020-06-09T14:05:41Z</time>
      </trkpt>
      <trkpt lat="44.89926" lon="0.61174">
        <ele>135.393</ele>
        <time>2020-06-09T14:05:46Z</time>
      </trkpt>
      <trkpt lat="44.89927" lon="0.61181">
        <ele>135.447</ele>
        <time>2020-06-09T14:05:49Z</time>
      </trkpt>
      <trkpt lat="44.89928" lon="0.61185">
        <ele>135.482</ele>
        <time>2020-06-09T14:05:51Z</time>
      </trkpt>
      <trkpt lat="44.8993" lon="0.61191">
        <ele>135.535</ele>
        <time>2020-06-09T14:05:54Z</time>
      </trkpt>
      <trkpt lat="44.89933" lon="0.61196">
        <ele>135.571</ele>
        <time>2020-06-09T14:05:56Z</time>
      </trkpt>
      <trkpt lat="44.89935" lon="0.612">
        <ele>135.625</ele>
        <time>2020-06-09T14:05:59Z</time>
      </trkpt>
      <trkpt lat="44.89938" lon="0.61205">
        <ele>135.679</ele>
        <time>2020-06-09T14:06:02Z</time>
      </trkpt>
      <trkpt lat="44.8994" lon="0.6121">
        <ele>135.714</ele>
        <time>2020-06-09T14:06:04Z</time>
      </trkpt>
      <trkpt lat="44.89944" lon="0.61219">
        <ele>135.767</ele>
        <time>2020-06-09T14:06:07Z</time>
      </trkpt>
      <trkpt lat="44.89946" lon="0.61222">
        <ele>135.804</ele>
        <time>2020-06-09T14:06:09Z</time>
      </trkpt>
      <trkpt lat="44.8995" lon="0.61229">
        <ele>135.878</ele>
        <time>2020-06-09T14:06:13Z</time>
      </trkpt>
      <trkpt lat="44.89952" lon="0.61232">
        <ele>135.913</ele>
        <time>2020-06-09T14:06:15Z</time>
      </trkpt>
      <trkpt lat="44.89955" lon="0.61239">
        <ele>135.972</ele>
        <time>2020-06-09T14:06:18Z</time>
      </trkpt>
      <trkpt lat="44.89957" lon="0.61245">
        <ele>136.027</ele>
        <time>2020-06-09T14:06:21Z</time>
      </trkpt>
      <trkpt lat="44.8996" lon="0.61252">
        <ele>136.078</ele>
        <time>2020-06-09T14:06:24Z</time>
      </trkpt>
      <trkpt lat="44.89963" lon="0.61258">
        <ele>136.126</ele>
        <time>2020-06-09T14:06:27Z</time>
      </trkpt>
      <trkpt lat="44.89967" lon="0.61264">
        <ele>136.18</ele>
        <time>2020-06-09T14:06:31Z</time>
      </trkpt>
      <trkpt lat="44.8997" lon="0.6127">
        <ele>136.216</ele>
        <time>2020-06-09T14:06:34Z</time>
      </trkpt>
      <trkpt lat="44.89975" lon="0.61271">
        <ele>136.247</ele>
        <time>2020-06-09T14:06:37Z</time>
      </trkpt>
      <trkpt lat="44.8998" lon="0.61274">
        <ele>136.275</ele>
        <time>2020-06-09T14:06:40Z</time>
      </trkpt>
      <trkpt lat="44.89985" lon="0.61281">
        <ele>136.302</ele>
        <time>2020-06-09T14:06:44Z</time>
      </trkpt>
      <trkpt lat="44.89986" lon="0.61287">
        <ele>136.318</ele>
        <time>2020-06-09T14:06:46Z</time>
      </trkpt>
      <trkpt lat="44.89988" lon="0.61295">
        <ele>136.338</ele>
        <time>2020-06-09T14:06:49Z</time>
      </trkpt>
      <trkpt lat="44.8999" lon="0.61303">
        <ele>136.353</ele>
        <time>2020-06-09T14:06:52Z</time>
      </trkpt>
      <trkpt lat="44.89994" lon="0.61309">
        <ele>136.364</ele>
        <time>2020-06-09T14:06:55Z</time>
      </trkpt>
      <trkpt lat="44.89998" lon="0.61316">
        <ele>136.37</ele>
        <time>2020-06-09T14:06:58Z</time>
      </trkpt>
      <trkpt lat="44.9" lon="0.6132">
        <ele>136.367</ele>
        <time>2020-06-09T14:07:01Z</time>
      </trkpt>
      <trkpt lat="44.90003" lon="0.61325">
        <ele>136.363</ele>
        <time>2020-06-09T14:07:03Z</time>
      </trkpt>
      <trkpt lat="44.90006" lon="0.6133">
        <ele>136.358</ele>
        <time>2020-06-09T14:07:05Z</time>
      </trkpt>
      <trkpt lat="44.90009" lon="0.61337">
        <ele>136.352</ele>
        <time>2020-06-09T14:07:08Z</time>
      </trkpt>
      <trkpt lat="44.9001" lon="0.61344">
        <ele>136.344</ele>
        <time>2020-06-09T14:07:12Z</time>
      </trkpt>
      <trkpt lat="44.90011" lon="0.61347">
        <ele>136.336</ele>
        <time>2020-06-09T14:07:14Z</time>
      </trkpt>
      <trkpt lat="44.90012" lon="0.61353">
        <ele>136.319</ele>
        <time>2020-06-09T14:07:17Z</time>
      </trkpt>
      <trkpt lat="44.90014" lon="0.6136">
        <ele>136.3</ele>
        <time>2020-06-09T14:07:20Z</time>
      </trkpt>
      <trkpt lat="44.90015" lon="0.61364">
        <ele>136.287</ele>
        <time>2020-06-09T14:07:22Z</time>
      </trkpt>
      <trkpt lat="44.90016" lon="0.6137">
        <ele>136.271</ele>
        <time>2020-06-09T14:07:25Z</time>
      </trkpt>
      <trkpt lat="44.90017" lon="0.61375">
        <ele>136.266</ele>
        <time>2020-06-09T14:07:27Z</time>
      </trkpt>
      <trkpt lat="44.9002" lon="0.61381">
        <ele>136.275</ele>
        <time>2020-06-09T14:07:30Z</time>
      </trkpt>
      <trkpt lat="44.90021" lon="0.61389">
        <ele>136.308</ele>
        <time>2020-06-09T14:07:34Z</time>
      </trkpt>
      <trkpt lat="44.9002" lon="0.61397">
        <ele>136.33</ele>
        <time>2020-06-09T14:07:37Z</time>
      </trkpt>
      <trkpt lat="44.90021" lon="0.61403">
        <ele>136.35</ele>
        <time>2020-06-09T14:07:40Z</time>
      </trkpt>
      <trkpt lat="44.90021" lon="0.61403">
        <ele>136.35</ele>
        <time>2020-06-09T14:07:45Z</time>
      </trkpt>
      <trkpt lat="44.90021" lon="0.61403">
        <ele>136.35</ele>
        <time>2020-06-09T14:07:46Z</time>
      </trkpt>
      <trkpt lat="44.90019" lon="0.6141">
        <ele>136.401</ele>
        <time>2020-06-09T14:07:48Z</time>
      </trkpt>
      <trkpt lat="44.90015" lon="0.61414">
        <ele>136.449</ele>
        <time>2020-06-09T14:07:53Z</time>
      </trkpt>
      <trkpt lat="44.9001" lon="0.61414">
        <ele>136.527</ele>
        <time>2020-06-09T14:08:01Z</time>
      </trkpt>
      <trkpt lat="44.90019" lon="0.61428">
        <ele>136.76</ele>
        <time>2020-06-09T14:08:17Z</time>
      </trkpt>
      <trkpt lat="44.90019" lon="0.61435">
        <ele>136.81</ele>
        <time>2020-06-09T14:08:20Z</time>
      </trkpt>
      <trkpt lat="44.90017" lon="0.61443">
        <ele>136.869</ele>
        <time>2020-06-09T14:08:24Z</time>
      </trkpt>
      <trkpt lat="44.90015" lon="0.6145">
        <ele>136.948</ele>
        <time>2020-06-09T14:08:29Z</time>
      </trkpt>
      <trkpt lat="44.90017" lon="0.61443">
        <ele>136.869</ele>
        <time>2020-06-09T14:08:37Z</time>
      </trkpt>
      <trkpt lat="44.90009" lon="0.61432">
        <ele>137.158</ele>
        <time>2020-06-09T14:08:41Z</time>
      </trkpt>
      <trkpt lat="44.90005" lon="0.61428">
        <ele>137.216</ele>
        <time>2020-06-09T14:08:44Z</time>
      </trkpt>
      <trkpt lat="44.90002" lon="0.61426">
        <ele>137.255</ele>
        <time>2020-06-09T14:08:46Z</time>
      </trkpt>
      <trkpt lat="44.89997" lon="0.61424">
        <ele>137.326</ele>
        <time>2020-06-09T14:08:50Z</time>
      </trkpt>
      <trkpt lat="44.89992" lon="0.61425">
        <ele>137.369</ele>
        <time>2020-06-09T14:08:53Z</time>
      </trkpt>
      <trkpt lat="44.89987" lon="0.61424">
        <ele>137.42</ele>
        <time>2020-06-09T14:08:57Z</time>
      </trkpt>
      <trkpt lat="44.89984" lon="0.61423">
        <ele>137.444</ele>
        <time>2020-06-09T14:08:59Z</time>
      </trkpt>
      <trkpt lat="44.89981" lon="0.61423">
        <ele>137.465</ele>
        <time>2020-06-09T14:09:01Z</time>
      </trkpt>
      <trkpt lat="44.89977" lon="0.61422">
        <ele>137.486</ele>
        <time>2020-06-09T14:09:03Z</time>
      </trkpt>
      <trkpt lat="44.89975" lon="0.61421">
        <ele>137.507</ele>
        <time>2020-06-09T14:09:05Z</time>
      </trkpt>
      <trkpt lat="44.89969" lon="0.61418">
        <ele>137.546</ele>
        <time>2020-06-09T14:09:09Z</time>
      </trkpt>
      <trkpt lat="44.89965" lon="0.61415">
        <ele>137.579</ele>
        <time>2020-06-09T14:09:13Z</time>
      </trkpt>
      <trkpt lat="44.89963" lon="0.61412">
        <ele>137.59</ele>
        <time>2020-06-09T14:09:15Z</time>
      </trkpt>
      <trkpt lat="44.89958" lon="0.61409">
        <ele>137.604</ele>
        <time>2020-06-09T14:09:18Z</time>
      </trkpt>
      <trkpt lat="44.89952" lon="0.61407">
        <ele>137.614</ele>
        <time>2020-06-09T14:09:22Z</time>
      </trkpt>
      <trkpt lat="44.8995" lon="0.61405">
        <ele>137.615</ele>
        <time>2020-06-09T14:09:24Z</time>
      </trkpt>
      <trkpt lat="44.89946" lon="0.61403">
        <ele>137.612</ele>
        <time>2020-06-09T14:09:27Z</time>
      </trkpt>
      <trkpt lat="44.89943" lon="0.61401">
        <ele>137.602</ele>
        <time>2020-06-09T14:09:30Z</time>
      </trkpt>
      <trkpt lat="44.89939" lon="0.61398">
        <ele>137.589</ele>
        <time>2020-06-09T14:09:33Z</time>
      </trkpt>
      <trkpt lat="44.89937" lon="0.61396">
        <ele>137.578</ele>
        <time>2020-06-09T14:09:35Z</time>
      </trkpt>
      <trkpt lat="44.89934" lon="0.61393">
        <ele>137.56</ele>
        <time>2020-06-09T14:09:38Z</time>
      </trkpt>
      <trkpt lat="44.89932" lon="0.61391">
        <ele>137.546</ele>
        <time>2020-06-09T14:09:40Z</time>
      </trkpt>
      <trkpt lat="44.8993" lon="0.61389">
        <ele>137.531</ele>
        <time>2020-06-09T14:09:42Z</time>
      </trkpt>
      <trkpt lat="44.89928" lon="0.61387">
        <ele>137.517</ele>
        <time>2020-06-09T14:09:44Z</time>
      </trkpt>
      <trkpt lat="44.89926" lon="0.61385">
        <ele>137.502</ele>
        <time>2020-06-09T14:09:46Z</time>
      </trkpt>
      <trkpt lat="44.89922" lon="0.61381">
        <ele>137.473</ele>
        <time>2020-06-09T14:09:50Z</time>
      </trkpt>
      <trkpt lat="44.89917" lon="0.6138">
        <ele>137.436</ele>
        <time>2020-06-09T14:09:54Z</time>
      </trkpt>
      <trkpt lat="44.89912" lon="0.61379">
        <ele>137.402</ele>
        <time>2020-06-09T14:09:57Z</time>
      </trkpt>
      <trkpt lat="44.89908" lon="0.61377">
        <ele>137.356</ele>
        <time>2020-06-09T14:10:01Z</time>
      </trkpt>
      <trkpt lat="44.89905" lon="0.61376">
        <ele>137.333</ele>
        <time>2020-06-09T14:10:03Z</time>
      </trkpt>
      <trkpt lat="44.89902" lon="0.61374">
        <ele>137.311</ele>
        <time>2020-06-09T14:10:05Z</time>
      </trkpt>
      <trkpt lat="44.89897" lon="0.61373">
        <ele>137.272</ele>
        <time>2020-06-09T14:10:08Z</time>
      </trkpt>
      <trkpt lat="44.89892" lon="0.61374">
        <ele>137.231</ele>
        <time>2020-06-09T14:10:11Z</time>
      </trkpt>
      <trkpt lat="44.89889" lon="0.61375">
        <ele>137.204</ele>
        <time>2020-06-09T14:10:13Z</time>
      </trkpt>
      <trkpt lat="44.89886" lon="0.61376">
        <ele>137.176</ele>
        <time>2020-06-09T14:10:15Z</time>
      </trkpt>
      <trkpt lat="44.89883" lon="0.61377">
        <ele>137.147</ele>
        <time>2020-06-09T14:10:17Z</time>
      </trkpt>
      <trkpt lat="44.89879" lon="0.61381">
        <ele>137.088</ele>
        <time>2020-06-09T14:10:21Z</time>
      </trkpt>
      <trkpt lat="44.89874" lon="0.61386">
        <ele>137.012</ele>
        <time>2020-06-09T14:10:26Z</time>
      </trkpt>
      <trkpt lat="44.8987" lon="0.6139">
        <ele>136.958</ele>
        <time>2020-06-09T14:10:29Z</time>
      </trkpt>
      <trkpt lat="44.89868" lon="0.61392">
        <ele>136.923</ele>
        <time>2020-06-09T14:10:31Z</time>
      </trkpt>
      <trkpt lat="44.89864" lon="0.61398">
        <ele>136.851</ele>
        <time>2020-06-09T14:10:35Z</time>
      </trkpt>
      <trkpt lat="44.89862" lon="0.61402">
        <ele>136.813</ele>
        <time>2020-06-09T14:10:37Z</time>
      </trkpt>
      <trkpt lat="44.89858" lon="0.61407">
        <ele>136.741</ele>
        <time>2020-06-09T14:10:41Z</time>
      </trkpt>
      <trkpt lat="44.89858" lon="0.61413">
        <ele>136.663</ele>
        <time>2020-06-09T14:10:44Z</time>
      </trkpt>
      <trkpt lat="44.89857" lon="0.61421">
        <ele>136.581</ele>
        <time>2020-06-09T14:10:47Z</time>
      </trkpt>
      <trkpt lat="44.89857" lon="0.61428">
        <ele>136.499</ele>
        <time>2020-06-09T14:10:50Z</time>
      </trkpt>
      <trkpt lat="44.89857" lon="0.61434">
        <ele>136.447</ele>
        <time>2020-06-09T14:10:52Z</time>
      </trkpt>
      <trkpt lat="44.89858" lon="0.61439">
        <ele>136.395</ele>
        <time>2020-06-09T14:10:54Z</time>
      </trkpt>
      <trkpt lat="44.89858" lon="0.61443">
        <ele>136.344</ele>
        <time>2020-06-09T14:10:56Z</time>
      </trkpt>
      <trkpt lat="44.89859" lon="0.61451">
        <ele>136.267</ele>
        <time>2020-06-09T14:10:59Z</time>
      </trkpt>
      <trkpt lat="44.89859" lon="0.61457">
        <ele>136.214</ele>
        <time>2020-06-09T14:11:01Z</time>
      </trkpt>
      <trkpt lat="44.89859" lon="0.61462">
        <ele>136.161</ele>
        <time>2020-06-09T14:11:03Z</time>
      </trkpt>
      <trkpt lat="44.89859" lon="0.61465">
        <ele>136.108</ele>
        <time>2020-06-09T14:11:05Z</time>
      </trkpt>
      <trkpt lat="44.89859" lon="0.61469">
        <ele>136.055</ele>
        <time>2020-06-09T14:11:07Z</time>
      </trkpt>
      <trkpt lat="44.89859" lon="0.61473">
        <ele>136</ele>
        <time>2020-06-09T14:11:09Z</time>
      </trkpt>
      <trkpt lat="44.8986" lon="0.61479">
        <ele>135.889</ele>
        <time>2020-06-09T14:11:13Z</time>
      </trkpt>
      <trkpt lat="44.8986" lon="0.61486">
        <ele>135.807</ele>
        <time>2020-06-09T14:11:16Z</time>
      </trkpt>
      <trkpt lat="44.8986" lon="0.61492">
        <ele>135.752</ele>
        <time>2020-06-09T14:11:18Z</time>
      </trkpt>
      <trkpt lat="44.89861" lon="0.61498">
        <ele>135.669</ele>
        <time>2020-06-09T14:11:21Z</time>
      </trkpt>
      <trkpt lat="44.89863" lon="0.61507">
        <ele>135.587</ele>
        <time>2020-06-09T14:11:24Z</time>
      </trkpt>
      <trkpt lat="44.89866" lon="0.61514">
        <ele>135.503</ele>
        <time>2020-06-09T14:11:27Z</time>
      </trkpt>
      <trkpt lat="44.89869" lon="0.61521">
        <ele>135.417</ele>
        <time>2020-06-09T14:11:30Z</time>
      </trkpt>
      <trkpt lat="44.8987" lon="0.61524">
        <ele>135.359</ele>
        <time>2020-06-09T14:11:32Z</time>
      </trkpt>
      <trkpt lat="44.89872" lon="0.6153">
        <ele>135.272</ele>
        <time>2020-06-09T14:11:35Z</time>
      </trkpt>
      <trkpt lat="44.89874" lon="0.61539">
        <ele>135.155</ele>
        <time>2020-06-09T14:11:39Z</time>
      </trkpt>
      <trkpt lat="44.89876" lon="0.61545">
        <ele>135.067</ele>
        <time>2020-06-09T14:11:42Z</time>
      </trkpt>
      <trkpt lat="44.89879" lon="0.61551">
        <ele>134.918</ele>
        <time>2020-06-09T14:11:47Z</time>
      </trkpt>
      <trkpt lat="44.89882" lon="0.61556">
        <ele>134.769</ele>
        <time>2020-06-09T14:11:52Z</time>
      </trkpt>
      <trkpt lat="44.89884" lon="0.61559">
        <ele>134.709</ele>
        <time>2020-06-09T14:11:54Z</time>
      </trkpt>
      <trkpt lat="44.89887" lon="0.61565">
        <ele>134.563</ele>
        <time>2020-06-09T14:11:59Z</time>
      </trkpt>
      <trkpt lat="44.89892" lon="0.61568">
        <ele>134.418</ele>
        <time>2020-06-09T14:12:04Z</time>
      </trkpt>
      <trkpt lat="44.89897" lon="0.61569">
        <ele>134.299</ele>
        <time>2020-06-09T14:12:08Z</time>
      </trkpt>
      <trkpt lat="44.89899" lon="0.6157">
        <ele>134.239</ele>
        <time>2020-06-09T14:12:10Z</time>
      </trkpt>
      <trkpt lat="44.89904" lon="0.61572">
        <ele>134.094</ele>
        <time>2020-06-09T14:12:15Z</time>
      </trkpt>
      <trkpt lat="44.89904" lon="0.61571">
        <ele>133.854</ele>
        <time>2020-06-09T14:12:24Z</time>
      </trkpt>
      <trkpt lat="44.89892" lon="0.61565">
        <ele>133.144</ele>
        <time>2020-06-09T14:13:58Z</time>
      </trkpt>
      <trkpt lat="44.89889" lon="0.61564">
        <ele>133.071</ele>
        <time>2020-06-09T14:14:00Z</time>
      </trkpt>
      <trkpt lat="44.89884" lon="0.61566">
        <ele>132.932</ele>
        <time>2020-06-09T14:14:04Z</time>
      </trkpt>
      <trkpt lat="44.89881" lon="0.61571">
        <ele>132.834</ele>
        <time>2020-06-09T14:14:07Z</time>
      </trkpt>
      <trkpt lat="44.89878" lon="0.61578">
        <ele>132.742</ele>
        <time>2020-06-09T14:14:10Z</time>
      </trkpt>
      <trkpt lat="44.89876" lon="0.61581">
        <ele>132.683</ele>
        <time>2020-06-09T14:14:12Z</time>
      </trkpt>
      <trkpt lat="44.89872" lon="0.61586">
        <ele>132.57</ele>
        <time>2020-06-09T14:14:16Z</time>
      </trkpt>
      <trkpt lat="44.89867" lon="0.61589">
        <ele>132.465</ele>
        <time>2020-06-09T14:14:20Z</time>
      </trkpt>
      <trkpt lat="44.89862" lon="0.61593">
        <ele>132.366</ele>
        <time>2020-06-09T14:14:24Z</time>
      </trkpt>
      <trkpt lat="44.89858" lon="0.61598">
        <ele>132.27</ele>
        <time>2020-06-09T14:14:28Z</time>
      </trkpt>
      <trkpt lat="44.89855" lon="0.61604">
        <ele>132.152</ele>
        <time>2020-06-09T14:14:33Z</time>
      </trkpt>
      <trkpt lat="44.89853" lon="0.61607">
        <ele>132.107</ele>
        <time>2020-06-09T14:14:35Z</time>
      </trkpt>
      <trkpt lat="44.89851" lon="0.61609">
        <ele>132.064</ele>
        <time>2020-06-09T14:14:37Z</time>
      </trkpt>
      <trkpt lat="44.89847" lon="0.61614">
        <ele>131.984</ele>
        <time>2020-06-09T14:14:41Z</time>
      </trkpt>
      <trkpt lat="44.89842" lon="0.61617">
        <ele>131.932</ele>
        <time>2020-06-09T14:14:44Z</time>
      </trkpt>
      <trkpt lat="44.89837" lon="0.61621">
        <ele>131.871</ele>
        <time>2020-06-09T14:14:48Z</time>
      </trkpt>
      <trkpt lat="44.89832" lon="0.61624">
        <ele>131.819</ele>
        <time>2020-06-09T14:14:52Z</time>
      </trkpt>
      <trkpt lat="44.89827" lon="0.61629">
        <ele>131.771</ele>
        <time>2020-06-09T14:14:56Z</time>
      </trkpt>
      <trkpt lat="44.89823" lon="0.61635">
        <ele>131.727</ele>
        <time>2020-06-09T14:15:00Z</time>
      </trkpt>
      <trkpt lat="44.8982" lon="0.61638">
        <ele>131.708</ele>
        <time>2020-06-09T14:15:02Z</time>
      </trkpt>
      <trkpt lat="44.89817" lon="0.61644">
        <ele>131.681</ele>
        <time>2020-06-09T14:15:05Z</time>
      </trkpt>
      <trkpt lat="44.89817" lon="0.61644">
        <ele>131.681</ele>
        <time>2020-06-09T14:15:11Z</time>
      </trkpt>
      <trkpt lat="44.89817" lon="0.61644">
        <ele>131.681</ele>
        <time>2020-06-09T14:15:12Z</time>
      </trkpt>
      <trkpt lat="44.89811" lon="0.61647">
        <ele>131.57</ele>
        <time>2020-06-09T14:16:09Z</time>
      </trkpt>
      <trkpt lat="44.89807" lon="0.61653">
        <ele>131.526</ele>
        <time>2020-06-09T14:16:14Z</time>
      </trkpt>
      <trkpt lat="44.89805" lon="0.61655">
        <ele>131.51</ele>
        <time>2020-06-09T14:16:16Z</time>
      </trkpt>
      <trkpt lat="44.89803" lon="0.61657">
        <ele>131.495</ele>
        <time>2020-06-09T14:16:18Z</time>
      </trkpt>
      <trkpt lat="44.898" lon="0.6166">
        <ele>131.482</ele>
        <time>2020-06-09T14:16:20Z</time>
      </trkpt>
      <trkpt lat="44.89798" lon="0.61663">
        <ele>131.47</ele>
        <time>2020-06-09T14:16:22Z</time>
      </trkpt>
      <trkpt lat="44.89792" lon="0.61669">
        <ele>131.455</ele>
        <time>2020-06-09T14:16:25Z</time>
      </trkpt>
      <trkpt lat="44.89789" lon="0.61674">
        <ele>131.442</ele>
        <time>2020-06-09T14:16:28Z</time>
      </trkpt>
      <trkpt lat="44.89786" lon="0.61678">
        <ele>131.436</ele>
        <time>2020-06-09T14:16:30Z</time>
      </trkpt>
      <trkpt lat="44.89784" lon="0.61681">
        <ele>131.432</ele>
        <time>2020-06-09T14:16:32Z</time>
      </trkpt>
      <trkpt lat="44.89782" lon="0.61685">
        <ele>131.429</ele>
        <time>2020-06-09T14:16:34Z</time>
      </trkpt>
      <trkpt lat="44.8978" lon="0.61689">
        <ele>131.427</ele>
        <time>2020-06-09T14:16:36Z</time>
      </trkpt>
      <trkpt lat="44.89777" lon="0.61695">
        <ele>131.427</ele>
        <time>2020-06-09T14:16:40Z</time>
      </trkpt>
      <trkpt lat="44.89774" lon="0.617">
        <ele>131.426</ele>
        <time>2020-06-09T14:16:43Z</time>
      </trkpt>
      <trkpt lat="44.8977" lon="0.61706">
        <ele>131.424</ele>
        <time>2020-06-09T14:16:46Z</time>
      </trkpt>
      <trkpt lat="44.89768" lon="0.61709">
        <ele>131.421</ele>
        <time>2020-06-09T14:16:48Z</time>
      </trkpt>
      <trkpt lat="44.89767" lon="0.61713">
        <ele>131.417</ele>
        <time>2020-06-09T14:16:50Z</time>
      </trkpt>
      <trkpt lat="44.89765" lon="0.61719">
        <ele>131.408</ele>
        <time>2020-06-09T14:16:54Z</time>
      </trkpt>
      <trkpt lat="44.89762" lon="0.61724">
        <ele>131.398</ele>
        <time>2020-06-09T14:16:57Z</time>
      </trkpt>
      <trkpt lat="44.89759" lon="0.61729">
        <ele>131.384</ele>
        <time>2020-06-09T14:17:00Z</time>
      </trkpt>
      <trkpt lat="44.89756" lon="0.61736">
        <ele>131.35</ele>
        <time>2020-06-09T14:17:05Z</time>
      </trkpt>
      <trkpt lat="44.89752" lon="0.6174">
        <ele>131.315</ele>
        <time>2020-06-09T14:17:10Z</time>
      </trkpt>
      <trkpt lat="44.89749" lon="0.61743">
        <ele>131.291</ele>
        <time>2020-06-09T14:17:13Z</time>
      </trkpt>
      <trkpt lat="44.89745" lon="0.61744">
        <ele>131.265</ele>
        <time>2020-06-09T14:17:16Z</time>
      </trkpt>
      <trkpt lat="44.89741" lon="0.61745">
        <ele>131.238</ele>
        <time>2020-06-09T14:17:19Z</time>
      </trkpt>
      <trkpt lat="44.89738" lon="0.61746">
        <ele>131.22</ele>
        <time>2020-06-09T14:17:21Z</time>
      </trkpt>
      <trkpt lat="44.89732" lon="0.61746">
        <ele>131.19</ele>
        <time>2020-06-09T14:17:24Z</time>
      </trkpt>
      <trkpt lat="44.89729" lon="0.61747">
        <ele>131.17</ele>
        <time>2020-06-09T14:17:26Z</time>
      </trkpt>
      <trkpt lat="44.89723" lon="0.61746">
        <ele>131.129</ele>
        <time>2020-06-09T14:17:30Z</time>
      </trkpt>
      <trkpt lat="44.8972" lon="0.61745">
        <ele>131.098</ele>
        <time>2020-06-09T14:17:33Z</time>
      </trkpt>
      <trkpt lat="44.89715" lon="0.61746">
        <ele>131.058</ele>
        <time>2020-06-09T14:17:37Z</time>
      </trkpt>
      <trkpt lat="44.89711" lon="0.61741">
        <ele>131.009</ele>
        <time>2020-06-09T14:17:42Z</time>
      </trkpt>
      <trkpt lat="44.89707" lon="0.61735">
        <ele>130.975</ele>
        <time>2020-06-09T14:17:46Z</time>
      </trkpt>
      <trkpt lat="44.89704" lon="0.61731">
        <ele>130.954</ele>
        <time>2020-06-09T14:17:49Z</time>
      </trkpt>
      <trkpt lat="44.89701" lon="0.61728">
        <ele>130.942</ele>
        <time>2020-06-09T14:17:51Z</time>
      </trkpt>
      <trkpt lat="44.89697" lon="0.61724">
        <ele>130.923</ele>
        <time>2020-06-09T14:17:55Z</time>
      </trkpt>
      <trkpt lat="44.89694" lon="0.61719">
        <ele>130.908</ele>
        <time>2020-06-09T14:17:59Z</time>
      </trkpt>
      <trkpt lat="44.89689" lon="0.61713">
        <ele>130.899</ele>
        <time>2020-06-09T14:18:02Z</time>
      </trkpt>
      <trkpt lat="44.89686" lon="0.61709">
        <ele>130.892</ele>
        <time>2020-06-09T14:18:04Z</time>
      </trkpt>
      <trkpt lat="44.89682" lon="0.61704">
        <ele>130.881</ele>
        <time>2020-06-09T14:18:07Z</time>
      </trkpt>
      <trkpt lat="44.8968" lon="0.61701">
        <ele>130.874</ele>
        <time>2020-06-09T14:18:09Z</time>
      </trkpt>
      <trkpt lat="44.89677" lon="0.61695">
        <ele>130.861</ele>
        <time>2020-06-09T14:18:13Z</time>
      </trkpt>
      <trkpt lat="44.89675" lon="0.6169">
        <ele>130.851</ele>
        <time>2020-06-09T14:18:16Z</time>
      </trkpt>
      <trkpt lat="44.89673" lon="0.61686">
        <ele>130.844</ele>
        <time>2020-06-09T14:18:18Z</time>
      </trkpt>
      <trkpt lat="44.89671" lon="0.61679">
        <ele>130.836</ele>
        <time>2020-06-09T14:18:21Z</time>
      </trkpt>
      <trkpt lat="44.89669" lon="0.61672">
        <ele>130.827</ele>
        <time>2020-06-09T14:18:25Z</time>
      </trkpt>
      <trkpt lat="44.89668" lon="0.61665">
        <ele>130.82</ele>
        <time>2020-06-09T14:18:28Z</time>
      </trkpt>
      <trkpt lat="44.89669" lon="0.61658">
        <ele>130.813</ele>
        <time>2020-06-09T14:18:32Z</time>
      </trkpt>
      <trkpt lat="44.89669" lon="0.61649">
        <ele>130.806</ele>
        <time>2020-06-09T14:18:36Z</time>
      </trkpt>
      <trkpt lat="44.89667" lon="0.61642">
        <ele>130.804</ele>
        <time>2020-06-09T14:18:40Z</time>
      </trkpt>
      <trkpt lat="44.89668" lon="0.61635">
        <ele>130.8</ele>
        <time>2020-06-09T14:18:46Z</time>
      </trkpt>
      <trkpt lat="44.89667" lon="0.61626">
        <ele>130.8</ele>
        <time>2020-06-09T14:18:49Z</time>
      </trkpt>
      <trkpt lat="44.89666" lon="0.6162">
        <ele>130.805</ele>
        <time>2020-06-09T14:18:52Z</time>
      </trkpt>
      <trkpt lat="44.89667" lon="0.61613">
        <ele>130.812</ele>
        <time>2020-06-09T14:18:54Z</time>
      </trkpt>
      <trkpt lat="44.89669" lon="0.61607">
        <ele>130.826</ele>
        <time>2020-06-09T14:18:57Z</time>
      </trkpt>
      <trkpt lat="44.89671" lon="0.616">
        <ele>130.846</ele>
        <time>2020-06-09T14:19:01Z</time>
      </trkpt>
      <trkpt lat="44.89669" lon="0.61593">
        <ele>130.862</ele>
        <time>2020-06-09T14:19:04Z</time>
      </trkpt>
      <trkpt lat="44.89668" lon="0.61589">
        <ele>130.867</ele>
        <time>2020-06-09T14:19:05Z</time>
      </trkpt>
      <trkpt lat="44.89668" lon="0.61584">
        <ele>130.878</ele>
        <time>2020-06-09T14:19:07Z</time>
      </trkpt>
      <trkpt lat="44.89667" lon="0.61576">
        <ele>130.894</ele>
        <time>2020-06-09T14:19:10Z</time>
      </trkpt>
      <trkpt lat="44.89667" lon="0.61573">
        <ele>130.904</ele>
        <time>2020-06-09T14:19:12Z</time>
      </trkpt>
      <trkpt lat="44.89665" lon="0.61566">
        <ele>130.925</ele>
        <time>2020-06-09T14:19:16Z</time>
      </trkpt>
      <trkpt lat="44.89664" lon="0.61561">
        <ele>130.937</ele>
        <time>2020-06-09T14:19:18Z</time>
      </trkpt>
      <trkpt lat="44.89664" lon="0.61554">
        <ele>130.954</ele>
        <time>2020-06-09T14:19:21Z</time>
      </trkpt>
      <trkpt lat="44.89663" lon="0.61549">
        <ele>130.966</ele>
        <time>2020-06-09T14:19:23Z</time>
      </trkpt>
      <trkpt lat="44.89662" lon="0.61545">
        <ele>130.972</ele>
        <time>2020-06-09T14:19:24Z</time>
      </trkpt>
      <trkpt lat="44.89662" lon="0.61542">
        <ele>130.985</ele>
        <time>2020-06-09T14:19:26Z</time>
      </trkpt>
      <trkpt lat="44.89661" lon="0.61537">
        <ele>130.998</ele>
        <time>2020-06-09T14:19:28Z</time>
      </trkpt>
      <trkpt lat="44.89661" lon="0.6153">
        <ele>131.017</ele>
        <time>2020-06-09T14:19:31Z</time>
      </trkpt>
      <trkpt lat="44.89661" lon="0.61521">
        <ele>131.035</ele>
        <time>2020-06-09T14:19:34Z</time>
      </trkpt>
      <trkpt lat="44.8966" lon="0.61516">
        <ele>131.051</ele>
        <time>2020-06-09T14:19:37Z</time>
      </trkpt>
      <trkpt lat="44.89661" lon="0.61509">
        <ele>131.078</ele>
        <time>2020-06-09T14:19:42Z</time>
      </trkpt>
      <trkpt lat="44.89661" lon="0.61502">
        <ele>131.093</ele>
        <time>2020-06-09T14:19:45Z</time>
      </trkpt>
      <trkpt lat="44.8966" lon="0.61495">
        <ele>131.106</ele>
        <time>2020-06-09T14:19:48Z</time>
      </trkpt>
      <trkpt lat="44.89659" lon="0.61489">
        <ele>131.119</ele>
        <time>2020-06-09T14:19:51Z</time>
      </trkpt>
      <trkpt lat="44.89656" lon="0.61481">
        <ele>131.133</ele>
        <time>2020-06-09T14:19:54Z</time>
      </trkpt>
      <trkpt lat="44.89655" lon="0.61475">
        <ele>131.151</ele>
        <time>2020-06-09T14:19:58Z</time>
      </trkpt>
      <trkpt lat="44.89654" lon="0.61467">
        <ele>131.166</ele>
        <time>2020-06-09T14:20:02Z</time>
      </trkpt>
      <trkpt lat="44.89654" lon="0.61459">
        <ele>131.176</ele>
        <time>2020-06-09T14:20:05Z</time>
      </trkpt>
      <trkpt lat="44.89654" lon="0.61455">
        <ele>131.182</ele>
        <time>2020-06-09T14:20:08Z</time>
      </trkpt>
      <trkpt lat="44.89654" lon="0.61446">
        <ele>131.193</ele>
        <time>2020-06-09T14:20:14Z</time>
      </trkpt>
      <trkpt lat="44.89653" lon="0.61438">
        <ele>131.2</ele>
        <time>2020-06-09T14:20:19Z</time>
      </trkpt>
      <trkpt lat="44.89649" lon="0.61432">
        <ele>131.204</ele>
        <time>2020-06-09T14:20:23Z</time>
      </trkpt>
      <trkpt lat="44.89645" lon="0.61423">
        <ele>131.203</ele>
        <time>2020-06-09T14:20:28Z</time>
      </trkpt>
      <trkpt lat="44.89644" lon="0.61419">
        <ele>131.201</ele>
        <time>2020-06-09T14:20:30Z</time>
      </trkpt>
      <trkpt lat="44.89644" lon="0.6141">
        <ele>131.202</ele>
        <time>2020-06-09T14:20:32Z</time>
      </trkpt>
      <trkpt lat="44.89645" lon="0.61399">
        <ele>131.212</ele>
        <time>2020-06-09T14:20:35Z</time>
      </trkpt>
      <trkpt lat="44.89646" lon="0.61396">
        <ele>131.217</ele>
        <time>2020-06-09T14:20:36Z</time>
      </trkpt>
      <trkpt lat="44.89646" lon="0.61389">
        <ele>131.236</ele>
        <time>2020-06-09T14:20:40Z</time>
      </trkpt>
      <trkpt lat="44.89646" lon="0.61384">
        <ele>131.245</ele>
        <time>2020-06-09T14:20:42Z</time>
      </trkpt>
      <trkpt lat="44.89646" lon="0.61379">
        <ele>131.253</ele>
        <time>2020-06-09T14:20:44Z</time>
      </trkpt>
      <trkpt lat="44.89646" lon="0.61375">
        <ele>131.257</ele>
        <time>2020-06-09T14:20:45Z</time>
      </trkpt>
      <trkpt lat="44.89646" lon="0.61369">
        <ele>131.266</ele>
        <time>2020-06-09T14:20:47Z</time>
      </trkpt>
      <trkpt lat="44.89646" lon="0.61362">
        <ele>131.276</ele>
        <time>2020-06-09T14:20:49Z</time>
      </trkpt>
      <trkpt lat="44.89647" lon="0.61355">
        <ele>131.297</ele>
        <time>2020-06-09T14:20:53Z</time>
      </trkpt>
      <trkpt lat="44.89648" lon="0.61351">
        <ele>131.306</ele>
        <time>2020-06-09T14:20:55Z</time>
      </trkpt>
      <trkpt lat="44.8965" lon="0.61344">
        <ele>131.323</ele>
        <time>2020-06-09T14:20:59Z</time>
      </trkpt>
      <trkpt lat="44.89651" lon="0.61338">
        <ele>131.335</ele>
        <time>2020-06-09T14:21:02Z</time>
      </trkpt>
      <trkpt lat="44.89651" lon="0.61329">
        <ele>131.349</ele>
        <time>2020-06-09T14:21:06Z</time>
      </trkpt>
      <trkpt lat="44.89651" lon="0.61318">
        <ele>131.362</ele>
        <time>2020-06-09T14:21:10Z</time>
      </trkpt>
      <trkpt lat="44.8965" lon="0.61309">
        <ele>131.373</ele>
        <time>2020-06-09T14:21:13Z</time>
      </trkpt>
      <trkpt lat="44.89651" lon="0.61301">
        <ele>131.39</ele>
        <time>2020-06-09T14:21:17Z</time>
      </trkpt>
      <trkpt lat="44.89651" lon="0.61296">
        <ele>131.404</ele>
        <time>2020-06-09T14:21:20Z</time>
      </trkpt>
      <trkpt lat="44.89652" lon="0.61288">
        <ele>131.433</ele>
        <time>2020-06-09T14:21:25Z</time>
      </trkpt>
      <trkpt lat="44.89652" lon="0.61281">
        <ele>131.453</ele>
        <time>2020-06-09T14:21:28Z</time>
      </trkpt>
      <trkpt lat="44.89653" lon="0.61272">
        <ele>131.473</ele>
        <time>2020-06-09T14:21:31Z</time>
      </trkpt>
      <trkpt lat="44.89653" lon="0.61263">
        <ele>131.495</ele>
        <time>2020-06-09T14:21:34Z</time>
      </trkpt>
      <trkpt lat="44.89653" lon="0.61257">
        <ele>131.52</ele>
        <time>2020-06-09T14:21:37Z</time>
      </trkpt>
      <trkpt lat="44.89653" lon="0.61253">
        <ele>131.546</ele>
        <time>2020-06-09T14:21:40Z</time>
      </trkpt>
      <trkpt lat="44.89652" lon="0.61246">
        <ele>131.576</ele>
        <time>2020-06-09T14:21:44Z</time>
      </trkpt>
      <trkpt lat="44.89653" lon="0.61237">
        <ele>131.598</ele>
        <time>2020-06-09T14:21:47Z</time>
      </trkpt>
      <trkpt lat="44.89651" lon="0.6123">
        <ele>131.623</ele>
        <time>2020-06-09T14:21:51Z</time>
      </trkpt>
      <trkpt lat="44.89651" lon="0.61222">
        <ele>131.65</ele>
        <time>2020-06-09T14:21:55Z</time>
      </trkpt>
      <trkpt lat="44.89651" lon="0.61218">
        <ele>131.663</ele>
        <time>2020-06-09T14:21:57Z</time>
      </trkpt>
      <trkpt lat="44.89651" lon="0.61214">
        <ele>131.676</ele>
        <time>2020-06-09T14:21:59Z</time>
      </trkpt>
      <trkpt lat="44.89652" lon="0.61207">
        <ele>131.709</ele>
        <time>2020-06-09T14:22:04Z</time>
      </trkpt>
      <trkpt lat="44.89651" lon="0.612">
        <ele>131.733</ele>
        <time>2020-06-09T14:22:08Z</time>
      </trkpt>
      <trkpt lat="44.89649" lon="0.61193">
        <ele>131.755</ele>
        <time>2020-06-09T14:22:12Z</time>
      </trkpt>
      <trkpt lat="44.89648" lon="0.61185">
        <ele>131.779</ele>
        <time>2020-06-09T14:22:16Z</time>
      </trkpt>
      <trkpt lat="44.89646" lon="0.61177">
        <ele>131.8</ele>
        <time>2020-06-09T14:22:20Z</time>
      </trkpt>
      <trkpt lat="44.89643" lon="0.6117">
        <ele>131.814</ele>
        <time>2020-06-09T14:22:23Z</time>
      </trkpt>
      <trkpt lat="44.89642" lon="0.61166">
        <ele>131.821</ele>
        <time>2020-06-09T14:22:26Z</time>
      </trkpt>
      <trkpt lat="44.89643" lon="0.6117">
        <ele>131.814</ele>
        <time>2020-06-09T14:22:34Z</time>
      </trkpt>
      <trkpt lat="44.89639" lon="0.61176">
        <ele>131.837</ele>
        <time>2020-06-09T14:22:35Z</time>
      </trkpt>
      <trkpt lat="44.89636" lon="0.61182">
        <ele>131.843</ele>
        <time>2020-06-09T14:22:39Z</time>
      </trkpt>
      <trkpt lat="44.89633" lon="0.61188">
        <ele>131.85</ele>
        <time>2020-06-09T14:22:42Z</time>
      </trkpt>
      <trkpt lat="44.89632" lon="0.61191">
        <ele>131.857</ele>
        <time>2020-06-09T14:22:44Z</time>
      </trkpt>
      <trkpt lat="44.89631" lon="0.61198">
        <ele>131.874</ele>
        <time>2020-06-09T14:22:48Z</time>
      </trkpt>
      <trkpt lat="44.89627" lon="0.61204">
        <ele>131.901</ele>
        <time>2020-06-09T14:22:52Z</time>
      </trkpt>
      <trkpt lat="44.89625" lon="0.61206">
        <ele>131.919</ele>
        <time>2020-06-09T14:22:54Z</time>
      </trkpt>
      <trkpt lat="44.89623" lon="0.61214">
        <ele>131.957</ele>
        <time>2020-06-09T14:22:58Z</time>
      </trkpt>
      <trkpt lat="44.89621" lon="0.6122">
        <ele>131.988</ele>
        <time>2020-06-09T14:23:01Z</time>
      </trkpt>
      <trkpt lat="44.89619" lon="0.61226">
        <ele>132.034</ele>
        <time>2020-06-09T14:23:05Z</time>
      </trkpt>
      <trkpt lat="44.89618" lon="0.61231">
        <ele>132.072</ele>
        <time>2020-06-09T14:23:08Z</time>
      </trkpt>
      <trkpt lat="44.89616" lon="0.61234">
        <ele>132.098</ele>
        <time>2020-06-09T14:23:10Z</time>
      </trkpt>
      <trkpt lat="44.89615" lon="0.61237">
        <ele>132.125</ele>
        <time>2020-06-09T14:23:12Z</time>
      </trkpt>
      <trkpt lat="44.89614" lon="0.6124">
        <ele>132.153</ele>
        <time>2020-06-09T14:23:14Z</time>
      </trkpt>
      <trkpt lat="44.89611" lon="0.61246">
        <ele>132.226</ele>
        <time>2020-06-09T14:23:19Z</time>
      </trkpt>
      <trkpt lat="44.89609" lon="0.61249">
        <ele>132.29</ele>
        <time>2020-06-09T14:23:23Z</time>
      </trkpt>
      <trkpt lat="44.89607" lon="0.61252">
        <ele>132.341</ele>
        <time>2020-06-09T14:23:26Z</time>
      </trkpt>
      <trkpt lat="44.89602" lon="0.61258">
        <ele>132.406</ele>
        <time>2020-06-09T14:23:30Z</time>
      </trkpt>
      <trkpt lat="44.89598" lon="0.61264">
        <ele>132.454</ele>
        <time>2020-06-09T14:23:33Z</time>
      </trkpt>
      <trkpt lat="44.89593" lon="0.61268">
        <ele>132.502</ele>
        <time>2020-06-09T14:23:36Z</time>
      </trkpt>
      <trkpt lat="44.8959" lon="0.61273">
        <ele>132.55</ele>
        <time>2020-06-09T14:23:40Z</time>
      </trkpt>
      <trkpt lat="44.89589" lon="0.61276">
        <ele>132.608</ele>
        <time>2020-06-09T14:23:44Z</time>
      </trkpt>
      <trkpt lat="44.89582" lon="0.61283">
        <ele>132.713</ele>
        <time>2020-06-09T14:23:52Z</time>
      </trkpt>
      <trkpt lat="44.89581" lon="0.61293">
        <ele>132.75</ele>
        <time>2020-06-09T14:23:55Z</time>
      </trkpt>
      <trkpt lat="44.89581" lon="0.61302">
        <ele>132.816</ele>
        <time>2020-06-09T14:24:01Z</time>
      </trkpt>
      <trkpt lat="44.89578" lon="0.61309">
        <ele>132.856</ele>
        <time>2020-06-09T14:24:05Z</time>
      </trkpt>
      <trkpt lat="44.89573" lon="0.61313">
        <ele>132.895</ele>
        <time>2020-06-09T14:24:09Z</time>
      </trkpt>
      <trkpt lat="44.8957" lon="0.61318">
        <ele>132.931</ele>
        <time>2020-06-09T14:24:13Z</time>
      </trkpt>
      <trkpt lat="44.89565" lon="0.6132">
        <ele>132.965</ele>
        <time>2020-06-09T14:24:17Z</time>
      </trkpt>
      <trkpt lat="44.89561" lon="0.61324">
        <ele>133.006</ele>
        <time>2020-06-09T14:24:22Z</time>
      </trkpt>
      <trkpt lat="44.89557" lon="0.61327">
        <ele>133.035</ele>
        <time>2020-06-09T14:24:26Z</time>
      </trkpt>
      <trkpt lat="44.89553" lon="0.61333">
        <ele>133.064</ele>
        <time>2020-06-09T14:24:30Z</time>
      </trkpt>
      <trkpt lat="44.8955" lon="0.61337">
        <ele>133.078</ele>
        <time>2020-06-09T14:24:32Z</time>
      </trkpt>
      <trkpt lat="44.89545" lon="0.61342">
        <ele>133.107</ele>
        <time>2020-06-09T14:24:36Z</time>
      </trkpt>
      <trkpt lat="44.89541" lon="0.61346">
        <ele>133.155</ele>
        <time>2020-06-09T14:24:43Z</time>
      </trkpt>
      <trkpt lat="44.89536" lon="0.61349">
        <ele>133.195</ele>
        <time>2020-06-09T14:24:49Z</time>
      </trkpt>
      <trkpt lat="44.89531" lon="0.61352">
        <ele>133.23</ele>
        <time>2020-06-09T14:24:54Z</time>
      </trkpt>
      <trkpt lat="44.89526" lon="0.61353">
        <ele>133.283</ele>
        <time>2020-06-09T14:25:03Z</time>
      </trkpt>
      <trkpt lat="44.89521" lon="0.61354">
        <ele>133.3</ele>
        <time>2020-06-09T14:25:06Z</time>
      </trkpt>
      <trkpt lat="44.89517" lon="0.61358">
        <ele>133.319</ele>
        <time>2020-06-09T14:25:09Z</time>
      </trkpt>
      <trkpt lat="44.89511" lon="0.61362">
        <ele>133.355</ele>
        <time>2020-06-09T14:25:14Z</time>
      </trkpt>
      <trkpt lat="44.89507" lon="0.61366">
        <ele>133.381</ele>
        <time>2020-06-09T14:25:17Z</time>
      </trkpt>
      <trkpt lat="44.89502" lon="0.61369">
        <ele>133.422</ele>
        <time>2020-06-09T14:25:21Z</time>
      </trkpt>
      <trkpt lat="44.89498" lon="0.61374">
        <ele>133.465</ele>
        <time>2020-06-09T14:25:25Z</time>
      </trkpt>
      <trkpt lat="44.89496" lon="0.61377">
        <ele>133.51</ele>
        <time>2020-06-09T14:25:29Z</time>
      </trkpt>
      <trkpt lat="44.89491" lon="0.61383">
        <ele>133.547</ele>
        <time>2020-06-09T14:25:32Z</time>
      </trkpt>
      <trkpt lat="44.89489" lon="0.61389">
        <ele>133.574</ele>
        <time>2020-06-09T14:25:34Z</time>
      </trkpt>
      <trkpt lat="44.89488" lon="0.61393">
        <ele>133.587</ele>
        <time>2020-06-09T14:25:35Z</time>
      </trkpt>
      <trkpt lat="44.89486" lon="0.61402">
        <ele>133.63</ele>
        <time>2020-06-09T14:25:38Z</time>
      </trkpt>
      <trkpt lat="44.89485" lon="0.61407">
        <ele>133.658</ele>
        <time>2020-06-09T14:25:40Z</time>
      </trkpt>
      <trkpt lat="44.89484" lon="0.61414">
        <ele>133.698</ele>
        <time>2020-06-09T14:25:43Z</time>
      </trkpt>
      <trkpt lat="44.89483" lon="0.61418">
        <ele>133.726</ele>
        <time>2020-06-09T14:25:45Z</time>
      </trkpt>
      <trkpt lat="44.89481" lon="0.61426">
        <ele>133.785</ele>
        <time>2020-06-09T14:25:49Z</time>
      </trkpt>
      <trkpt lat="44.8948" lon="0.6143">
        <ele>133.817</ele>
        <time>2020-06-09T14:25:51Z</time>
      </trkpt>
      <trkpt lat="44.89479" lon="0.61434">
        <ele>133.85</ele>
        <time>2020-06-09T14:25:53Z</time>
      </trkpt>
      <trkpt lat="44.89476" lon="0.6144">
        <ele>133.942</ele>
        <time>2020-06-09T14:25:58Z</time>
      </trkpt>
      <trkpt lat="44.89475" lon="0.61446">
        <ele>134.022</ele>
        <time>2020-06-09T14:26:02Z</time>
      </trkpt>
      <trkpt lat="44.89472" lon="0.61452">
        <ele>134.086</ele>
        <time>2020-06-09T14:26:05Z</time>
      </trkpt>
      <trkpt lat="44.89471" lon="0.6146">
        <ele>134.154</ele>
        <time>2020-06-09T14:26:08Z</time>
      </trkpt>
      <trkpt lat="44.89471" lon="0.61468">
        <ele>134.227</ele>
        <time>2020-06-09T14:26:11Z</time>
      </trkpt>
      <trkpt lat="44.8947" lon="0.61475">
        <ele>134.329</ele>
        <time>2020-06-09T14:26:15Z</time>
      </trkpt>
      <trkpt lat="44.89466" lon="0.61481">
        <ele>134.463</ele>
        <time>2020-06-09T14:26:20Z</time>
      </trkpt>
      <trkpt lat="44.89462" lon="0.61485">
        <ele>134.572</ele>
        <time>2020-06-09T14:26:24Z</time>
      </trkpt>
      <trkpt lat="44.89457" lon="0.61486">
        <ele>134.653</ele>
        <time>2020-06-09T14:26:27Z</time>
      </trkpt>
      <trkpt lat="44.89454" lon="0.61487">
        <ele>134.706</ele>
        <time>2020-06-09T14:26:29Z</time>
      </trkpt>
      <trkpt lat="44.89449" lon="0.61486">
        <ele>134.784</ele>
        <time>2020-06-09T14:26:32Z</time>
      </trkpt>
      <trkpt lat="44.89445" lon="0.61486">
        <ele>134.835</ele>
        <time>2020-06-09T14:26:34Z</time>
      </trkpt>
      <trkpt lat="44.8944" lon="0.61486">
        <ele>134.908</ele>
        <time>2020-06-09T14:26:37Z</time>
      </trkpt>
      <trkpt lat="44.89435" lon="0.61483">
        <ele>134.98</ele>
        <time>2020-06-09T14:26:40Z</time>
      </trkpt>
      <trkpt lat="44.8943" lon="0.6148">
        <ele>135.076</ele>
        <time>2020-06-09T14:26:44Z</time>
      </trkpt>
      <trkpt lat="44.89428" lon="0.61478">
        <ele>135.122</ele>
        <time>2020-06-09T14:26:46Z</time>
      </trkpt>
      <trkpt lat="44.89423" lon="0.61476">
        <ele>135.211</ele>
        <time>2020-06-09T14:26:50Z</time>
      </trkpt>
      <trkpt lat="44.89418" lon="0.61477">
        <ele>135.3</ele>
        <time>2020-06-09T14:26:54Z</time>
      </trkpt>
      <trkpt lat="44.89414" lon="0.61477">
        <ele>135.344</ele>
        <time>2020-06-09T14:26:56Z</time>
      </trkpt>
      <trkpt lat="44.89411" lon="0.61477">
        <ele>135.387</ele>
        <time>2020-06-09T14:26:58Z</time>
      </trkpt>
      <trkpt lat="44.89405" lon="0.61478">
        <ele>135.45</ele>
        <time>2020-06-09T14:27:01Z</time>
      </trkpt>
      <trkpt lat="44.894" lon="0.61478">
        <ele>135.49</ele>
        <time>2020-06-09T14:27:03Z</time>
      </trkpt>
      <trkpt lat="44.89396" lon="0.61478">
        <ele>135.528</ele>
        <time>2020-06-09T14:27:05Z</time>
      </trkpt>
      <trkpt lat="44.89393" lon="0.61478">
        <ele>135.565</ele>
        <time>2020-06-09T14:27:07Z</time>
      </trkpt>
      <trkpt lat="44.89388" lon="0.61479">
        <ele>135.62</ele>
        <time>2020-06-09T14:27:10Z</time>
      </trkpt>
      <trkpt lat="44.89384" lon="0.61482">
        <ele>135.671</ele>
        <time>2020-06-09T14:27:13Z</time>
      </trkpt>
      <trkpt lat="44.89381" lon="0.61483">
        <ele>135.704</ele>
        <time>2020-06-09T14:27:15Z</time>
      </trkpt>
      <trkpt lat="44.89376" lon="0.61483">
        <ele>135.75</ele>
        <time>2020-06-09T14:27:18Z</time>
      </trkpt>
      <trkpt lat="44.89373" lon="0.61483">
        <ele>135.778</ele>
        <time>2020-06-09T14:27:20Z</time>
      </trkpt>
      <trkpt lat="44.8937" lon="0.61483">
        <ele>135.805</ele>
        <time>2020-06-09T14:27:22Z</time>
      </trkpt>
      <trkpt lat="44.89364" lon="0.61484">
        <ele>135.843</ele>
        <time>2020-06-09T14:27:25Z</time>
      </trkpt>
      <trkpt lat="44.89361" lon="0.61485">
        <ele>135.867</ele>
        <time>2020-06-09T14:27:27Z</time>
      </trkpt>
      <trkpt lat="44.89357" lon="0.61486">
        <ele>135.89</ele>
        <time>2020-06-09T14:27:29Z</time>
      </trkpt>
      <trkpt lat="44.89354" lon="0.61487">
        <ele>135.913</ele>
        <time>2020-06-09T14:27:31Z</time>
      </trkpt>
      <trkpt lat="44.8935" lon="0.61487">
        <ele>135.937</ele>
        <time>2020-06-09T14:27:33Z</time>
      </trkpt>
      <trkpt lat="44.89346" lon="0.61489">
        <ele>135.975</ele>
        <time>2020-06-09T14:27:36Z</time>
      </trkpt>
      <trkpt lat="44.89341" lon="0.6149">
        <ele>136.012</ele>
        <time>2020-06-09T14:27:39Z</time>
      </trkpt>
      <trkpt lat="44.89336" lon="0.61492">
        <ele>136.047</ele>
        <time>2020-06-09T14:27:42Z</time>
      </trkpt>
      <trkpt lat="44.89332" lon="0.61494">
        <ele>136.068</ele>
        <time>2020-06-09T14:27:44Z</time>
      </trkpt>
      <trkpt lat="44.89327" lon="0.61496">
        <ele>136.098</ele>
        <time>2020-06-09T14:27:47Z</time>
      </trkpt>
      <trkpt lat="44.89322" lon="0.61497">
        <ele>136.137</ele>
        <time>2020-06-09T14:27:51Z</time>
      </trkpt>
      <trkpt lat="44.89316" lon="0.61498">
        <ele>136.177</ele>
        <time>2020-06-09T14:27:55Z</time>
      </trkpt>
      <trkpt lat="44.89312" lon="0.61499">
        <ele>136.21</ele>
        <time>2020-06-09T14:27:58Z</time>
      </trkpt>
      <trkpt lat="44.89306" lon="0.61499">
        <ele>136.243</ele>
        <time>2020-06-09T14:28:01Z</time>
      </trkpt>
      <trkpt lat="44.89303" lon="0.61499">
        <ele>136.254</ele>
        <time>2020-06-09T14:28:02Z</time>
      </trkpt>
      <trkpt lat="44.89299" lon="0.61499">
        <ele>136.273</ele>
        <time>2020-06-09T14:28:04Z</time>
      </trkpt>
      <trkpt lat="44.89294" lon="0.61499">
        <ele>136.302</ele>
        <time>2020-06-09T14:28:07Z</time>
      </trkpt>
      <trkpt lat="44.89289" lon="0.615">
        <ele>136.33</ele>
        <time>2020-06-09T14:28:10Z</time>
      </trkpt>
      <trkpt lat="44.89286" lon="0.615">
        <ele>136.348</ele>
        <time>2020-06-09T14:28:12Z</time>
      </trkpt>
      <trkpt lat="44.89283" lon="0.615">
        <ele>136.366</ele>
        <time>2020-06-09T14:28:14Z</time>
      </trkpt>
      <trkpt lat="44.89281" lon="0.615">
        <ele>136.384</ele>
        <time>2020-06-09T14:28:16Z</time>
      </trkpt>
      <trkpt lat="44.89275" lon="0.61499">
        <ele>136.408</ele>
        <time>2020-06-09T14:28:19Z</time>
      </trkpt>
      <trkpt lat="44.89272" lon="0.61499">
        <ele>136.424</ele>
        <time>2020-06-09T14:28:21Z</time>
      </trkpt>
      <trkpt lat="44.89267" lon="0.61497">
        <ele>136.453</ele>
        <time>2020-06-09T14:28:25Z</time>
      </trkpt>
      <trkpt lat="44.89262" lon="0.61497">
        <ele>136.473</ele>
        <time>2020-06-09T14:28:28Z</time>
      </trkpt>
      <trkpt lat="44.89259" lon="0.61496">
        <ele>136.487</ele>
        <time>2020-06-09T14:28:30Z</time>
      </trkpt>
      <trkpt lat="44.89254" lon="0.61494">
        <ele>136.508</ele>
        <time>2020-06-09T14:28:33Z</time>
      </trkpt>
      <trkpt lat="44.8925" lon="0.61492">
        <ele>136.528</ele>
        <time>2020-06-09T14:28:36Z</time>
      </trkpt>
      <trkpt lat="44.89245" lon="0.61492">
        <ele>136.547</ele>
        <time>2020-06-09T14:28:39Z</time>
      </trkpt>
      <trkpt lat="44.8924" lon="0.61491">
        <ele>136.565</ele>
        <time>2020-06-09T14:28:42Z</time>
      </trkpt>
      <trkpt lat="44.89235" lon="0.61493">
        <ele>136.59</ele>
        <time>2020-06-09T14:28:46Z</time>
      </trkpt>
      <trkpt lat="44.89232" lon="0.61494">
        <ele>136.602</ele>
        <time>2020-06-09T14:28:48Z</time>
      </trkpt>
      <trkpt lat="44.89227" lon="0.61495">
        <ele>136.614</ele>
        <time>2020-06-09T14:28:50Z</time>
      </trkpt>
      <trkpt lat="44.89222" lon="0.61496">
        <ele>136.626</ele>
        <time>2020-06-09T14:28:52Z</time>
      </trkpt>
      <trkpt lat="44.89218" lon="0.61496">
        <ele>136.636</ele>
        <time>2020-06-09T14:28:54Z</time>
      </trkpt>
      <trkpt lat="44.89213" lon="0.61496">
        <ele>136.651</ele>
        <time>2020-06-09T14:28:57Z</time>
      </trkpt>
      <trkpt lat="44.89208" lon="0.61497">
        <ele>136.662</ele>
        <time>2020-06-09T14:29:00Z</time>
      </trkpt>
      <trkpt lat="44.89205" lon="0.61497">
        <ele>136.67</ele>
        <time>2020-06-09T14:29:02Z</time>
      </trkpt>
      <trkpt lat="44.89199" lon="0.61498">
        <ele>136.686</ele>
        <time>2020-06-09T14:29:06Z</time>
      </trkpt>
      <trkpt lat="44.89194" lon="0.61498">
        <ele>136.697</ele>
        <time>2020-06-09T14:29:09Z</time>
      </trkpt>
      <trkpt lat="44.89189" lon="0.61499">
        <ele>136.709</ele>
        <time>2020-06-09T14:29:12Z</time>
      </trkpt>
      <trkpt lat="44.89183" lon="0.61497">
        <ele>136.721</ele>
        <time>2020-06-09T14:29:15Z</time>
      </trkpt>
      <trkpt lat="44.8918" lon="0.61496">
        <ele>136.729</ele>
        <time>2020-06-09T14:29:17Z</time>
      </trkpt>
      <trkpt lat="44.89175" lon="0.61495">
        <ele>136.743</ele>
        <time>2020-06-09T14:29:20Z</time>
      </trkpt>
      <trkpt lat="44.8917" lon="0.61493">
        <ele>136.764</ele>
        <time>2020-06-09T14:29:24Z</time>
      </trkpt>
      <trkpt lat="44.89166" lon="0.61491">
        <ele>136.781</ele>
        <time>2020-06-09T14:29:27Z</time>
      </trkpt>
      <trkpt lat="44.8916" lon="0.61489">
        <ele>136.798</ele>
        <time>2020-06-09T14:29:30Z</time>
      </trkpt>
      <trkpt lat="44.89156" lon="0.61484">
        <ele>136.821</ele>
        <time>2020-06-09T14:29:34Z</time>
      </trkpt>
      <trkpt lat="44.89152" lon="0.61479">
        <ele>136.837</ele>
        <time>2020-06-09T14:29:37Z</time>
      </trkpt>
      <trkpt lat="44.89151" lon="0.61476">
        <ele>136.848</ele>
        <time>2020-06-09T14:29:39Z</time>
      </trkpt>
      <trkpt lat="44.89149" lon="0.61473">
        <ele>136.858</ele>
        <time>2020-06-09T14:29:41Z</time>
      </trkpt>
      <trkpt lat="44.89147" lon="0.6147">
        <ele>136.868</ele>
        <time>2020-06-09T14:29:43Z</time>
      </trkpt>
      <trkpt lat="44.89142" lon="0.61463">
        <ele>136.887</ele>
        <time>2020-06-09T14:29:47Z</time>
      </trkpt>
      <trkpt lat="44.89138" lon="0.61457">
        <ele>136.898</ele>
        <time>2020-06-09T14:29:50Z</time>
      </trkpt>
      <trkpt lat="44.89135" lon="0.61449">
        <ele>136.905</ele>
        <time>2020-06-09T14:29:54Z</time>
      </trkpt>
      <trkpt lat="44.89134" lon="0.61446">
        <ele>136.907</ele>
        <time>2020-06-09T14:29:55Z</time>
      </trkpt>
      <trkpt lat="44.89133" lon="0.61441">
        <ele>136.909</ele>
        <time>2020-06-09T14:29:57Z</time>
      </trkpt>
      <trkpt lat="44.89131" lon="0.61435">
        <ele>136.912</ele>
        <time>2020-06-09T14:30:01Z</time>
      </trkpt>
      <trkpt lat="44.89128" lon="0.61427">
        <ele>136.915</ele>
        <time>2020-06-09T14:30:04Z</time>
      </trkpt>
      <trkpt lat="44.89127" lon="0.6142">
        <ele>136.92</ele>
        <time>2020-06-09T14:30:07Z</time>
      </trkpt>
      <trkpt lat="44.89123" lon="0.61412">
        <ele>136.926</ele>
        <time>2020-06-09T14:30:11Z</time>
      </trkpt>
      <trkpt lat="44.89117" lon="0.6141">
        <ele>136.931</ele>
        <time>2020-06-09T14:30:15Z</time>
      </trkpt>
      <trkpt lat="44.89111" lon="0.61409">
        <ele>136.933</ele>
        <time>2020-06-09T14:30:17Z</time>
      </trkpt>
      <trkpt lat="44.89107" lon="0.61409">
        <ele>136.935</ele>
        <time>2020-06-09T14:30:20Z</time>
      </trkpt>
      <trkpt lat="44.89103" lon="0.61409">
        <ele>136.937</ele>
        <time>2020-06-09T14:30:22Z</time>
      </trkpt>
      <trkpt lat="44.89098" lon="0.6141">
        <ele>136.938</ele>
        <time>2020-06-09T14:30:25Z</time>
      </trkpt>
      <trkpt lat="44.89093" lon="0.61411">
        <ele>136.939</ele>
        <time>2020-06-09T14:30:28Z</time>
      </trkpt>
      <trkpt lat="44.89089" lon="0.61412">
        <ele>136.94</ele>
        <time>2020-06-09T14:30:31Z</time>
      </trkpt>
      <trkpt lat="44.89084" lon="0.61411">
        <ele>136.941</ele>
        <time>2020-06-09T14:30:34Z</time>
      </trkpt>
      <trkpt lat="44.89079" lon="0.6141">
        <ele>136.941</ele>
        <time>2020-06-09T14:30:36Z</time>
      </trkpt>
      <trkpt lat="44.89074" lon="0.61411">
        <ele>136.944</ele>
        <time>2020-06-09T14:30:39Z</time>
      </trkpt>
      <trkpt lat="44.89069" lon="0.61413">
        <ele>136.945</ele>
        <time>2020-06-09T14:30:42Z</time>
      </trkpt>
      <trkpt lat="44.89065" lon="0.61416">
        <ele>136.946</ele>
        <time>2020-06-09T14:30:44Z</time>
      </trkpt>
      <trkpt lat="44.89063" lon="0.61417">
        <ele>136.946</ele>
        <time>2020-06-09T14:30:45Z</time>
      </trkpt>
      <trkpt lat="44.89058" lon="0.61418">
        <ele>136.947</ele>
        <time>2020-06-09T14:30:48Z</time>
      </trkpt>
      <trkpt lat="44.89054" lon="0.61418">
        <ele>136.947</ele>
        <time>2020-06-09T14:30:50Z</time>
      </trkpt>
      <trkpt lat="44.8905" lon="0.61419">
        <ele>136.948</ele>
        <time>2020-06-09T14:30:52Z</time>
      </trkpt>
      <trkpt lat="44.89046" lon="0.6142">
        <ele>136.949</ele>
        <time>2020-06-09T14:30:54Z</time>
      </trkpt>
      <trkpt lat="44.89042" lon="0.61421">
        <ele>136.952</ele>
        <time>2020-06-09T14:30:56Z</time>
      </trkpt>
      <trkpt lat="44.89037" lon="0.61423">
        <ele>136.958</ele>
        <time>2020-06-09T14:30:59Z</time>
      </trkpt>
      <trkpt lat="44.89034" lon="0.61425">
        <ele>136.962</ele>
        <time>2020-06-09T14:31:01Z</time>
      </trkpt>
      <trkpt lat="44.89028" lon="0.61425">
        <ele>136.972</ele>
        <time>2020-06-09T14:31:05Z</time>
      </trkpt>
      <trkpt lat="44.89023" lon="0.61422">
        <ele>136.98</ele>
        <time>2020-06-09T14:31:08Z</time>
      </trkpt>
      <trkpt lat="44.8902" lon="0.61421">
        <ele>136.986</ele>
        <time>2020-06-09T14:31:10Z</time>
      </trkpt>
      <trkpt lat="44.89017" lon="0.61419">
        <ele>136.992</ele>
        <time>2020-06-09T14:31:12Z</time>
      </trkpt>
      <trkpt lat="44.89014" lon="0.61418">
        <ele>136.998</ele>
        <time>2020-06-09T14:31:14Z</time>
      </trkpt>
      <trkpt lat="44.89012" lon="0.61416">
        <ele>137.004</ele>
        <time>2020-06-09T14:31:16Z</time>
      </trkpt>
      <trkpt lat="44.89008" lon="0.61412">
        <ele>137.014</ele>
        <time>2020-06-09T14:31:20Z</time>
      </trkpt>
      <trkpt lat="44.89004" lon="0.61409">
        <ele>137.022</ele>
        <time>2020-06-09T14:31:24Z</time>
      </trkpt>
      <trkpt lat="44.89001" lon="0.61407">
        <ele>137.025</ele>
        <time>2020-06-09T14:31:26Z</time>
      </trkpt>
      <trkpt lat="44.88996" lon="0.61407">
        <ele>137.03</ele>
        <time>2020-06-09T14:31:30Z</time>
      </trkpt>
      <trkpt lat="44.88991" lon="0.61406">
        <ele>137.034</ele>
        <time>2020-06-09T14:31:33Z</time>
      </trkpt>
      <trkpt lat="44.88985" lon="0.61407">
        <ele>137.036</ele>
        <time>2020-06-09T14:31:36Z</time>
      </trkpt>
      <trkpt lat="44.8898" lon="0.61408">
        <ele>137.035</ele>
        <time>2020-06-09T14:31:39Z</time>
      </trkpt>
      <trkpt lat="44.88977" lon="0.61408">
        <ele>137.034</ele>
        <time>2020-06-09T14:31:41Z</time>
      </trkpt>
      <trkpt lat="44.88972" lon="0.61408">
        <ele>137.033</ele>
        <time>2020-06-09T14:31:44Z</time>
      </trkpt>
      <trkpt lat="44.88969" lon="0.61407">
        <ele>137.031</ele>
        <time>2020-06-09T14:31:46Z</time>
      </trkpt>
      <trkpt lat="44.88967" lon="0.61406">
        <ele>137.029</ele>
        <time>2020-06-09T14:31:47Z</time>
      </trkpt>
      <trkpt lat="44.88961" lon="0.61407">
        <ele>137.024</ele>
        <time>2020-06-09T14:31:51Z</time>
      </trkpt>
      <trkpt lat="44.88959" lon="0.61408">
        <ele>137.02</ele>
        <time>2020-06-09T14:31:53Z</time>
      </trkpt>
      <trkpt lat="44.88956" lon="0.61408">
        <ele>137.016</ele>
        <time>2020-06-09T14:31:55Z</time>
      </trkpt>
      <trkpt lat="44.88952" lon="0.61409">
        <ele>137.013</ele>
        <time>2020-06-09T14:31:57Z</time>
      </trkpt>
      <trkpt lat="44.88949" lon="0.61409">
        <ele>137.009</ele>
        <time>2020-06-09T14:31:59Z</time>
      </trkpt>
      <trkpt lat="44.88945" lon="0.61413">
        <ele>137.001</ele>
        <time>2020-06-09T14:32:04Z</time>
      </trkpt>
      <trkpt lat="44.8894" lon="0.61415">
        <ele>136.994</ele>
        <time>2020-06-09T14:32:07Z</time>
      </trkpt>
      <trkpt lat="44.88937" lon="0.61417">
        <ele>136.99</ele>
        <time>2020-06-09T14:32:09Z</time>
      </trkpt>
      <trkpt lat="44.88931" lon="0.61422">
        <ele>136.98</ele>
        <time>2020-06-09T14:32:13Z</time>
      </trkpt>
      <trkpt lat="44.88926" lon="0.61423">
        <ele>136.97</ele>
        <time>2020-06-09T14:32:17Z</time>
      </trkpt>
      <trkpt lat="44.88922" lon="0.61421">
        <ele>136.965</ele>
        <time>2020-06-09T14:32:19Z</time>
      </trkpt>
      <trkpt lat="44.88917" lon="0.61424">
        <ele>136.953</ele>
        <time>2020-06-09T14:32:23Z</time>
      </trkpt>
      <trkpt lat="44.88911" lon="0.61426">
        <ele>136.944</ele>
        <time>2020-06-09T14:32:26Z</time>
      </trkpt>
      <trkpt lat="44.88904" lon="0.61428">
        <ele>136.933</ele>
        <time>2020-06-09T14:32:30Z</time>
      </trkpt>
      <trkpt lat="44.88899" lon="0.61429">
        <ele>136.926</ele>
        <time>2020-06-09T14:32:33Z</time>
      </trkpt>
      <trkpt lat="44.88895" lon="0.6143">
        <ele>136.917</ele>
        <time>2020-06-09T14:32:37Z</time>
      </trkpt>
      <trkpt lat="44.8889" lon="0.61432">
        <ele>136.909</ele>
        <time>2020-06-09T14:32:41Z</time>
      </trkpt>
      <trkpt lat="44.88885" lon="0.61433">
        <ele>136.9</ele>
        <time>2020-06-09T14:32:45Z</time>
      </trkpt>
      <trkpt lat="44.88879" lon="0.61436">
        <ele>136.891</ele>
        <time>2020-06-09T14:32:49Z</time>
      </trkpt>
      <trkpt lat="44.88874" lon="0.61438">
        <ele>136.881</ele>
        <time>2020-06-09T14:32:54Z</time>
      </trkpt>
      <trkpt lat="44.88871" lon="0.6144">
        <ele>136.879</ele>
        <time>2020-06-09T14:32:55Z</time>
      </trkpt>
      <trkpt lat="44.88868" lon="0.61442">
        <ele>136.876</ele>
        <time>2020-06-09T14:32:58Z</time>
      </trkpt>
      <trkpt lat="44.88863" lon="0.61444">
        <ele>136.872</ele>
        <time>2020-06-09T14:33:01Z</time>
      </trkpt>
      <trkpt lat="44.88858" lon="0.61442">
        <ele>136.868</ele>
        <time>2020-06-09T14:33:04Z</time>
      </trkpt>
      <trkpt lat="44.88852" lon="0.61445">
        <ele>136.858</ele>
        <time>2020-06-09T14:33:10Z</time>
      </trkpt>
      <trkpt lat="44.88847" lon="0.61446">
        <ele>136.852</ele>
        <time>2020-06-09T14:33:14Z</time>
      </trkpt>
      <trkpt lat="44.88844" lon="0.61447">
        <ele>136.848</ele>
        <time>2020-06-09T14:33:16Z</time>
      </trkpt>
      <trkpt lat="44.88839" lon="0.61447">
        <ele>136.843</ele>
        <time>2020-06-09T14:33:19Z</time>
      </trkpt>
      <trkpt lat="44.88835" lon="0.6145">
        <ele>136.829</ele>
        <time>2020-06-09T14:33:26Z</time>
      </trkpt>
      <trkpt lat="44.88829" lon="0.61449">
        <ele>136.823</ele>
        <time>2020-06-09T14:33:28Z</time>
      </trkpt>
      <trkpt lat="44.88825" lon="0.61452">
        <ele>136.814</ele>
        <time>2020-06-09T14:33:31Z</time>
      </trkpt>
      <trkpt lat="44.8882" lon="0.61452">
        <ele>136.809</ele>
        <time>2020-06-09T14:33:33Z</time>
      </trkpt>
      <trkpt lat="44.88815" lon="0.6145">
        <ele>136.802</ele>
        <time>2020-06-09T14:33:36Z</time>
      </trkpt>
      <trkpt lat="44.88811" lon="0.61452">
        <ele>136.797</ele>
        <time>2020-06-09T14:33:38Z</time>
      </trkpt>
      <trkpt lat="44.88806" lon="0.61457">
        <ele>136.792</ele>
        <time>2020-06-09T14:33:41Z</time>
      </trkpt>
      <trkpt lat="44.88803" lon="0.61459">
        <ele>136.791</ele>
        <time>2020-06-09T14:33:42Z</time>
      </trkpt>
      <trkpt lat="44.88799" lon="0.61462">
        <ele>136.789</ele>
        <time>2020-06-09T14:33:45Z</time>
      </trkpt>
      <trkpt lat="44.88795" lon="0.61463">
        <ele>136.787</ele>
        <time>2020-06-09T14:33:48Z</time>
      </trkpt>
      <trkpt lat="44.88792" lon="0.61465">
        <ele>136.786</ele>
        <time>2020-06-09T14:33:51Z</time>
      </trkpt>
      <trkpt lat="44.88788" lon="0.61469">
        <ele>136.785</ele>
        <time>2020-06-09T14:33:53Z</time>
      </trkpt>
      <trkpt lat="44.88783" lon="0.61472">
        <ele>136.781</ele>
        <time>2020-06-09T14:33:57Z</time>
      </trkpt>
      <trkpt lat="44.88776" lon="0.61478">
        <ele>136.778</ele>
        <time>2020-06-09T14:34:02Z</time>
      </trkpt>
      <trkpt lat="44.8877" lon="0.61479">
        <ele>136.774</ele>
        <time>2020-06-09T14:34:07Z</time>
      </trkpt>
      <trkpt lat="44.88767" lon="0.6148">
        <ele>136.771</ele>
        <time>2020-06-09T14:34:09Z</time>
      </trkpt>
      <trkpt lat="44.88762" lon="0.61483">
        <ele>136.765</ele>
        <time>2020-06-09T14:34:14Z</time>
      </trkpt>
      <trkpt lat="44.88757" lon="0.61484">
        <ele>136.757</ele>
        <time>2020-06-09T14:34:19Z</time>
      </trkpt>
      <trkpt lat="44.88752" lon="0.61484">
        <ele>136.753</ele>
        <time>2020-06-09T14:34:21Z</time>
      </trkpt>
      <trkpt lat="44.88747" lon="0.61487">
        <ele>136.743</ele>
        <time>2020-06-09T14:34:26Z</time>
      </trkpt>
      <trkpt lat="44.88743" lon="0.6149">
        <ele>136.74</ele>
        <time>2020-06-09T14:34:28Z</time>
      </trkpt>
      <trkpt lat="44.88738" lon="0.61495">
        <ele>136.734</ele>
        <time>2020-06-09T14:34:31Z</time>
      </trkpt>
      <trkpt lat="44.88736" lon="0.61497">
        <ele>136.732</ele>
        <time>2020-06-09T14:34:32Z</time>
      </trkpt>
      <trkpt lat="44.88731" lon="0.61499">
        <ele>136.724</ele>
        <time>2020-06-09T14:34:35Z</time>
      </trkpt>
      <trkpt lat="44.88728" lon="0.615">
        <ele>136.721</ele>
        <time>2020-06-09T14:34:36Z</time>
      </trkpt>
      <trkpt lat="44.88724" lon="0.61503">
        <ele>136.711</ele>
        <time>2020-06-09T14:34:40Z</time>
      </trkpt>
      <trkpt lat="44.88721" lon="0.61505">
        <ele>136.703</ele>
        <time>2020-06-09T14:34:43Z</time>
      </trkpt>
      <trkpt lat="44.88715" lon="0.61506">
        <ele>136.69</ele>
        <time>2020-06-09T14:34:49Z</time>
      </trkpt>
      <trkpt lat="44.8871" lon="0.61506">
        <ele>136.685</ele>
        <time>2020-06-09T14:34:51Z</time>
      </trkpt>
      <trkpt lat="44.88705" lon="0.61507">
        <ele>136.678</ele>
        <time>2020-06-09T14:34:54Z</time>
      </trkpt>
      <trkpt lat="44.88701" lon="0.61512">
        <ele>136.67</ele>
        <time>2020-06-09T14:34:57Z</time>
      </trkpt>
      <trkpt lat="44.88696" lon="0.61516">
        <ele>136.663</ele>
        <time>2020-06-09T14:35:00Z</time>
      </trkpt>
      <trkpt lat="44.88691" lon="0.61518">
        <ele>136.651</ele>
        <time>2020-06-09T14:35:05Z</time>
      </trkpt>
      <trkpt lat="44.88685" lon="0.61519">
        <ele>136.642</ele>
        <time>2020-06-09T14:35:09Z</time>
      </trkpt>
      <trkpt lat="44.88681" lon="0.61516">
        <ele>136.635</ele>
        <time>2020-06-09T14:35:12Z</time>
      </trkpt>
      <trkpt lat="44.88676" lon="0.61519">
        <ele>136.629</ele>
        <time>2020-06-09T14:35:15Z</time>
      </trkpt>
      <trkpt lat="44.88672" lon="0.61521">
        <ele>136.622</ele>
        <time>2020-06-09T14:35:18Z</time>
      </trkpt>
      <trkpt lat="44.88667" lon="0.61527">
        <ele>136.613</ele>
        <time>2020-06-09T14:35:22Z</time>
      </trkpt>
      <trkpt lat="44.88664" lon="0.61533">
        <ele>136.609</ele>
        <time>2020-06-09T14:35:24Z</time>
      </trkpt>
      <trkpt lat="44.88661" lon="0.61538">
        <ele>136.604</ele>
        <time>2020-06-09T14:35:26Z</time>
      </trkpt>
      <trkpt lat="44.88657" lon="0.61543">
        <ele>136.601</ele>
        <time>2020-06-09T14:35:28Z</time>
      </trkpt>
      <trkpt lat="44.88655" lon="0.61546">
        <ele>136.6</ele>
        <time>2020-06-09T14:35:29Z</time>
      </trkpt>
      <trkpt lat="44.88649" lon="0.61549">
        <ele>136.594</ele>
        <time>2020-06-09T14:35:32Z</time>
      </trkpt>
      <trkpt lat="44.88647" lon="0.6155">
        <ele>136.592</ele>
        <time>2020-06-09T14:35:33Z</time>
      </trkpt>
      <trkpt lat="44.88644" lon="0.61552">
        <ele>136.59</ele>
        <time>2020-06-09T14:35:34Z</time>
      </trkpt>
      <trkpt lat="44.88641" lon="0.61554">
        <ele>136.587</ele>
        <time>2020-06-09T14:35:36Z</time>
      </trkpt>
      <trkpt lat="44.88637" lon="0.61557">
        <ele>136.587</ele>
        <time>2020-06-09T14:35:39Z</time>
      </trkpt>
      <trkpt lat="44.88633" lon="0.6156">
        <ele>136.591</ele>
        <time>2020-06-09T14:35:42Z</time>
      </trkpt>
      <trkpt lat="44.8863" lon="0.61561">
        <ele>136.592</ele>
        <time>2020-06-09T14:35:43Z</time>
      </trkpt>
      <trkpt lat="44.88627" lon="0.61564">
        <ele>136.6</ele>
        <time>2020-06-09T14:35:47Z</time>
      </trkpt>
      <trkpt lat="44.88624" lon="0.61566">
        <ele>136.607</ele>
        <time>2020-06-09T14:35:50Z</time>
      </trkpt>
      <trkpt lat="44.88618" lon="0.61567">
        <ele>136.619</ele>
        <time>2020-06-09T14:35:56Z</time>
      </trkpt>
      <trkpt lat="44.88611" lon="0.6157">
        <ele>136.624</ele>
        <time>2020-06-09T14:36:02Z</time>
      </trkpt>
      <trkpt lat="44.88606" lon="0.61571">
        <ele>136.627</ele>
        <time>2020-06-09T14:36:05Z</time>
      </trkpt>
      <trkpt lat="44.88602" lon="0.61574">
        <ele>136.629</ele>
        <time>2020-06-09T14:36:07Z</time>
      </trkpt>
      <trkpt lat="44.88599" lon="0.61578">
        <ele>136.634</ele>
        <time>2020-06-09T14:36:11Z</time>
      </trkpt>
      <trkpt lat="44.88593" lon="0.6158">
        <ele>136.638</ele>
        <time>2020-06-09T14:36:14Z</time>
      </trkpt>
      <trkpt lat="44.88589" lon="0.61584">
        <ele>136.642</ele>
        <time>2020-06-09T14:36:17Z</time>
      </trkpt>
      <trkpt lat="44.88584" lon="0.61585">
        <ele>136.644</ele>
        <time>2020-06-09T14:36:19Z</time>
      </trkpt>
      <trkpt lat="44.8858" lon="0.61585">
        <ele>136.646</ele>
        <time>2020-06-09T14:36:21Z</time>
      </trkpt>
      <trkpt lat="44.88574" lon="0.61586">
        <ele>136.65</ele>
        <time>2020-06-09T14:36:26Z</time>
      </trkpt>
      <trkpt lat="44.88568" lon="0.61585">
        <ele>136.652</ele>
        <time>2020-06-09T14:36:31Z</time>
      </trkpt>
      <trkpt lat="44.88565" lon="0.61584">
        <ele>136.651</ele>
        <time>2020-06-09T14:36:33Z</time>
      </trkpt>
      <trkpt lat="44.88561" lon="0.61583">
        <ele>136.65</ele>
        <time>2020-06-09T14:36:35Z</time>
      </trkpt>
      <trkpt lat="44.88556" lon="0.61585">
        <ele>136.647</ele>
        <time>2020-06-09T14:36:39Z</time>
      </trkpt>
      <trkpt lat="44.88552" lon="0.61584">
        <ele>136.644</ele>
        <time>2020-06-09T14:36:43Z</time>
      </trkpt>
      <trkpt lat="44.88547" lon="0.61587">
        <ele>136.639</ele>
        <time>2020-06-09T14:36:51Z</time>
      </trkpt>
      <trkpt lat="44.8854" lon="0.61591">
        <ele>136.628</ele>
        <time>2020-06-09T14:36:58Z</time>
      </trkpt>
      <trkpt lat="44.88537" lon="0.61593">
        <ele>136.621</ele>
        <time>2020-06-09T14:37:01Z</time>
      </trkpt>
      <trkpt lat="44.88533" lon="0.61595">
        <ele>136.612</ele>
        <time>2020-06-09T14:37:04Z</time>
      </trkpt>
      <trkpt lat="44.88529" lon="0.61599">
        <ele>136.603</ele>
        <time>2020-06-09T14:37:07Z</time>
      </trkpt>
      <trkpt lat="44.88522" lon="0.61601">
        <ele>136.592</ele>
        <time>2020-06-09T14:37:10Z</time>
      </trkpt>
      <trkpt lat="44.88518" lon="0.61606">
        <ele>136.584</ele>
        <time>2020-06-09T14:37:12Z</time>
      </trkpt>
      <trkpt lat="44.88516" lon="0.6161">
        <ele>136.58</ele>
        <time>2020-06-09T14:37:13Z</time>
      </trkpt>
      <trkpt lat="44.88511" lon="0.61613">
        <ele>136.573</ele>
        <time>2020-06-09T14:37:15Z</time>
      </trkpt>
      <trkpt lat="44.88507" lon="0.61616">
        <ele>136.566</ele>
        <time>2020-06-09T14:37:17Z</time>
      </trkpt>
      <trkpt lat="44.88503" lon="0.6162">
        <ele>136.558</ele>
        <time>2020-06-09T14:37:20Z</time>
      </trkpt>
      <trkpt lat="44.88494" lon="0.61621">
        <ele>136.548</ele>
        <time>2020-06-09T14:37:23Z</time>
      </trkpt>
      <trkpt lat="44.88487" lon="0.61622">
        <ele>136.539</ele>
        <time>2020-06-09T14:37:26Z</time>
      </trkpt>
      <trkpt lat="44.88482" lon="0.61624">
        <ele>136.534</ele>
        <time>2020-06-09T14:37:29Z</time>
      </trkpt>
      <trkpt lat="44.88479" lon="0.61625">
        <ele>136.533</ele>
        <time>2020-06-09T14:37:31Z</time>
      </trkpt>
      <trkpt lat="44.88475" lon="0.61627">
        <ele>136.533</ele>
        <time>2020-06-09T14:37:33Z</time>
      </trkpt>
      <trkpt lat="44.88472" lon="0.61628">
        <ele>136.533</ele>
        <time>2020-06-09T14:37:35Z</time>
      </trkpt>
      <trkpt lat="44.88469" lon="0.6163">
        <ele>136.534</ele>
        <time>2020-06-09T14:37:36Z</time>
      </trkpt>
      <trkpt lat="44.88464" lon="0.6163">
        <ele>136.54</ele>
        <time>2020-06-09T14:37:40Z</time>
      </trkpt>
      <trkpt lat="44.88461" lon="0.6163">
        <ele>136.544</ele>
        <time>2020-06-09T14:37:42Z</time>
      </trkpt>
      <trkpt lat="44.88457" lon="0.61632">
        <ele>136.554</ele>
        <time>2020-06-09T14:37:46Z</time>
      </trkpt>
      <trkpt lat="44.88453" lon="0.61632">
        <ele>136.558</ele>
        <time>2020-06-09T14:37:48Z</time>
      </trkpt>
      <trkpt lat="44.88449" lon="0.61631">
        <ele>136.564</ele>
        <time>2020-06-09T14:37:51Z</time>
      </trkpt>
      <trkpt lat="44.88443" lon="0.61631">
        <ele>136.568</ele>
        <time>2020-06-09T14:37:54Z</time>
      </trkpt>
      <trkpt lat="44.88441" lon="0.61631">
        <ele>136.571</ele>
        <time>2020-06-09T14:37:56Z</time>
      </trkpt>
      <trkpt lat="44.88435" lon="0.61631">
        <ele>136.58</ele>
        <time>2020-06-09T14:38:01Z</time>
      </trkpt>
      <trkpt lat="44.8843" lon="0.61631">
        <ele>136.592</ele>
        <time>2020-06-09T14:38:06Z</time>
      </trkpt>
      <trkpt lat="44.88426" lon="0.61629">
        <ele>136.624</ele>
        <time>2020-06-09T14:38:14Z</time>
      </trkpt>
      <trkpt lat="44.88421" lon="0.61636">
        <ele>136.653</ele>
        <time>2020-06-09T14:38:20Z</time>
      </trkpt>
      <trkpt lat="44.88418" lon="0.61641">
        <ele>136.679</ele>
        <time>2020-06-09T14:38:25Z</time>
      </trkpt>
      <trkpt lat="44.88412" lon="0.61648">
        <ele>136.705</ele>
        <time>2020-06-09T14:38:30Z</time>
      </trkpt>
      <trkpt lat="44.88407" lon="0.61649">
        <ele>136.724</ele>
        <time>2020-06-09T14:38:33Z</time>
      </trkpt>
      <trkpt lat="44.88403" lon="0.61653">
        <ele>136.75</ele>
        <time>2020-06-09T14:38:37Z</time>
      </trkpt>
      <trkpt lat="44.88399" lon="0.61656">
        <ele>136.764</ele>
        <time>2020-06-09T14:38:39Z</time>
      </trkpt>
      <trkpt lat="44.88395" lon="0.61659">
        <ele>136.791</ele>
        <time>2020-06-09T14:38:43Z</time>
      </trkpt>
      <trkpt lat="44.8839" lon="0.61664">
        <ele>136.809</ele>
        <time>2020-06-09T14:38:46Z</time>
      </trkpt>
      <trkpt lat="44.88385" lon="0.61668">
        <ele>136.835</ele>
        <time>2020-06-09T14:38:51Z</time>
      </trkpt>
      <trkpt lat="44.88382" lon="0.61669">
        <ele>136.846</ele>
        <time>2020-06-09T14:38:53Z</time>
      </trkpt>
      <trkpt lat="44.88378" lon="0.61671">
        <ele>136.856</ele>
        <time>2020-06-09T14:38:55Z</time>
      </trkpt>
      <trkpt lat="44.88373" lon="0.61674">
        <ele>136.865</ele>
        <time>2020-06-09T14:38:58Z</time>
      </trkpt>
      <trkpt lat="44.88373" lon="0.61674">
        <ele>136.865</ele>
        <time>2020-06-09T14:39:03Z</time>
      </trkpt>
      <trkpt lat="44.88373" lon="0.61674">
        <ele>136.865</ele>
        <time>2020-06-09T14:39:04Z</time>
      </trkpt>
      <trkpt lat="44.8837" lon="0.6168">
        <ele>136.894</ele>
        <time>2020-06-09T14:39:05Z</time>
      </trkpt>
      <trkpt lat="44.88367" lon="0.61686">
        <ele>136.937</ele>
        <time>2020-06-09T14:39:12Z</time>
      </trkpt>
      <trkpt lat="44.88363" lon="0.61691">
        <ele>136.956</ele>
        <time>2020-06-09T14:39:15Z</time>
      </trkpt>
      <trkpt lat="44.88359" lon="0.61697">
        <ele>136.969</ele>
        <time>2020-06-09T14:39:18Z</time>
      </trkpt>
      <trkpt lat="44.88355" lon="0.61704">
        <ele>137.003</ele>
        <time>2020-06-09T14:39:23Z</time>
      </trkpt>
      <trkpt lat="44.88354" lon="0.61711">
        <ele>137.024</ele>
        <time>2020-06-09T14:39:26Z</time>
      </trkpt>
      <trkpt lat="44.88351" lon="0.61718">
        <ele>137.048</ele>
        <time>2020-06-09T14:39:29Z</time>
      </trkpt>
      <trkpt lat="44.88345" lon="0.61723">
        <ele>137.103</ele>
        <time>2020-06-09T14:39:34Z</time>
      </trkpt>
      <trkpt lat="44.88341" lon="0.61729">
        <ele>137.146</ele>
        <time>2020-06-09T14:39:37Z</time>
      </trkpt>
      <trkpt lat="44.88336" lon="0.61733">
        <ele>137.188</ele>
        <time>2020-06-09T14:39:40Z</time>
      </trkpt>
      <trkpt lat="44.8833" lon="0.6174">
        <ele>137.238</ele>
        <time>2020-06-09T14:39:44Z</time>
      </trkpt>
      <trkpt lat="44.88328" lon="0.61742">
        <ele>137.262</ele>
        <time>2020-06-09T14:39:46Z</time>
      </trkpt>
      <trkpt lat="44.88325" lon="0.61747">
        <ele>137.295</ele>
        <time>2020-06-09T14:39:49Z</time>
      </trkpt>
      <trkpt lat="44.88323" lon="0.61752">
        <ele>137.314</ele>
        <time>2020-06-09T14:39:51Z</time>
      </trkpt>
      <trkpt lat="44.88318" lon="0.61754">
        <ele>137.339</ele>
        <time>2020-06-09T14:39:54Z</time>
      </trkpt>
      <trkpt lat="44.88313" lon="0.61756">
        <ele>137.364</ele>
        <time>2020-06-09T14:39:57Z</time>
      </trkpt>
      <trkpt lat="44.8831" lon="0.61758">
        <ele>137.372</ele>
        <time>2020-06-09T14:39:58Z</time>
      </trkpt>
      <trkpt lat="44.88308" lon="0.61758">
        <ele>137.382</ele>
        <time>2020-06-09T14:39:59Z</time>
      </trkpt>
      <trkpt lat="44.88304" lon="0.6176">
        <ele>137.401</ele>
        <time>2020-06-09T14:40:01Z</time>
      </trkpt>
      <trkpt lat="44.88298" lon="0.61763">
        <ele>137.429</ele>
        <time>2020-06-09T14:40:04Z</time>
      </trkpt>
      <trkpt lat="44.88293" lon="0.61767">
        <ele>137.465</ele>
        <time>2020-06-09T14:40:08Z</time>
      </trkpt>
      <trkpt lat="44.88291" lon="0.61768">
        <ele>137.473</ele>
        <time>2020-06-09T14:40:09Z</time>
      </trkpt>
      <trkpt lat="44.88288" lon="0.61773">
        <ele>137.483</ele>
        <time>2020-06-09T14:40:10Z</time>
      </trkpt>
      <trkpt lat="44.88284" lon="0.61776">
        <ele>137.52</ele>
        <time>2020-06-09T14:40:14Z</time>
      </trkpt>
      <trkpt lat="44.88278" lon="0.61778">
        <ele>137.536</ele>
        <time>2020-06-09T14:40:16Z</time>
      </trkpt>
      <trkpt lat="44.88274" lon="0.61781">
        <ele>137.553</ele>
        <time>2020-06-09T14:40:18Z</time>
      </trkpt>
      <trkpt lat="44.88272" lon="0.61781">
        <ele>137.639</ele>
        <time>2020-06-09T14:40:26Z</time>
      </trkpt>
      <trkpt lat="44.88269" lon="0.61782">
        <ele>137.661</ele>
        <time>2020-06-09T14:40:28Z</time>
      </trkpt>
      <trkpt lat="44.88266" lon="0.61785">
        <ele>137.682</ele>
        <time>2020-06-09T14:40:30Z</time>
      </trkpt>
      <trkpt lat="44.88263" lon="0.6179">
        <ele>137.749</ele>
        <time>2020-06-09T14:40:36Z</time>
      </trkpt>
      <trkpt lat="44.88261" lon="0.61797">
        <ele>137.816</ele>
        <time>2020-06-09T14:40:42Z</time>
      </trkpt>
      <trkpt lat="44.88259" lon="0.618">
        <ele>137.836</ele>
        <time>2020-06-09T14:40:44Z</time>
      </trkpt>
      <trkpt lat="44.88254" lon="0.61805">
        <ele>137.86</ele>
        <time>2020-06-09T14:40:47Z</time>
      </trkpt>
      <trkpt lat="44.8825" lon="0.61812">
        <ele>137.886</ele>
        <time>2020-06-09T14:40:50Z</time>
      </trkpt>
      <trkpt lat="44.88245" lon="0.61816">
        <ele>137.903</ele>
        <time>2020-06-09T14:40:52Z</time>
      </trkpt>
      <trkpt lat="44.8824" lon="0.61818">
        <ele>137.922</ele>
        <time>2020-06-09T14:40:54Z</time>
      </trkpt>
      <trkpt lat="44.88235" lon="0.61824">
        <ele>137.951</ele>
        <time>2020-06-09T14:40:57Z</time>
      </trkpt>
      <trkpt lat="44.88231" lon="0.61827">
        <ele>137.983</ele>
        <time>2020-06-09T14:41:00Z</time>
      </trkpt>
      <trkpt lat="44.88231" lon="0.61827">
        <ele>137.983</ele>
        <time>2020-06-09T14:41:07Z</time>
      </trkpt>
      <trkpt lat="44.88229" lon="0.61833">
        <ele>138.049</ele>
        <time>2020-06-09T14:41:08Z</time>
      </trkpt>
      <trkpt lat="44.88224" lon="0.61834">
        <ele>138.074</ele>
        <time>2020-06-09T14:41:11Z</time>
      </trkpt>
      <trkpt lat="44.8822" lon="0.61838">
        <ele>138.1</ele>
        <time>2020-06-09T14:41:14Z</time>
      </trkpt>
      <trkpt lat="44.88217" lon="0.61841">
        <ele>138.115</ele>
        <time>2020-06-09T14:41:23Z</time>
      </trkpt>
      <trkpt lat="44.88212" lon="0.61844">
        <ele>138.273</ele>
        <time>2020-06-09T14:41:53Z</time>
      </trkpt>
      <trkpt lat="44.8821" lon="0.61845">
        <ele>138.434</ele>
        <time>2020-06-09T14:42:02Z</time>
      </trkpt>
      <trkpt lat="44.88206" lon="0.61849">
        <ele>138.586</ele>
        <time>2020-06-09T14:42:06Z</time>
      </trkpt>
      <trkpt lat="44.88203" lon="0.61855">
        <ele>138.719</ele>
        <time>2020-06-09T14:42:09Z</time>
      </trkpt>
      <trkpt lat="44.88201" lon="0.6186">
        <ele>138.857</ele>
        <time>2020-06-09T14:42:12Z</time>
      </trkpt>
      <trkpt lat="44.88197" lon="0.61865">
        <ele>138.987</ele>
        <time>2020-06-09T14:42:15Z</time>
      </trkpt>
      <trkpt lat="44.88193" lon="0.61868">
        <ele>139.113</ele>
        <time>2020-06-09T14:42:18Z</time>
      </trkpt>
      <trkpt lat="44.8819" lon="0.61872">
        <ele>139.285</ele>
        <time>2020-06-09T14:42:22Z</time>
      </trkpt>
      <trkpt lat="44.88188" lon="0.61874">
        <ele>139.378</ele>
        <time>2020-06-09T14:42:24Z</time>
      </trkpt>
      <trkpt lat="44.88182" lon="0.61879">
        <ele>139.527</ele>
        <time>2020-06-09T14:42:27Z</time>
      </trkpt>
      <trkpt lat="44.88177" lon="0.61885">
        <ele>139.73</ele>
        <time>2020-06-09T14:42:31Z</time>
      </trkpt>
      <trkpt lat="44.88174" lon="0.61893">
        <ele>139.883</ele>
        <time>2020-06-09T14:42:34Z</time>
      </trkpt>
      <trkpt lat="44.88174" lon="0.619">
        <ele>140.086</ele>
        <time>2020-06-09T14:42:38Z</time>
      </trkpt>
      <trkpt lat="44.8817" lon="0.61905">
        <ele>140.281</ele>
        <time>2020-06-09T14:42:43Z</time>
      </trkpt>
      <trkpt lat="44.88168" lon="0.61909">
        <ele>140.419</ele>
        <time>2020-06-09T14:42:46Z</time>
      </trkpt>
      <trkpt lat="44.88164" lon="0.61909">
        <ele>140.547</ele>
        <time>2020-06-09T14:42:49Z</time>
      </trkpt>
      <trkpt lat="44.8816" lon="0.61909">
        <ele>140.627</ele>
        <time>2020-06-09T14:42:51Z</time>
      </trkpt>
      <trkpt lat="44.88155" lon="0.61909">
        <ele>140.738</ele>
        <time>2020-06-09T14:42:54Z</time>
      </trkpt>
      <trkpt lat="44.88153" lon="0.61909">
        <ele>140.807</ele>
        <time>2020-06-09T14:42:56Z</time>
      </trkpt>
      <trkpt lat="44.88147" lon="0.61906">
        <ele>140.937</ele>
        <time>2020-06-09T14:43:00Z</time>
      </trkpt>
      <trkpt lat="44.88143" lon="0.61905">
        <ele>141.03</ele>
        <time>2020-06-09T14:43:03Z</time>
      </trkpt>
      <trkpt lat="44.88139" lon="0.61901">
        <ele>141.152</ele>
        <time>2020-06-09T14:43:07Z</time>
      </trkpt>
      <trkpt lat="44.88134" lon="0.619">
        <ele>141.238</ele>
        <time>2020-06-09T14:43:10Z</time>
      </trkpt>
      <trkpt lat="44.88129" lon="0.61899">
        <ele>141.326</ele>
        <time>2020-06-09T14:43:13Z</time>
      </trkpt>
      <trkpt lat="44.88122" lon="0.61895">
        <ele>141.412</ele>
        <time>2020-06-09T14:43:16Z</time>
      </trkpt>
      <trkpt lat="44.88117" lon="0.61895">
        <ele>141.492</ele>
        <time>2020-06-09T14:43:19Z</time>
      </trkpt>
      <trkpt lat="44.88112" lon="0.61892">
        <ele>141.565</ele>
        <time>2020-06-09T14:43:22Z</time>
      </trkpt>
      <trkpt lat="44.88106" lon="0.6189">
        <ele>141.655</ele>
        <time>2020-06-09T14:43:26Z</time>
      </trkpt>
      <trkpt lat="44.88103" lon="0.61889">
        <ele>141.698</ele>
        <time>2020-06-09T14:43:28Z</time>
      </trkpt>
      <trkpt lat="44.881" lon="0.61888">
        <ele>141.74</ele>
        <time>2020-06-09T14:43:30Z</time>
      </trkpt>
      <trkpt lat="44.88097" lon="0.61887">
        <ele>141.799</ele>
        <time>2020-06-09T14:43:33Z</time>
      </trkpt>
      <trkpt lat="44.8809" lon="0.61887">
        <ele>141.875</ele>
        <time>2020-06-09T14:43:37Z</time>
      </trkpt>
      <trkpt lat="44.88085" lon="0.61888">
        <ele>141.944</ele>
        <time>2020-06-09T14:43:41Z</time>
      </trkpt>
      <trkpt lat="44.8808" lon="0.6189">
        <ele>141.993</ele>
        <time>2020-06-09T14:43:44Z</time>
      </trkpt>
      <trkpt lat="44.88077" lon="0.61891">
        <ele>142.008</ele>
        <time>2020-06-09T14:43:45Z</time>
      </trkpt>
      <trkpt lat="44.88074" lon="0.61893">
        <ele>142.025</ele>
        <time>2020-06-09T14:43:46Z</time>
      </trkpt>
      <trkpt lat="44.88067" lon="0.61895">
        <ele>142.079</ele>
        <time>2020-06-09T14:43:49Z</time>
      </trkpt>
      <trkpt lat="44.88062" lon="0.61897">
        <ele>142.136</ele>
        <time>2020-06-09T14:43:52Z</time>
      </trkpt>
      <trkpt lat="44.88055" lon="0.61899">
        <ele>142.3</ele>
        <time>2020-06-09T14:43:58Z</time>
      </trkpt>
      <trkpt lat="44.88055" lon="0.61899">
        <ele>142.3</ele>
        <time>2020-06-09T14:44:05Z</time>
      </trkpt>
      <trkpt lat="44.88051" lon="0.619">
        <ele>142.686</ele>
        <time>2020-06-09T14:44:06Z</time>
      </trkpt>
      <trkpt lat="44.88048" lon="0.61907">
        <ele>142.858</ele>
        <time>2020-06-09T14:44:09Z</time>
      </trkpt>
      <trkpt lat="44.88046" lon="0.61911">
        <ele>142.98</ele>
        <time>2020-06-09T14:44:11Z</time>
      </trkpt>
      <trkpt lat="44.88044" lon="0.61916">
        <ele>143.11</ele>
        <time>2020-06-09T14:44:13Z</time>
      </trkpt>
      <trkpt lat="44.88042" lon="0.6192">
        <ele>143.244</ele>
        <time>2020-06-09T14:44:15Z</time>
      </trkpt>
      <trkpt lat="44.8804" lon="0.61925">
        <ele>143.669</ele>
        <time>2020-06-09T14:44:21Z</time>
      </trkpt>
      <trkpt lat="44.88038" lon="0.61928">
        <ele>143.819</ele>
        <time>2020-06-09T14:44:23Z</time>
      </trkpt>
      <trkpt lat="44.88034" lon="0.61934">
        <ele>144.144</ele>
        <time>2020-06-09T14:44:27Z</time>
      </trkpt>
      <trkpt lat="44.8803" lon="0.61939">
        <ele>144.573</ele>
        <time>2020-06-09T14:44:32Z</time>
      </trkpt>
      <trkpt lat="44.88022" lon="0.61945">
        <ele>145.027</ele>
        <time>2020-06-09T14:44:37Z</time>
      </trkpt>
      <trkpt lat="44.88019" lon="0.61947">
        <ele>145.211</ele>
        <time>2020-06-09T14:44:39Z</time>
      </trkpt>
      <trkpt lat="44.88015" lon="0.61951">
        <ele>145.573</ele>
        <time>2020-06-09T14:44:43Z</time>
      </trkpt>
      <trkpt lat="44.88012" lon="0.61958">
        <ele>145.934</ele>
        <time>2020-06-09T14:44:47Z</time>
      </trkpt>
      <trkpt lat="44.88007" lon="0.61962">
        <ele>146.285</ele>
        <time>2020-06-09T14:44:51Z</time>
      </trkpt>
      <trkpt lat="44.88003" lon="0.61965">
        <ele>146.613</ele>
        <time>2020-06-09T14:44:55Z</time>
      </trkpt>
      <trkpt lat="44.87999" lon="0.61967">
        <ele>146.916</ele>
        <time>2020-06-09T14:44:59Z</time>
      </trkpt>
      <trkpt lat="44.87995" lon="0.61969">
        <ele>147.128</ele>
        <time>2020-06-09T14:45:02Z</time>
      </trkpt>
      <trkpt lat="44.87994" lon="0.61971">
        <ele>147.626</ele>
        <time>2020-06-09T14:45:10Z</time>
      </trkpt>
      <trkpt lat="44.87988" lon="0.61972">
        <ele>147.89</ele>
        <time>2020-06-09T14:45:15Z</time>
      </trkpt>
      <trkpt lat="44.87983" lon="0.6197">
        <ele>148.026</ele>
        <time>2020-06-09T14:45:18Z</time>
      </trkpt>
      <trkpt lat="44.87978" lon="0.61969">
        <ele>148.109</ele>
        <time>2020-06-09T14:45:20Z</time>
      </trkpt>
      <trkpt lat="44.87973" lon="0.61969">
        <ele>148.223</ele>
        <time>2020-06-09T14:45:23Z</time>
      </trkpt>
      <trkpt lat="44.87964" lon="0.61972">
        <ele>148.33</ele>
        <time>2020-06-09T14:45:26Z</time>
      </trkpt>
      <trkpt lat="44.87957" lon="0.61972">
        <ele>148.43</ele>
        <time>2020-06-09T14:45:29Z</time>
      </trkpt>
      <trkpt lat="44.87953" lon="0.61973">
        <ele>148.524</ele>
        <time>2020-06-09T14:45:32Z</time>
      </trkpt>
      <trkpt lat="44.87948" lon="0.61972">
        <ele>148.667</ele>
        <time>2020-06-09T14:45:37Z</time>
      </trkpt>
      <trkpt lat="44.87942" lon="0.61974">
        <ele>148.745</ele>
        <time>2020-06-09T14:45:40Z</time>
      </trkpt>
      <trkpt lat="44.87936" lon="0.61973">
        <ele>148.795</ele>
        <time>2020-06-09T14:45:42Z</time>
      </trkpt>
      <trkpt lat="44.8793" lon="0.61975">
        <ele>148.864</ele>
        <time>2020-06-09T14:45:45Z</time>
      </trkpt>
      <trkpt lat="44.87926" lon="0.61973">
        <ele>148.928</ele>
        <time>2020-06-09T14:45:48Z</time>
      </trkpt>
      <trkpt lat="44.8792" lon="0.61972">
        <ele>149.007</ele>
        <time>2020-06-09T14:45:52Z</time>
      </trkpt>
      <trkpt lat="44.87916" lon="0.61971">
        <ele>149.091</ele>
        <time>2020-06-09T14:45:57Z</time>
      </trkpt>
      <trkpt lat="44.87913" lon="0.6197">
        <ele>149.136</ele>
        <time>2020-06-09T14:46:00Z</time>
      </trkpt>
      <trkpt lat="44.87908" lon="0.61967">
        <ele>149.178</ele>
        <time>2020-06-09T14:46:03Z</time>
      </trkpt>
      <trkpt lat="44.87902" lon="0.61967">
        <ele>149.231</ele>
        <time>2020-06-09T14:46:07Z</time>
      </trkpt>
      <trkpt lat="44.87897" lon="0.61969">
        <ele>149.282</ele>
        <time>2020-06-09T14:46:11Z</time>
      </trkpt>
      <trkpt lat="44.87893" lon="0.61972">
        <ele>149.322</ele>
        <time>2020-06-09T14:46:14Z</time>
      </trkpt>
      <trkpt lat="44.87888" lon="0.6197">
        <ele>149.359</ele>
        <time>2020-06-09T14:46:17Z</time>
      </trkpt>
      <trkpt lat="44.87883" lon="0.61971">
        <ele>149.393</ele>
        <time>2020-06-09T14:46:20Z</time>
      </trkpt>
      <trkpt lat="44.87877" lon="0.61969">
        <ele>149.418</ele>
        <time>2020-06-09T14:46:23Z</time>
      </trkpt>
      <trkpt lat="44.87874" lon="0.61969">
        <ele>149.426</ele>
        <time>2020-06-09T14:46:24Z</time>
      </trkpt>
      <trkpt lat="44.87868" lon="0.61966">
        <ele>149.453</ele>
        <time>2020-06-09T14:46:27Z</time>
      </trkpt>
      <trkpt lat="44.87862" lon="0.61967">
        <ele>149.479</ele>
        <time>2020-06-09T14:46:30Z</time>
      </trkpt>
      <trkpt lat="44.87857" lon="0.61962">
        <ele>149.505</ele>
        <time>2020-06-09T14:46:33Z</time>
      </trkpt>
      <trkpt lat="44.87852" lon="0.61959">
        <ele>149.523</ele>
        <time>2020-06-09T14:46:35Z</time>
      </trkpt>
      <trkpt lat="44.87849" lon="0.61957">
        <ele>149.542</ele>
        <time>2020-06-09T14:46:37Z</time>
      </trkpt>
      <trkpt lat="44.87849" lon="0.61957">
        <ele>149.542</ele>
        <time>2020-06-09T14:46:42Z</time>
      </trkpt>
      <trkpt lat="44.87849" lon="0.61957">
        <ele>149.542</ele>
        <time>2020-06-09T14:46:43Z</time>
      </trkpt>
      <trkpt lat="44.87844" lon="0.61955">
        <ele>149.597</ele>
        <time>2020-06-09T14:46:46Z</time>
      </trkpt>
      <trkpt lat="44.8784" lon="0.61951">
        <ele>149.615</ele>
        <time>2020-06-09T14:46:49Z</time>
      </trkpt>
      <trkpt lat="44.87833" lon="0.61947">
        <ele>149.637</ele>
        <time>2020-06-09T14:46:54Z</time>
      </trkpt>
      <trkpt lat="44.87829" lon="0.61942">
        <ele>149.651</ele>
        <time>2020-06-09T14:46:58Z</time>
      </trkpt>
      <trkpt lat="44.87822" lon="0.61941">
        <ele>149.656</ele>
        <time>2020-06-09T14:47:01Z</time>
      </trkpt>
      <trkpt lat="44.87816" lon="0.61945">
        <ele>149.672</ele>
        <time>2020-06-09T14:47:04Z</time>
      </trkpt>
      <trkpt lat="44.87811" lon="0.61944">
        <ele>149.684</ele>
        <time>2020-06-09T14:47:07Z</time>
      </trkpt>
      <trkpt lat="44.87808" lon="0.61944">
        <ele>149.686</ele>
        <time>2020-06-09T14:47:08Z</time>
      </trkpt>
      <trkpt lat="44.87805" lon="0.61943">
        <ele>149.687</ele>
        <time>2020-06-09T14:47:09Z</time>
      </trkpt>
      <trkpt lat="44.87801" lon="0.6194">
        <ele>149.688</ele>
        <time>2020-06-09T14:47:11Z</time>
      </trkpt>
      <trkpt lat="44.87795" lon="0.61938">
        <ele>149.697</ele>
        <time>2020-06-09T14:47:13Z</time>
      </trkpt>
      <trkpt lat="44.87792" lon="0.61937">
        <ele>149.713</ele>
        <time>2020-06-09T14:47:15Z</time>
      </trkpt>
      <trkpt lat="44.87786" lon="0.61936">
        <ele>149.753</ele>
        <time>2020-06-09T14:47:19Z</time>
      </trkpt>
      <trkpt lat="44.87781" lon="0.61935">
        <ele>149.788</ele>
        <time>2020-06-09T14:47:22Z</time>
      </trkpt>
      <trkpt lat="44.87776" lon="0.61935">
        <ele>149.854</ele>
        <time>2020-06-09T14:47:26Z</time>
      </trkpt>
      <trkpt lat="44.87771" lon="0.61935">
        <ele>149.93</ele>
        <time>2020-06-09T14:47:30Z</time>
      </trkpt>
      <trkpt lat="44.87766" lon="0.61934">
        <ele>150.018</ele>
        <time>2020-06-09T14:47:34Z</time>
      </trkpt>
      <trkpt lat="44.87761" lon="0.61932">
        <ele>150.09</ele>
        <time>2020-06-09T14:47:37Z</time>
      </trkpt>
      <trkpt lat="44.87758" lon="0.61931">
        <ele>150.123</ele>
        <time>2020-06-09T14:47:38Z</time>
      </trkpt>
      <trkpt lat="44.87756" lon="0.6193">
        <ele>150.164</ele>
        <time>2020-06-09T14:47:39Z</time>
      </trkpt>
      <trkpt lat="44.87751" lon="0.61931">
        <ele>150.355</ele>
        <time>2020-06-09T14:47:43Z</time>
      </trkpt>
      <trkpt lat="44.87747" lon="0.61931">
        <ele>150.625</ele>
        <time>2020-06-09T14:47:48Z</time>
      </trkpt>
      <trkpt lat="44.87744" lon="0.61931">
        <ele>150.796</ele>
        <time>2020-06-09T14:47:51Z</time>
      </trkpt>
      <trkpt lat="44.87739" lon="0.61929">
        <ele>151.036</ele>
        <time>2020-06-09T14:47:55Z</time>
      </trkpt>
      <trkpt lat="44.87736" lon="0.61928">
        <ele>151.17</ele>
        <time>2020-06-09T14:47:57Z</time>
      </trkpt>
      <trkpt lat="44.87734" lon="0.61927">
        <ele>151.241</ele>
        <time>2020-06-09T14:47:58Z</time>
      </trkpt>
      <trkpt lat="44.8773" lon="0.61925">
        <ele>151.392</ele>
        <time>2020-06-09T14:48:00Z</time>
      </trkpt>
      <trkpt lat="44.87724" lon="0.61925">
        <ele>151.721</ele>
        <time>2020-06-09T14:48:04Z</time>
      </trkpt>
      <trkpt lat="44.87719" lon="0.61927">
        <ele>151.989</ele>
        <time>2020-06-09T14:48:07Z</time>
      </trkpt>
      <trkpt lat="44.87713" lon="0.61927">
        <ele>152.28</ele>
        <time>2020-06-09T14:48:10Z</time>
      </trkpt>
      <trkpt lat="44.87708" lon="0.61928">
        <ele>152.597</ele>
        <time>2020-06-09T14:48:13Z</time>
      </trkpt>
      <trkpt lat="44.87703" lon="0.6193">
        <ele>153.038</ele>
        <time>2020-06-09T14:48:17Z</time>
      </trkpt>
      <trkpt lat="44.87703" lon="0.6193">
        <ele>153.038</ele>
        <time>2020-06-09T14:48:25Z</time>
      </trkpt>
      <trkpt lat="44.87703" lon="0.6193">
        <ele>153.038</ele>
        <time>2020-06-09T14:48:26Z</time>
      </trkpt>
      <trkpt lat="44.877" lon="0.61934">
        <ele>154.073</ele>
        <time>2020-06-09T14:48:28Z</time>
      </trkpt>
      <trkpt lat="44.87695" lon="0.61933">
        <ele>154.863</ele>
        <time>2020-06-09T14:48:34Z</time>
      </trkpt>
      <trkpt lat="44.87691" lon="0.61933">
        <ele>155.244</ele>
        <time>2020-06-09T14:48:37Z</time>
      </trkpt>
      <trkpt lat="44.87686" lon="0.61934">
        <ele>155.732</ele>
        <time>2020-06-09T14:48:41Z</time>
      </trkpt>
      <trkpt lat="44.87691" lon="0.61933">
        <ele>155.244</ele>
        <time>2020-06-09T14:48:50Z</time>
      </trkpt>
      <trkpt lat="44.87701" lon="0.6194">
        <ele>164.159</ele>
        <time>2020-06-09T14:50:05Z</time>
      </trkpt>
      <trkpt lat="44.87704" lon="0.61943">
        <ele>164.726</ele>
        <time>2020-06-09T14:50:10Z</time>
      </trkpt>
      <trkpt lat="44.87707" lon="0.61945">
        <ele>165.071</ele>
        <time>2020-06-09T14:50:12Z</time>
      </trkpt>
      <trkpt lat="44.87712" lon="0.61947">
        <ele>165.571</ele>
        <time>2020-06-09T14:50:15Z</time>
      </trkpt>
      <trkpt lat="44.87717" lon="0.61951">
        <ele>166.205</ele>
        <time>2020-06-09T14:50:19Z</time>
      </trkpt>
      <trkpt lat="44.87721" lon="0.61955">
        <ele>166.651</ele>
        <time>2020-06-09T14:50:22Z</time>
      </trkpt>
      <trkpt lat="44.87724" lon="0.61957">
        <ele>166.935</ele>
        <time>2020-06-09T14:50:24Z</time>
      </trkpt>
      <trkpt lat="44.87724" lon="0.61957">
        <ele>166.935</ele>
        <time>2020-06-09T14:50:32Z</time>
      </trkpt>
      <trkpt lat="44.87724" lon="0.61957">
        <ele>166.935</ele>
        <time>2020-06-09T14:50:33Z</time>
      </trkpt>
      <trkpt lat="44.87727" lon="0.61963">
        <ele>167.536</ele>
        <time>2020-06-09T14:50:56Z</time>
      </trkpt>
      <trkpt lat="44.8773" lon="0.61969">
        <ele>168.501</ele>
        <time>2020-06-09T14:51:05Z</time>
      </trkpt>
      <trkpt lat="44.87731" lon="0.61972">
        <ele>168.777</ele>
        <time>2020-06-09T14:51:07Z</time>
      </trkpt>
      <trkpt lat="44.87732" lon="0.61981">
        <ele>169.42</ele>
        <time>2020-06-09T14:51:12Z</time>
      </trkpt>
      <trkpt lat="44.87735" lon="0.6199">
        <ele>170.001</ele>
        <time>2020-06-09T14:51:17Z</time>
      </trkpt>
      <trkpt lat="44.87739" lon="0.61995">
        <ele>170.322</ele>
        <time>2020-06-09T14:51:20Z</time>
      </trkpt>
      <trkpt lat="44.87743" lon="0.61999">
        <ele>170.631</ele>
        <time>2020-06-09T14:51:23Z</time>
      </trkpt>
      <trkpt lat="44.87745" lon="0.62005">
        <ele>171.012</ele>
        <time>2020-06-09T14:51:27Z</time>
      </trkpt>
      <trkpt lat="44.87749" lon="0.6201">
        <ele>171.361</ele>
        <time>2020-06-09T14:51:31Z</time>
      </trkpt>
      <trkpt lat="44.87754" lon="0.62014">
        <ele>171.524</ele>
        <time>2020-06-09T14:51:33Z</time>
      </trkpt>
      <trkpt lat="44.87757" lon="0.6202">
        <ele>171.83</ele>
        <time>2020-06-09T14:51:37Z</time>
      </trkpt>
      <trkpt lat="44.87757" lon="0.6202">
        <ele>171.83</ele>
        <time>2020-06-09T14:51:45Z</time>
      </trkpt>
      <trkpt lat="44.87757" lon="0.6202">
        <ele>171.83</ele>
        <time>2020-06-09T14:51:46Z</time>
      </trkpt>
      <trkpt lat="44.87761" lon="0.62026">
        <ele>172.279</ele>
        <time>2020-06-09T14:51:50Z</time>
      </trkpt>
      <trkpt lat="44.87763" lon="0.62032">
        <ele>172.574</ele>
        <time>2020-06-09T14:51:55Z</time>
      </trkpt>
      <trkpt lat="44.87764" lon="0.62041">
        <ele>172.889</ele>
        <time>2020-06-09T14:52:01Z</time>
      </trkpt>
      <trkpt lat="44.87769" lon="0.62044">
        <ele>173.081</ele>
        <time>2020-06-09T14:52:06Z</time>
      </trkpt>
      <trkpt lat="44.87764" lon="0.62041">
        <ele>172.889</ele>
        <time>2020-06-09T14:52:14Z</time>
      </trkpt>
      <trkpt lat="44.87761" lon="0.62023">
        <ele>173.564</ele>
        <time>2020-06-09T14:52:18Z</time>
      </trkpt>
      <trkpt lat="44.87757" lon="0.62018">
        <ele>173.669</ele>
        <time>2020-06-09T14:52:21Z</time>
      </trkpt>
      <trkpt lat="44.87754" lon="0.62014">
        <ele>173.767</ele>
        <time>2020-06-09T14:52:24Z</time>
      </trkpt>
      <trkpt lat="44.8775" lon="0.62009">
        <ele>173.827</ele>
        <time>2020-06-09T14:52:26Z</time>
      </trkpt>
      <trkpt lat="44.87747" lon="0.62002">
        <ele>173.912</ele>
        <time>2020-06-09T14:52:29Z</time>
      </trkpt>
      <trkpt lat="44.87745" lon="0.61999">
        <ele>173.939</ele>
        <time>2020-06-09T14:52:30Z</time>
      </trkpt>
      <trkpt lat="44.87744" lon="0.61996">
        <ele>173.966</ele>
        <time>2020-06-09T14:52:31Z</time>
      </trkpt>
      <trkpt lat="44.87741" lon="0.61992">
        <ele>174.018</ele>
        <time>2020-06-09T14:52:33Z</time>
      </trkpt>
      <trkpt lat="44.87738" lon="0.61987">
        <ele>174.068</ele>
        <time>2020-06-09T14:52:35Z</time>
      </trkpt>
      <trkpt lat="44.87735" lon="0.61984">
        <ele>174.118</ele>
        <time>2020-06-09T14:52:37Z</time>
      </trkpt>
      <trkpt lat="44.87731" lon="0.6198">
        <ele>174.212</ele>
        <time>2020-06-09T14:52:41Z</time>
      </trkpt>
      <trkpt lat="44.8773" lon="0.61978">
        <ele>174.255</ele>
        <time>2020-06-09T14:52:43Z</time>
      </trkpt>
      <trkpt lat="44.87728" lon="0.61975">
        <ele>174.276</ele>
        <time>2020-06-09T14:52:44Z</time>
      </trkpt>
      <trkpt lat="44.87726" lon="0.61971">
        <ele>174.318</ele>
        <time>2020-06-09T14:52:46Z</time>
      </trkpt>
      <trkpt lat="44.8773" lon="0.61978">
        <ele>174.255</ele>
        <time>2020-06-09T14:52:52Z</time>
      </trkpt>
      <trkpt lat="44.87719" lon="0.61965">
        <ele>174.505</ele>
        <time>2020-06-09T14:52:57Z</time>
      </trkpt>
      <trkpt lat="44.87717" lon="0.61962">
        <ele>174.538</ele>
        <time>2020-06-09T14:52:59Z</time>
      </trkpt>
      <trkpt lat="44.87713" lon="0.61956">
        <ele>174.584</ele>
        <time>2020-06-09T14:53:02Z</time>
      </trkpt>
      <trkpt lat="44.87709" lon="0.61953">
        <ele>174.626</ele>
        <time>2020-06-09T14:53:05Z</time>
      </trkpt>
      <trkpt lat="44.87705" lon="0.61957">
        <ele>174.704</ele>
        <time>2020-06-09T14:53:11Z</time>
      </trkpt>
      <trkpt lat="44.87701" lon="0.61965">
        <ele>174.751</ele>
        <time>2020-06-09T14:53:15Z</time>
      </trkpt>
      <trkpt lat="44.87697" lon="0.61968">
        <ele>174.78</ele>
        <time>2020-06-09T14:53:18Z</time>
      </trkpt>
      <trkpt lat="44.87692" lon="0.61966">
        <ele>174.819</ele>
        <time>2020-06-09T14:53:24Z</time>
      </trkpt>
      <trkpt lat="44.87688" lon="0.61965">
        <ele>174.839</ele>
        <time>2020-06-09T14:53:27Z</time>
      </trkpt>
      <trkpt lat="44.87688" lon="0.61965">
        <ele>174.839</ele>
        <time>2020-06-09T14:53:35Z</time>
      </trkpt>
      <trkpt lat="44.87684" lon="0.61968">
        <ele>174.901</ele>
        <time>2020-06-09T14:53:36Z</time>
      </trkpt>
      <trkpt lat="44.87682" lon="0.61974">
        <ele>174.941</ele>
        <time>2020-06-09T14:53:43Z</time>
      </trkpt>
      <trkpt lat="44.87685" lon="0.6195">
        <ele>175.267</ele>
        <time>2020-06-09T14:54:02Z</time>
      </trkpt>
      <trkpt lat="44.87686" lon="0.61946">
        <ele>175.295</ele>
        <time>2020-06-09T14:54:03Z</time>
      </trkpt>
      <trkpt lat="44.87689" lon="0.6194">
        <ele>175.412</ele>
        <time>2020-06-09T14:54:07Z</time>
      </trkpt>
      <trkpt lat="44.8769" lon="0.61934">
        <ele>175.534</ele>
        <time>2020-06-09T14:54:11Z</time>
      </trkpt>
      <trkpt lat="44.87687" lon="0.61928">
        <ele>175.687</ele>
        <time>2020-06-09T14:54:16Z</time>
      </trkpt>
      <trkpt lat="44.87682" lon="0.61924">
        <ele>175.843</ele>
        <time>2020-06-09T14:54:21Z</time>
      </trkpt>
      <trkpt lat="44.87678" lon="0.6192">
        <ele>175.939</ele>
        <time>2020-06-09T14:54:24Z</time>
      </trkpt>
      <trkpt lat="44.87675" lon="0.61918">
        <ele>176.003</ele>
        <time>2020-06-09T14:54:26Z</time>
      </trkpt>
      <trkpt lat="44.87672" lon="0.61915">
        <ele>176.07</ele>
        <time>2020-06-09T14:54:28Z</time>
      </trkpt>
      <trkpt lat="44.87667" lon="0.61913">
        <ele>176.173</ele>
        <time>2020-06-09T14:54:31Z</time>
      </trkpt>
      <trkpt lat="44.87664" lon="0.61913">
        <ele>176.278</ele>
        <time>2020-06-09T14:54:34Z</time>
      </trkpt>
      <trkpt lat="44.87656" lon="0.6191">
        <ele>176.453</ele>
        <time>2020-06-09T14:54:39Z</time>
      </trkpt>
      <trkpt lat="44.87651" lon="0.61907">
        <ele>176.561</ele>
        <time>2020-06-09T14:54:42Z</time>
      </trkpt>
      <trkpt lat="44.87648" lon="0.61905">
        <ele>176.632</ele>
        <time>2020-06-09T14:54:44Z</time>
      </trkpt>
      <trkpt lat="44.87643" lon="0.61905">
        <ele>176.778</ele>
        <time>2020-06-09T14:54:48Z</time>
      </trkpt>
      <trkpt lat="44.87638" lon="0.61904">
        <ele>176.927</ele>
        <time>2020-06-09T14:54:52Z</time>
      </trkpt>
      <trkpt lat="44.87633" lon="0.61901">
        <ele>177.036</ele>
        <time>2020-06-09T14:54:55Z</time>
      </trkpt>
      <trkpt lat="44.87629" lon="0.61899">
        <ele>177.108</ele>
        <time>2020-06-09T14:54:57Z</time>
      </trkpt>
      <trkpt lat="44.87627" lon="0.61898">
        <ele>177.143</ele>
        <time>2020-06-09T14:54:58Z</time>
      </trkpt>
      <trkpt lat="44.87624" lon="0.61897">
        <ele>177.213</ele>
        <time>2020-06-09T14:55:00Z</time>
      </trkpt>
      <trkpt lat="44.87621" lon="0.61896">
        <ele>177.282</ele>
        <time>2020-06-09T14:55:02Z</time>
      </trkpt>
      <trkpt lat="44.87616" lon="0.61894">
        <ele>177.386</ele>
        <time>2020-06-09T14:55:05Z</time>
      </trkpt>
      <trkpt lat="44.87611" lon="0.61891">
        <ele>177.488</ele>
        <time>2020-06-09T14:55:08Z</time>
      </trkpt>
      <trkpt lat="44.87606" lon="0.61889">
        <ele>177.626</ele>
        <time>2020-06-09T14:55:12Z</time>
      </trkpt>
      <trkpt lat="44.87601" lon="0.61887">
        <ele>177.729</ele>
        <time>2020-06-09T14:55:15Z</time>
      </trkpt>
      <trkpt lat="44.87598" lon="0.61886">
        <ele>177.796</ele>
        <time>2020-06-09T14:55:17Z</time>
      </trkpt>
      <trkpt lat="44.87594" lon="0.61884">
        <ele>177.863</ele>
        <time>2020-06-09T14:55:19Z</time>
      </trkpt>
      <trkpt lat="44.87591" lon="0.61882">
        <ele>177.93</ele>
        <time>2020-06-09T14:55:21Z</time>
      </trkpt>
      <trkpt lat="44.87588" lon="0.61881">
        <ele>177.995</ele>
        <time>2020-06-09T14:55:23Z</time>
      </trkpt>
      <trkpt lat="44.8758" lon="0.61879">
        <ele>178.125</ele>
        <time>2020-06-09T14:55:27Z</time>
      </trkpt>
      <trkpt lat="44.87577" lon="0.61879">
        <ele>178.191</ele>
        <time>2020-06-09T14:55:29Z</time>
      </trkpt>
      <trkpt lat="44.87575" lon="0.61878">
        <ele>178.333</ele>
        <time>2020-06-09T14:55:33Z</time>
      </trkpt>
      <trkpt lat="44.87571" lon="0.61875">
        <ele>178.518</ele>
        <time>2020-06-09T14:55:38Z</time>
      </trkpt>
      <trkpt lat="44.87568" lon="0.61873">
        <ele>178.589</ele>
        <time>2020-06-09T14:55:40Z</time>
      </trkpt>
      <trkpt lat="44.87566" lon="0.61871">
        <ele>178.658</ele>
        <time>2020-06-09T14:55:42Z</time>
      </trkpt>
      <trkpt lat="44.87562" lon="0.61866">
        <ele>178.757</ele>
        <time>2020-06-09T14:55:45Z</time>
      </trkpt>
      <trkpt lat="44.87559" lon="0.61862">
        <ele>178.853</ele>
        <time>2020-06-09T14:55:48Z</time>
      </trkpt>
      <trkpt lat="44.87556" lon="0.61858">
        <ele>178.915</ele>
        <time>2020-06-09T14:55:50Z</time>
      </trkpt>
      <trkpt lat="44.87552" lon="0.61853">
        <ele>179.008</ele>
        <time>2020-06-09T14:55:53Z</time>
      </trkpt>
      <trkpt lat="44.87548" lon="0.61849">
        <ele>179.098</ele>
        <time>2020-06-09T14:55:56Z</time>
      </trkpt>
      <trkpt lat="44.87545" lon="0.61843">
        <ele>179.213</ele>
        <time>2020-06-09T14:56:00Z</time>
      </trkpt>
      <trkpt lat="44.87543" lon="0.6184">
        <ele>179.269</ele>
        <time>2020-06-09T14:56:02Z</time>
      </trkpt>
      <trkpt lat="44.8754" lon="0.61834">
        <ele>179.373</ele>
        <time>2020-06-09T14:56:06Z</time>
      </trkpt>
      <trkpt lat="44.87538" lon="0.61831">
        <ele>179.422</ele>
        <time>2020-06-09T14:56:08Z</time>
      </trkpt>
      <trkpt lat="44.87533" lon="0.61826">
        <ele>179.514</ele>
        <time>2020-06-09T14:56:12Z</time>
      </trkpt>
      <trkpt lat="44.87529" lon="0.61821">
        <ele>179.579</ele>
        <time>2020-06-09T14:56:15Z</time>
      </trkpt>
      <trkpt lat="44.87527" lon="0.61817">
        <ele>179.62</ele>
        <time>2020-06-09T14:56:17Z</time>
      </trkpt>
      <trkpt lat="44.87523" lon="0.61814">
        <ele>179.678</ele>
        <time>2020-06-09T14:56:20Z</time>
      </trkpt>
      <trkpt lat="44.8752" lon="0.61811">
        <ele>179.734</ele>
        <time>2020-06-09T14:56:23Z</time>
      </trkpt>
      <trkpt lat="44.87516" lon="0.61805">
        <ele>179.803</ele>
        <time>2020-06-09T14:56:27Z</time>
      </trkpt>
      <trkpt lat="44.87511" lon="0.61801">
        <ele>179.851</ele>
        <time>2020-06-09T14:56:30Z</time>
      </trkpt>
      <trkpt lat="44.87509" lon="0.61799">
        <ele>179.882</ele>
        <time>2020-06-09T14:56:32Z</time>
      </trkpt>
      <trkpt lat="44.87511" lon="0.61801">
        <ele>179.851</ele>
        <time>2020-06-09T14:56:40Z</time>
      </trkpt>
      <trkpt lat="44.87513" lon="0.61807">
        <ele>180.051</ele>
        <time>2020-06-09T14:56:44Z</time>
      </trkpt>
      <trkpt lat="44.87517" lon="0.61812">
        <ele>180.087</ele>
        <time>2020-06-09T14:56:47Z</time>
      </trkpt>
      <trkpt lat="44.87522" lon="0.61815">
        <ele>180.124</ele>
        <time>2020-06-09T14:56:50Z</time>
      </trkpt>
      <trkpt lat="44.87527" lon="0.6182">
        <ele>180.171</ele>
        <time>2020-06-09T14:56:54Z</time>
      </trkpt>
      <trkpt lat="44.87529" lon="0.61823">
        <ele>180.194</ele>
        <time>2020-06-09T14:56:56Z</time>
      </trkpt>
      <trkpt lat="44.87532" lon="0.61827">
        <ele>180.229</ele>
        <time>2020-06-09T14:56:59Z</time>
      </trkpt>
      <trkpt lat="44.87535" lon="0.6183">
        <ele>180.251</ele>
        <time>2020-06-09T14:57:01Z</time>
      </trkpt>
      <trkpt lat="44.87541" lon="0.61833">
        <ele>180.295</ele>
        <time>2020-06-09T14:57:05Z</time>
      </trkpt>
      <trkpt lat="44.87544" lon="0.61835">
        <ele>180.315</ele>
        <time>2020-06-09T14:57:07Z</time>
      </trkpt>
      <trkpt lat="44.87549" lon="0.61841">
        <ele>180.345</ele>
        <time>2020-06-09T14:57:10Z</time>
      </trkpt>
      <trkpt lat="44.87553" lon="0.61847">
        <ele>180.385</ele>
        <time>2020-06-09T14:57:14Z</time>
      </trkpt>
      <trkpt lat="44.87557" lon="0.61851">
        <ele>180.412</ele>
        <time>2020-06-09T14:57:17Z</time>
      </trkpt>
      <trkpt lat="44.87561" lon="0.61858">
        <ele>180.435</ele>
        <time>2020-06-09T14:57:20Z</time>
      </trkpt>
      <trkpt lat="44.87562" lon="0.61861">
        <ele>180.443</ele>
        <time>2020-06-09T14:57:21Z</time>
      </trkpt>
      <trkpt lat="44.87566" lon="0.61865">
        <ele>180.458</ele>
        <time>2020-06-09T14:57:23Z</time>
      </trkpt>
      <trkpt lat="44.87569" lon="0.6187">
        <ele>180.474</ele>
        <time>2020-06-09T14:57:25Z</time>
      </trkpt>
      <trkpt lat="44.87573" lon="0.61876">
        <ele>180.499</ele>
        <time>2020-06-09T14:57:28Z</time>
      </trkpt>
      <trkpt lat="44.87578" lon="0.6188">
        <ele>180.545</ele>
        <time>2020-06-09T14:57:33Z</time>
      </trkpt>
      <trkpt lat="44.87581" lon="0.61886">
        <ele>180.584</ele>
        <time>2020-06-09T14:57:37Z</time>
      </trkpt>
      <trkpt lat="44.87585" lon="0.61891">
        <ele>180.613</ele>
        <time>2020-06-09T14:57:40Z</time>
      </trkpt>
      <trkpt lat="44.87587" lon="0.61897">
        <ele>180.655</ele>
        <time>2020-06-09T14:57:44Z</time>
      </trkpt>
      <trkpt lat="44.87589" lon="0.61901">
        <ele>180.677</ele>
        <time>2020-06-09T14:57:46Z</time>
      </trkpt>
      <trkpt lat="44.87591" lon="0.61906">
        <ele>180.7</ele>
        <time>2020-06-09T14:57:48Z</time>
      </trkpt>
      <trkpt lat="44.87593" lon="0.6191">
        <ele>180.725</ele>
        <time>2020-06-09T14:57:50Z</time>
      </trkpt>
      <trkpt lat="44.87596" lon="0.61916">
        <ele>180.764</ele>
        <time>2020-06-09T14:57:53Z</time>
      </trkpt>
      <trkpt lat="44.87598" lon="0.61919">
        <ele>180.792</ele>
        <time>2020-06-09T14:57:55Z</time>
      </trkpt>
      <trkpt lat="44.876" lon="0.61924">
        <ele>180.82</ele>
        <time>2020-06-09T14:57:57Z</time>
      </trkpt>
      <trkpt lat="44.87602" lon="0.61927">
        <ele>180.849</ele>
        <time>2020-06-09T14:57:59Z</time>
      </trkpt>
      <trkpt lat="44.87604" lon="0.61931">
        <ele>180.879</ele>
        <time>2020-06-09T14:58:01Z</time>
      </trkpt>
      <trkpt lat="44.87605" lon="0.61934">
        <ele>180.911</ele>
        <time>2020-06-09T14:58:03Z</time>
      </trkpt>
      <trkpt lat="44.87607" lon="0.61937">
        <ele>180.943</ele>
        <time>2020-06-09T14:58:05Z</time>
      </trkpt>
      <trkpt lat="44.87608" lon="0.61941">
        <ele>180.974</ele>
        <time>2020-06-09T14:58:07Z</time>
      </trkpt>
      <trkpt lat="44.8761" lon="0.61945">
        <ele>181.004</ele>
        <time>2020-06-09T14:58:09Z</time>
      </trkpt>
      <trkpt lat="44.87612" lon="0.61949">
        <ele>181.033</ele>
        <time>2020-06-09T14:58:11Z</time>
      </trkpt>
      <trkpt lat="44.87614" lon="0.61956">
        <ele>181.075</ele>
        <time>2020-06-09T14:58:14Z</time>
      </trkpt>
      <trkpt lat="44.87616" lon="0.61965">
        <ele>181.128</ele>
        <time>2020-06-09T14:58:18Z</time>
      </trkpt>
      <trkpt lat="44.87617" lon="0.61969">
        <ele>181.152</ele>
        <time>2020-06-09T14:58:20Z</time>
      </trkpt>
      <trkpt lat="44.87618" lon="0.61976">
        <ele>181.184</ele>
        <time>2020-06-09T14:58:23Z</time>
      </trkpt>
      <trkpt lat="44.87619" lon="0.6198">
        <ele>181.203</ele>
        <time>2020-06-09T14:58:25Z</time>
      </trkpt>
      <trkpt lat="44.87619" lon="0.61987">
        <ele>181.228</ele>
        <time>2020-06-09T14:58:28Z</time>
      </trkpt>
      <trkpt lat="44.8762" lon="0.6199">
        <ele>181.242</ele>
        <time>2020-06-09T14:58:30Z</time>
      </trkpt>
      <trkpt lat="44.8762" lon="0.61997">
        <ele>181.263</ele>
        <time>2020-06-09T14:58:33Z</time>
      </trkpt>
      <trkpt lat="44.87615" lon="0.62">
        <ele>181.3</ele>
        <time>2020-06-09T14:58:38Z</time>
      </trkpt>
      <trkpt lat="44.8761" lon="0.62001">
        <ele>181.323</ele>
        <time>2020-06-09T14:58:41Z</time>
      </trkpt>
      <trkpt lat="44.87608" lon="0.62002">
        <ele>181.339</ele>
        <time>2020-06-09T14:58:43Z</time>
      </trkpt>
      <trkpt lat="44.87603" lon="0.62001">
        <ele>181.361</ele>
        <time>2020-06-09T14:58:46Z</time>
      </trkpt>
      <trkpt lat="44.87598" lon="0.62003">
        <ele>181.384</ele>
        <time>2020-06-09T14:58:49Z</time>
      </trkpt>
      <trkpt lat="44.87595" lon="0.62003">
        <ele>181.398</ele>
        <time>2020-06-09T14:58:51Z</time>
      </trkpt>
      <trkpt lat="44.87589" lon="0.62003">
        <ele>181.423</ele>
        <time>2020-06-09T14:58:55Z</time>
      </trkpt>
      <trkpt lat="44.87585" lon="0.62003">
        <ele>181.439</ele>
        <time>2020-06-09T14:58:58Z</time>
      </trkpt>
      <trkpt lat="44.8758" lon="0.62003">
        <ele>181.454</ele>
        <time>2020-06-09T14:59:01Z</time>
      </trkpt>
      <trkpt lat="44.87577" lon="0.62002">
        <ele>181.464</ele>
        <time>2020-06-09T14:59:03Z</time>
      </trkpt>
      <trkpt lat="44.87572" lon="0.62004">
        <ele>181.483</ele>
        <time>2020-06-09T14:59:07Z</time>
      </trkpt>
      <trkpt lat="44.87567" lon="0.62004">
        <ele>181.498</ele>
        <time>2020-06-09T14:59:11Z</time>
      </trkpt>
      <trkpt lat="44.87561" lon="0.62001">
        <ele>181.513</ele>
        <time>2020-06-09T14:59:15Z</time>
      </trkpt>
      <trkpt lat="44.87556" lon="0.62002">
        <ele>181.523</ele>
        <time>2020-06-09T14:59:18Z</time>
      </trkpt>
      <trkpt lat="44.87552" lon="0.62003">
        <ele>181.532</ele>
        <time>2020-06-09T14:59:21Z</time>
      </trkpt>
      <trkpt lat="44.87548" lon="0.62004">
        <ele>181.541</ele>
        <time>2020-06-09T14:59:24Z</time>
      </trkpt>
      <trkpt lat="44.87543" lon="0.62004">
        <ele>181.551</ele>
        <time>2020-06-09T14:59:28Z</time>
      </trkpt>
      <trkpt lat="44.87538" lon="0.62004">
        <ele>181.56</ele>
        <time>2020-06-09T14:59:32Z</time>
      </trkpt>
      <trkpt lat="44.87532" lon="0.62005">
        <ele>181.567</ele>
        <time>2020-06-09T14:59:35Z</time>
      </trkpt>
      <trkpt lat="44.8753" lon="0.62005">
        <ele>181.572</ele>
        <time>2020-06-09T14:59:37Z</time>
      </trkpt>
      <trkpt lat="44.87527" lon="0.62006">
        <ele>181.576</ele>
        <time>2020-06-09T14:59:39Z</time>
      </trkpt>
      <trkpt lat="44.87521" lon="0.62007">
        <ele>181.583</ele>
        <time>2020-06-09T14:59:43Z</time>
      </trkpt>
      <trkpt lat="44.87518" lon="0.62007">
        <ele>181.587</ele>
        <time>2020-06-09T14:59:45Z</time>
      </trkpt>
      <trkpt lat="44.87513" lon="0.62009">
        <ele>181.592</ele>
        <time>2020-06-09T14:59:48Z</time>
      </trkpt>
      <trkpt lat="44.87509" lon="0.6201">
        <ele>181.595</ele>
        <time>2020-06-09T14:59:50Z</time>
      </trkpt>
      <trkpt lat="44.87507" lon="0.62011">
        <ele>181.597</ele>
        <time>2020-06-09T14:59:52Z</time>
      </trkpt>
      <trkpt lat="44.87502" lon="0.62013">
        <ele>181.598</ele>
        <time>2020-06-09T14:59:55Z</time>
      </trkpt>
      <trkpt lat="44.87497" lon="0.62015">
        <ele>181.597</ele>
        <time>2020-06-09T14:59:58Z</time>
      </trkpt>
      <trkpt lat="44.87493" lon="0.62016">
        <ele>181.596</ele>
        <time>2020-06-09T15:00:00Z</time>
      </trkpt>
      <trkpt lat="44.8749" lon="0.62017">
        <ele>181.594</ele>
        <time>2020-06-09T15:00:02Z</time>
      </trkpt>
      <trkpt lat="44.87486" lon="0.62018">
        <ele>181.592</ele>
        <time>2020-06-09T15:00:04Z</time>
      </trkpt>
      <trkpt lat="44.87481" lon="0.62017">
        <ele>181.587</ele>
        <time>2020-06-09T15:00:07Z</time>
      </trkpt>
      <trkpt lat="44.87477" lon="0.62017">
        <ele>181.583</ele>
        <time>2020-06-09T15:00:09Z</time>
      </trkpt>
      <trkpt lat="44.87472" lon="0.62018">
        <ele>181.576</ele>
        <time>2020-06-09T15:00:12Z</time>
      </trkpt>
      <trkpt lat="44.87469" lon="0.62019">
        <ele>181.571</ele>
        <time>2020-06-09T15:00:14Z</time>
      </trkpt>
      <trkpt lat="44.87462" lon="0.62021">
        <ele>181.56</ele>
        <time>2020-06-09T15:00:18Z</time>
      </trkpt>
      <trkpt lat="44.87458" lon="0.62021">
        <ele>181.555</ele>
        <time>2020-06-09T15:00:20Z</time>
      </trkpt>
      <trkpt lat="44.87455" lon="0.62022">
        <ele>181.549</ele>
        <time>2020-06-09T15:00:22Z</time>
      </trkpt>
      <trkpt lat="44.87452" lon="0.62022">
        <ele>181.541</ele>
        <time>2020-06-09T15:00:24Z</time>
      </trkpt>
      <trkpt lat="44.87449" lon="0.62023">
        <ele>181.533</ele>
        <time>2020-06-09T15:00:26Z</time>
      </trkpt>
      <trkpt lat="44.87446" lon="0.62024">
        <ele>181.523</ele>
        <time>2020-06-09T15:00:28Z</time>
      </trkpt>
      <trkpt lat="44.87439" lon="0.62023">
        <ele>181.509</ele>
        <time>2020-06-09T15:00:31Z</time>
      </trkpt>
      <trkpt lat="44.87436" lon="0.62023">
        <ele>181.504</ele>
        <time>2020-06-09T15:00:32Z</time>
      </trkpt>
      <trkpt lat="44.87432" lon="0.62023">
        <ele>181.496</ele>
        <time>2020-06-09T15:00:34Z</time>
      </trkpt>
      <trkpt lat="44.8743" lon="0.62023">
        <ele>181.487</ele>
        <time>2020-06-09T15:00:36Z</time>
      </trkpt>
      <trkpt lat="44.87427" lon="0.62023">
        <ele>181.478</ele>
        <time>2020-06-09T15:00:38Z</time>
      </trkpt>
      <trkpt lat="44.87424" lon="0.62024">
        <ele>181.469</ele>
        <time>2020-06-09T15:00:40Z</time>
      </trkpt>
      <trkpt lat="44.87421" lon="0.62024">
        <ele>181.459</ele>
        <time>2020-06-09T15:00:42Z</time>
      </trkpt>
      <trkpt lat="44.87416" lon="0.62026">
        <ele>181.445</ele>
        <time>2020-06-09T15:00:45Z</time>
      </trkpt>
      <trkpt lat="44.87412" lon="0.62026">
        <ele>181.436</ele>
        <time>2020-06-09T15:00:47Z</time>
      </trkpt>
      <trkpt lat="44.87406" lon="0.62026">
        <ele>181.423</ele>
        <time>2020-06-09T15:00:50Z</time>
      </trkpt>
      <trkpt lat="44.87404" lon="0.62026">
        <ele>181.414</ele>
        <time>2020-06-09T15:00:52Z</time>
      </trkpt>
      <trkpt lat="44.87399" lon="0.62028">
        <ele>181.402</ele>
        <time>2020-06-09T15:00:55Z</time>
      </trkpt>
      <trkpt lat="44.87395" lon="0.62029">
        <ele>181.394</ele>
        <time>2020-06-09T15:00:57Z</time>
      </trkpt>
      <trkpt lat="44.87391" lon="0.62031">
        <ele>181.386</ele>
        <time>2020-06-09T15:00:59Z</time>
      </trkpt>
      <trkpt lat="44.87385" lon="0.62032">
        <ele>181.372</ele>
        <time>2020-06-09T15:01:02Z</time>
      </trkpt>
      <trkpt lat="44.87382" lon="0.62032">
        <ele>181.364</ele>
        <time>2020-06-09T15:01:04Z</time>
      </trkpt>
      <trkpt lat="44.87377" lon="0.62033">
        <ele>181.349</ele>
        <time>2020-06-09T15:01:07Z</time>
      </trkpt>
      <trkpt lat="44.87372" lon="0.62036">
        <ele>181.33</ele>
        <time>2020-06-09T15:01:11Z</time>
      </trkpt>
      <trkpt lat="44.87369" lon="0.62037">
        <ele>181.321</ele>
        <time>2020-06-09T15:01:13Z</time>
      </trkpt>
      <trkpt lat="44.87367" lon="0.62038">
        <ele>181.317</ele>
        <time>2020-06-09T15:01:14Z</time>
      </trkpt>
      <trkpt lat="44.87365" lon="0.62039">
        <ele>181.313</ele>
        <time>2020-06-09T15:01:15Z</time>
      </trkpt>
      <trkpt lat="44.87359" lon="0.62041">
        <ele>181.301</ele>
        <time>2020-06-09T15:01:18Z</time>
      </trkpt>
      <trkpt lat="44.87357" lon="0.62042">
        <ele>181.292</ele>
        <time>2020-06-09T15:01:20Z</time>
      </trkpt>
      <trkpt lat="44.8735" lon="0.62044">
        <ele>181.271</ele>
        <time>2020-06-09T15:01:24Z</time>
      </trkpt>
      <trkpt lat="44.87345" lon="0.62047">
        <ele>181.25</ele>
        <time>2020-06-09T15:01:28Z</time>
      </trkpt>
      <trkpt lat="44.87341" lon="0.62049">
        <ele>181.237</ele>
        <time>2020-06-09T15:01:30Z</time>
      </trkpt>
      <trkpt lat="44.87334" lon="0.62049">
        <ele>181.21</ele>
        <time>2020-06-09T15:01:34Z</time>
      </trkpt>
      <trkpt lat="44.87331" lon="0.6205">
        <ele>181.203</ele>
        <time>2020-06-09T15:01:35Z</time>
      </trkpt>
      <trkpt lat="44.87328" lon="0.6205">
        <ele>181.188</ele>
        <time>2020-06-09T15:01:37Z</time>
      </trkpt>
      <trkpt lat="44.87322" lon="0.6205">
        <ele>181.166</ele>
        <time>2020-06-09T15:01:40Z</time>
      </trkpt>
      <trkpt lat="44.87318" lon="0.6205">
        <ele>181.15</ele>
        <time>2020-06-09T15:01:42Z</time>
      </trkpt>
      <trkpt lat="44.87312" lon="0.62049">
        <ele>181.125</ele>
        <time>2020-06-09T15:01:45Z</time>
      </trkpt>
      <trkpt lat="44.87306" lon="0.6205">
        <ele>181.075</ele>
        <time>2020-06-09T15:01:51Z</time>
      </trkpt>
      <trkpt lat="44.87304" lon="0.62051">
        <ele>181.059</ele>
        <time>2020-06-09T15:01:53Z</time>
      </trkpt>
      <trkpt lat="44.87299" lon="0.6205">
        <ele>181.032</ele>
        <time>2020-06-09T15:01:56Z</time>
      </trkpt>
      <trkpt lat="44.87294" lon="0.62048">
        <ele>181.012</ele>
        <time>2020-06-09T15:01:58Z</time>
      </trkpt>
      <trkpt lat="44.87289" lon="0.62046">
        <ele>180.98</ele>
        <time>2020-06-09T15:02:01Z</time>
      </trkpt>
      <trkpt lat="44.87285" lon="0.62045">
        <ele>180.96</ele>
        <time>2020-06-09T15:02:03Z</time>
      </trkpt>
      <trkpt lat="44.87279" lon="0.62045">
        <ele>180.915</ele>
        <time>2020-06-09T15:02:07Z</time>
      </trkpt>
      <trkpt lat="44.87276" lon="0.62046">
        <ele>180.892</ele>
        <time>2020-06-09T15:02:09Z</time>
      </trkpt>
      <trkpt lat="44.8727" lon="0.62046">
        <ele>180.858</ele>
        <time>2020-06-09T15:02:12Z</time>
      </trkpt>
      <trkpt lat="44.87264" lon="0.62047">
        <ele>180.824</ele>
        <time>2020-06-09T15:02:15Z</time>
      </trkpt>
      <trkpt lat="44.87259" lon="0.62048">
        <ele>180.788</ele>
        <time>2020-06-09T15:02:18Z</time>
      </trkpt>
      <trkpt lat="44.87256" lon="0.62048">
        <ele>180.766</ele>
        <time>2020-06-09T15:02:20Z</time>
      </trkpt>
      <trkpt lat="44.87251" lon="0.6205">
        <ele>180.733</ele>
        <time>2020-06-09T15:02:23Z</time>
      </trkpt>
      <trkpt lat="44.87244" lon="0.6205">
        <ele>180.697</ele>
        <time>2020-06-09T15:02:26Z</time>
      </trkpt>
      <trkpt lat="44.87238" lon="0.62049">
        <ele>180.657</ele>
        <time>2020-06-09T15:02:29Z</time>
      </trkpt>
      <trkpt lat="44.87235" lon="0.62048">
        <ele>180.629</ele>
        <time>2020-06-09T15:02:31Z</time>
      </trkpt>
      <trkpt lat="44.8723" lon="0.62049">
        <ele>180.588</ele>
        <time>2020-06-09T15:02:34Z</time>
      </trkpt>
      <trkpt lat="44.8723" lon="0.62049">
        <ele>180.588</ele>
        <time>2020-06-09T15:02:39Z</time>
      </trkpt>
      <trkpt lat="44.87225" lon="0.62048">
        <ele>180.506</ele>
        <time>2020-06-09T15:02:40Z</time>
      </trkpt>
      <trkpt lat="44.87222" lon="0.62048">
        <ele>180.478</ele>
        <time>2020-06-09T15:02:42Z</time>
      </trkpt>
      <trkpt lat="44.87216" lon="0.62046">
        <ele>180.418</ele>
        <time>2020-06-09T15:02:46Z</time>
      </trkpt>
      <trkpt lat="44.87211" lon="0.62043">
        <ele>180.371</ele>
        <time>2020-06-09T15:02:49Z</time>
      </trkpt>
      <trkpt lat="44.87206" lon="0.62042">
        <ele>180.306</ele>
        <time>2020-06-09T15:02:53Z</time>
      </trkpt>
      <trkpt lat="44.87199" lon="0.62042">
        <ele>180.271</ele>
        <time>2020-06-09T15:02:55Z</time>
      </trkpt>
      <trkpt lat="44.87196" lon="0.62042">
        <ele>180.236</ele>
        <time>2020-06-09T15:02:57Z</time>
      </trkpt>
      <trkpt lat="44.87193" lon="0.62042">
        <ele>180.2</ele>
        <time>2020-06-09T15:02:59Z</time>
      </trkpt>
      <trkpt lat="44.87189" lon="0.62042">
        <ele>180.163</ele>
        <time>2020-06-09T15:03:01Z</time>
      </trkpt>
      <trkpt lat="44.87183" lon="0.62043">
        <ele>180.125</ele>
        <time>2020-06-09T15:03:03Z</time>
      </trkpt>
      <trkpt lat="44.8718" lon="0.62043">
        <ele>180.105</ele>
        <time>2020-06-09T15:03:04Z</time>
      </trkpt>
      <trkpt lat="44.87175" lon="0.62045">
        <ele>180.045</ele>
        <time>2020-06-09T15:03:07Z</time>
      </trkpt>
      <trkpt lat="44.87172" lon="0.62045">
        <ele>180.006</ele>
        <time>2020-06-09T15:03:09Z</time>
      </trkpt>
      <trkpt lat="44.87165" lon="0.62048">
        <ele>179.91</ele>
        <time>2020-06-09T15:03:14Z</time>
      </trkpt>
      <trkpt lat="44.87161" lon="0.62051">
        <ele>179.873</ele>
        <time>2020-06-09T15:03:16Z</time>
      </trkpt>
      <trkpt lat="44.87157" lon="0.62056">
        <ele>179.818</ele>
        <time>2020-06-09T15:03:19Z</time>
      </trkpt>
      <trkpt lat="44.87151" lon="0.62058">
        <ele>179.761</ele>
        <time>2020-06-09T15:03:22Z</time>
      </trkpt>
      <trkpt lat="44.87148" lon="0.62059">
        <ele>179.721</ele>
        <time>2020-06-09T15:03:24Z</time>
      </trkpt>
      <trkpt lat="44.87143" lon="0.62063">
        <ele>179.663</ele>
        <time>2020-06-09T15:03:27Z</time>
      </trkpt>
      <trkpt lat="44.87138" lon="0.62064">
        <ele>179.606</ele>
        <time>2020-06-09T15:03:30Z</time>
      </trkpt>
      <trkpt lat="44.87133" lon="0.62064">
        <ele>179.546</ele>
        <time>2020-06-09T15:03:33Z</time>
      </trkpt>
      <trkpt lat="44.87129" lon="0.62063">
        <ele>179.46</ele>
        <time>2020-06-09T15:03:37Z</time>
      </trkpt>
      <trkpt lat="44.87123" lon="0.62065">
        <ele>179.367</ele>
        <time>2020-06-09T15:03:41Z</time>
      </trkpt>
      <trkpt lat="44.87119" lon="0.62062">
        <ele>179.294</ele>
        <time>2020-06-09T15:03:44Z</time>
      </trkpt>
      <trkpt lat="44.87117" lon="0.6206">
        <ele>179.246</ele>
        <time>2020-06-09T15:03:46Z</time>
      </trkpt>
      <trkpt lat="44.87113" lon="0.62056">
        <ele>179.149</ele>
        <time>2020-06-09T15:03:50Z</time>
      </trkpt>
      <trkpt lat="44.8711" lon="0.62053">
        <ele>179.077</ele>
        <time>2020-06-09T15:03:53Z</time>
      </trkpt>
      <trkpt lat="44.87108" lon="0.62051">
        <ele>179.008</ele>
        <time>2020-06-09T15:03:56Z</time>
      </trkpt>
      <trkpt lat="44.87105" lon="0.62048">
        <ele>178.937</ele>
        <time>2020-06-09T15:03:59Z</time>
      </trkpt>
      <trkpt lat="44.87101" lon="0.62044">
        <ele>178.847</ele>
        <time>2020-06-09T15:04:03Z</time>
      </trkpt>
      <trkpt lat="44.87098" lon="0.62039">
        <ele>178.74</ele>
        <time>2020-06-09T15:04:08Z</time>
      </trkpt>
      <trkpt lat="44.87096" lon="0.62037">
        <ele>178.699</ele>
        <time>2020-06-09T15:04:10Z</time>
      </trkpt>
      <trkpt lat="44.87094" lon="0.62034">
        <ele>178.659</ele>
        <time>2020-06-09T15:04:12Z</time>
      </trkpt>
      <trkpt lat="44.87092" lon="0.62031">
        <ele>178.621</ele>
        <time>2020-06-09T15:04:14Z</time>
      </trkpt>
      <trkpt lat="44.87089" lon="0.62026">
        <ele>178.565</ele>
        <time>2020-06-09T15:04:17Z</time>
      </trkpt>
      <trkpt lat="44.87084" lon="0.6202">
        <ele>178.475</ele>
        <time>2020-06-09T15:04:22Z</time>
      </trkpt>
      <trkpt lat="44.87082" lon="0.62017">
        <ele>178.438</ele>
        <time>2020-06-09T15:04:24Z</time>
      </trkpt>
      <trkpt lat="44.87079" lon="0.6201">
        <ele>178.362</ele>
        <time>2020-06-09T15:04:28Z</time>
      </trkpt>
      <trkpt lat="44.87075" lon="0.62005">
        <ele>178.26</ele>
        <time>2020-06-09T15:04:33Z</time>
      </trkpt>
      <trkpt lat="44.87072" lon="0.62002">
        <ele>178.216</ele>
        <time>2020-06-09T15:04:35Z</time>
      </trkpt>
      <trkpt lat="44.87069" lon="0.61999">
        <ele>178.17</ele>
        <time>2020-06-09T15:04:37Z</time>
      </trkpt>
      <trkpt lat="44.87067" lon="0.61997">
        <ele>178.146</ele>
        <time>2020-06-09T15:04:38Z</time>
      </trkpt>
      <trkpt lat="44.87063" lon="0.61991">
        <ele>178.075</ele>
        <time>2020-06-09T15:04:41Z</time>
      </trkpt>
      <trkpt lat="44.87061" lon="0.61989">
        <ele>178.027</ele>
        <time>2020-06-09T15:04:43Z</time>
      </trkpt>
      <trkpt lat="44.87059" lon="0.61986">
        <ele>177.979</ele>
        <time>2020-06-09T15:04:45Z</time>
      </trkpt>
      <trkpt lat="44.87057" lon="0.61984">
        <ele>177.932</ele>
        <time>2020-06-09T15:04:47Z</time>
      </trkpt>
      <trkpt lat="44.87055" lon="0.61982">
        <ele>177.883</ele>
        <time>2020-06-09T15:04:49Z</time>
      </trkpt>
      <trkpt lat="44.87051" lon="0.61976">
        <ele>177.811</ele>
        <time>2020-06-09T15:04:52Z</time>
      </trkpt>
      <trkpt lat="44.87049" lon="0.61973">
        <ele>177.762</ele>
        <time>2020-06-09T15:04:54Z</time>
      </trkpt>
      <trkpt lat="44.87047" lon="0.61971">
        <ele>177.714</ele>
        <time>2020-06-09T15:04:56Z</time>
      </trkpt>
      <trkpt lat="44.87045" lon="0.61968">
        <ele>177.665</ele>
        <time>2020-06-09T15:04:58Z</time>
      </trkpt>
      <trkpt lat="44.87043" lon="0.61966">
        <ele>177.617</ele>
        <time>2020-06-09T15:05:00Z</time>
      </trkpt>
      <trkpt lat="44.87038" lon="0.61962">
        <ele>177.52</ele>
        <time>2020-06-09T15:05:04Z</time>
      </trkpt>
      <trkpt lat="44.87036" lon="0.6196">
        <ele>177.472</ele>
        <time>2020-06-09T15:05:06Z</time>
      </trkpt>
      <trkpt lat="44.87034" lon="0.61958">
        <ele>177.424</ele>
        <time>2020-06-09T15:05:08Z</time>
      </trkpt>
      <trkpt lat="44.87031" lon="0.61955">
        <ele>177.375</ele>
        <time>2020-06-09T15:05:10Z</time>
      </trkpt>
      <trkpt lat="44.87026" lon="0.6195">
        <ele>177.277</ele>
        <time>2020-06-09T15:05:14Z</time>
      </trkpt>
      <trkpt lat="44.87023" lon="0.61946">
        <ele>177.227</ele>
        <time>2020-06-09T15:05:16Z</time>
      </trkpt>
      <trkpt lat="44.87021" lon="0.61943">
        <ele>177.175</ele>
        <time>2020-06-09T15:05:18Z</time>
      </trkpt>
      <trkpt lat="44.87018" lon="0.6194">
        <ele>177.123</ele>
        <time>2020-06-09T15:05:20Z</time>
      </trkpt>
      <trkpt lat="44.87016" lon="0.61937">
        <ele>177.072</ele>
        <time>2020-06-09T15:05:22Z</time>
      </trkpt>
      <trkpt lat="44.87015" lon="0.61934">
        <ele>177.022</ele>
        <time>2020-06-09T15:05:24Z</time>
      </trkpt>
      <trkpt lat="44.87015" lon="0.61934">
        <ele>177.022</ele>
        <time>2020-06-09T15:05:29Z</time>
      </trkpt>
      <trkpt lat="44.8701" lon="0.6193">
        <ele>176.881</ele>
        <time>2020-06-09T15:05:30Z</time>
      </trkpt>
      <trkpt lat="44.86993" lon="0.61911">
        <ele>176.319</ele>
        <time>2020-06-09T15:06:42Z</time>
      </trkpt>
      <trkpt lat="44.86991" lon="0.61908">
        <ele>176.241</ele>
        <time>2020-06-09T15:06:47Z</time>
      </trkpt>
      <trkpt lat="44.86989" lon="0.61906">
        <ele>176.211</ele>
        <time>2020-06-09T15:06:49Z</time>
      </trkpt>
      <trkpt lat="44.86987" lon="0.61903">
        <ele>176.182</ele>
        <time>2020-06-09T15:06:51Z</time>
      </trkpt>
      <trkpt lat="44.86984" lon="0.619">
        <ele>176.152</ele>
        <time>2020-06-09T15:06:53Z</time>
      </trkpt>
      <trkpt lat="44.8698" lon="0.61895">
        <ele>176.108</ele>
        <time>2020-06-09T15:06:56Z</time>
      </trkpt>
      <trkpt lat="44.86976" lon="0.61891">
        <ele>176.076</ele>
        <time>2020-06-09T15:06:58Z</time>
      </trkpt>
      <trkpt lat="44.86974" lon="0.61887">
        <ele>176.041</ele>
        <time>2020-06-09T15:07:00Z</time>
      </trkpt>
      <trkpt lat="44.86971" lon="0.61881">
        <ele>175.97</ele>
        <time>2020-06-09T15:07:04Z</time>
      </trkpt>
      <trkpt lat="44.86968" lon="0.61877">
        <ele>175.935</ele>
        <time>2020-06-09T15:07:06Z</time>
      </trkpt>
      <trkpt lat="44.86967" lon="0.61874">
        <ele>175.918</ele>
        <time>2020-06-09T15:07:07Z</time>
      </trkpt>
      <trkpt lat="44.86963" lon="0.61869">
        <ele>175.849</ele>
        <time>2020-06-09T15:07:11Z</time>
      </trkpt>
      <trkpt lat="44.86962" lon="0.61867">
        <ele>175.815</ele>
        <time>2020-06-09T15:07:13Z</time>
      </trkpt>
      <trkpt lat="44.86959" lon="0.61863">
        <ele>175.78</ele>
        <time>2020-06-09T15:07:15Z</time>
      </trkpt>
      <trkpt lat="44.86957" lon="0.61857">
        <ele>175.715</ele>
        <time>2020-06-09T15:07:19Z</time>
      </trkpt>
      <trkpt lat="44.86955" lon="0.61854">
        <ele>175.684</ele>
        <time>2020-06-09T15:07:21Z</time>
      </trkpt>
      <trkpt lat="44.86951" lon="0.61849">
        <ele>175.639</ele>
        <time>2020-06-09T15:07:24Z</time>
      </trkpt>
      <trkpt lat="44.86947" lon="0.61843">
        <ele>175.597</ele>
        <time>2020-06-09T15:07:27Z</time>
      </trkpt>
      <trkpt lat="44.86943" lon="0.61839">
        <ele>175.53</ele>
        <time>2020-06-09T15:07:32Z</time>
      </trkpt>
      <trkpt lat="44.86939" lon="0.61834">
        <ele>175.489</ele>
        <time>2020-06-09T15:07:35Z</time>
      </trkpt>
      <trkpt lat="44.86934" lon="0.61831">
        <ele>175.436</ele>
        <time>2020-06-09T15:07:39Z</time>
      </trkpt>
      <trkpt lat="44.8693" lon="0.61828">
        <ele>175.375</ele>
        <time>2020-06-09T15:07:44Z</time>
      </trkpt>
      <trkpt lat="44.86929" lon="0.61821">
        <ele>175.311</ele>
        <time>2020-06-09T15:07:51Z</time>
      </trkpt>
      <trkpt lat="44.86928" lon="0.61819">
        <ele>175.287</ele>
        <time>2020-06-09T15:07:59Z</time>
      </trkpt>
      <trkpt lat="44.86927" lon="0.6181">
        <ele>175.259</ele>
        <time>2020-06-09T15:08:02Z</time>
      </trkpt>
      <trkpt lat="44.86925" lon="0.61801">
        <ele>175.222</ele>
        <time>2020-06-09T15:08:06Z</time>
      </trkpt>
      <trkpt lat="44.86925" lon="0.61794">
        <ele>175.179</ele>
        <time>2020-06-09T15:08:11Z</time>
      </trkpt>
      <trkpt lat="44.86923" lon="0.61785">
        <ele>175.119</ele>
        <time>2020-06-09T15:08:18Z</time>
      </trkpt>
      <trkpt lat="44.8692" lon="0.6178">
        <ele>175.096</ele>
        <time>2020-06-09T15:08:21Z</time>
      </trkpt>
      <trkpt lat="44.86918" lon="0.61774">
        <ele>175.074</ele>
        <time>2020-06-09T15:08:24Z</time>
      </trkpt>
      <trkpt lat="44.86916" lon="0.61769">
        <ele>175.061</ele>
        <time>2020-06-09T15:08:26Z</time>
      </trkpt>
      <trkpt lat="44.86915" lon="0.61765">
        <ele>175.048</ele>
        <time>2020-06-09T15:08:28Z</time>
      </trkpt>
      <trkpt lat="44.86914" lon="0.61762">
        <ele>175.036</ele>
        <time>2020-06-09T15:08:30Z</time>
      </trkpt>
      <trkpt lat="44.86913" lon="0.61758">
        <ele>175.025</ele>
        <time>2020-06-09T15:08:32Z</time>
      </trkpt>
      <trkpt lat="44.86911" lon="0.61754">
        <ele>175.014</ele>
        <time>2020-06-09T15:08:34Z</time>
      </trkpt>
      <trkpt lat="44.8691" lon="0.61747">
        <ele>175.001</ele>
        <time>2020-06-09T15:08:37Z</time>
      </trkpt>
      <trkpt lat="44.86907" lon="0.61739">
        <ele>174.987</ele>
        <time>2020-06-09T15:08:41Z</time>
      </trkpt>
      <trkpt lat="44.86905" lon="0.61735">
        <ele>174.982</ele>
        <time>2020-06-09T15:08:43Z</time>
      </trkpt>
      <trkpt lat="44.86902" lon="0.61728">
        <ele>174.975</ele>
        <time>2020-06-09T15:08:46Z</time>
      </trkpt>
      <trkpt lat="44.869" lon="0.61722">
        <ele>174.971</ele>
        <time>2020-06-09T15:08:49Z</time>
      </trkpt>
      <trkpt lat="44.86897" lon="0.61715">
        <ele>174.967</ele>
        <time>2020-06-09T15:08:52Z</time>
      </trkpt>
      <trkpt lat="44.86895" lon="0.61709">
        <ele>174.962</ele>
        <time>2020-06-09T15:08:56Z</time>
      </trkpt>
      <trkpt lat="44.86894" lon="0.61701">
        <ele>174.957</ele>
        <time>2020-06-09T15:09:00Z</time>
      </trkpt>
      <trkpt lat="44.86892" lon="0.61695">
        <ele>174.954</ele>
        <time>2020-06-09T15:09:03Z</time>
      </trkpt>
      <trkpt lat="44.8689" lon="0.61689">
        <ele>174.951</ele>
        <time>2020-06-09T15:09:06Z</time>
      </trkpt>
      <trkpt lat="44.86889" lon="0.61682">
        <ele>174.944</ele>
        <time>2020-06-09T15:09:10Z</time>
      </trkpt>
      <trkpt lat="44.86886" lon="0.61676">
        <ele>174.938</ele>
        <time>2020-06-09T15:09:13Z</time>
      </trkpt>
      <trkpt lat="44.86883" lon="0.61668">
        <ele>174.931</ele>
        <time>2020-06-09T15:09:16Z</time>
      </trkpt>
      <trkpt lat="44.86882" lon="0.61661">
        <ele>174.924</ele>
        <time>2020-06-09T15:09:19Z</time>
      </trkpt>
      <trkpt lat="44.86881" lon="0.61655">
        <ele>174.919</ele>
        <time>2020-06-09T15:09:21Z</time>
      </trkpt>
      <trkpt lat="44.86881" lon="0.61651">
        <ele>174.914</ele>
        <time>2020-06-09T15:09:23Z</time>
      </trkpt>
      <trkpt lat="44.8688" lon="0.61648">
        <ele>174.907</ele>
        <time>2020-06-09T15:09:26Z</time>
      </trkpt>
      <trkpt lat="44.86879" lon="0.61642">
        <ele>174.899</ele>
        <time>2020-06-09T15:09:29Z</time>
      </trkpt>
      <trkpt lat="44.86877" lon="0.61636">
        <ele>174.888</ele>
        <time>2020-06-09T15:09:33Z</time>
      </trkpt>
      <trkpt lat="44.86875" lon="0.61629">
        <ele>174.879</ele>
        <time>2020-06-09T15:09:36Z</time>
      </trkpt>
      <trkpt lat="44.86872" lon="0.61623">
        <ele>174.87</ele>
        <time>2020-06-09T15:09:39Z</time>
      </trkpt>
      <trkpt lat="44.86869" lon="0.61616">
        <ele>174.86</ele>
        <time>2020-06-09T15:09:42Z</time>
      </trkpt>
      <trkpt lat="44.86866" lon="0.61609">
        <ele>174.849</ele>
        <time>2020-06-09T15:09:45Z</time>
      </trkpt>
      <trkpt lat="44.86865" lon="0.61604">
        <ele>174.842</ele>
        <time>2020-06-09T15:09:47Z</time>
      </trkpt>
      <trkpt lat="44.86863" lon="0.61602">
        <ele>174.827</ele>
        <time>2020-06-09T15:09:56Z</time>
      </trkpt>
      <trkpt lat="44.8686" lon="0.61595">
        <ele>174.774</ele>
        <time>2020-06-09T15:10:13Z</time>
      </trkpt>
      <trkpt lat="44.86855" lon="0.61591">
        <ele>174.73</ele>
        <time>2020-06-09T15:10:17Z</time>
      </trkpt>
      <trkpt lat="44.86853" lon="0.61589">
        <ele>174.708</ele>
        <time>2020-06-09T15:10:19Z</time>
      </trkpt>
      <trkpt lat="44.86849" lon="0.61584">
        <ele>174.673</ele>
        <time>2020-06-09T15:10:22Z</time>
      </trkpt>
      <trkpt lat="44.86845" lon="0.61579">
        <ele>174.625</ele>
        <time>2020-06-09T15:10:26Z</time>
      </trkpt>
      <trkpt lat="44.8684" lon="0.61573">
        <ele>174.577</ele>
        <time>2020-06-09T15:10:30Z</time>
      </trkpt>
      <trkpt lat="44.86838" lon="0.61568">
        <ele>174.512</ele>
        <time>2020-06-09T15:10:36Z</time>
      </trkpt>
      <trkpt lat="44.86834" lon="0.61562">
        <ele>174.446</ele>
        <time>2020-06-09T15:10:41Z</time>
      </trkpt>
      <trkpt lat="44.8683" lon="0.61558">
        <ele>174.393</ele>
        <time>2020-06-09T15:10:45Z</time>
      </trkpt>
      <trkpt lat="44.86826" lon="0.61555">
        <ele>174.356</ele>
        <time>2020-06-09T15:10:48Z</time>
      </trkpt>
      <trkpt lat="44.86824" lon="0.61553">
        <ele>174.332</ele>
        <time>2020-06-09T15:10:50Z</time>
      </trkpt>
      <trkpt lat="44.86821" lon="0.61549">
        <ele>174.296</ele>
        <time>2020-06-09T15:10:53Z</time>
      </trkpt>
      <trkpt lat="44.86819" lon="0.61547">
        <ele>174.273</ele>
        <time>2020-06-09T15:10:55Z</time>
      </trkpt>
      <trkpt lat="44.86817" lon="0.61545">
        <ele>174.248</ele>
        <time>2020-06-09T15:10:57Z</time>
      </trkpt>
      <trkpt lat="44.86815" lon="0.61543">
        <ele>174.224</ele>
        <time>2020-06-09T15:10:59Z</time>
      </trkpt>
      <trkpt lat="44.86812" lon="0.6154">
        <ele>174.2</ele>
        <time>2020-06-09T15:11:01Z</time>
      </trkpt>
      <trkpt lat="44.86809" lon="0.61535">
        <ele>174.164</ele>
        <time>2020-06-09T15:11:04Z</time>
      </trkpt>
      <trkpt lat="44.86807" lon="0.61529">
        <ele>174.121</ele>
        <time>2020-06-09T15:11:08Z</time>
      </trkpt>
      <trkpt lat="44.86804" lon="0.61523">
        <ele>174.091</ele>
        <time>2020-06-09T15:11:11Z</time>
      </trkpt>
      <trkpt lat="44.86799" lon="0.61516">
        <ele>174.051</ele>
        <time>2020-06-09T15:11:15Z</time>
      </trkpt>
      <trkpt lat="44.86796" lon="0.61511">
        <ele>174.021</ele>
        <time>2020-06-09T15:11:18Z</time>
      </trkpt>
      <trkpt lat="44.86794" lon="0.61508">
        <ele>174</ele>
        <time>2020-06-09T15:11:20Z</time>
      </trkpt>
      <trkpt lat="44.8679" lon="0.61504">
        <ele>173.968</ele>
        <time>2020-06-09T15:11:23Z</time>
      </trkpt>
      <trkpt lat="44.86788" lon="0.615">
        <ele>173.948</ele>
        <time>2020-06-09T15:11:25Z</time>
      </trkpt>
      <trkpt lat="44.86783" lon="0.61496">
        <ele>173.919</ele>
        <time>2020-06-09T15:11:28Z</time>
      </trkpt>
      <trkpt lat="44.86779" lon="0.61492">
        <ele>173.893</ele>
        <time>2020-06-09T15:11:31Z</time>
      </trkpt>
      <trkpt lat="44.86775" lon="0.61486">
        <ele>173.868</ele>
        <time>2020-06-09T15:11:34Z</time>
      </trkpt>
      <trkpt lat="44.86772" lon="0.61482">
        <ele>173.851</ele>
        <time>2020-06-09T15:11:36Z</time>
      </trkpt>
      <trkpt lat="44.8677" lon="0.61479">
        <ele>173.834</ele>
        <time>2020-06-09T15:11:38Z</time>
      </trkpt>
      <trkpt lat="44.86768" lon="0.61476">
        <ele>173.817</ele>
        <time>2020-06-09T15:11:40Z</time>
      </trkpt>
      <trkpt lat="44.86763" lon="0.61471">
        <ele>173.792</ele>
        <time>2020-06-09T15:11:43Z</time>
      </trkpt>
      <trkpt lat="44.8676" lon="0.61465">
        <ele>173.765</ele>
        <time>2020-06-09T15:11:46Z</time>
      </trkpt>
      <trkpt lat="44.86757" lon="0.61461">
        <ele>173.749</ele>
        <time>2020-06-09T15:11:48Z</time>
      </trkpt>
      <trkpt lat="44.86755" lon="0.61458">
        <ele>173.734</ele>
        <time>2020-06-09T15:11:50Z</time>
      </trkpt>
      <trkpt lat="44.86753" lon="0.61455">
        <ele>173.721</ele>
        <time>2020-06-09T15:11:52Z</time>
      </trkpt>
      <trkpt lat="44.86751" lon="0.61452">
        <ele>173.709</ele>
        <time>2020-06-09T15:11:54Z</time>
      </trkpt>
      <trkpt lat="44.86749" lon="0.6145">
        <ele>173.7</ele>
        <time>2020-06-09T15:11:56Z</time>
      </trkpt>
      <trkpt lat="44.86747" lon="0.61447">
        <ele>173.692</ele>
        <time>2020-06-09T15:11:58Z</time>
      </trkpt>
      <trkpt lat="44.86745" lon="0.61444">
        <ele>173.685</ele>
        <time>2020-06-09T15:12:01Z</time>
      </trkpt>
      <trkpt lat="44.86742" lon="0.61441">
        <ele>173.681</ele>
        <time>2020-06-09T15:12:04Z</time>
      </trkpt>
      <trkpt lat="44.86738" lon="0.61436">
        <ele>173.678</ele>
        <time>2020-06-09T15:12:08Z</time>
      </trkpt>
      <trkpt lat="44.86735" lon="0.61432">
        <ele>173.677</ele>
        <time>2020-06-09T15:12:10Z</time>
      </trkpt>
      <trkpt lat="44.86733" lon="0.61429">
        <ele>173.678</ele>
        <time>2020-06-09T15:12:12Z</time>
      </trkpt>
      <trkpt lat="44.8673" lon="0.61426">
        <ele>173.68</ele>
        <time>2020-06-09T15:12:14Z</time>
      </trkpt>
      <trkpt lat="44.86727" lon="0.61422">
        <ele>173.682</ele>
        <time>2020-06-09T15:12:16Z</time>
      </trkpt>
      <trkpt lat="44.86724" lon="0.61418">
        <ele>173.685</ele>
        <time>2020-06-09T15:12:18Z</time>
      </trkpt>
      <trkpt lat="44.86721" lon="0.61413">
        <ele>173.689</ele>
        <time>2020-06-09T15:12:20Z</time>
      </trkpt>
      <trkpt lat="44.86719" lon="0.61411">
        <ele>173.692</ele>
        <time>2020-06-09T15:12:21Z</time>
      </trkpt>
      <trkpt lat="44.86716" lon="0.61407">
        <ele>173.698</ele>
        <time>2020-06-09T15:12:23Z</time>
      </trkpt>
      <trkpt lat="44.86715" lon="0.61405">
        <ele>173.703</ele>
        <time>2020-06-09T15:12:24Z</time>
      </trkpt>
      <trkpt lat="44.86712" lon="0.61401">
        <ele>173.713</ele>
        <time>2020-06-09T15:12:26Z</time>
      </trkpt>
      <trkpt lat="44.86708" lon="0.61398">
        <ele>173.732</ele>
        <time>2020-06-09T15:12:29Z</time>
      </trkpt>
      <trkpt lat="44.86704" lon="0.61393">
        <ele>173.762</ele>
        <time>2020-06-09T15:12:33Z</time>
      </trkpt>
      <trkpt lat="44.86702" lon="0.6139">
        <ele>173.778</ele>
        <time>2020-06-09T15:12:35Z</time>
      </trkpt>
      <trkpt lat="44.867" lon="0.61388">
        <ele>173.794</ele>
        <time>2020-06-09T15:12:37Z</time>
      </trkpt>
      <trkpt lat="44.86696" lon="0.61384">
        <ele>173.817</ele>
        <time>2020-06-09T15:12:40Z</time>
      </trkpt>
      <trkpt lat="44.86692" lon="0.6138">
        <ele>173.838</ele>
        <time>2020-06-09T15:12:43Z</time>
      </trkpt>
      <trkpt lat="44.8669" lon="0.61377">
        <ele>173.852</ele>
        <time>2020-06-09T15:12:45Z</time>
      </trkpt>
      <trkpt lat="44.86688" lon="0.61375">
        <ele>173.867</ele>
        <time>2020-06-09T15:12:47Z</time>
      </trkpt>
      <trkpt lat="44.86683" lon="0.61372">
        <ele>173.893</ele>
        <time>2020-06-09T15:12:51Z</time>
      </trkpt>
      <trkpt lat="44.86678" lon="0.61367">
        <ele>173.93</ele>
        <time>2020-06-09T15:12:56Z</time>
      </trkpt>
      <trkpt lat="44.86674" lon="0.61361">
        <ele>173.964</ele>
        <time>2020-06-09T15:13:01Z</time>
      </trkpt>
      <trkpt lat="44.86671" lon="0.61355">
        <ele>173.983</ele>
        <time>2020-06-09T15:13:05Z</time>
      </trkpt>
      <trkpt lat="44.86668" lon="0.61348">
        <ele>173.993</ele>
        <time>2020-06-09T15:13:08Z</time>
      </trkpt>
      <trkpt lat="44.86664" lon="0.61344">
        <ele>173.999</ele>
        <time>2020-06-09T15:13:10Z</time>
      </trkpt>
      <trkpt lat="44.86661" lon="0.6134">
        <ele>174.004</ele>
        <time>2020-06-09T15:13:12Z</time>
      </trkpt>
      <trkpt lat="44.86659" lon="0.61338">
        <ele>174.007</ele>
        <time>2020-06-09T15:13:13Z</time>
      </trkpt>
      <trkpt lat="44.86657" lon="0.61336">
        <ele>174.01</ele>
        <time>2020-06-09T15:13:14Z</time>
      </trkpt>
      <trkpt lat="44.86655" lon="0.61334">
        <ele>174.014</ele>
        <time>2020-06-09T15:13:15Z</time>
      </trkpt>
      <trkpt lat="44.86651" lon="0.6133">
        <ele>174.022</ele>
        <time>2020-06-09T15:13:17Z</time>
      </trkpt>
      <trkpt lat="44.86648" lon="0.61325">
        <ele>174.036</ele>
        <time>2020-06-09T15:13:20Z</time>
      </trkpt>
      <trkpt lat="44.86645" lon="0.61321">
        <ele>174.072</ele>
        <time>2020-06-09T15:13:26Z</time>
      </trkpt>
      <trkpt lat="44.8664" lon="0.61316">
        <ele>174.098</ele>
        <time>2020-06-09T15:13:30Z</time>
      </trkpt>
      <trkpt lat="44.86637" lon="0.61313">
        <ele>174.113</ele>
        <time>2020-06-09T15:13:32Z</time>
      </trkpt>
      <trkpt lat="44.86634" lon="0.6131">
        <ele>174.128</ele>
        <time>2020-06-09T15:13:34Z</time>
      </trkpt>
      <trkpt lat="44.86632" lon="0.61308">
        <ele>174.137</ele>
        <time>2020-06-09T15:13:35Z</time>
      </trkpt>
      <trkpt lat="44.86629" lon="0.61305">
        <ele>174.152</ele>
        <time>2020-06-09T15:13:37Z</time>
      </trkpt>
      <trkpt lat="44.86625" lon="0.61301">
        <ele>174.186</ele>
        <time>2020-06-09T15:13:42Z</time>
      </trkpt>
      <trkpt lat="44.86621" lon="0.61296">
        <ele>174.223</ele>
        <time>2020-06-09T15:13:47Z</time>
      </trkpt>
      <trkpt lat="44.86619" lon="0.61293">
        <ele>174.236</ele>
        <time>2020-06-09T15:13:49Z</time>
      </trkpt>
      <trkpt lat="44.86616" lon="0.61288">
        <ele>174.255</ele>
        <time>2020-06-09T15:13:52Z</time>
      </trkpt>
      <trkpt lat="44.86612" lon="0.61283">
        <ele>174.276</ele>
        <time>2020-06-09T15:13:56Z</time>
      </trkpt>
      <trkpt lat="44.86609" lon="0.61279">
        <ele>174.287</ele>
        <time>2020-06-09T15:13:58Z</time>
      </trkpt>
      <trkpt lat="44.86607" lon="0.61276">
        <ele>174.298</ele>
        <time>2020-06-09T15:14:00Z</time>
      </trkpt>
      <trkpt lat="44.86603" lon="0.61271">
        <ele>174.322</ele>
        <time>2020-06-09T15:14:04Z</time>
      </trkpt>
      <trkpt lat="44.86601" lon="0.61269">
        <ele>174.333</ele>
        <time>2020-06-09T15:14:06Z</time>
      </trkpt>
      <trkpt lat="44.86597" lon="0.61265">
        <ele>174.355</ele>
        <time>2020-06-09T15:14:10Z</time>
      </trkpt>
      <trkpt lat="44.86594" lon="0.61263">
        <ele>174.373</ele>
        <time>2020-06-09T15:14:14Z</time>
      </trkpt>
      <trkpt lat="44.86589" lon="0.61257">
        <ele>174.391</ele>
        <time>2020-06-09T15:14:18Z</time>
      </trkpt>
      <trkpt lat="44.86584" lon="0.61253">
        <ele>174.402</ele>
        <time>2020-06-09T15:14:20Z</time>
      </trkpt>
      <trkpt lat="44.86582" lon="0.61252">
        <ele>174.407</ele>
        <time>2020-06-09T15:14:21Z</time>
      </trkpt>
      <trkpt lat="44.86577" lon="0.61246">
        <ele>174.425</ele>
        <time>2020-06-09T15:14:24Z</time>
      </trkpt>
      <trkpt lat="44.86574" lon="0.61239">
        <ele>174.445</ele>
        <time>2020-06-09T15:14:27Z</time>
      </trkpt>
      <trkpt lat="44.86572" lon="0.61236">
        <ele>174.459</ele>
        <time>2020-06-09T15:14:29Z</time>
      </trkpt>
      <trkpt lat="44.8657" lon="0.61234">
        <ele>174.473</ele>
        <time>2020-06-09T15:14:31Z</time>
      </trkpt>
      <trkpt lat="44.86567" lon="0.61229">
        <ele>174.505</ele>
        <time>2020-06-09T15:14:35Z</time>
      </trkpt>
      <trkpt lat="44.86563" lon="0.61227">
        <ele>174.529</ele>
        <time>2020-06-09T15:14:38Z</time>
      </trkpt>
      <trkpt lat="44.86559" lon="0.61222">
        <ele>174.552</ele>
        <time>2020-06-09T15:14:41Z</time>
      </trkpt>
      <trkpt lat="44.86557" lon="0.6122">
        <ele>174.56</ele>
        <time>2020-06-09T15:14:42Z</time>
      </trkpt>
      <trkpt lat="44.86556" lon="0.61217">
        <ele>174.569</ele>
        <time>2020-06-09T15:14:43Z</time>
      </trkpt>
      <trkpt lat="44.86552" lon="0.61212">
        <ele>174.597</ele>
        <time>2020-06-09T15:14:46Z</time>
      </trkpt>
      <trkpt lat="44.8655" lon="0.61206">
        <ele>174.641</ele>
        <time>2020-06-09T15:14:50Z</time>
      </trkpt>
      <trkpt lat="44.86546" lon="0.61201">
        <ele>174.678</ele>
        <time>2020-06-09T15:14:53Z</time>
      </trkpt>
      <trkpt lat="44.86543" lon="0.61196">
        <ele>174.715</ele>
        <time>2020-06-09T15:14:56Z</time>
      </trkpt>
      <trkpt lat="44.86538" lon="0.61192">
        <ele>174.752</ele>
        <time>2020-06-09T15:14:59Z</time>
      </trkpt>
      <trkpt lat="44.86534" lon="0.61188">
        <ele>174.792</ele>
        <time>2020-06-09T15:15:02Z</time>
      </trkpt>
      <trkpt lat="44.86531" lon="0.61187">
        <ele>174.82</ele>
        <time>2020-06-09T15:15:04Z</time>
      </trkpt>
      <trkpt lat="44.86528" lon="0.61182">
        <ele>174.874</ele>
        <time>2020-06-09T15:15:08Z</time>
      </trkpt>
      <trkpt lat="44.86525" lon="0.61177">
        <ele>174.91</ele>
        <time>2020-06-09T15:15:11Z</time>
      </trkpt>
      <trkpt lat="44.8652" lon="0.6117">
        <ele>174.977</ele>
        <time>2020-06-09T15:15:17Z</time>
      </trkpt>
      <trkpt lat="44.86518" lon="0.61164">
        <ele>175.008</ele>
        <time>2020-06-09T15:15:20Z</time>
      </trkpt>
      <trkpt lat="44.86516" lon="0.61156">
        <ele>175.063</ele>
        <time>2020-06-09T15:15:26Z</time>
      </trkpt>
      <trkpt lat="44.86517" lon="0.6115">
        <ele>175.104</ele>
        <time>2020-06-09T15:15:31Z</time>
      </trkpt>
      <trkpt lat="44.86519" lon="0.61144">
        <ele>175.133</ele>
        <time>2020-06-09T15:15:35Z</time>
      </trkpt>
      <trkpt lat="44.86521" lon="0.6114">
        <ele>175.154</ele>
        <time>2020-06-09T15:15:38Z</time>
      </trkpt>
      <trkpt lat="44.86522" lon="0.61138">
        <ele>175.169</ele>
        <time>2020-06-09T15:15:40Z</time>
      </trkpt>
      <trkpt lat="44.86526" lon="0.61132">
        <ele>175.19</ele>
        <time>2020-06-09T15:15:43Z</time>
      </trkpt>
      <trkpt lat="44.86526" lon="0.61132">
        <ele>175.19</ele>
        <time>2020-06-09T15:15:51Z</time>
      </trkpt>
      <trkpt lat="44.86526" lon="0.61132">
        <ele>175.19</ele>
        <time>2020-06-09T15:15:52Z</time>
      </trkpt>
      <trkpt lat="44.86527" lon="0.61125">
        <ele>175.247</ele>
        <time>2020-06-09T15:16:00Z</time>
      </trkpt>
      <trkpt lat="44.8653" lon="0.61118">
        <ele>175.264</ele>
        <time>2020-06-09T15:16:03Z</time>
      </trkpt>
      <trkpt lat="44.86536" lon="0.61109">
        <ele>175.278</ele>
        <time>2020-06-09T15:16:06Z</time>
      </trkpt>
      <trkpt lat="44.86541" lon="0.61105">
        <ele>175.291</ele>
        <time>2020-06-09T15:16:09Z</time>
      </trkpt>
      <trkpt lat="44.86544" lon="0.61101">
        <ele>175.303</ele>
        <time>2020-06-09T15:16:12Z</time>
      </trkpt>
      <trkpt lat="44.86543" lon="0.61095">
        <ele>175.324</ele>
        <time>2020-06-09T15:16:18Z</time>
      </trkpt>
      <trkpt lat="44.86547" lon="0.61092">
        <ele>175.335</ele>
        <time>2020-06-09T15:16:22Z</time>
      </trkpt>
      <trkpt lat="44.86551" lon="0.61087">
        <ele>175.34</ele>
        <time>2020-06-09T15:16:24Z</time>
      </trkpt>
      <trkpt lat="44.86553" lon="0.61082">
        <ele>175.346</ele>
        <time>2020-06-09T15:16:27Z</time>
      </trkpt>
      <trkpt lat="44.86557" lon="0.61074">
        <ele>175.35</ele>
        <time>2020-06-09T15:16:30Z</time>
      </trkpt>
      <trkpt lat="44.86559" lon="0.6107">
        <ele>175.352</ele>
        <time>2020-06-09T15:16:32Z</time>
      </trkpt>
      <trkpt lat="44.86562" lon="0.61066">
        <ele>175.353</ele>
        <time>2020-06-09T15:16:34Z</time>
      </trkpt>
      <trkpt lat="44.86565" lon="0.61058">
        <ele>175.354</ele>
        <time>2020-06-09T15:16:37Z</time>
      </trkpt>
      <trkpt lat="44.86566" lon="0.61055">
        <ele>175.355</ele>
        <time>2020-06-09T15:16:39Z</time>
      </trkpt>
      <trkpt lat="44.86566" lon="0.61049">
        <ele>175.356</ele>
        <time>2020-06-09T15:16:43Z</time>
      </trkpt>
      <trkpt lat="44.86567" lon="0.61045">
        <ele>175.357</ele>
        <time>2020-06-09T15:16:45Z</time>
      </trkpt>
      <trkpt lat="44.86567" lon="0.61037">
        <ele>175.359</ele>
        <time>2020-06-09T15:16:49Z</time>
      </trkpt>
      <trkpt lat="44.86571" lon="0.61031">
        <ele>175.359</ele>
        <time>2020-06-09T15:16:53Z</time>
      </trkpt>
      <trkpt lat="44.86574" lon="0.61026">
        <ele>175.358</ele>
        <time>2020-06-09T15:16:56Z</time>
      </trkpt>
      <trkpt lat="44.86578" lon="0.61022">
        <ele>175.357</ele>
        <time>2020-06-09T15:16:58Z</time>
      </trkpt>
      <trkpt lat="44.86581" lon="0.61016">
        <ele>175.354</ele>
        <time>2020-06-09T15:17:02Z</time>
      </trkpt>
      <trkpt lat="44.86578" lon="0.6101">
        <ele>175.351</ele>
        <time>2020-06-09T15:17:05Z</time>
      </trkpt>
      <trkpt lat="44.86578" lon="0.61002">
        <ele>175.344</ele>
        <time>2020-06-09T15:17:09Z</time>
      </trkpt>
      <trkpt lat="44.86579" lon="0.60994">
        <ele>175.339</ele>
        <time>2020-06-09T15:17:12Z</time>
      </trkpt>
      <trkpt lat="44.86579" lon="0.60988">
        <ele>175.332</ele>
        <time>2020-06-09T15:17:15Z</time>
      </trkpt>
      <trkpt lat="44.86577" lon="0.60982">
        <ele>175.324</ele>
        <time>2020-06-09T15:17:18Z</time>
      </trkpt>
      <trkpt lat="44.86575" lon="0.60976">
        <ele>175.315</ele>
        <time>2020-06-09T15:17:21Z</time>
      </trkpt>
      <trkpt lat="44.86576" lon="0.6097">
        <ele>175.302</ele>
        <time>2020-06-09T15:17:24Z</time>
      </trkpt>
      <trkpt lat="44.86578" lon="0.60964">
        <ele>175.283</ele>
        <time>2020-06-09T15:17:28Z</time>
      </trkpt>
      <trkpt lat="44.86578" lon="0.60955">
        <ele>175.257</ele>
        <time>2020-06-09T15:17:32Z</time>
      </trkpt>
      <trkpt lat="44.86578" lon="0.60949">
        <ele>175.234</ele>
        <time>2020-06-09T15:17:35Z</time>
      </trkpt>
      <trkpt lat="44.86577" lon="0.60941">
        <ele>175.197</ele>
        <time>2020-06-09T15:17:39Z</time>
      </trkpt>
      <trkpt lat="44.86576" lon="0.60935">
        <ele>175.157</ele>
        <time>2020-06-09T15:17:43Z</time>
      </trkpt>
      <trkpt lat="44.86577" lon="0.60927">
        <ele>175.067</ele>
        <time>2020-06-09T15:17:52Z</time>
      </trkpt>
      <trkpt lat="44.86577" lon="0.60923">
        <ele>175.011</ele>
        <time>2020-06-09T15:17:56Z</time>
      </trkpt>
      <trkpt lat="44.8658" lon="0.60919">
        <ele>174.822</ele>
        <time>2020-06-09T15:18:07Z</time>
      </trkpt>
      <trkpt lat="44.86585" lon="0.60911">
        <ele>174.691</ele>
        <time>2020-06-09T15:18:13Z</time>
      </trkpt>
      <trkpt lat="44.86588" lon="0.60906">
        <ele>174.623</ele>
        <time>2020-06-09T15:18:16Z</time>
      </trkpt>
      <trkpt lat="44.86591" lon="0.60903">
        <ele>174.553</ele>
        <time>2020-06-09T15:18:19Z</time>
      </trkpt>
      <trkpt lat="44.86596" lon="0.60901">
        <ele>174.478</ele>
        <time>2020-06-09T15:18:22Z</time>
      </trkpt>
      <trkpt lat="44.86601" lon="0.60892">
        <ele>174.377</ele>
        <time>2020-06-09T15:18:26Z</time>
      </trkpt>
      <trkpt lat="44.86609" lon="0.60889">
        <ele>174.274</ele>
        <time>2020-06-09T15:18:30Z</time>
      </trkpt>
      <trkpt lat="44.86615" lon="0.60886">
        <ele>174.222</ele>
        <time>2020-06-09T15:18:32Z</time>
      </trkpt>
      <trkpt lat="44.86618" lon="0.60883">
        <ele>174.195</ele>
        <time>2020-06-09T15:18:33Z</time>
      </trkpt>
      <trkpt lat="44.86623" lon="0.60878">
        <ele>174.06</ele>
        <time>2020-06-09T15:18:38Z</time>
      </trkpt>
      <trkpt lat="44.86625" lon="0.60871">
        <ele>173.954</ele>
        <time>2020-06-09T15:18:42Z</time>
      </trkpt>
      <trkpt lat="44.86626" lon="0.60867">
        <ele>173.816</ele>
        <time>2020-06-09T15:18:47Z</time>
      </trkpt>
      <trkpt lat="44.86626" lon="0.60859">
        <ele>173.636</ele>
        <time>2020-06-09T15:18:54Z</time>
      </trkpt>
      <trkpt lat="44.86627" lon="0.60852">
        <ele>173.444</ele>
        <time>2020-06-09T15:19:02Z</time>
      </trkpt>
      <trkpt lat="44.86629" lon="0.60841">
        <ele>173.371</ele>
        <time>2020-06-09T15:19:05Z</time>
      </trkpt>
      <trkpt lat="44.86634" lon="0.60839">
        <ele>173.233</ele>
        <time>2020-06-09T15:19:10Z</time>
      </trkpt>
      <trkpt lat="44.86636" lon="0.60829">
        <ele>173.118</ele>
        <time>2020-06-09T15:19:14Z</time>
      </trkpt>
      <trkpt lat="44.86638" lon="0.60823">
        <ele>173.057</ele>
        <time>2020-06-09T15:19:16Z</time>
      </trkpt>
      <trkpt lat="44.86641" lon="0.60818">
        <ele>172.964</ele>
        <time>2020-06-09T15:19:19Z</time>
      </trkpt>
      <trkpt lat="44.86644" lon="0.60814">
        <ele>172.899</ele>
        <time>2020-06-09T15:19:21Z</time>
      </trkpt>
      <trkpt lat="44.86649" lon="0.60808">
        <ele>172.83</ele>
        <time>2020-06-09T15:19:23Z</time>
      </trkpt>
      <trkpt lat="44.86652" lon="0.60801">
        <ele>172.758</ele>
        <time>2020-06-09T15:19:25Z</time>
      </trkpt>
      <trkpt lat="44.86654" lon="0.60797">
        <ele>172.719</ele>
        <time>2020-06-09T15:19:26Z</time>
      </trkpt>
      <trkpt lat="44.86665" lon="0.6079">
        <ele>172.524</ele>
        <time>2020-06-09T15:19:31Z</time>
      </trkpt>
      <trkpt lat="44.86666" lon="0.6078">
        <ele>172.41</ele>
        <time>2020-06-09T15:19:34Z</time>
      </trkpt>
      <trkpt lat="44.86668" lon="0.60774">
        <ele>172.297</ele>
        <time>2020-06-09T15:19:37Z</time>
      </trkpt>
      <trkpt lat="44.8667" lon="0.60769">
        <ele>172.225</ele>
        <time>2020-06-09T15:19:39Z</time>
      </trkpt>
      <trkpt lat="44.86673" lon="0.60762">
        <ele>172.016</ele>
        <time>2020-06-09T15:19:45Z</time>
      </trkpt>
      <trkpt lat="44.86672" lon="0.60756">
        <ele>171.983</ele>
        <time>2020-06-09T15:19:46Z</time>
      </trkpt>
      <trkpt lat="44.86675" lon="0.6075">
        <ele>171.847</ele>
        <time>2020-06-09T15:19:50Z</time>
      </trkpt>
      <trkpt lat="44.86679" lon="0.60747">
        <ele>171.597</ele>
        <time>2020-06-09T15:19:57Z</time>
      </trkpt>
      <trkpt lat="44.86682" lon="0.60741">
        <ele>171.487</ele>
        <time>2020-06-09T15:20:00Z</time>
      </trkpt>
      <trkpt lat="44.86686" lon="0.60734">
        <ele>171.374</ele>
        <time>2020-06-09T15:20:03Z</time>
      </trkpt>
      <trkpt lat="44.86688" lon="0.60725">
        <ele>171.297</ele>
        <time>2020-06-09T15:20:05Z</time>
      </trkpt>
      <trkpt lat="44.86689" lon="0.60718">
        <ele>171.219</ele>
        <time>2020-06-09T15:20:07Z</time>
      </trkpt>
      <trkpt lat="44.86696" lon="0.60718">
        <ele>171.135</ele>
        <time>2020-06-09T15:20:10Z</time>
      </trkpt>
      <trkpt lat="44.867" lon="0.60715">
        <ele>171.051</ele>
        <time>2020-06-09T15:20:14Z</time>
      </trkpt>
      <trkpt lat="44.86703" lon="0.60707">
        <ele>170.901</ele>
        <time>2020-06-09T15:20:18Z</time>
      </trkpt>
      <trkpt lat="44.86705" lon="0.60699">
        <ele>170.761</ele>
        <time>2020-06-09T15:20:22Z</time>
      </trkpt>
      <trkpt lat="44.86706" lon="0.60692">
        <ele>170.596</ele>
        <time>2020-06-09T15:20:27Z</time>
      </trkpt>
      <trkpt lat="44.86708" lon="0.60686">
        <ele>170.43</ele>
        <time>2020-06-09T15:20:34Z</time>
      </trkpt>
      <trkpt lat="44.86711" lon="0.60682">
        <ele>170.335</ele>
        <time>2020-06-09T15:20:37Z</time>
      </trkpt>
      <trkpt lat="44.86714" lon="0.60675">
        <ele>170.244</ele>
        <time>2020-06-09T15:20:40Z</time>
      </trkpt>
      <trkpt lat="44.86714" lon="0.60667">
        <ele>170.129</ele>
        <time>2020-06-09T15:20:44Z</time>
      </trkpt>
      <trkpt lat="44.86714" lon="0.60663">
        <ele>170.018</ele>
        <time>2020-06-09T15:20:48Z</time>
      </trkpt>
      <trkpt lat="44.86715" lon="0.60658">
        <ele>169.963</ele>
        <time>2020-06-09T15:20:50Z</time>
      </trkpt>
      <trkpt lat="44.86715" lon="0.60654">
        <ele>169.909</ele>
        <time>2020-06-09T15:20:52Z</time>
      </trkpt>
      <trkpt lat="44.86715" lon="0.60648">
        <ele>169.828</ele>
        <time>2020-06-09T15:20:55Z</time>
      </trkpt>
      <trkpt lat="44.86715" lon="0.60643">
        <ele>169.748</ele>
        <time>2020-06-09T15:20:58Z</time>
      </trkpt>
      <trkpt lat="44.86718" lon="0.60637">
        <ele>169.631</ele>
        <time>2020-06-09T15:21:04Z</time>
      </trkpt>
      <trkpt lat="44.86719" lon="0.6063">
        <ele>169.467</ele>
        <time>2020-06-09T15:21:10Z</time>
      </trkpt>
      <trkpt lat="44.86722" lon="0.60624">
        <ele>169.29</ele>
        <time>2020-06-09T15:21:16Z</time>
      </trkpt>
      <trkpt lat="44.86726" lon="0.60619">
        <ele>169.17</ele>
        <time>2020-06-09T15:21:20Z</time>
      </trkpt>
      <trkpt lat="44.86729" lon="0.60613">
        <ele>168.99</ele>
        <time>2020-06-09T15:21:26Z</time>
      </trkpt>
      <trkpt lat="44.86733" lon="0.60607">
        <ele>168.899</ele>
        <time>2020-06-09T15:21:29Z</time>
      </trkpt>
      <trkpt lat="44.86735" lon="0.60601">
        <ele>168.811</ele>
        <time>2020-06-09T15:21:32Z</time>
      </trkpt>
      <trkpt lat="44.86736" lon="0.60596">
        <ele>168.694</ele>
        <time>2020-06-09T15:21:36Z</time>
      </trkpt>
      <trkpt lat="44.86738" lon="0.60589">
        <ele>168.554</ele>
        <time>2020-06-09T15:21:41Z</time>
      </trkpt>
      <trkpt lat="44.86742" lon="0.60584">
        <ele>168.447</ele>
        <time>2020-06-09T15:21:45Z</time>
      </trkpt>
      <trkpt lat="44.86744" lon="0.60578">
        <ele>168.372</ele>
        <time>2020-06-09T15:21:48Z</time>
      </trkpt>
      <trkpt lat="44.86746" lon="0.60574">
        <ele>168.324</ele>
        <time>2020-06-09T15:21:50Z</time>
      </trkpt>
      <trkpt lat="44.86748" lon="0.6057">
        <ele>168.255</ele>
        <time>2020-06-09T15:21:53Z</time>
      </trkpt>
      <trkpt lat="44.86751" lon="0.60565">
        <ele>168.192</ele>
        <time>2020-06-09T15:21:56Z</time>
      </trkpt>
      <trkpt lat="44.86752" lon="0.60562">
        <ele>168.153</ele>
        <time>2020-06-09T15:21:58Z</time>
      </trkpt>
      <trkpt lat="44.86756" lon="0.60558">
        <ele>168.095</ele>
        <time>2020-06-09T15:22:01Z</time>
      </trkpt>
      <trkpt lat="44.8676" lon="0.60551">
        <ele>167.998</ele>
        <time>2020-06-09T15:22:06Z</time>
      </trkpt>
      <trkpt lat="44.86763" lon="0.60544">
        <ele>167.943</ele>
        <time>2020-06-09T15:22:09Z</time>
      </trkpt>
      <trkpt lat="44.86764" lon="0.6054">
        <ele>167.891</ele>
        <time>2020-06-09T15:22:12Z</time>
      </trkpt>
      <trkpt lat="44.86765" lon="0.60537">
        <ele>167.857</ele>
        <time>2020-06-09T15:22:14Z</time>
      </trkpt>
      <trkpt lat="44.86762" lon="0.60532">
        <ele>167.791</ele>
        <time>2020-06-09T15:22:18Z</time>
      </trkpt>
      <trkpt lat="44.86763" lon="0.6052">
        <ele>167.714</ele>
        <time>2020-06-09T15:22:23Z</time>
      </trkpt>
      <trkpt lat="44.86765" lon="0.60512">
        <ele>167.67</ele>
        <time>2020-06-09T15:22:26Z</time>
      </trkpt>
      <trkpt lat="44.86766" lon="0.60505">
        <ele>167.628</ele>
        <time>2020-06-09T15:22:29Z</time>
      </trkpt>
      <trkpt lat="44.86768" lon="0.60499">
        <ele>167.601</ele>
        <time>2020-06-09T15:22:31Z</time>
      </trkpt>
      <trkpt lat="44.86769" lon="0.60496">
        <ele>167.576</ele>
        <time>2020-06-09T15:22:33Z</time>
      </trkpt>
      <trkpt lat="44.86771" lon="0.6049">
        <ele>167.538</ele>
        <time>2020-06-09T15:22:36Z</time>
      </trkpt>
      <trkpt lat="44.86773" lon="0.60486">
        <ele>167.515</ele>
        <time>2020-06-09T15:22:38Z</time>
      </trkpt>
      <trkpt lat="44.86774" lon="0.60483">
        <ele>167.48</ele>
        <time>2020-06-09T15:22:41Z</time>
      </trkpt>
      <trkpt lat="44.86777" lon="0.60474">
        <ele>167.435</ele>
        <time>2020-06-09T15:22:45Z</time>
      </trkpt>
      <trkpt lat="44.86778" lon="0.6047">
        <ele>167.403</ele>
        <time>2020-06-09T15:22:48Z</time>
      </trkpt>
      <trkpt lat="44.86782" lon="0.60463">
        <ele>167.352</ele>
        <time>2020-06-09T15:22:53Z</time>
      </trkpt>
      <trkpt lat="44.86785" lon="0.60457">
        <ele>167.314</ele>
        <time>2020-06-09T15:22:57Z</time>
      </trkpt>
      <trkpt lat="44.86785" lon="0.60449">
        <ele>167.278</ele>
        <time>2020-06-09T15:23:01Z</time>
      </trkpt>
      <trkpt lat="44.86785" lon="0.60446">
        <ele>167.269</ele>
        <time>2020-06-09T15:23:02Z</time>
      </trkpt>
      <trkpt lat="44.86789" lon="0.6044">
        <ele>167.235</ele>
        <time>2020-06-09T15:23:06Z</time>
      </trkpt>
      <trkpt lat="44.86791" lon="0.60434">
        <ele>167.21</ele>
        <time>2020-06-09T15:23:09Z</time>
      </trkpt>
      <trkpt lat="44.86792" lon="0.6043">
        <ele>167.193</ele>
        <time>2020-06-09T15:23:11Z</time>
      </trkpt>
      <trkpt lat="44.86792" lon="0.60427">
        <ele>167.185</ele>
        <time>2020-06-09T15:23:12Z</time>
      </trkpt>
      <trkpt lat="44.86793" lon="0.60424">
        <ele>167.177</ele>
        <time>2020-06-09T15:23:13Z</time>
      </trkpt>
      <trkpt lat="44.86796" lon="0.60417">
        <ele>167.133</ele>
        <time>2020-06-09T15:23:18Z</time>
      </trkpt>
      <trkpt lat="44.868" lon="0.60411">
        <ele>167.106</ele>
        <time>2020-06-09T15:23:21Z</time>
      </trkpt>
      <trkpt lat="44.86803" lon="0.60408">
        <ele>167.08</ele>
        <time>2020-06-09T15:23:24Z</time>
      </trkpt>
      <trkpt lat="44.86806" lon="0.60406">
        <ele>167.064</ele>
        <time>2020-06-09T15:23:26Z</time>
      </trkpt>
      <trkpt lat="44.86808" lon="0.60404">
        <ele>167.049</ele>
        <time>2020-06-09T15:23:28Z</time>
      </trkpt>
      <trkpt lat="44.86811" lon="0.60399">
        <ele>167.035</ele>
        <time>2020-06-09T15:23:30Z</time>
      </trkpt>
      <trkpt lat="44.86814" lon="0.60394">
        <ele>167.021</ele>
        <time>2020-06-09T15:23:32Z</time>
      </trkpt>
      <trkpt lat="44.86818" lon="0.60388">
        <ele>167</ele>
        <time>2020-06-09T15:23:35Z</time>
      </trkpt>
      <trkpt lat="44.86821" lon="0.60385">
        <ele>166.987</ele>
        <time>2020-06-09T15:23:37Z</time>
      </trkpt>
      <trkpt lat="44.86824" lon="0.60379">
        <ele>166.961</ele>
        <time>2020-06-09T15:23:41Z</time>
      </trkpt>
      <trkpt lat="44.86826" lon="0.60373">
        <ele>166.941</ele>
        <time>2020-06-09T15:23:44Z</time>
      </trkpt>
      <trkpt lat="44.86827" lon="0.60365">
        <ele>166.917</ele>
        <time>2020-06-09T15:23:48Z</time>
      </trkpt>
      <trkpt lat="44.86827" lon="0.60359">
        <ele>166.905</ele>
        <time>2020-06-09T15:23:50Z</time>
      </trkpt>
      <trkpt lat="44.86824" lon="0.60351">
        <ele>166.89</ele>
        <time>2020-06-09T15:23:53Z</time>
      </trkpt>
      <trkpt lat="44.86825" lon="0.60345">
        <ele>166.868</ele>
        <time>2020-06-09T15:23:58Z</time>
      </trkpt>
      <trkpt lat="44.86824" lon="0.60335">
        <ele>166.85</ele>
        <time>2020-06-09T15:24:02Z</time>
      </trkpt>
      <trkpt lat="44.86822" lon="0.60328">
        <ele>166.834</ele>
        <time>2020-06-09T15:24:05Z</time>
      </trkpt>
      <trkpt lat="44.86821" lon="0.60321">
        <ele>166.811</ele>
        <time>2020-06-09T15:24:09Z</time>
      </trkpt>
      <trkpt lat="44.86821" lon="0.60317">
        <ele>166.797</ele>
        <time>2020-06-09T15:24:11Z</time>
      </trkpt>
      <trkpt lat="44.86821" lon="0.60313">
        <ele>166.79</ele>
        <time>2020-06-09T15:24:12Z</time>
      </trkpt>
      <trkpt lat="44.8682" lon="0.60308">
        <ele>166.774</ele>
        <time>2020-06-09T15:24:14Z</time>
      </trkpt>
      <trkpt lat="44.86819" lon="0.60302">
        <ele>166.75</ele>
        <time>2020-06-09T15:24:17Z</time>
      </trkpt>
      <trkpt lat="44.86819" lon="0.60294">
        <ele>166.726</ele>
        <time>2020-06-09T15:24:20Z</time>
      </trkpt>
      <trkpt lat="44.86818" lon="0.60291">
        <ele>166.702</ele>
        <time>2020-06-09T15:24:23Z</time>
      </trkpt>
      <trkpt lat="44.86823" lon="0.60286">
        <ele>166.672</ele>
        <time>2020-06-09T15:24:27Z</time>
      </trkpt>
      <trkpt lat="44.86827" lon="0.60284">
        <ele>166.651</ele>
        <time>2020-06-09T15:24:30Z</time>
      </trkpt>
      <trkpt lat="44.86831" lon="0.60279">
        <ele>166.634</ele>
        <time>2020-06-09T15:24:33Z</time>
      </trkpt>
      <trkpt lat="44.86834" lon="0.60275">
        <ele>166.628</ele>
        <time>2020-06-09T15:24:35Z</time>
      </trkpt>
      <trkpt lat="44.86836" lon="0.6027">
        <ele>166.608</ele>
        <time>2020-06-09T15:24:39Z</time>
      </trkpt>
      <trkpt lat="44.86837" lon="0.60258">
        <ele>166.583</ele>
        <time>2020-06-09T15:24:44Z</time>
      </trkpt>
      <trkpt lat="44.86836" lon="0.60251">
        <ele>166.567</ele>
        <time>2020-06-09T15:24:47Z</time>
      </trkpt>
      <trkpt lat="44.86837" lon="0.60245">
        <ele>166.556</ele>
        <time>2020-06-09T15:24:49Z</time>
      </trkpt>
      <trkpt lat="44.86838" lon="0.60238">
        <ele>166.545</ele>
        <time>2020-06-09T15:24:51Z</time>
      </trkpt>
      <trkpt lat="44.86839" lon="0.60231">
        <ele>166.532</ele>
        <time>2020-06-09T15:24:53Z</time>
      </trkpt>
      <trkpt lat="44.86841" lon="0.60224">
        <ele>166.51</ele>
        <time>2020-06-09T15:24:56Z</time>
      </trkpt>
      <trkpt lat="44.86841" lon="0.60217">
        <ele>166.487</ele>
        <time>2020-06-09T15:24:59Z</time>
      </trkpt>
      <trkpt lat="44.86844" lon="0.60209">
        <ele>166.454</ele>
        <time>2020-06-09T15:25:03Z</time>
      </trkpt>
      <trkpt lat="44.86842" lon="0.60201">
        <ele>166.43</ele>
        <time>2020-06-09T15:25:06Z</time>
      </trkpt>
      <trkpt lat="44.86841" lon="0.60192">
        <ele>166.406</ele>
        <time>2020-06-09T15:25:09Z</time>
      </trkpt>
      <trkpt lat="44.86841" lon="0.60185">
        <ele>166.384</ele>
        <time>2020-06-09T15:25:12Z</time>
      </trkpt>
      <trkpt lat="44.86841" lon="0.60181">
        <ele>166.369</ele>
        <time>2020-06-09T15:25:14Z</time>
      </trkpt>
      <trkpt lat="44.86842" lon="0.60174">
        <ele>166.329</ele>
        <time>2020-06-09T15:25:19Z</time>
      </trkpt>
      <trkpt lat="44.86843" lon="0.60166">
        <ele>166.305</ele>
        <time>2020-06-09T15:25:22Z</time>
      </trkpt>
      <trkpt lat="44.86843" lon="0.60161">
        <ele>166.257</ele>
        <time>2020-06-09T15:25:28Z</time>
      </trkpt>
      <trkpt lat="44.86842" lon="0.60152">
        <ele>166.232</ele>
        <time>2020-06-09T15:25:31Z</time>
      </trkpt>
      <trkpt lat="44.86836" lon="0.60145">
        <ele>166.191</ele>
        <time>2020-06-09T15:25:36Z</time>
      </trkpt>
      <trkpt lat="44.86833" lon="0.60139">
        <ele>166.148</ele>
        <time>2020-06-09T15:25:40Z</time>
      </trkpt>
      <trkpt lat="44.86829" lon="0.60136">
        <ele>166.098</ele>
        <time>2020-06-09T15:25:45Z</time>
      </trkpt>
      <trkpt lat="44.86825" lon="0.60131">
        <ele>166.041</ele>
        <time>2020-06-09T15:25:50Z</time>
      </trkpt>
      <trkpt lat="44.8682" lon="0.60127">
        <ele>165.968</ele>
        <time>2020-06-09T15:25:55Z</time>
      </trkpt>
      <trkpt lat="44.86822" lon="0.60121">
        <ele>165.858</ele>
        <time>2020-06-09T15:26:03Z</time>
      </trkpt>
      <trkpt lat="44.8682" lon="0.60115">
        <ele>165.738</ele>
        <time>2020-06-09T15:26:10Z</time>
      </trkpt>
      <trkpt lat="44.86819" lon="0.60108">
        <ele>165.682</ele>
        <time>2020-06-09T15:26:13Z</time>
      </trkpt>
      <trkpt lat="44.86816" lon="0.60102">
        <ele>165.579</ele>
        <time>2020-06-09T15:26:19Z</time>
      </trkpt>
      <trkpt lat="44.86815" lon="0.60095">
        <ele>165.535</ele>
        <time>2020-06-09T15:26:21Z</time>
      </trkpt>
      <trkpt lat="44.86816" lon="0.60085">
        <ele>165.49</ele>
        <time>2020-06-09T15:26:23Z</time>
      </trkpt>
      <trkpt lat="44.86816" lon="0.60077">
        <ele>165.445</ele>
        <time>2020-06-09T15:26:25Z</time>
      </trkpt>
      <trkpt lat="44.86813" lon="0.60068">
        <ele>165.423</ele>
        <time>2020-06-09T15:26:26Z</time>
      </trkpt>
      <trkpt lat="44.86805" lon="0.60031">
        <ele>165.311</ele>
        <time>2020-06-09T15:26:31Z</time>
      </trkpt>
      <trkpt lat="44.86805" lon="0.60026">
        <ele>165.29</ele>
        <time>2020-06-09T15:26:32Z</time>
      </trkpt>
      <trkpt lat="44.86805" lon="0.60018">
        <ele>165.225</ele>
        <time>2020-06-09T15:26:35Z</time>
      </trkpt>
      <trkpt lat="44.86803" lon="0.6001">
        <ele>165.123</ele>
        <time>2020-06-09T15:26:40Z</time>
      </trkpt>
      <trkpt lat="44.86801" lon="0.60002">
        <ele>165.062</ele>
        <time>2020-06-09T15:26:43Z</time>
      </trkpt>
      <trkpt lat="44.868" lon="0.59998">
        <ele>165.024</ele>
        <time>2020-06-09T15:26:45Z</time>
      </trkpt>
      <trkpt lat="44.86799" lon="0.59991">
        <ele>164.968</ele>
        <time>2020-06-09T15:26:48Z</time>
      </trkpt>
      <trkpt lat="44.868" lon="0.59981">
        <ele>164.893</ele>
        <time>2020-06-09T15:26:52Z</time>
      </trkpt>
      <trkpt lat="44.868" lon="0.59973">
        <ele>164.823</ele>
        <time>2020-06-09T15:26:56Z</time>
      </trkpt>
      <trkpt lat="44.86801" lon="0.59966">
        <ele>164.717</ele>
        <time>2020-06-09T15:27:02Z</time>
      </trkpt>
      <trkpt lat="44.86802" lon="0.59961">
        <ele>164.66</ele>
        <time>2020-06-09T15:27:05Z</time>
      </trkpt>
      <trkpt lat="44.86804" lon="0.59953">
        <ele>164.564</ele>
        <time>2020-06-09T15:27:10Z</time>
      </trkpt>
      <trkpt lat="44.86805" lon="0.59946">
        <ele>164.489</ele>
        <time>2020-06-09T15:27:14Z</time>
      </trkpt>
      <trkpt lat="44.86803" lon="0.59938">
        <ele>164.421</ele>
        <time>2020-06-09T15:27:18Z</time>
      </trkpt>
      <trkpt lat="44.86802" lon="0.59932">
        <ele>164.371</ele>
        <time>2020-06-09T15:27:21Z</time>
      </trkpt>
      <trkpt lat="44.86802" lon="0.59927">
        <ele>164.34</ele>
        <time>2020-06-09T15:27:23Z</time>
      </trkpt>
      <trkpt lat="44.86802" lon="0.5992">
        <ele>164.28</ele>
        <time>2020-06-09T15:27:27Z</time>
      </trkpt>
      <trkpt lat="44.86803" lon="0.59913">
        <ele>164.253</ele>
        <time>2020-06-09T15:27:29Z</time>
      </trkpt>
      <trkpt lat="44.86803" lon="0.59909">
        <ele>164.226</ele>
        <time>2020-06-09T15:27:31Z</time>
      </trkpt>
      <trkpt lat="44.86805" lon="0.59899">
        <ele>164.161</ele>
        <time>2020-06-09T15:27:36Z</time>
      </trkpt>
      <trkpt lat="44.86807" lon="0.59891">
        <ele>164.127</ele>
        <time>2020-06-09T15:27:39Z</time>
      </trkpt>
      <trkpt lat="44.86812" lon="0.59887">
        <ele>164.107</ele>
        <time>2020-06-09T15:27:41Z</time>
      </trkpt>
      <trkpt lat="44.86815" lon="0.59883">
        <ele>164.09</ele>
        <time>2020-06-09T15:27:43Z</time>
      </trkpt>
      <trkpt lat="44.86818" lon="0.59881">
        <ele>164.074</ele>
        <time>2020-06-09T15:27:45Z</time>
      </trkpt>
      <trkpt lat="44.8682" lon="0.59874">
        <ele>164.04</ele>
        <time>2020-06-09T15:27:49Z</time>
      </trkpt>
      <trkpt lat="44.86821" lon="0.59866">
        <ele>164.008</ele>
        <time>2020-06-09T15:27:52Z</time>
      </trkpt>
      <trkpt lat="44.86822" lon="0.59868">
        <ele>163.893</ele>
        <time>2020-06-09T15:28:01Z</time>
      </trkpt>
      <trkpt lat="44.86822" lon="0.5986">
        <ele>163.827</ele>
        <time>2020-06-09T15:28:05Z</time>
      </trkpt>
      <trkpt lat="44.86823" lon="0.59854">
        <ele>163.779</ele>
        <time>2020-06-09T15:28:08Z</time>
      </trkpt>
      <trkpt lat="44.86825" lon="0.59848">
        <ele>163.734</ele>
        <time>2020-06-09T15:28:11Z</time>
      </trkpt>
      <trkpt lat="44.86829" lon="0.59841">
        <ele>163.669</ele>
        <time>2020-06-09T15:28:16Z</time>
      </trkpt>
      <trkpt lat="44.86835" lon="0.59835">
        <ele>163.639</ele>
        <time>2020-06-09T15:28:19Z</time>
      </trkpt>
      <trkpt lat="44.86838" lon="0.5983">
        <ele>163.614</ele>
        <time>2020-06-09T15:28:22Z</time>
      </trkpt>
      <trkpt lat="44.86843" lon="0.59826">
        <ele>163.599</ele>
        <time>2020-06-09T15:28:24Z</time>
      </trkpt>
      <trkpt lat="44.86846" lon="0.59821">
        <ele>163.577</ele>
        <time>2020-06-09T15:28:27Z</time>
      </trkpt>
      <trkpt lat="44.86848" lon="0.59813">
        <ele>163.542</ele>
        <time>2020-06-09T15:28:33Z</time>
      </trkpt>
      <trkpt lat="44.86849" lon="0.59807">
        <ele>163.513</ele>
        <time>2020-06-09T15:28:37Z</time>
      </trkpt>
      <trkpt lat="44.86849" lon="0.59802">
        <ele>163.498</ele>
        <time>2020-06-09T15:28:39Z</time>
      </trkpt>
      <trkpt lat="44.86852" lon="0.59793">
        <ele>163.467</ele>
        <time>2020-06-09T15:28:43Z</time>
      </trkpt>
      <trkpt lat="44.86852" lon="0.5979">
        <ele>163.457</ele>
        <time>2020-06-09T15:28:45Z</time>
      </trkpt>
      <trkpt lat="44.86852" lon="0.59783">
        <ele>163.421</ele>
        <time>2020-06-09T15:28:49Z</time>
      </trkpt>
      <trkpt lat="44.86848" lon="0.59777">
        <ele>163.382</ele>
        <time>2020-06-09T15:28:53Z</time>
      </trkpt>
      <trkpt lat="44.86849" lon="0.5977">
        <ele>163.318</ele>
        <time>2020-06-09T15:28:59Z</time>
      </trkpt>
      <trkpt lat="44.86851" lon="0.59763">
        <ele>163.22</ele>
        <time>2020-06-09T15:29:08Z</time>
      </trkpt>
      <trkpt lat="44.86854" lon="0.59757">
        <ele>163.171</ele>
        <time>2020-06-09T15:29:12Z</time>
      </trkpt>
      <trkpt lat="44.86856" lon="0.59754">
        <ele>163.148</ele>
        <time>2020-06-09T15:29:14Z</time>
      </trkpt>
      <trkpt lat="44.86861" lon="0.59748">
        <ele>163.108</ele>
        <time>2020-06-09T15:29:18Z</time>
      </trkpt>
      <trkpt lat="44.86863" lon="0.59742">
        <ele>163.081</ele>
        <time>2020-06-09T15:29:21Z</time>
      </trkpt>
      <trkpt lat="44.86867" lon="0.59737">
        <ele>163.033</ele>
        <time>2020-06-09T15:29:27Z</time>
      </trkpt>
      <trkpt lat="44.86869" lon="0.5973">
        <ele>163.005</ele>
        <time>2020-06-09T15:29:31Z</time>
      </trkpt>
      <trkpt lat="44.86871" lon="0.59723">
        <ele>162.97</ele>
        <time>2020-06-09T15:29:36Z</time>
      </trkpt>
      <trkpt lat="44.86874" lon="0.59717">
        <ele>162.947</ele>
        <time>2020-06-09T15:29:41Z</time>
      </trkpt>
      <trkpt lat="44.86876" lon="0.5971">
        <ele>162.922</ele>
        <time>2020-06-09T15:29:45Z</time>
      </trkpt>
      <trkpt lat="44.86877" lon="0.59706">
        <ele>162.905</ele>
        <time>2020-06-09T15:29:48Z</time>
      </trkpt>
      <trkpt lat="44.86878" lon="0.59699">
        <ele>162.882</ele>
        <time>2020-06-09T15:29:53Z</time>
      </trkpt>
      <trkpt lat="44.86878" lon="0.59696">
        <ele>162.878</ele>
        <time>2020-06-09T15:29:54Z</time>
      </trkpt>
      <trkpt lat="44.8688" lon="0.5969">
        <ele>162.862</ele>
        <time>2020-06-09T15:29:58Z</time>
      </trkpt>
      <trkpt lat="44.86881" lon="0.59685">
        <ele>162.855</ele>
        <time>2020-06-09T15:30:01Z</time>
      </trkpt>
      <trkpt lat="44.86882" lon="0.59681">
        <ele>162.856</ele>
        <time>2020-06-09T15:30:04Z</time>
      </trkpt>
      <trkpt lat="44.86882" lon="0.59674">
        <ele>162.871</ele>
        <time>2020-06-09T15:30:08Z</time>
      </trkpt>
      <trkpt lat="44.86883" lon="0.59667">
        <ele>162.904</ele>
        <time>2020-06-09T15:30:13Z</time>
      </trkpt>
      <trkpt lat="44.86882" lon="0.5966">
        <ele>162.947</ele>
        <time>2020-06-09T15:30:18Z</time>
      </trkpt>
      <trkpt lat="44.86883" lon="0.59654">
        <ele>162.975</ele>
        <time>2020-06-09T15:30:21Z</time>
      </trkpt>
      <trkpt lat="44.86884" lon="0.59645">
        <ele>163.013</ele>
        <time>2020-06-09T15:30:25Z</time>
      </trkpt>
      <trkpt lat="44.86884" lon="0.59641">
        <ele>163.032</ele>
        <time>2020-06-09T15:30:27Z</time>
      </trkpt>
      <trkpt lat="44.86884" lon="0.59636">
        <ele>163.051</ele>
        <time>2020-06-09T15:30:29Z</time>
      </trkpt>
      <trkpt lat="44.86884" lon="0.59632">
        <ele>163.07</ele>
        <time>2020-06-09T15:30:31Z</time>
      </trkpt>
      <trkpt lat="44.86882" lon="0.59624">
        <ele>163.111</ele>
        <time>2020-06-09T15:30:35Z</time>
      </trkpt>
      <trkpt lat="44.86883" lon="0.59617">
        <ele>163.142</ele>
        <time>2020-06-09T15:30:38Z</time>
      </trkpt>
      <trkpt lat="44.86883" lon="0.5961">
        <ele>163.175</ele>
        <time>2020-06-09T15:30:41Z</time>
      </trkpt>
      <trkpt lat="44.86885" lon="0.59603">
        <ele>163.21</ele>
        <time>2020-06-09T15:30:44Z</time>
      </trkpt>
      <trkpt lat="44.86886" lon="0.596">
        <ele>163.233</ele>
        <time>2020-06-09T15:30:46Z</time>
      </trkpt>
      <trkpt lat="44.86885" lon="0.59593">
        <ele>163.27</ele>
        <time>2020-06-09T15:30:49Z</time>
      </trkpt>
      <trkpt lat="44.86885" lon="0.59588">
        <ele>163.306</ele>
        <time>2020-06-09T15:30:52Z</time>
      </trkpt>
      <trkpt lat="44.86887" lon="0.59581">
        <ele>163.354</ele>
        <time>2020-06-09T15:30:56Z</time>
      </trkpt>
      <trkpt lat="44.86888" lon="0.59578">
        <ele>163.377</ele>
        <time>2020-06-09T15:30:58Z</time>
      </trkpt>
      <trkpt lat="44.8689" lon="0.59569">
        <ele>163.411</ele>
        <time>2020-06-09T15:31:01Z</time>
      </trkpt>
      <trkpt lat="44.8689" lon="0.59563">
        <ele>163.445</ele>
        <time>2020-06-09T15:31:04Z</time>
      </trkpt>
      <trkpt lat="44.86891" lon="0.59558">
        <ele>163.468</ele>
        <time>2020-06-09T15:31:06Z</time>
      </trkpt>
      <trkpt lat="44.86892" lon="0.59551">
        <ele>163.501</ele>
        <time>2020-06-09T15:31:09Z</time>
      </trkpt>
      <trkpt lat="44.86893" lon="0.59546">
        <ele>163.523</ele>
        <time>2020-06-09T15:31:11Z</time>
      </trkpt>
      <trkpt lat="44.86894" lon="0.59539">
        <ele>163.553</ele>
        <time>2020-06-09T15:31:14Z</time>
      </trkpt>
      <trkpt lat="44.86895" lon="0.59534">
        <ele>163.573</ele>
        <time>2020-06-09T15:31:16Z</time>
      </trkpt>
      <trkpt lat="44.86898" lon="0.59528">
        <ele>163.602</ele>
        <time>2020-06-09T15:31:19Z</time>
      </trkpt>
      <trkpt lat="44.86899" lon="0.59524">
        <ele>163.622</ele>
        <time>2020-06-09T15:31:21Z</time>
      </trkpt>
      <trkpt lat="44.86901" lon="0.59521">
        <ele>163.641</ele>
        <time>2020-06-09T15:31:23Z</time>
      </trkpt>
      <trkpt lat="44.86902" lon="0.59514">
        <ele>163.667</ele>
        <time>2020-06-09T15:31:26Z</time>
      </trkpt>
      <trkpt lat="44.86902" lon="0.59506">
        <ele>163.692</ele>
        <time>2020-06-09T15:31:29Z</time>
      </trkpt>
      <trkpt lat="44.86902" lon="0.59502">
        <ele>163.711</ele>
        <time>2020-06-09T15:31:31Z</time>
      </trkpt>
      <trkpt lat="44.86901" lon="0.59495">
        <ele>163.741</ele>
        <time>2020-06-09T15:31:34Z</time>
      </trkpt>
      <trkpt lat="44.869" lon="0.59492">
        <ele>163.762</ele>
        <time>2020-06-09T15:31:36Z</time>
      </trkpt>
      <trkpt lat="44.86901" lon="0.59483">
        <ele>163.801</ele>
        <time>2020-06-09T15:31:40Z</time>
      </trkpt>
      <trkpt lat="44.86904" lon="0.59475">
        <ele>163.831</ele>
        <time>2020-06-09T15:31:43Z</time>
      </trkpt>
      <trkpt lat="44.86905" lon="0.5947">
        <ele>163.851</ele>
        <time>2020-06-09T15:31:45Z</time>
      </trkpt>
      <trkpt lat="44.86909" lon="0.59465">
        <ele>163.885</ele>
        <time>2020-06-09T15:31:48Z</time>
      </trkpt>
      <trkpt lat="44.86911" lon="0.59459">
        <ele>163.917</ele>
        <time>2020-06-09T15:31:51Z</time>
      </trkpt>
      <trkpt lat="44.86912" lon="0.59456">
        <ele>163.936</ele>
        <time>2020-06-09T15:31:53Z</time>
      </trkpt>
      <trkpt lat="44.86913" lon="0.59447">
        <ele>163.972</ele>
        <time>2020-06-09T15:31:57Z</time>
      </trkpt>
      <trkpt lat="44.86911" lon="0.59438">
        <ele>164.002</ele>
        <time>2020-06-09T15:32:01Z</time>
      </trkpt>
      <trkpt lat="44.86913" lon="0.59432">
        <ele>164.03</ele>
        <time>2020-06-09T15:32:05Z</time>
      </trkpt>
      <trkpt lat="44.86914" lon="0.59428">
        <ele>164.046</ele>
        <time>2020-06-09T15:32:07Z</time>
      </trkpt>
      <trkpt lat="44.86915" lon="0.59422">
        <ele>164.068</ele>
        <time>2020-06-09T15:32:10Z</time>
      </trkpt>
      <trkpt lat="44.86916" lon="0.59418">
        <ele>164.081</ele>
        <time>2020-06-09T15:32:12Z</time>
      </trkpt>
      <trkpt lat="44.86917" lon="0.59412">
        <ele>164.094</ele>
        <time>2020-06-09T15:32:14Z</time>
      </trkpt>
      <trkpt lat="44.86917" lon="0.59409">
        <ele>164.107</ele>
        <time>2020-06-09T15:32:16Z</time>
      </trkpt>
      <trkpt lat="44.86918" lon="0.59405">
        <ele>164.121</ele>
        <time>2020-06-09T15:32:18Z</time>
      </trkpt>
      <trkpt lat="44.86919" lon="0.59399">
        <ele>164.142</ele>
        <time>2020-06-09T15:32:21Z</time>
      </trkpt>
      <trkpt lat="44.8692" lon="0.59394">
        <ele>164.163</ele>
        <time>2020-06-09T15:32:24Z</time>
      </trkpt>
      <trkpt lat="44.86921" lon="0.5939">
        <ele>164.176</ele>
        <time>2020-06-09T15:32:26Z</time>
      </trkpt>
      <trkpt lat="44.86922" lon="0.59385">
        <ele>164.188</ele>
        <time>2020-06-09T15:32:28Z</time>
      </trkpt>
      <trkpt lat="44.86923" lon="0.59378">
        <ele>164.204</ele>
        <time>2020-06-09T15:32:31Z</time>
      </trkpt>
      <trkpt lat="44.86922" lon="0.5937">
        <ele>164.217</ele>
        <time>2020-06-09T15:32:34Z</time>
      </trkpt>
      <trkpt lat="44.86922" lon="0.59364">
        <ele>164.227</ele>
        <time>2020-06-09T15:32:37Z</time>
      </trkpt>
      <trkpt lat="44.86921" lon="0.5936">
        <ele>164.233</ele>
        <time>2020-06-09T15:32:39Z</time>
      </trkpt>
      <trkpt lat="44.86922" lon="0.59353">
        <ele>164.238</ele>
        <time>2020-06-09T15:32:42Z</time>
      </trkpt>
      <trkpt lat="44.86922" lon="0.59349">
        <ele>164.24</ele>
        <time>2020-06-09T15:32:44Z</time>
      </trkpt>
      <trkpt lat="44.86923" lon="0.59344">
        <ele>164.241</ele>
        <time>2020-06-09T15:32:46Z</time>
      </trkpt>
      <trkpt lat="44.86923" lon="0.5934">
        <ele>164.241</ele>
        <time>2020-06-09T15:32:48Z</time>
      </trkpt>
      <trkpt lat="44.86922" lon="0.59333">
        <ele>164.239</ele>
        <time>2020-06-09T15:32:51Z</time>
      </trkpt>
      <trkpt lat="44.86921" lon="0.5933">
        <ele>164.236</ele>
        <time>2020-06-09T15:32:53Z</time>
      </trkpt>
      <trkpt lat="44.86921" lon="0.59324">
        <ele>164.231</ele>
        <time>2020-06-09T15:32:56Z</time>
      </trkpt>
      <trkpt lat="44.86922" lon="0.59317">
        <ele>164.22</ele>
        <time>2020-06-09T15:33:00Z</time>
      </trkpt>
      <trkpt lat="44.86922" lon="0.59313">
        <ele>164.214</ele>
        <time>2020-06-09T15:33:02Z</time>
      </trkpt>
      <trkpt lat="44.86924" lon="0.59306">
        <ele>164.205</ele>
        <time>2020-06-09T15:33:05Z</time>
      </trkpt>
      <trkpt lat="44.86924" lon="0.59299">
        <ele>164.187</ele>
        <time>2020-06-09T15:33:10Z</time>
      </trkpt>
      <trkpt lat="44.86924" lon="0.59295">
        <ele>164.178</ele>
        <time>2020-06-09T15:33:12Z</time>
      </trkpt>
      <trkpt lat="44.86924" lon="0.5929">
        <ele>164.167</ele>
        <time>2020-06-09T15:33:14Z</time>
      </trkpt>
      <trkpt lat="44.86924" lon="0.59286">
        <ele>164.154</ele>
        <time>2020-06-09T15:33:16Z</time>
      </trkpt>
      <trkpt lat="44.86924" lon="0.59282">
        <ele>164.14</ele>
        <time>2020-06-09T15:33:18Z</time>
      </trkpt>
      <trkpt lat="44.86923" lon="0.59279">
        <ele>164.124</ele>
        <time>2020-06-09T15:33:20Z</time>
      </trkpt>
      <trkpt lat="44.86923" lon="0.59274">
        <ele>164.106</ele>
        <time>2020-06-09T15:33:22Z</time>
      </trkpt>
      <trkpt lat="44.86923" lon="0.59269">
        <ele>164.085</ele>
        <time>2020-06-09T15:33:24Z</time>
      </trkpt>
      <trkpt lat="44.86922" lon="0.59262">
        <ele>164.052</ele>
        <time>2020-06-09T15:33:27Z</time>
      </trkpt>
      <trkpt lat="44.86921" lon="0.59254">
        <ele>164.017</ele>
        <time>2020-06-09T15:33:30Z</time>
      </trkpt>
      <trkpt lat="44.8692" lon="0.59247">
        <ele>163.967</ele>
        <time>2020-06-09T15:33:34Z</time>
      </trkpt>
      <trkpt lat="44.86919" lon="0.59243">
        <ele>163.939</ele>
        <time>2020-06-09T15:33:36Z</time>
      </trkpt>
      <trkpt lat="44.86918" lon="0.59237">
        <ele>163.911</ele>
        <time>2020-06-09T15:33:38Z</time>
      </trkpt>
      <trkpt lat="44.86918" lon="0.5923">
        <ele>163.866</ele>
        <time>2020-06-09T15:33:41Z</time>
      </trkpt>
      <trkpt lat="44.86919" lon="0.59222">
        <ele>163.818</ele>
        <time>2020-06-09T15:33:44Z</time>
      </trkpt>
      <trkpt lat="44.86919" lon="0.59215">
        <ele>163.744</ele>
        <time>2020-06-09T15:33:48Z</time>
      </trkpt>
      <trkpt lat="44.86919" lon="0.59211">
        <ele>163.702</ele>
        <time>2020-06-09T15:33:50Z</time>
      </trkpt>
      <trkpt lat="44.8692" lon="0.59206">
        <ele>163.659</ele>
        <time>2020-06-09T15:33:52Z</time>
      </trkpt>
      <trkpt lat="44.8692" lon="0.59198">
        <ele>163.571</ele>
        <time>2020-06-09T15:33:56Z</time>
      </trkpt>
      <trkpt lat="44.86921" lon="0.59192">
        <ele>163.503</ele>
        <time>2020-06-09T15:33:59Z</time>
      </trkpt>
      <trkpt lat="44.86921" lon="0.59188">
        <ele>163.459</ele>
        <time>2020-06-09T15:34:01Z</time>
      </trkpt>
      <trkpt lat="44.86922" lon="0.5918">
        <ele>163.374</ele>
        <time>2020-06-09T15:34:05Z</time>
      </trkpt>
      <trkpt lat="44.86922" lon="0.59176">
        <ele>163.334</ele>
        <time>2020-06-09T15:34:07Z</time>
      </trkpt>
      <trkpt lat="44.86922" lon="0.59172">
        <ele>163.293</ele>
        <time>2020-06-09T15:34:09Z</time>
      </trkpt>
      <trkpt lat="44.86922" lon="0.59164">
        <ele>163.234</ele>
        <time>2020-06-09T15:34:12Z</time>
      </trkpt>
      <trkpt lat="44.86924" lon="0.59156">
        <ele>163.157</ele>
        <time>2020-06-09T15:34:16Z</time>
      </trkpt>
      <trkpt lat="44.86925" lon="0.59148">
        <ele>163.097</ele>
        <time>2020-06-09T15:34:19Z</time>
      </trkpt>
      <trkpt lat="44.86925" lon="0.59143">
        <ele>163.057</ele>
        <time>2020-06-09T15:34:21Z</time>
      </trkpt>
      <trkpt lat="44.86926" lon="0.59136">
        <ele>162.997</ele>
        <time>2020-06-09T15:34:24Z</time>
      </trkpt>
      <trkpt lat="44.86927" lon="0.59129">
        <ele>162.937</ele>
        <time>2020-06-09T15:34:27Z</time>
      </trkpt>
      <trkpt lat="44.86928" lon="0.59124">
        <ele>162.899</ele>
        <time>2020-06-09T15:34:29Z</time>
      </trkpt>
      <trkpt lat="44.8693" lon="0.59118">
        <ele>162.842</ele>
        <time>2020-06-09T15:34:32Z</time>
      </trkpt>
      <trkpt lat="44.86931" lon="0.59112">
        <ele>162.785</ele>
        <time>2020-06-09T15:34:35Z</time>
      </trkpt>
      <trkpt lat="44.86932" lon="0.59106">
        <ele>162.729</ele>
        <time>2020-06-09T15:34:38Z</time>
      </trkpt>
      <trkpt lat="44.86932" lon="0.59098">
        <ele>162.673</ele>
        <time>2020-06-09T15:34:41Z</time>
      </trkpt>
      <trkpt lat="44.86933" lon="0.59093">
        <ele>162.636</ele>
        <time>2020-06-09T15:34:43Z</time>
      </trkpt>
      <trkpt lat="44.86934" lon="0.59088">
        <ele>162.598</ele>
        <time>2020-06-09T15:34:45Z</time>
      </trkpt>
      <trkpt lat="44.86933" lon="0.5908">
        <ele>162.519</ele>
        <time>2020-06-09T15:34:49Z</time>
      </trkpt>
      <trkpt lat="44.86934" lon="0.59076">
        <ele>162.478</ele>
        <time>2020-06-09T15:34:51Z</time>
      </trkpt>
      <trkpt lat="44.86934" lon="0.59072">
        <ele>162.437</ele>
        <time>2020-06-09T15:34:53Z</time>
      </trkpt>
      <trkpt lat="44.86933" lon="0.59067">
        <ele>162.394</ele>
        <time>2020-06-09T15:34:55Z</time>
      </trkpt>
      <trkpt lat="44.86933" lon="0.59061">
        <ele>162.33</ele>
        <time>2020-06-09T15:34:58Z</time>
      </trkpt>
      <trkpt lat="44.86934" lon="0.59055">
        <ele>162.286</ele>
        <time>2020-06-09T15:35:00Z</time>
      </trkpt>
      <trkpt lat="44.86934" lon="0.59051">
        <ele>162.242</ele>
        <time>2020-06-09T15:35:02Z</time>
      </trkpt>
      <trkpt lat="44.86934" lon="0.59048">
        <ele>162.198</ele>
        <time>2020-06-09T15:35:04Z</time>
      </trkpt>
      <trkpt lat="44.86934" lon="0.59041">
        <ele>162.132</ele>
        <time>2020-06-09T15:35:07Z</time>
      </trkpt>
      <trkpt lat="44.86934" lon="0.59035">
        <ele>162.063</ele>
        <time>2020-06-09T15:35:10Z</time>
      </trkpt>
      <trkpt lat="44.86932" lon="0.59028">
        <ele>161.972</ele>
        <time>2020-06-09T15:35:14Z</time>
      </trkpt>
      <trkpt lat="44.86932" lon="0.59024">
        <ele>161.927</ele>
        <time>2020-06-09T15:35:16Z</time>
      </trkpt>
      <trkpt lat="44.8693" lon="0.59016">
        <ele>161.815</ele>
        <time>2020-06-09T15:35:21Z</time>
      </trkpt>
      <trkpt lat="44.86928" lon="0.59009">
        <ele>161.749</ele>
        <time>2020-06-09T15:35:24Z</time>
      </trkpt>
      <trkpt lat="44.86926" lon="0.59002">
        <ele>161.662</ele>
        <time>2020-06-09T15:35:28Z</time>
      </trkpt>
      <trkpt lat="44.86926" lon="0.58995">
        <ele>161.596</ele>
        <time>2020-06-09T15:35:31Z</time>
      </trkpt>
      <trkpt lat="44.86925" lon="0.58991">
        <ele>161.529</ele>
        <time>2020-06-09T15:35:34Z</time>
      </trkpt>
      <trkpt lat="44.86925" lon="0.58985">
        <ele>161.463</ele>
        <time>2020-06-09T15:35:37Z</time>
      </trkpt>
      <trkpt lat="44.86924" lon="0.58977">
        <ele>161.378</ele>
        <time>2020-06-09T15:35:41Z</time>
      </trkpt>
      <trkpt lat="44.86923" lon="0.58969">
        <ele>161.317</ele>
        <time>2020-06-09T15:35:44Z</time>
      </trkpt>
      <trkpt lat="44.86923" lon="0.58964">
        <ele>161.277</ele>
        <time>2020-06-09T15:35:46Z</time>
      </trkpt>
      <trkpt lat="44.86922" lon="0.58957">
        <ele>161.22</ele>
        <time>2020-06-09T15:35:49Z</time>
      </trkpt>
      <trkpt lat="44.86922" lon="0.58953">
        <ele>161.182</ele>
        <time>2020-06-09T15:35:51Z</time>
      </trkpt>
      <trkpt lat="44.8692" lon="0.58946">
        <ele>161.106</ele>
        <time>2020-06-09T15:35:55Z</time>
      </trkpt>
      <trkpt lat="44.86919" lon="0.58942">
        <ele>161.069</ele>
        <time>2020-06-09T15:35:57Z</time>
      </trkpt>
      <trkpt lat="44.86917" lon="0.58935">
        <ele>160.997</ele>
        <time>2020-06-09T15:36:01Z</time>
      </trkpt>
      <trkpt lat="44.86914" lon="0.58928">
        <ele>160.915</ele>
        <time>2020-06-09T15:36:06Z</time>
      </trkpt>
      <trkpt lat="44.86914" lon="0.58921">
        <ele>160.867</ele>
        <time>2020-06-09T15:36:09Z</time>
      </trkpt>
      <trkpt lat="44.86913" lon="0.58917">
        <ele>160.837</ele>
        <time>2020-06-09T15:36:11Z</time>
      </trkpt>
      <trkpt lat="44.86912" lon="0.5891">
        <ele>160.78</ele>
        <time>2020-06-09T15:36:15Z</time>
      </trkpt>
      <trkpt lat="44.86912" lon="0.58906">
        <ele>160.754</ele>
        <time>2020-06-09T15:36:17Z</time>
      </trkpt>
      <trkpt lat="44.86911" lon="0.58903">
        <ele>160.729</ele>
        <time>2020-06-09T15:36:19Z</time>
      </trkpt>
      <trkpt lat="44.8691" lon="0.58898">
        <ele>160.692</ele>
        <time>2020-06-09T15:36:22Z</time>
      </trkpt>
      <trkpt lat="44.86909" lon="0.58895">
        <ele>160.668</ele>
        <time>2020-06-09T15:36:24Z</time>
      </trkpt>
      <trkpt lat="44.86905" lon="0.58886">
        <ele>160.611</ele>
        <time>2020-06-09T15:36:29Z</time>
      </trkpt>
      <trkpt lat="44.86904" lon="0.58883">
        <ele>160.59</ele>
        <time>2020-06-09T15:36:31Z</time>
      </trkpt>
      <trkpt lat="44.86902" lon="0.58877">
        <ele>160.569</ele>
        <time>2020-06-09T15:36:33Z</time>
      </trkpt>
      <trkpt lat="44.869" lon="0.58871">
        <ele>160.537</ele>
        <time>2020-06-09T15:36:36Z</time>
      </trkpt>
      <trkpt lat="44.86898" lon="0.58865">
        <ele>160.507</ele>
        <time>2020-06-09T15:36:39Z</time>
      </trkpt>
      <trkpt lat="44.86895" lon="0.58858">
        <ele>160.471</ele>
        <time>2020-06-09T15:36:43Z</time>
      </trkpt>
      <trkpt lat="44.86893" lon="0.58851">
        <ele>160.437</ele>
        <time>2020-06-09T15:36:47Z</time>
      </trkpt>
      <trkpt lat="44.86892" lon="0.58846">
        <ele>160.421</ele>
        <time>2020-06-09T15:36:49Z</time>
      </trkpt>
      <trkpt lat="44.86889" lon="0.58839">
        <ele>160.398</ele>
        <time>2020-06-09T15:36:52Z</time>
      </trkpt>
      <trkpt lat="44.86887" lon="0.58832">
        <ele>160.37</ele>
        <time>2020-06-09T15:36:56Z</time>
      </trkpt>
      <trkpt lat="44.86885" lon="0.58825">
        <ele>160.344</ele>
        <time>2020-06-09T15:37:00Z</time>
      </trkpt>
      <trkpt lat="44.86885" lon="0.58821">
        <ele>160.333</ele>
        <time>2020-06-09T15:37:02Z</time>
      </trkpt>
      <trkpt lat="44.86884" lon="0.58818">
        <ele>160.321</ele>
        <time>2020-06-09T15:37:04Z</time>
      </trkpt>
      <trkpt lat="44.86881" lon="0.58812">
        <ele>160.303</ele>
        <time>2020-06-09T15:37:07Z</time>
      </trkpt>
      <trkpt lat="44.86879" lon="0.58806">
        <ele>160.282</ele>
        <time>2020-06-09T15:37:10Z</time>
      </trkpt>
      <trkpt lat="44.86878" lon="0.58803">
        <ele>160.268</ele>
        <time>2020-06-09T15:37:12Z</time>
      </trkpt>
      <trkpt lat="44.86876" lon="0.58799">
        <ele>160.255</ele>
        <time>2020-06-09T15:37:14Z</time>
      </trkpt>
      <trkpt lat="44.86875" lon="0.58791">
        <ele>160.222</ele>
        <time>2020-06-09T15:37:19Z</time>
      </trkpt>
      <trkpt lat="44.86872" lon="0.58784">
        <ele>160.198</ele>
        <time>2020-06-09T15:37:23Z</time>
      </trkpt>
      <trkpt lat="44.8687" lon="0.58779">
        <ele>160.182</ele>
        <time>2020-06-09T15:37:26Z</time>
      </trkpt>
      <trkpt lat="44.86866" lon="0.58773">
        <ele>160.163</ele>
        <time>2020-06-09T15:37:30Z</time>
      </trkpt>
      <trkpt lat="44.86862" lon="0.58767">
        <ele>160.147</ele>
        <time>2020-06-09T15:37:34Z</time>
      </trkpt>
      <trkpt lat="44.86858" lon="0.58763">
        <ele>160.134</ele>
        <time>2020-06-09T15:37:37Z</time>
      </trkpt>
      <trkpt lat="44.86854" lon="0.58759">
        <ele>160.117</ele>
        <time>2020-06-09T15:37:41Z</time>
      </trkpt>
      <trkpt lat="44.86852" lon="0.58751">
        <ele>160.102</ele>
        <time>2020-06-09T15:37:45Z</time>
      </trkpt>
      <trkpt lat="44.86852" lon="0.58744">
        <ele>160.088</ele>
        <time>2020-06-09T15:37:50Z</time>
      </trkpt>
      <trkpt lat="44.86854" lon="0.58737">
        <ele>160.074</ele>
        <time>2020-06-09T15:37:55Z</time>
      </trkpt>
      <trkpt lat="44.86854" lon="0.5873">
        <ele>160.06</ele>
        <time>2020-06-09T15:37:59Z</time>
      </trkpt>
      <trkpt lat="44.86854" lon="0.5873">
        <ele>160.06</ele>
        <time>2020-06-09T15:38:06Z</time>
      </trkpt>
      <trkpt lat="44.86854" lon="0.5873">
        <ele>160.06</ele>
        <time>2020-06-09T15:38:07Z</time>
      </trkpt>
      <trkpt lat="44.86848" lon="0.58719">
        <ele>159.609</ele>
        <time>2020-06-09T15:39:45Z</time>
      </trkpt>
      <trkpt lat="44.86846" lon="0.58716">
        <ele>159.626</ele>
        <time>2020-06-09T15:39:51Z</time>
      </trkpt>
      <trkpt lat="44.86841" lon="0.58713">
        <ele>159.488</ele>
        <time>2020-06-09T15:39:56Z</time>
      </trkpt>
      <trkpt lat="44.86841" lon="0.58706">
        <ele>159.31</ele>
        <time>2020-06-09T15:40:00Z</time>
      </trkpt>
      <trkpt lat="44.86842" lon="0.58699">
        <ele>158.942</ele>
        <time>2020-06-09T15:40:07Z</time>
      </trkpt>
      <trkpt lat="44.86845" lon="0.58681">
        <ele>158.624</ele>
        <time>2020-06-09T15:40:11Z</time>
      </trkpt>
      <trkpt lat="44.86845" lon="0.58673">
        <ele>158.436</ele>
        <time>2020-06-09T15:40:13Z</time>
      </trkpt>
      <trkpt lat="44.86846" lon="0.58667">
        <ele>158.245</ele>
        <time>2020-06-09T15:40:15Z</time>
      </trkpt>
      <trkpt lat="44.86846" lon="0.58657">
        <ele>157.965</ele>
        <time>2020-06-09T15:40:18Z</time>
      </trkpt>
      <trkpt lat="44.86848" lon="0.58651">
        <ele>157.706</ele>
        <time>2020-06-09T15:40:21Z</time>
      </trkpt>
      <trkpt lat="44.8685" lon="0.58647">
        <ele>157.54</ele>
        <time>2020-06-09T15:40:23Z</time>
      </trkpt>
      <trkpt lat="44.86849" lon="0.5864">
        <ele>157.319</ele>
        <time>2020-06-09T15:40:26Z</time>
      </trkpt>
      <trkpt lat="44.8685" lon="0.58632">
        <ele>157.035</ele>
        <time>2020-06-09T15:40:30Z</time>
      </trkpt>
      <trkpt lat="44.86851" lon="0.58624">
        <ele>156.842</ele>
        <time>2020-06-09T15:40:33Z</time>
      </trkpt>
      <trkpt lat="44.86852" lon="0.5862">
        <ele>156.723</ele>
        <time>2020-06-09T15:40:35Z</time>
      </trkpt>
      <trkpt lat="44.86852" lon="0.58613">
        <ele>156.561</ele>
        <time>2020-06-09T15:40:38Z</time>
      </trkpt>
      <trkpt lat="44.86851" lon="0.58607">
        <ele>156.412</ele>
        <time>2020-06-09T15:40:41Z</time>
      </trkpt>
      <trkpt lat="44.8685" lon="0.58599">
        <ele>156.243</ele>
        <time>2020-06-09T15:40:45Z</time>
      </trkpt>
      <trkpt lat="44.86852" lon="0.58591">
        <ele>156.134</ele>
        <time>2020-06-09T15:40:48Z</time>
      </trkpt>
      <trkpt lat="44.8685" lon="0.58582">
        <ele>155.993</ele>
        <time>2020-06-09T15:40:52Z</time>
      </trkpt>
      <trkpt lat="44.8685" lon="0.58575">
        <ele>155.908</ele>
        <time>2020-06-09T15:40:55Z</time>
      </trkpt>
      <trkpt lat="44.8685" lon="0.58571">
        <ele>155.862</ele>
        <time>2020-06-09T15:40:57Z</time>
      </trkpt>
      <trkpt lat="44.86849" lon="0.58564">
        <ele>155.811</ele>
        <time>2020-06-09T15:41:00Z</time>
      </trkpt>
      <trkpt lat="44.86849" lon="0.58558">
        <ele>155.772</ele>
        <time>2020-06-09T15:41:03Z</time>
      </trkpt>
      <trkpt lat="44.86848" lon="0.58554">
        <ele>155.748</ele>
        <time>2020-06-09T15:41:05Z</time>
      </trkpt>
      <trkpt lat="44.86848" lon="0.5855">
        <ele>155.723</ele>
        <time>2020-06-09T15:41:07Z</time>
      </trkpt>
      <trkpt lat="44.86848" lon="0.58544">
        <ele>155.671</ele>
        <time>2020-06-09T15:41:11Z</time>
      </trkpt>
      <trkpt lat="44.86848" lon="0.58544">
        <ele>155.671</ele>
        <time>2020-06-09T15:41:19Z</time>
      </trkpt>
      <trkpt lat="44.86848" lon="0.58544">
        <ele>155.671</ele>
        <time>2020-06-09T15:41:20Z</time>
      </trkpt>
      <trkpt lat="44.8685" lon="0.5855">
        <ele>155.494</ele>
        <time>2020-06-09T15:41:46Z</time>
      </trkpt>
      <trkpt lat="44.86853" lon="0.58556">
        <ele>155.505</ele>
        <time>2020-06-09T15:41:48Z</time>
      </trkpt>
      <trkpt lat="44.86855" lon="0.58562">
        <ele>155.529</ele>
        <time>2020-06-09T15:41:51Z</time>
      </trkpt>
      <trkpt lat="44.86856" lon="0.58567">
        <ele>155.542</ele>
        <time>2020-06-09T15:41:53Z</time>
      </trkpt>
      <trkpt lat="44.86857" lon="0.58573">
        <ele>155.565</ele>
        <time>2020-06-09T15:41:56Z</time>
      </trkpt>
      <trkpt lat="44.86857" lon="0.58578">
        <ele>155.574</ele>
        <time>2020-06-09T15:41:58Z</time>
      </trkpt>
      <trkpt lat="44.86858" lon="0.58582">
        <ele>155.574</ele>
        <time>2020-06-09T15:42:01Z</time>
      </trkpt>
      <trkpt lat="44.86859" lon="0.5859">
        <ele>155.546</ele>
        <time>2020-06-09T15:42:05Z</time>
      </trkpt>
      <trkpt lat="44.8686" lon="0.58598">
        <ele>155.529</ele>
        <time>2020-06-09T15:42:08Z</time>
      </trkpt>
      <trkpt lat="44.86861" lon="0.58601">
        <ele>155.523</ele>
        <time>2020-06-09T15:42:09Z</time>
      </trkpt>
      <trkpt lat="44.86864" lon="0.58607">
        <ele>155.504</ele>
        <time>2020-06-09T15:42:11Z</time>
      </trkpt>
      <trkpt lat="44.86869" lon="0.58608">
        <ele>155.477</ele>
        <time>2020-06-09T15:42:14Z</time>
      </trkpt>
      <trkpt lat="44.86875" lon="0.58606">
        <ele>155.435</ele>
        <time>2020-06-09T15:42:19Z</time>
      </trkpt>
      <trkpt lat="44.86881" lon="0.58605">
        <ele>155.398</ele>
        <time>2020-06-09T15:42:23Z</time>
      </trkpt>
      <trkpt lat="44.86885" lon="0.58604">
        <ele>155.372</ele>
        <time>2020-06-09T15:42:26Z</time>
      </trkpt>
      <trkpt lat="44.86889" lon="0.58603">
        <ele>155.353</ele>
        <time>2020-06-09T15:42:29Z</time>
      </trkpt>
      <trkpt lat="44.86893" lon="0.586">
        <ele>155.345</ele>
        <time>2020-06-09T15:42:33Z</time>
      </trkpt>
      <trkpt lat="44.86898" lon="0.58596">
        <ele>155.354</ele>
        <time>2020-06-09T15:42:38Z</time>
      </trkpt>
      <trkpt lat="44.86902" lon="0.58594">
        <ele>155.367</ele>
        <time>2020-06-09T15:42:40Z</time>
      </trkpt>
      <trkpt lat="44.86906" lon="0.58591">
        <ele>155.385</ele>
        <time>2020-06-09T15:42:42Z</time>
      </trkpt>
      <trkpt lat="44.86914" lon="0.58588">
        <ele>155.422</ele>
        <time>2020-06-09T15:42:46Z</time>
      </trkpt>
      <trkpt lat="44.86918" lon="0.58584">
        <ele>155.455</ele>
        <time>2020-06-09T15:42:49Z</time>
      </trkpt>
      <trkpt lat="44.86921" lon="0.5858">
        <ele>155.479</ele>
        <time>2020-06-09T15:42:52Z</time>
      </trkpt>
      <trkpt lat="44.86926" lon="0.58578">
        <ele>155.507</ele>
        <time>2020-06-09T15:42:57Z</time>
      </trkpt>
      <trkpt lat="44.86929" lon="0.58577">
        <ele>155.516</ele>
        <time>2020-06-09T15:42:59Z</time>
      </trkpt>
      <trkpt lat="44.86933" lon="0.58578">
        <ele>155.526</ele>
        <time>2020-06-09T15:43:02Z</time>
      </trkpt>
      <trkpt lat="44.86938" lon="0.58579">
        <ele>155.538</ele>
        <time>2020-06-09T15:43:06Z</time>
      </trkpt>
      <trkpt lat="44.86942" lon="0.58577">
        <ele>155.554</ele>
        <time>2020-06-09T15:43:11Z</time>
      </trkpt>
      <trkpt lat="44.86949" lon="0.58576">
        <ele>155.58</ele>
        <time>2020-06-09T15:43:15Z</time>
      </trkpt>
      <trkpt lat="44.86953" lon="0.58575">
        <ele>155.612</ele>
        <time>2020-06-09T15:43:18Z</time>
      </trkpt>
      <trkpt lat="44.86958" lon="0.58573">
        <ele>155.642</ele>
        <time>2020-06-09T15:43:20Z</time>
      </trkpt>
      <trkpt lat="44.86961" lon="0.58572">
        <ele>155.68</ele>
        <time>2020-06-09T15:43:22Z</time>
      </trkpt>
      <trkpt lat="44.86965" lon="0.58571">
        <ele>155.718</ele>
        <time>2020-06-09T15:43:24Z</time>
      </trkpt>
      <trkpt lat="44.86968" lon="0.5857">
        <ele>155.755</ele>
        <time>2020-06-09T15:43:26Z</time>
      </trkpt>
      <trkpt lat="44.86972" lon="0.58569">
        <ele>155.815</ele>
        <time>2020-06-09T15:43:29Z</time>
      </trkpt>
      <trkpt lat="44.86976" lon="0.58568">
        <ele>155.856</ele>
        <time>2020-06-09T15:43:31Z</time>
      </trkpt>
      <trkpt lat="44.86978" lon="0.58567">
        <ele>155.899</ele>
        <time>2020-06-09T15:43:33Z</time>
      </trkpt>
      <trkpt lat="44.86981" lon="0.58566">
        <ele>155.959</ele>
        <time>2020-06-09T15:43:36Z</time>
      </trkpt>
      <trkpt lat="44.86985" lon="0.58562">
        <ele>156.014</ele>
        <time>2020-06-09T15:43:39Z</time>
      </trkpt>
      <trkpt lat="44.86987" lon="0.58559">
        <ele>156.062</ele>
        <time>2020-06-09T15:43:42Z</time>
      </trkpt>
      <trkpt lat="44.86992" lon="0.58556">
        <ele>156.108</ele>
        <time>2020-06-09T15:43:45Z</time>
      </trkpt>
      <trkpt lat="44.86997" lon="0.58552">
        <ele>156.158</ele>
        <time>2020-06-09T15:43:48Z</time>
      </trkpt>
      <trkpt lat="44.86999" lon="0.58545">
        <ele>156.234</ele>
        <time>2020-06-09T15:43:52Z</time>
      </trkpt>
      <trkpt lat="44.87002" lon="0.58539">
        <ele>156.302</ele>
        <time>2020-06-09T15:43:55Z</time>
      </trkpt>
      <trkpt lat="44.87004" lon="0.58532">
        <ele>156.391</ele>
        <time>2020-06-09T15:43:59Z</time>
      </trkpt>
      <trkpt lat="44.87007" lon="0.58527">
        <ele>156.452</ele>
        <time>2020-06-09T15:44:02Z</time>
      </trkpt>
      <trkpt lat="44.87011" lon="0.58523">
        <ele>156.528</ele>
        <time>2020-06-09T15:44:06Z</time>
      </trkpt>
      <trkpt lat="44.87015" lon="0.58518">
        <ele>156.623</ele>
        <time>2020-06-09T15:44:11Z</time>
      </trkpt>
      <trkpt lat="44.8702" lon="0.58514">
        <ele>156.703</ele>
        <time>2020-06-09T15:44:15Z</time>
      </trkpt>
      <trkpt lat="44.87022" lon="0.58512">
        <ele>156.74</ele>
        <time>2020-06-09T15:44:17Z</time>
      </trkpt>
      <trkpt lat="44.87028" lon="0.58511">
        <ele>156.829</ele>
        <time>2020-06-09T15:44:22Z</time>
      </trkpt>
      <trkpt lat="44.87032" lon="0.58506">
        <ele>156.931</ele>
        <time>2020-06-09T15:44:28Z</time>
      </trkpt>
      <trkpt lat="44.87038" lon="0.58504">
        <ele>157.008</ele>
        <time>2020-06-09T15:44:32Z</time>
      </trkpt>
      <trkpt lat="44.87044" lon="0.58501">
        <ele>157.093</ele>
        <time>2020-06-09T15:44:36Z</time>
      </trkpt>
      <trkpt lat="44.87047" lon="0.58496">
        <ele>157.159</ele>
        <time>2020-06-09T15:44:39Z</time>
      </trkpt>
      <trkpt lat="44.87049" lon="0.58494">
        <ele>157.208</ele>
        <time>2020-06-09T15:44:41Z</time>
      </trkpt>
      <trkpt lat="44.87055" lon="0.58491">
        <ele>157.349</ele>
        <time>2020-06-09T15:44:47Z</time>
      </trkpt>
      <trkpt lat="44.8706" lon="0.58489">
        <ele>157.449</ele>
        <time>2020-06-09T15:44:51Z</time>
      </trkpt>
      <trkpt lat="44.87066" lon="0.58487">
        <ele>157.561</ele>
        <time>2020-06-09T15:44:55Z</time>
      </trkpt>
      <trkpt lat="44.87071" lon="0.58485">
        <ele>157.647</ele>
        <time>2020-06-09T15:44:58Z</time>
      </trkpt>
      <trkpt lat="44.87074" lon="0.58479">
        <ele>157.791</ele>
        <time>2020-06-09T15:45:03Z</time>
      </trkpt>
      <trkpt lat="44.87079" lon="0.58475">
        <ele>157.908</ele>
        <time>2020-06-09T15:45:07Z</time>
      </trkpt>
      <trkpt lat="44.87081" lon="0.58473">
        <ele>157.999</ele>
        <time>2020-06-09T15:45:10Z</time>
      </trkpt>
      <trkpt lat="44.87085" lon="0.58468">
        <ele>158.131</ele>
        <time>2020-06-09T15:45:14Z</time>
      </trkpt>
      <trkpt lat="44.87089" lon="0.58464">
        <ele>158.292</ele>
        <time>2020-06-09T15:45:19Z</time>
      </trkpt>
      <trkpt lat="44.87092" lon="0.58461">
        <ele>158.386</ele>
        <time>2020-06-09T15:45:22Z</time>
      </trkpt>
      <trkpt lat="44.87096" lon="0.58457">
        <ele>158.543</ele>
        <time>2020-06-09T15:45:27Z</time>
      </trkpt>
      <trkpt lat="44.871" lon="0.58453">
        <ele>158.666</ele>
        <time>2020-06-09T15:45:31Z</time>
      </trkpt>
      <trkpt lat="44.87105" lon="0.58451">
        <ele>158.781</ele>
        <time>2020-06-09T15:45:35Z</time>
      </trkpt>
      <trkpt lat="44.87111" lon="0.5845">
        <ele>158.948</ele>
        <time>2020-06-09T15:45:41Z</time>
      </trkpt>
      <trkpt lat="44.87116" lon="0.58445">
        <ele>159.067</ele>
        <time>2020-06-09T15:45:45Z</time>
      </trkpt>
      <trkpt lat="44.87119" lon="0.58442">
        <ele>159.157</ele>
        <time>2020-06-09T15:45:48Z</time>
      </trkpt>
      <trkpt lat="44.87124" lon="0.58438">
        <ele>159.284</ele>
        <time>2020-06-09T15:45:52Z</time>
      </trkpt>
      <trkpt lat="44.87126" lon="0.58435">
        <ele>159.35</ele>
        <time>2020-06-09T15:45:54Z</time>
      </trkpt>
      <trkpt lat="44.8713" lon="0.58432">
        <ele>159.457</ele>
        <time>2020-06-09T15:45:57Z</time>
      </trkpt>
      <trkpt lat="44.87134" lon="0.58427">
        <ele>159.574</ele>
        <time>2020-06-09T15:46:00Z</time>
      </trkpt>
      <trkpt lat="44.87136" lon="0.58425">
        <ele>159.656</ele>
        <time>2020-06-09T15:46:02Z</time>
      </trkpt>
      <trkpt lat="44.87138" lon="0.58423">
        <ele>159.742</ele>
        <time>2020-06-09T15:46:04Z</time>
      </trkpt>
      <trkpt lat="44.8714" lon="0.5842">
        <ele>159.876</ele>
        <time>2020-06-09T15:46:07Z</time>
      </trkpt>
      <trkpt lat="44.87145" lon="0.58417">
        <ele>160.008</ele>
        <time>2020-06-09T15:46:10Z</time>
      </trkpt>
      <trkpt lat="44.87149" lon="0.58413">
        <ele>160.187</ele>
        <time>2020-06-09T15:46:14Z</time>
      </trkpt>
      <trkpt lat="44.87152" lon="0.58407">
        <ele>160.368</ele>
        <time>2020-06-09T15:46:18Z</time>
      </trkpt>
      <trkpt lat="44.87155" lon="0.58402">
        <ele>160.541</ele>
        <time>2020-06-09T15:46:22Z</time>
      </trkpt>
      <trkpt lat="44.87156" lon="0.58396">
        <ele>160.838</ele>
        <time>2020-06-09T15:46:29Z</time>
      </trkpt>
      <trkpt lat="44.87161" lon="0.58392">
        <ele>161.234</ele>
        <time>2020-06-09T15:46:37Z</time>
      </trkpt>
      <trkpt lat="44.87163" lon="0.58389">
        <ele>161.408</ele>
        <time>2020-06-09T15:46:40Z</time>
      </trkpt>
      <trkpt lat="44.87166" lon="0.58384">
        <ele>161.718</ele>
        <time>2020-06-09T15:46:45Z</time>
      </trkpt>
      <trkpt lat="44.87168" lon="0.58382">
        <ele>161.842</ele>
        <time>2020-06-09T15:46:47Z</time>
      </trkpt>
      <trkpt lat="44.87169" lon="0.58379">
        <ele>161.967</ele>
        <time>2020-06-09T15:46:49Z</time>
      </trkpt>
      <trkpt lat="44.87171" lon="0.58376">
        <ele>162.155</ele>
        <time>2020-06-09T15:46:52Z</time>
      </trkpt>
      <trkpt lat="44.87173" lon="0.58369">
        <ele>162.338</ele>
        <time>2020-06-09T15:46:55Z</time>
      </trkpt>
      <trkpt lat="44.87176" lon="0.58362">
        <ele>162.518</ele>
        <time>2020-06-09T15:46:58Z</time>
      </trkpt>
      <trkpt lat="44.87181" lon="0.58358">
        <ele>162.697</ele>
        <time>2020-06-09T15:47:01Z</time>
      </trkpt>
      <trkpt lat="44.87183" lon="0.58352">
        <ele>162.815</ele>
        <time>2020-06-09T15:47:03Z</time>
      </trkpt>
      <trkpt lat="44.87186" lon="0.58346">
        <ele>162.986</ele>
        <time>2020-06-09T15:47:06Z</time>
      </trkpt>
      <trkpt lat="44.87188" lon="0.58343">
        <ele>163.095</ele>
        <time>2020-06-09T15:47:08Z</time>
      </trkpt>
      <trkpt lat="44.8719" lon="0.58337">
        <ele>163.256</ele>
        <time>2020-06-09T15:47:11Z</time>
      </trkpt>
      <trkpt lat="44.87193" lon="0.58332">
        <ele>163.459</ele>
        <time>2020-06-09T15:47:15Z</time>
      </trkpt>
      <trkpt lat="44.87196" lon="0.58327">
        <ele>163.601</ele>
        <time>2020-06-09T15:47:18Z</time>
      </trkpt>
      <trkpt lat="44.87199" lon="0.58321">
        <ele>163.821</ele>
        <time>2020-06-09T15:47:23Z</time>
      </trkpt>
      <trkpt lat="44.87201" lon="0.58318">
        <ele>163.903</ele>
        <time>2020-06-09T15:47:25Z</time>
      </trkpt>
      <trkpt lat="44.87206" lon="0.58314">
        <ele>164.056</ele>
        <time>2020-06-09T15:47:29Z</time>
      </trkpt>
      <trkpt lat="44.87208" lon="0.58312">
        <ele>164.127</ele>
        <time>2020-06-09T15:47:31Z</time>
      </trkpt>
      <trkpt lat="44.8721" lon="0.58311">
        <ele>164.162</ele>
        <time>2020-06-09T15:47:32Z</time>
      </trkpt>
      <trkpt lat="44.87215" lon="0.58307">
        <ele>164.228</ele>
        <time>2020-06-09T15:47:34Z</time>
      </trkpt>
      <trkpt lat="44.87218" lon="0.58305">
        <ele>164.322</ele>
        <time>2020-06-09T15:47:37Z</time>
      </trkpt>
      <trkpt lat="44.87223" lon="0.58303">
        <ele>164.438</ele>
        <time>2020-06-09T15:47:41Z</time>
      </trkpt>
      <trkpt lat="44.87226" lon="0.58298">
        <ele>164.52</ele>
        <time>2020-06-09T15:47:44Z</time>
      </trkpt>
      <trkpt lat="44.8723" lon="0.58295">
        <ele>164.596</ele>
        <time>2020-06-09T15:47:47Z</time>
      </trkpt>
      <trkpt lat="44.87232" lon="0.58293">
        <ele>164.621</ele>
        <time>2020-06-09T15:47:48Z</time>
      </trkpt>
      <trkpt lat="44.87236" lon="0.5829">
        <ele>164.668</ele>
        <time>2020-06-09T15:47:50Z</time>
      </trkpt>
      <trkpt lat="44.87239" lon="0.58285">
        <ele>164.801</ele>
        <time>2020-06-09T15:47:56Z</time>
      </trkpt>
      <trkpt lat="44.87243" lon="0.58282">
        <ele>164.882</ele>
        <time>2020-06-09T15:48:00Z</time>
      </trkpt>
      <trkpt lat="44.87247" lon="0.58278">
        <ele>164.955</ele>
        <time>2020-06-09T15:48:04Z</time>
      </trkpt>
      <trkpt lat="44.87253" lon="0.58276">
        <ele>165.004</ele>
        <time>2020-06-09T15:48:07Z</time>
      </trkpt>
      <trkpt lat="44.87257" lon="0.58275">
        <ele>165.059</ele>
        <time>2020-06-09T15:48:11Z</time>
      </trkpt>
      <trkpt lat="44.87262" lon="0.58272">
        <ele>165.109</ele>
        <time>2020-06-09T15:48:15Z</time>
      </trkpt>
      <trkpt lat="44.87265" lon="0.58271">
        <ele>165.144</ele>
        <time>2020-06-09T15:48:18Z</time>
      </trkpt>
      <trkpt lat="44.87269" lon="0.58267">
        <ele>165.177</ele>
        <time>2020-06-09T15:48:21Z</time>
      </trkpt>
      <trkpt lat="44.87271" lon="0.58265">
        <ele>165.21</ele>
        <time>2020-06-09T15:48:24Z</time>
      </trkpt>
      <trkpt lat="44.87273" lon="0.58263">
        <ele>165.234</ele>
        <time>2020-06-09T15:48:26Z</time>
      </trkpt>
      <trkpt lat="44.87278" lon="0.58261">
        <ele>165.299</ele>
        <time>2020-06-09T15:48:31Z</time>
      </trkpt>
      <trkpt lat="44.87278" lon="0.58255">
        <ele>165.377</ele>
        <time>2020-06-09T15:48:39Z</time>
      </trkpt>
      <trkpt lat="44.87283" lon="0.5825">
        <ele>165.427</ele>
        <time>2020-06-09T15:48:46Z</time>
      </trkpt>
      <trkpt lat="44.87294" lon="0.58247">
        <ele>165.438</ele>
        <time>2020-06-09T15:48:53Z</time>
      </trkpt>
      <trkpt lat="44.87297" lon="0.58246">
        <ele>165.436</ele>
        <time>2020-06-09T15:48:54Z</time>
      </trkpt>
      <trkpt lat="44.873" lon="0.58246">
        <ele>165.434</ele>
        <time>2020-06-09T15:48:55Z</time>
      </trkpt>
      <trkpt lat="44.87307" lon="0.58243">
        <ele>165.429</ele>
        <time>2020-06-09T15:48:58Z</time>
      </trkpt>
      <trkpt lat="44.87312" lon="0.5824">
        <ele>165.426</ele>
        <time>2020-06-09T15:49:00Z</time>
      </trkpt>
      <trkpt lat="44.87318" lon="0.5824">
        <ele>165.419</ele>
        <time>2020-06-09T15:49:02Z</time>
      </trkpt>
      <trkpt lat="44.87323" lon="0.5824">
        <ele>165.411</ele>
        <time>2020-06-09T15:49:04Z</time>
      </trkpt>
      <trkpt lat="44.87326" lon="0.5824">
        <ele>165.407</ele>
        <time>2020-06-09T15:49:05Z</time>
      </trkpt>
      <trkpt lat="44.87332" lon="0.58237">
        <ele>165.398</ele>
        <time>2020-06-09T15:49:08Z</time>
      </trkpt>
      <trkpt lat="44.87337" lon="0.58235">
        <ele>165.393</ele>
        <time>2020-06-09T15:49:10Z</time>
      </trkpt>
      <trkpt lat="44.8734" lon="0.58232">
        <ele>165.387</ele>
        <time>2020-06-09T15:49:12Z</time>
      </trkpt>
      <trkpt lat="44.87345" lon="0.5823">
        <ele>165.373</ele>
        <time>2020-06-09T15:49:16Z</time>
      </trkpt>
      <trkpt lat="44.87351" lon="0.58228">
        <ele>165.357</ele>
        <time>2020-06-09T15:49:19Z</time>
      </trkpt>
      <trkpt lat="44.87355" lon="0.58227">
        <ele>165.346</ele>
        <time>2020-06-09T15:49:21Z</time>
      </trkpt>
      <trkpt lat="44.87361" lon="0.58228">
        <ele>165.329</ele>
        <time>2020-06-09T15:49:24Z</time>
      </trkpt>
      <trkpt lat="44.87365" lon="0.58226">
        <ele>165.314</ele>
        <time>2020-06-09T15:49:27Z</time>
      </trkpt>
      <trkpt lat="44.87365" lon="0.58226">
        <ele>165.314</ele>
        <time>2020-06-09T15:49:32Z</time>
      </trkpt>
      <trkpt lat="44.87365" lon="0.58226">
        <ele>165.314</ele>
        <time>2020-06-09T15:49:33Z</time>
      </trkpt>
      <trkpt lat="44.87372" lon="0.58223">
        <ele>165.29</ele>
        <time>2020-06-09T15:49:37Z</time>
      </trkpt>
      <trkpt lat="44.87375" lon="0.58222">
        <ele>165.289</ele>
        <time>2020-06-09T15:49:39Z</time>
      </trkpt>
      <trkpt lat="44.87381" lon="0.58217">
        <ele>165.287</ele>
        <time>2020-06-09T15:49:43Z</time>
      </trkpt>
      <trkpt lat="44.87387" lon="0.58212">
        <ele>165.288</ele>
        <time>2020-06-09T15:49:46Z</time>
      </trkpt>
      <trkpt lat="44.87391" lon="0.58208">
        <ele>165.291</ele>
        <time>2020-06-09T15:49:48Z</time>
      </trkpt>
      <trkpt lat="44.87393" lon="0.58205">
        <ele>165.292</ele>
        <time>2020-06-09T15:49:49Z</time>
      </trkpt>
      <trkpt lat="44.87397" lon="0.58203">
        <ele>165.291</ele>
        <time>2020-06-09T15:49:52Z</time>
      </trkpt>
      <trkpt lat="44.874" lon="0.58201">
        <ele>165.291</ele>
        <time>2020-06-09T15:50:00Z</time>
      </trkpt>
      <trkpt lat="44.87406" lon="0.58202">
        <ele>165.291</ele>
        <time>2020-06-09T15:50:03Z</time>
      </trkpt>
      <trkpt lat="44.8741" lon="0.58198">
        <ele>165.294</ele>
        <time>2020-06-09T15:50:06Z</time>
      </trkpt>
      <trkpt lat="44.87414" lon="0.58195">
        <ele>165.3</ele>
        <time>2020-06-09T15:50:09Z</time>
      </trkpt>
      <trkpt lat="44.87418" lon="0.58191">
        <ele>165.303</ele>
        <time>2020-06-09T15:50:11Z</time>
      </trkpt>
      <trkpt lat="44.87421" lon="0.58186">
        <ele>165.304</ele>
        <time>2020-06-09T15:50:14Z</time>
      </trkpt>
      <trkpt lat="44.87427" lon="0.58183">
        <ele>165.306</ele>
        <time>2020-06-09T15:50:17Z</time>
      </trkpt>
      <trkpt lat="44.87432" lon="0.58181">
        <ele>165.309</ele>
        <time>2020-06-09T15:50:23Z</time>
      </trkpt>
      <trkpt lat="44.87437" lon="0.58181">
        <ele>165.328</ele>
        <time>2020-06-09T15:50:29Z</time>
      </trkpt>
      <trkpt lat="44.87441" lon="0.58177">
        <ele>165.341</ele>
        <time>2020-06-09T15:50:31Z</time>
      </trkpt>
      <trkpt lat="44.87446" lon="0.58173">
        <ele>165.365</ele>
        <time>2020-06-09T15:50:34Z</time>
      </trkpt>
      <trkpt lat="44.8745" lon="0.5817">
        <ele>165.446</ele>
        <time>2020-06-09T15:50:41Z</time>
      </trkpt>
      <trkpt lat="44.87457" lon="0.58167">
        <ele>165.479</ele>
        <time>2020-06-09T15:50:43Z</time>
      </trkpt>
      <trkpt lat="44.87467" lon="0.58163">
        <ele>165.536</ele>
        <time>2020-06-09T15:50:46Z</time>
      </trkpt>
      <trkpt lat="44.87476" lon="0.58163">
        <ele>165.605</ele>
        <time>2020-06-09T15:50:49Z</time>
      </trkpt>
      <trkpt lat="44.87479" lon="0.58163">
        <ele>165.629</ele>
        <time>2020-06-09T15:50:50Z</time>
      </trkpt>
      <trkpt lat="44.87484" lon="0.58161">
        <ele>165.704</ele>
        <time>2020-06-09T15:50:53Z</time>
      </trkpt>
      <trkpt lat="44.87487" lon="0.5816">
        <ele>165.756</ele>
        <time>2020-06-09T15:50:55Z</time>
      </trkpt>
      <trkpt lat="44.87493" lon="0.58157">
        <ele>165.835</ele>
        <time>2020-06-09T15:50:58Z</time>
      </trkpt>
      <trkpt lat="44.87498" lon="0.58154">
        <ele>165.914</ele>
        <time>2020-06-09T15:51:01Z</time>
      </trkpt>
      <trkpt lat="44.87503" lon="0.58148">
        <ele>166.016</ele>
        <time>2020-06-09T15:51:05Z</time>
      </trkpt>
      <trkpt lat="44.87507" lon="0.58143">
        <ele>166.086</ele>
        <time>2020-06-09T15:51:08Z</time>
      </trkpt>
      <trkpt lat="44.87513" lon="0.5814">
        <ele>166.175</ele>
        <time>2020-06-09T15:51:12Z</time>
      </trkpt>
      <trkpt lat="44.87518" lon="0.58136">
        <ele>166.258</ele>
        <time>2020-06-09T15:51:16Z</time>
      </trkpt>
      <trkpt lat="44.87522" lon="0.58132">
        <ele>166.346</ele>
        <time>2020-06-09T15:51:20Z</time>
      </trkpt>
      <trkpt lat="44.87527" lon="0.5813">
        <ele>166.441</ele>
        <time>2020-06-09T15:51:24Z</time>
      </trkpt>
      <trkpt lat="44.8753" lon="0.58129">
        <ele>166.491</ele>
        <time>2020-06-09T15:51:26Z</time>
      </trkpt>
      <trkpt lat="44.87535" lon="0.58125">
        <ele>166.623</ele>
        <time>2020-06-09T15:51:31Z</time>
      </trkpt>
      <trkpt lat="44.8754" lon="0.5812">
        <ele>166.675</ele>
        <time>2020-06-09T15:51:33Z</time>
      </trkpt>
      <trkpt lat="44.87543" lon="0.58119">
        <ele>166.701</ele>
        <time>2020-06-09T15:51:34Z</time>
      </trkpt>
      <trkpt lat="44.87547" lon="0.58115">
        <ele>166.78</ele>
        <time>2020-06-09T15:51:37Z</time>
      </trkpt>
      <trkpt lat="44.87551" lon="0.58114">
        <ele>166.907</ele>
        <time>2020-06-09T15:51:42Z</time>
      </trkpt>
      <trkpt lat="44.87554" lon="0.58113">
        <ele>166.957</ele>
        <time>2020-06-09T15:51:44Z</time>
      </trkpt>
      <trkpt lat="44.87559" lon="0.5811">
        <ele>167.114</ele>
        <time>2020-06-09T15:51:51Z</time>
      </trkpt>
      <trkpt lat="44.87563" lon="0.58111">
        <ele>167.208</ele>
        <time>2020-06-09T15:51:57Z</time>
      </trkpt>
      <trkpt lat="44.87568" lon="0.58111">
        <ele>167.275</ele>
        <time>2020-06-09T15:52:02Z</time>
      </trkpt>
      <trkpt lat="44.87572" lon="0.5811">
        <ele>167.323</ele>
        <time>2020-06-09T15:52:06Z</time>
      </trkpt>
      <trkpt lat="44.87577" lon="0.58112">
        <ele>167.363</ele>
        <time>2020-06-09T15:52:10Z</time>
      </trkpt>
      <trkpt lat="44.87582" lon="0.58111">
        <ele>167.398</ele>
        <time>2020-06-09T15:52:15Z</time>
      </trkpt>
      <trkpt lat="44.8759" lon="0.58111">
        <ele>167.415</ele>
        <time>2020-06-09T15:52:19Z</time>
      </trkpt>
      <trkpt lat="44.87594" lon="0.5811">
        <ele>167.424</ele>
        <time>2020-06-09T15:52:23Z</time>
      </trkpt>
      <trkpt lat="44.87598" lon="0.58108">
        <ele>167.427</ele>
        <time>2020-06-09T15:52:28Z</time>
      </trkpt>
      <trkpt lat="44.87602" lon="0.58107">
        <ele>167.428</ele>
        <time>2020-06-09T15:52:30Z</time>
      </trkpt>
      <trkpt lat="44.87608" lon="0.58106">
        <ele>167.427</ele>
        <time>2020-06-09T15:52:32Z</time>
      </trkpt>
      <trkpt lat="44.87613" lon="0.58107">
        <ele>167.423</ele>
        <time>2020-06-09T15:52:36Z</time>
      </trkpt>
      <trkpt lat="44.87619" lon="0.58103">
        <ele>167.415</ele>
        <time>2020-06-09T15:52:40Z</time>
      </trkpt>
      <trkpt lat="44.87624" lon="0.58099">
        <ele>167.409</ele>
        <time>2020-06-09T15:52:43Z</time>
      </trkpt>
      <trkpt lat="44.8763" lon="0.58098">
        <ele>167.402</ele>
        <time>2020-06-09T15:52:46Z</time>
      </trkpt>
      <trkpt lat="44.87634" lon="0.58098">
        <ele>167.395</ele>
        <time>2020-06-09T15:52:49Z</time>
      </trkpt>
      <trkpt lat="44.8764" lon="0.58093">
        <ele>167.391</ele>
        <time>2020-06-09T15:52:52Z</time>
      </trkpt>
      <trkpt lat="44.87646" lon="0.58091">
        <ele>167.384</ele>
        <time>2020-06-09T15:52:58Z</time>
      </trkpt>
      <trkpt lat="44.8765" lon="0.58087">
        <ele>167.378</ele>
        <time>2020-06-09T15:53:02Z</time>
      </trkpt>
      <trkpt lat="44.87655" lon="0.58085">
        <ele>167.371</ele>
        <time>2020-06-09T15:53:07Z</time>
      </trkpt>
      <trkpt lat="44.8766" lon="0.58081">
        <ele>167.363</ele>
        <time>2020-06-09T15:53:10Z</time>
      </trkpt>
      <trkpt lat="44.87666" lon="0.58078">
        <ele>167.35</ele>
        <time>2020-06-09T15:53:14Z</time>
      </trkpt>
      <trkpt lat="44.87671" lon="0.58075">
        <ele>167.334</ele>
        <time>2020-06-09T15:53:17Z</time>
      </trkpt>
      <trkpt lat="44.87675" lon="0.58071">
        <ele>167.318</ele>
        <time>2020-06-09T15:53:20Z</time>
      </trkpt>
      <trkpt lat="44.8768" lon="0.58074">
        <ele>167.299</ele>
        <time>2020-06-09T15:53:23Z</time>
      </trkpt>
      <trkpt lat="44.87685" lon="0.58077">
        <ele>167.278</ele>
        <time>2020-06-09T15:53:26Z</time>
      </trkpt>
      <trkpt lat="44.87689" lon="0.58075">
        <ele>167.25</ele>
        <time>2020-06-09T15:53:30Z</time>
      </trkpt>
      <trkpt lat="44.87692" lon="0.58068">
        <ele>167.219</ele>
        <time>2020-06-09T15:53:35Z</time>
      </trkpt>
      <trkpt lat="44.87694" lon="0.58064">
        <ele>167.187</ele>
        <time>2020-06-09T15:53:42Z</time>
      </trkpt>
      <trkpt lat="44.87699" lon="0.58064">
        <ele>167.172</ele>
        <time>2020-06-09T15:53:44Z</time>
      </trkpt>
      <trkpt lat="44.87703" lon="0.58059">
        <ele>167.154</ele>
        <time>2020-06-09T15:53:46Z</time>
      </trkpt>
      <trkpt lat="44.87706" lon="0.58057">
        <ele>167.134</ele>
        <time>2020-06-09T15:53:48Z</time>
      </trkpt>
      <trkpt lat="44.87711" lon="0.58053">
        <ele>167.111</ele>
        <time>2020-06-09T15:53:50Z</time>
      </trkpt>
      <trkpt lat="44.87713" lon="0.58052">
        <ele>167.099</ele>
        <time>2020-06-09T15:53:52Z</time>
      </trkpt>
      <trkpt lat="44.87718" lon="0.58047">
        <ele>167.057</ele>
        <time>2020-06-09T15:53:57Z</time>
      </trkpt>
      <trkpt lat="44.87724" lon="0.58044">
        <ele>167.029</ele>
        <time>2020-06-09T15:54:00Z</time>
      </trkpt>
      <trkpt lat="44.87729" lon="0.58044">
        <ele>166.993</ele>
        <time>2020-06-09T15:54:03Z</time>
      </trkpt>
      <trkpt lat="44.87738" lon="0.58038">
        <ele>166.919</ele>
        <time>2020-06-09T15:54:09Z</time>
      </trkpt>
      <trkpt lat="44.87743" lon="0.58034">
        <ele>166.881</ele>
        <time>2020-06-09T15:54:12Z</time>
      </trkpt>
      <trkpt lat="44.87748" lon="0.58033">
        <ele>166.836</ele>
        <time>2020-06-09T15:54:16Z</time>
      </trkpt>
      <trkpt lat="44.87752" lon="0.5803">
        <ele>166.816</ele>
        <time>2020-06-09T15:54:18Z</time>
      </trkpt>
      <trkpt lat="44.87758" lon="0.5803">
        <ele>166.782</ele>
        <time>2020-06-09T15:54:21Z</time>
      </trkpt>
      <trkpt lat="44.87763" lon="0.58025">
        <ele>166.744</ele>
        <time>2020-06-09T15:54:24Z</time>
      </trkpt>
      <trkpt lat="44.87769" lon="0.58023">
        <ele>166.695</ele>
        <time>2020-06-09T15:54:28Z</time>
      </trkpt>
      <trkpt lat="44.87772" lon="0.58022">
        <ele>166.671</ele>
        <time>2020-06-09T15:54:30Z</time>
      </trkpt>
      <trkpt lat="44.87777" lon="0.58021">
        <ele>166.624</ele>
        <time>2020-06-09T15:54:34Z</time>
      </trkpt>
      <trkpt lat="44.87783" lon="0.58018">
        <ele>166.597</ele>
        <time>2020-06-09T15:54:37Z</time>
      </trkpt>
      <trkpt lat="44.87786" lon="0.58016">
        <ele>166.57</ele>
        <time>2020-06-09T15:54:39Z</time>
      </trkpt>
      <trkpt lat="44.8779" lon="0.58013">
        <ele>166.529</ele>
        <time>2020-06-09T15:54:43Z</time>
      </trkpt>
      <trkpt lat="44.87796" lon="0.58017">
        <ele>166.477</ele>
        <time>2020-06-09T15:54:47Z</time>
      </trkpt>
      <trkpt lat="44.87801" lon="0.58021">
        <ele>166.434</ele>
        <time>2020-06-09T15:54:50Z</time>
      </trkpt>
      <trkpt lat="44.87806" lon="0.5802">
        <ele>166.388</ele>
        <time>2020-06-09T15:54:53Z</time>
      </trkpt>
      <trkpt lat="44.87812" lon="0.58017">
        <ele>166.328</ele>
        <time>2020-06-09T15:54:57Z</time>
      </trkpt>
      <trkpt lat="44.87819" lon="0.58014">
        <ele>166.282</ele>
        <time>2020-06-09T15:55:00Z</time>
      </trkpt>
      <trkpt lat="44.87824" lon="0.58014">
        <ele>166.25</ele>
        <time>2020-06-09T15:55:02Z</time>
      </trkpt>
      <trkpt lat="44.87829" lon="0.58012">
        <ele>166.202</ele>
        <time>2020-06-09T15:55:05Z</time>
      </trkpt>
      <trkpt lat="44.87837" lon="0.5801">
        <ele>166.157</ele>
        <time>2020-06-09T15:55:08Z</time>
      </trkpt>
      <trkpt lat="44.87841" lon="0.58007">
        <ele>166.14</ele>
        <time>2020-06-09T15:55:10Z</time>
      </trkpt>
      <trkpt lat="44.87847" lon="0.58006">
        <ele>166.096</ele>
        <time>2020-06-09T15:55:13Z</time>
      </trkpt>
      <trkpt lat="44.87851" lon="0.58002">
        <ele>166.058</ele>
        <time>2020-06-09T15:55:16Z</time>
      </trkpt>
      <trkpt lat="44.87855" lon="0.58">
        <ele>166.007</ele>
        <time>2020-06-09T15:55:20Z</time>
      </trkpt>
      <trkpt lat="44.87857" lon="0.57998">
        <ele>165.982</ele>
        <time>2020-06-09T15:55:22Z</time>
      </trkpt>
      <trkpt lat="44.87859" lon="0.57996">
        <ele>165.934</ele>
        <time>2020-06-09T15:55:26Z</time>
      </trkpt>
      <trkpt lat="44.87861" lon="0.57995">
        <ele>165.899</ele>
        <time>2020-06-09T15:55:29Z</time>
      </trkpt>
      <trkpt lat="44.87863" lon="0.57993">
        <ele>165.85</ele>
        <time>2020-06-09T15:55:33Z</time>
      </trkpt>
      <trkpt lat="44.87865" lon="0.57987">
        <ele>165.637</ele>
        <time>2020-06-09T15:55:47Z</time>
      </trkpt>
      <trkpt lat="44.8787" lon="0.57983">
        <ele>165.513</ele>
        <time>2020-06-09T15:55:54Z</time>
      </trkpt>
      <trkpt lat="44.87872" lon="0.57981">
        <ele>165.468</ele>
        <time>2020-06-09T15:55:56Z</time>
      </trkpt>
      <trkpt lat="44.8788" lon="0.57977">
        <ele>165.352</ele>
        <time>2020-06-09T15:56:01Z</time>
      </trkpt>
      <trkpt lat="44.87884" lon="0.57975">
        <ele>165.326</ele>
        <time>2020-06-09T15:56:02Z</time>
      </trkpt>
      <trkpt lat="44.87889" lon="0.5797">
        <ele>165.274</ele>
        <time>2020-06-09T15:56:04Z</time>
      </trkpt>
      <trkpt lat="44.87893" lon="0.57962">
        <ele>165.141</ele>
        <time>2020-06-09T15:56:09Z</time>
      </trkpt>
      <trkpt lat="44.87897" lon="0.57957">
        <ele>164.995</ele>
        <time>2020-06-09T15:56:14Z</time>
      </trkpt>
      <trkpt lat="44.87902" lon="0.57951">
        <ele>164.783</ele>
        <time>2020-06-09T15:56:21Z</time>
      </trkpt>
      <trkpt lat="44.87907" lon="0.57948">
        <ele>164.659</ele>
        <time>2020-06-09T15:56:25Z</time>
      </trkpt>
      <trkpt lat="44.87913" lon="0.57941">
        <ele>164.589</ele>
        <time>2020-06-09T15:56:27Z</time>
      </trkpt>
      <trkpt lat="44.8792" lon="0.57941">
        <ele>164.441</ele>
        <time>2020-06-09T15:56:33Z</time>
      </trkpt>
      <trkpt lat="44.87922" lon="0.57942">
        <ele>164.403</ele>
        <time>2020-06-09T15:56:35Z</time>
      </trkpt>
      <trkpt lat="44.87929" lon="0.5794">
        <ele>164.392</ele>
        <time>2020-06-09T15:56:38Z</time>
      </trkpt>
      <trkpt lat="44.87934" lon="0.57942">
        <ele>164.281</ele>
        <time>2020-06-09T15:56:42Z</time>
      </trkpt>
      <trkpt lat="44.87938" lon="0.57947">
        <ele>164.142</ele>
        <time>2020-06-09T15:56:47Z</time>
      </trkpt>
      <trkpt lat="44.87941" lon="0.57952">
        <ele>164.027</ele>
        <time>2020-06-09T15:56:50Z</time>
      </trkpt>
      <trkpt lat="44.87941" lon="0.57959">
        <ele>163.863</ele>
        <time>2020-06-09T15:56:54Z</time>
      </trkpt>
      <trkpt lat="44.87941" lon="0.57966">
        <ele>163.611</ele>
        <time>2020-06-09T15:57:00Z</time>
      </trkpt>
      <trkpt lat="44.87941" lon="0.57972">
        <ele>163.434</ele>
        <time>2020-06-09T15:57:04Z</time>
      </trkpt>
      <trkpt lat="44.87941" lon="0.57979">
        <ele>163.252</ele>
        <time>2020-06-09T15:57:08Z</time>
      </trkpt>
      <trkpt lat="44.87941" lon="0.57984">
        <ele>163.161</ele>
        <time>2020-06-09T15:57:10Z</time>
      </trkpt>
      <trkpt lat="44.8794" lon="0.57992">
        <ele>163.026</ele>
        <time>2020-06-09T15:57:13Z</time>
      </trkpt>
      <trkpt lat="44.87938" lon="0.58002">
        <ele>162.847</ele>
        <time>2020-06-09T15:57:17Z</time>
      </trkpt>
      <trkpt lat="44.87935" lon="0.58008">
        <ele>162.759</ele>
        <time>2020-06-09T15:57:19Z</time>
      </trkpt>
      <trkpt lat="44.87934" lon="0.58016">
        <ele>162.631</ele>
        <time>2020-06-09T15:57:22Z</time>
      </trkpt>
      <trkpt lat="44.87933" lon="0.5802">
        <ele>162.591</ele>
        <time>2020-06-09T15:57:23Z</time>
      </trkpt>
      <trkpt lat="44.87932" lon="0.58023">
        <ele>162.511</ele>
        <time>2020-06-09T15:57:25Z</time>
      </trkpt>
      <trkpt lat="44.87931" lon="0.58031">
        <ele>162.392</ele>
        <time>2020-06-09T15:57:28Z</time>
      </trkpt>
      <trkpt lat="44.87931" lon="0.58039">
        <ele>162.233</ele>
        <time>2020-06-09T15:57:32Z</time>
      </trkpt>
      <trkpt lat="44.87929" lon="0.58046">
        <ele>162.156</ele>
        <time>2020-06-09T15:57:34Z</time>
      </trkpt>
      <trkpt lat="44.87927" lon="0.58053">
        <ele>162.043</ele>
        <time>2020-06-09T15:57:37Z</time>
      </trkpt>
      <trkpt lat="44.87927" lon="0.58058">
        <ele>161.969</ele>
        <time>2020-06-09T15:57:39Z</time>
      </trkpt>
      <trkpt lat="44.87924" lon="0.58064">
        <ele>161.824</ele>
        <time>2020-06-09T15:57:43Z</time>
      </trkpt>
      <trkpt lat="44.87922" lon="0.58068">
        <ele>161.755</ele>
        <time>2020-06-09T15:57:45Z</time>
      </trkpt>
      <trkpt lat="44.8792" lon="0.58075">
        <ele>161.582</ele>
        <time>2020-06-09T15:57:50Z</time>
      </trkpt>
      <trkpt lat="44.87918" lon="0.58084">
        <ele>161.481</ele>
        <time>2020-06-09T15:57:53Z</time>
      </trkpt>
      <trkpt lat="44.87917" lon="0.58088">
        <ele>161.449</ele>
        <time>2020-06-09T15:57:54Z</time>
      </trkpt>
      <trkpt lat="44.87916" lon="0.58093">
        <ele>161.388</ele>
        <time>2020-06-09T15:57:56Z</time>
      </trkpt>
      <trkpt lat="44.87915" lon="0.58098">
        <ele>161.328</ele>
        <time>2020-06-09T15:57:58Z</time>
      </trkpt>
      <trkpt lat="44.87914" lon="0.58105">
        <ele>161.241</ele>
        <time>2020-06-09T15:58:01Z</time>
      </trkpt>
      <trkpt lat="44.87915" lon="0.58112">
        <ele>161.157</ele>
        <time>2020-06-09T15:58:04Z</time>
      </trkpt>
      <trkpt lat="44.87913" lon="0.58119">
        <ele>161.045</ele>
        <time>2020-06-09T15:58:08Z</time>
      </trkpt>
      <trkpt lat="44.87911" lon="0.58126">
        <ele>160.963</ele>
        <time>2020-06-09T15:58:11Z</time>
      </trkpt>
      <trkpt lat="44.87909" lon="0.58133">
        <ele>160.858</ele>
        <time>2020-06-09T15:58:15Z</time>
      </trkpt>
      <trkpt lat="44.87909" lon="0.5814">
        <ele>160.781</ele>
        <time>2020-06-09T15:58:18Z</time>
      </trkpt>
      <trkpt lat="44.87908" lon="0.58148">
        <ele>160.708</ele>
        <time>2020-06-09T15:58:21Z</time>
      </trkpt>
      <trkpt lat="44.87907" lon="0.58151">
        <ele>160.684</ele>
        <time>2020-06-09T15:58:22Z</time>
      </trkpt>
      <trkpt lat="44.87907" lon="0.58158">
        <ele>160.613</ele>
        <time>2020-06-09T15:58:25Z</time>
      </trkpt>
      <trkpt lat="44.87907" lon="0.58164">
        <ele>160.543</ele>
        <time>2020-06-09T15:58:28Z</time>
      </trkpt>
      <trkpt lat="44.87905" lon="0.58171">
        <ele>160.432</ele>
        <time>2020-06-09T15:58:33Z</time>
      </trkpt>
      <trkpt lat="44.87905" lon="0.58178">
        <ele>160.369</ele>
        <time>2020-06-09T15:58:36Z</time>
      </trkpt>
      <trkpt lat="44.87905" lon="0.58182">
        <ele>160.327</ele>
        <time>2020-06-09T15:58:38Z</time>
      </trkpt>
      <trkpt lat="44.87905" lon="0.58187">
        <ele>160.263</ele>
        <time>2020-06-09T15:58:41Z</time>
      </trkpt>
      <trkpt lat="44.87906" lon="0.58196">
        <ele>160.199</ele>
        <time>2020-06-09T15:58:44Z</time>
      </trkpt>
      <trkpt lat="44.87907" lon="0.582">
        <ele>160.138</ele>
        <time>2020-06-09T15:58:47Z</time>
      </trkpt>
      <trkpt lat="44.87907" lon="0.58208">
        <ele>160.078</ele>
        <time>2020-06-09T15:58:50Z</time>
      </trkpt>
      <trkpt lat="44.87908" lon="0.58217">
        <ele>160.002</ele>
        <time>2020-06-09T15:58:54Z</time>
      </trkpt>
      <trkpt lat="44.8791" lon="0.58224">
        <ele>159.95</ele>
        <time>2020-06-09T15:58:57Z</time>
      </trkpt>
      <trkpt lat="44.8791" lon="0.58227">
        <ele>159.917</ele>
        <time>2020-06-09T15:58:59Z</time>
      </trkpt>
      <trkpt lat="44.87911" lon="0.58231">
        <ele>159.866</ele>
        <time>2020-06-09T15:59:02Z</time>
      </trkpt>
      <trkpt lat="44.87914" lon="0.58238">
        <ele>159.817</ele>
        <time>2020-06-09T15:59:05Z</time>
      </trkpt>
      <trkpt lat="44.87916" lon="0.58245">
        <ele>159.763</ele>
        <time>2020-06-09T15:59:08Z</time>
      </trkpt>
      <trkpt lat="44.87918" lon="0.58251">
        <ele>159.727</ele>
        <time>2020-06-09T15:59:10Z</time>
      </trkpt>
      <trkpt lat="44.87919" lon="0.5826">
        <ele>159.654</ele>
        <time>2020-06-09T15:59:14Z</time>
      </trkpt>
      <trkpt lat="44.87921" lon="0.58268">
        <ele>159.564</ele>
        <time>2020-06-09T15:59:19Z</time>
      </trkpt>
      <trkpt lat="44.87924" lon="0.58273">
        <ele>159.508</ele>
        <time>2020-06-09T15:59:22Z</time>
      </trkpt>
      <trkpt lat="44.87926" lon="0.58281">
        <ele>159.454</ele>
        <time>2020-06-09T15:59:25Z</time>
      </trkpt>
      <trkpt lat="44.87928" lon="0.58287">
        <ele>159.402</ele>
        <time>2020-06-09T15:59:28Z</time>
      </trkpt>
      <trkpt lat="44.87929" lon="0.58294">
        <ele>159.336</ele>
        <time>2020-06-09T15:59:32Z</time>
      </trkpt>
      <trkpt lat="44.87929" lon="0.58299">
        <ele>159.305</ele>
        <time>2020-06-09T15:59:34Z</time>
      </trkpt>
      <trkpt lat="44.87932" lon="0.58305">
        <ele>159.256</ele>
        <time>2020-06-09T15:59:37Z</time>
      </trkpt>
      <trkpt lat="44.87936" lon="0.58312">
        <ele>159.206</ele>
        <time>2020-06-09T15:59:40Z</time>
      </trkpt>
      <trkpt lat="44.87938" lon="0.58315">
        <ele>159.205</ele>
        <time>2020-06-09T15:59:41Z</time>
      </trkpt>
      <trkpt lat="44.8794" lon="0.58318">
        <ele>159.17</ele>
        <time>2020-06-09T15:59:43Z</time>
      </trkpt>
      <trkpt lat="44.87943" lon="0.58323">
        <ele>159.117</ele>
        <time>2020-06-09T15:59:46Z</time>
      </trkpt>
      <trkpt lat="44.87944" lon="0.58329">
        <ele>159.066</ele>
        <time>2020-06-09T15:59:49Z</time>
      </trkpt>
      <trkpt lat="44.87942" lon="0.58336">
        <ele>159.015</ele>
        <time>2020-06-09T15:59:52Z</time>
      </trkpt>
      <trkpt lat="44.87942" lon="0.58346">
        <ele>158.967</ele>
        <time>2020-06-09T15:59:55Z</time>
      </trkpt>
      <trkpt lat="44.87941" lon="0.58349">
        <ele>158.935</ele>
        <time>2020-06-09T15:59:57Z</time>
      </trkpt>
      <trkpt lat="44.8794" lon="0.58357">
        <ele>158.876</ele>
        <time>2020-06-09T16:00:01Z</time>
      </trkpt>
      <trkpt lat="44.8794" lon="0.58361">
        <ele>158.848</ele>
        <time>2020-06-09T16:00:03Z</time>
      </trkpt>
      <trkpt lat="44.87942" lon="0.58368">
        <ele>158.782</ele>
        <time>2020-06-09T16:00:08Z</time>
      </trkpt>
      <trkpt lat="44.87944" lon="0.58374">
        <ele>158.729</ele>
        <time>2020-06-09T16:00:13Z</time>
      </trkpt>
      <trkpt lat="44.87953" lon="0.58374">
        <ele>158.513</ele>
        <time>2020-06-09T16:00:33Z</time>
      </trkpt>
      <trkpt lat="44.87957" lon="0.58377">
        <ele>158.481</ele>
        <time>2020-06-09T16:00:36Z</time>
      </trkpt>
      <trkpt lat="44.87962" lon="0.58381">
        <ele>158.457</ele>
        <time>2020-06-09T16:00:38Z</time>
      </trkpt>
      <trkpt lat="44.87964" lon="0.58387">
        <ele>158.423</ele>
        <time>2020-06-09T16:00:41Z</time>
      </trkpt>
      <trkpt lat="44.87967" lon="0.58393">
        <ele>158.399</ele>
        <time>2020-06-09T16:00:43Z</time>
      </trkpt>
      <trkpt lat="44.87967" lon="0.584">
        <ele>158.36</ele>
        <time>2020-06-09T16:00:47Z</time>
      </trkpt>
      <trkpt lat="44.87967" lon="0.58407">
        <ele>158.314</ele>
        <time>2020-06-09T16:00:51Z</time>
      </trkpt>
      <trkpt lat="44.87971" lon="0.58414">
        <ele>158.265</ele>
        <time>2020-06-09T16:00:55Z</time>
      </trkpt>
      <trkpt lat="44.87974" lon="0.5842">
        <ele>158.227</ele>
        <time>2020-06-09T16:00:58Z</time>
      </trkpt>
      <trkpt lat="44.87979" lon="0.58426">
        <ele>158.201</ele>
        <time>2020-06-09T16:01:01Z</time>
      </trkpt>
      <trkpt lat="44.87981" lon="0.58428">
        <ele>158.189</ele>
        <time>2020-06-09T16:01:02Z</time>
      </trkpt>
      <trkpt lat="44.87983" lon="0.58431">
        <ele>158.177</ele>
        <time>2020-06-09T16:01:03Z</time>
      </trkpt>
      <trkpt lat="44.87985" lon="0.58433">
        <ele>158.165</ele>
        <time>2020-06-09T16:01:04Z</time>
      </trkpt>
      <trkpt lat="44.87988" lon="0.58438">
        <ele>158.142</ele>
        <time>2020-06-09T16:01:06Z</time>
      </trkpt>
      <trkpt lat="44.87994" lon="0.58443">
        <ele>158.108</ele>
        <time>2020-06-09T16:01:09Z</time>
      </trkpt>
      <trkpt lat="44.87998" lon="0.58445">
        <ele>158.059</ele>
        <time>2020-06-09T16:01:14Z</time>
      </trkpt>
      <trkpt lat="44.88003" lon="0.58443">
        <ele>158.022</ele>
        <time>2020-06-09T16:01:19Z</time>
      </trkpt>
      <trkpt lat="44.88005" lon="0.58441">
        <ele>158.006</ele>
        <time>2020-06-09T16:01:22Z</time>
      </trkpt>
      <trkpt lat="44.8801" lon="0.58439">
        <ele>157.983</ele>
        <time>2020-06-09T16:01:27Z</time>
      </trkpt>
      <trkpt lat="44.88012" lon="0.58437">
        <ele>157.972</ele>
        <time>2020-06-09T16:01:30Z</time>
      </trkpt>
      <trkpt lat="44.88017" lon="0.58434">
        <ele>157.958</ele>
        <time>2020-06-09T16:01:34Z</time>
      </trkpt>
      <trkpt lat="44.8802" lon="0.58427">
        <ele>157.949</ele>
        <time>2020-06-09T16:01:39Z</time>
      </trkpt>
      <trkpt lat="44.88023" lon="0.58422">
        <ele>157.946</ele>
        <time>2020-06-09T16:01:45Z</time>
      </trkpt>
      <trkpt lat="44.88025" lon="0.58419">
        <ele>157.947</ele>
        <time>2020-06-09T16:01:50Z</time>
      </trkpt>
      <trkpt lat="44.88032" lon="0.58426">
        <ele>157.932</ele>
        <time>2020-06-09T16:01:59Z</time>
      </trkpt>
      <trkpt lat="44.88036" lon="0.58431">
        <ele>157.932</ele>
        <time>2020-06-09T16:02:00Z</time>
      </trkpt>
      <trkpt lat="44.88039" lon="0.58435">
        <ele>157.931</ele>
        <time>2020-06-09T16:02:01Z</time>
      </trkpt>
      <trkpt lat="44.88042" lon="0.58443">
        <ele>157.91</ele>
        <time>2020-06-09T16:02:04Z</time>
      </trkpt>
      <trkpt lat="44.88043" lon="0.58446">
        <ele>157.894</ele>
        <time>2020-06-09T16:02:06Z</time>
      </trkpt>
      <trkpt lat="44.88049" lon="0.58452">
        <ele>157.861</ele>
        <time>2020-06-09T16:02:10Z</time>
      </trkpt>
      <trkpt lat="44.88052" lon="0.58458">
        <ele>157.843</ele>
        <time>2020-06-09T16:02:12Z</time>
      </trkpt>
      <trkpt lat="44.88056" lon="0.58462">
        <ele>157.805</ele>
        <time>2020-06-09T16:02:16Z</time>
      </trkpt>
      <trkpt lat="44.8806" lon="0.58465">
        <ele>157.775</ele>
        <time>2020-06-09T16:02:19Z</time>
      </trkpt>
      <trkpt lat="44.88064" lon="0.58471">
        <ele>157.752</ele>
        <time>2020-06-09T16:02:22Z</time>
      </trkpt>
      <trkpt lat="44.88068" lon="0.58477">
        <ele>157.73</ele>
        <time>2020-06-09T16:02:24Z</time>
      </trkpt>
      <trkpt lat="44.8807" lon="0.58483">
        <ele>157.707</ele>
        <time>2020-06-09T16:02:26Z</time>
      </trkpt>
      <trkpt lat="44.88073" lon="0.58488">
        <ele>157.684</ele>
        <time>2020-06-09T16:02:28Z</time>
      </trkpt>
      <trkpt lat="44.88075" lon="0.58491">
        <ele>157.661</ele>
        <time>2020-06-09T16:02:30Z</time>
      </trkpt>
      <trkpt lat="44.88078" lon="0.58496">
        <ele>157.627</ele>
        <time>2020-06-09T16:02:33Z</time>
      </trkpt>
      <trkpt lat="44.88081" lon="0.58502">
        <ele>157.569</ele>
        <time>2020-06-09T16:02:38Z</time>
      </trkpt>
      <trkpt lat="44.88083" lon="0.58508">
        <ele>157.523</ele>
        <time>2020-06-09T16:02:42Z</time>
      </trkpt>
      <trkpt lat="44.88084" lon="0.58516">
        <ele>157.475</ele>
        <time>2020-06-09T16:02:47Z</time>
      </trkpt>
      <trkpt lat="44.88085" lon="0.58524">
        <ele>157.446</ele>
        <time>2020-06-09T16:02:51Z</time>
      </trkpt>
      <trkpt lat="44.88086" lon="0.58531">
        <ele>157.429</ele>
        <time>2020-06-09T16:02:54Z</time>
      </trkpt>
      <trkpt lat="44.88085" lon="0.58538">
        <ele>157.409</ele>
        <time>2020-06-09T16:02:58Z</time>
      </trkpt>
      <trkpt lat="44.88084" lon="0.58548">
        <ele>157.392</ele>
        <time>2020-06-09T16:03:01Z</time>
      </trkpt>
      <trkpt lat="44.88084" lon="0.58555">
        <ele>157.375</ele>
        <time>2020-06-09T16:03:04Z</time>
      </trkpt>
      <trkpt lat="44.88085" lon="0.5856">
        <ele>157.362</ele>
        <time>2020-06-09T16:03:06Z</time>
      </trkpt>
      <trkpt lat="44.88085" lon="0.58567">
        <ele>157.341</ele>
        <time>2020-06-09T16:03:09Z</time>
      </trkpt>
      <trkpt lat="44.88085" lon="0.58574">
        <ele>157.318</ele>
        <time>2020-06-09T16:03:12Z</time>
      </trkpt>
      <trkpt lat="44.88088" lon="0.5858">
        <ele>157.295</ele>
        <time>2020-06-09T16:03:15Z</time>
      </trkpt>
      <trkpt lat="44.88088" lon="0.58587">
        <ele>157.259</ele>
        <time>2020-06-09T16:03:20Z</time>
      </trkpt>
      <trkpt lat="44.8809" lon="0.58594">
        <ele>157.24</ele>
        <time>2020-06-09T16:03:23Z</time>
      </trkpt>
      <trkpt lat="44.88092" lon="0.58598">
        <ele>157.234</ele>
        <time>2020-06-09T16:03:24Z</time>
      </trkpt>
      <trkpt lat="44.88093" lon="0.58603">
        <ele>157.22</ele>
        <time>2020-06-09T16:03:26Z</time>
      </trkpt>
      <trkpt lat="44.88094" lon="0.58611">
        <ele>157.197</ele>
        <time>2020-06-09T16:03:29Z</time>
      </trkpt>
      <trkpt lat="44.88095" lon="0.58616">
        <ele>157.18</ele>
        <time>2020-06-09T16:03:31Z</time>
      </trkpt>
      <trkpt lat="44.88093" lon="0.58623">
        <ele>157.134</ele>
        <time>2020-06-09T16:03:36Z</time>
      </trkpt>
      <trkpt lat="44.8809" lon="0.5863">
        <ele>157.1</ele>
        <time>2020-06-09T16:03:40Z</time>
      </trkpt>
      <trkpt lat="44.88089" lon="0.58635">
        <ele>157.085</ele>
        <time>2020-06-09T16:03:42Z</time>
      </trkpt>
      <trkpt lat="44.88086" lon="0.5864">
        <ele>157.066</ele>
        <time>2020-06-09T16:03:46Z</time>
      </trkpt>
      <trkpt lat="44.88084" lon="0.58644">
        <ele>157.044</ele>
        <time>2020-06-09T16:03:50Z</time>
      </trkpt>
      <trkpt lat="44.8808" lon="0.58648">
        <ele>157.017</ele>
        <time>2020-06-09T16:03:54Z</time>
      </trkpt>
      <trkpt lat="44.88078" lon="0.5865">
        <ele>156.998</ele>
        <time>2020-06-09T16:03:56Z</time>
      </trkpt>
      <trkpt lat="44.88076" lon="0.58653">
        <ele>156.968</ele>
        <time>2020-06-09T16:03:59Z</time>
      </trkpt>
      <trkpt lat="44.88073" lon="0.58656">
        <ele>156.948</ele>
        <time>2020-06-09T16:04:01Z</time>
      </trkpt>
      <trkpt lat="44.88071" lon="0.5866">
        <ele>156.927</ele>
        <time>2020-06-09T16:04:03Z</time>
      </trkpt>
      <trkpt lat="44.88067" lon="0.58664">
        <ele>156.907</ele>
        <time>2020-06-09T16:04:05Z</time>
      </trkpt>
      <trkpt lat="44.88064" lon="0.58668">
        <ele>156.887</ele>
        <time>2020-06-09T16:04:07Z</time>
      </trkpt>
      <trkpt lat="44.88059" lon="0.58673">
        <ele>156.854</ele>
        <time>2020-06-09T16:04:10Z</time>
      </trkpt>
      <trkpt lat="44.88057" lon="0.58679">
        <ele>156.821</ele>
        <time>2020-06-09T16:04:13Z</time>
      </trkpt>
      <trkpt lat="44.88055" lon="0.58686">
        <ele>156.789</ele>
        <time>2020-06-09T16:04:16Z</time>
      </trkpt>
      <trkpt lat="44.88053" lon="0.58693">
        <ele>156.757</ele>
        <time>2020-06-09T16:04:19Z</time>
      </trkpt>
      <trkpt lat="44.88053" lon="0.58696">
        <ele>156.733</ele>
        <time>2020-06-09T16:04:21Z</time>
      </trkpt>
      <trkpt lat="44.88053" lon="0.58704">
        <ele>156.683</ele>
        <time>2020-06-09T16:04:25Z</time>
      </trkpt>
      <trkpt lat="44.88052" lon="0.58713">
        <ele>156.627</ele>
        <time>2020-06-09T16:04:29Z</time>
      </trkpt>
      <trkpt lat="44.88052" lon="0.5872">
        <ele>156.582</ele>
        <time>2020-06-09T16:04:32Z</time>
      </trkpt>
      <trkpt lat="44.88054" lon="0.58728">
        <ele>156.517</ele>
        <time>2020-06-09T16:04:36Z</time>
      </trkpt>
      <trkpt lat="44.88054" lon="0.58734">
        <ele>156.468</ele>
        <time>2020-06-09T16:04:39Z</time>
      </trkpt>
      <trkpt lat="44.88054" lon="0.58739">
        <ele>156.434</ele>
        <time>2020-06-09T16:04:41Z</time>
      </trkpt>
      <trkpt lat="44.88051" lon="0.58746">
        <ele>156.349</ele>
        <time>2020-06-09T16:04:46Z</time>
      </trkpt>
      <trkpt lat="44.88051" lon="0.58752">
        <ele>156.28</ele>
        <time>2020-06-09T16:04:50Z</time>
      </trkpt>
      <trkpt lat="44.88051" lon="0.58759">
        <ele>156.225</ele>
        <time>2020-06-09T16:04:53Z</time>
      </trkpt>
      <trkpt lat="44.88052" lon="0.58764">
        <ele>156.185</ele>
        <time>2020-06-09T16:04:55Z</time>
      </trkpt>
      <trkpt lat="44.88052" lon="0.58768">
        <ele>156.142</ele>
        <time>2020-06-09T16:04:57Z</time>
      </trkpt>
      <trkpt lat="44.88052" lon="0.58773">
        <ele>156.099</ele>
        <time>2020-06-09T16:04:59Z</time>
      </trkpt>
      <trkpt lat="44.88052" lon="0.58776">
        <ele>156.053</ele>
        <time>2020-06-09T16:05:01Z</time>
      </trkpt>
      <trkpt lat="44.8805" lon="0.58783">
        <ele>155.987</ele>
        <time>2020-06-09T16:05:04Z</time>
      </trkpt>
      <trkpt lat="44.88048" lon="0.58791">
        <ele>155.899</ele>
        <time>2020-06-09T16:05:08Z</time>
      </trkpt>
      <trkpt lat="44.88046" lon="0.58795">
        <ele>155.86</ele>
        <time>2020-06-09T16:05:10Z</time>
      </trkpt>
      <trkpt lat="44.88045" lon="0.58799">
        <ele>155.823</ele>
        <time>2020-06-09T16:05:12Z</time>
      </trkpt>
      <trkpt lat="44.88042" lon="0.58806">
        <ele>155.752</ele>
        <time>2020-06-09T16:05:16Z</time>
      </trkpt>
      <trkpt lat="44.8804" lon="0.58813">
        <ele>155.689</ele>
        <time>2020-06-09T16:05:20Z</time>
      </trkpt>
      <trkpt lat="44.88038" lon="0.58818">
        <ele>155.647</ele>
        <time>2020-06-09T16:05:23Z</time>
      </trkpt>
      <trkpt lat="44.88037" lon="0.58825">
        <ele>155.591</ele>
        <time>2020-06-09T16:05:27Z</time>
      </trkpt>
      <trkpt lat="44.88035" lon="0.5883">
        <ele>155.55</ele>
        <time>2020-06-09T16:05:30Z</time>
      </trkpt>
      <trkpt lat="44.88032" lon="0.58836">
        <ele>155.513</ele>
        <time>2020-06-09T16:05:33Z</time>
      </trkpt>
      <trkpt lat="44.88029" lon="0.58842">
        <ele>155.478</ele>
        <time>2020-06-09T16:05:36Z</time>
      </trkpt>
      <trkpt lat="44.88025" lon="0.58846">
        <ele>155.443</ele>
        <time>2020-06-09T16:05:39Z</time>
      </trkpt>
      <trkpt lat="44.88022" lon="0.58851">
        <ele>155.418</ele>
        <time>2020-06-09T16:05:41Z</time>
      </trkpt>
      <trkpt lat="44.8802" lon="0.58859">
        <ele>155.383</ele>
        <time>2020-06-09T16:05:44Z</time>
      </trkpt>
      <trkpt lat="44.88018" lon="0.58865">
        <ele>155.353</ele>
        <time>2020-06-09T16:05:47Z</time>
      </trkpt>
      <trkpt lat="44.88014" lon="0.58869">
        <ele>155.329</ele>
        <time>2020-06-09T16:05:50Z</time>
      </trkpt>
      <trkpt lat="44.88008" lon="0.58871">
        <ele>155.31</ele>
        <time>2020-06-09T16:05:53Z</time>
      </trkpt>
      <trkpt lat="44.88005" lon="0.58873">
        <ele>155.3</ele>
        <time>2020-06-09T16:05:55Z</time>
      </trkpt>
      <trkpt lat="44.88" lon="0.58874">
        <ele>155.286</ele>
        <time>2020-06-09T16:05:59Z</time>
      </trkpt>
      <trkpt lat="44.87994" lon="0.58877">
        <ele>155.274</ele>
        <time>2020-06-09T16:06:03Z</time>
      </trkpt>
      <trkpt lat="44.87989" lon="0.58879">
        <ele>155.264</ele>
        <time>2020-06-09T16:06:07Z</time>
      </trkpt>
      <trkpt lat="44.87986" lon="0.58881">
        <ele>155.255</ele>
        <time>2020-06-09T16:06:10Z</time>
      </trkpt>
      <trkpt lat="44.87983" lon="0.58883">
        <ele>155.249</ele>
        <time>2020-06-09T16:06:12Z</time>
      </trkpt>
      <trkpt lat="44.87978" lon="0.58885">
        <ele>155.241</ele>
        <time>2020-06-09T16:06:15Z</time>
      </trkpt>
      <trkpt lat="44.87974" lon="0.58884">
        <ele>155.234</ele>
        <time>2020-06-09T16:06:18Z</time>
      </trkpt>
      <trkpt lat="44.87969" lon="0.58885">
        <ele>155.229</ele>
        <time>2020-06-09T16:06:21Z</time>
      </trkpt>
      <trkpt lat="44.87966" lon="0.58886">
        <ele>155.227</ele>
        <time>2020-06-09T16:06:23Z</time>
      </trkpt>
      <trkpt lat="44.87961" lon="0.58887">
        <ele>155.224</ele>
        <time>2020-06-09T16:06:27Z</time>
      </trkpt>
      <trkpt lat="44.87957" lon="0.58887">
        <ele>155.224</ele>
        <time>2020-06-09T16:06:30Z</time>
      </trkpt>
      <trkpt lat="44.87951" lon="0.58888">
        <ele>155.225</ele>
        <time>2020-06-09T16:06:33Z</time>
      </trkpt>
      <trkpt lat="44.87946" lon="0.5889">
        <ele>155.223</ele>
        <time>2020-06-09T16:06:37Z</time>
      </trkpt>
      <trkpt lat="44.87944" lon="0.58891">
        <ele>155.222</ele>
        <time>2020-06-09T16:06:39Z</time>
      </trkpt>
      <trkpt lat="44.87939" lon="0.58892">
        <ele>155.219</ele>
        <time>2020-06-09T16:06:42Z</time>
      </trkpt>
      <trkpt lat="44.87935" lon="0.58895">
        <ele>155.218</ele>
        <time>2020-06-09T16:06:44Z</time>
      </trkpt>
      <trkpt lat="44.8793" lon="0.58897">
        <ele>155.218</ele>
        <time>2020-06-09T16:06:47Z</time>
      </trkpt>
      <trkpt lat="44.87924" lon="0.58897">
        <ele>155.218</ele>
        <time>2020-06-09T16:06:50Z</time>
      </trkpt>
      <trkpt lat="44.8792" lon="0.58897">
        <ele>155.218</ele>
        <time>2020-06-09T16:06:52Z</time>
      </trkpt>
      <trkpt lat="44.87918" lon="0.58897">
        <ele>155.219</ele>
        <time>2020-06-09T16:06:54Z</time>
      </trkpt>
      <trkpt lat="44.87912" lon="0.58899">
        <ele>155.22</ele>
        <time>2020-06-09T16:06:58Z</time>
      </trkpt>
      <trkpt lat="44.87908" lon="0.589">
        <ele>155.22</ele>
        <time>2020-06-09T16:07:00Z</time>
      </trkpt>
      <trkpt lat="44.87904" lon="0.58901">
        <ele>155.221</ele>
        <time>2020-06-09T16:07:03Z</time>
      </trkpt>
      <trkpt lat="44.879" lon="0.58901">
        <ele>155.223</ele>
        <time>2020-06-09T16:07:05Z</time>
      </trkpt>
      <trkpt lat="44.87897" lon="0.58902">
        <ele>155.225</ele>
        <time>2020-06-09T16:07:07Z</time>
      </trkpt>
      <trkpt lat="44.87892" lon="0.58901">
        <ele>155.232</ele>
        <time>2020-06-09T16:07:12Z</time>
      </trkpt>
      <trkpt lat="44.87889" lon="0.58901">
        <ele>155.237</ele>
        <time>2020-06-09T16:07:14Z</time>
      </trkpt>
      <trkpt lat="44.87887" lon="0.589">
        <ele>155.248</ele>
        <time>2020-06-09T16:07:17Z</time>
      </trkpt>
      <trkpt lat="44.87882" lon="0.58901">
        <ele>155.265</ele>
        <time>2020-06-09T16:07:20Z</time>
      </trkpt>
      <trkpt lat="44.87876" lon="0.58902">
        <ele>155.289</ele>
        <time>2020-06-09T16:07:24Z</time>
      </trkpt>
      <trkpt lat="44.87874" lon="0.58902">
        <ele>155.296</ele>
        <time>2020-06-09T16:07:25Z</time>
      </trkpt>
      <trkpt lat="44.8787" lon="0.58902">
        <ele>155.311</ele>
        <time>2020-06-09T16:07:27Z</time>
      </trkpt>
      <trkpt lat="44.87866" lon="0.58904">
        <ele>155.357</ele>
        <time>2020-06-09T16:07:32Z</time>
      </trkpt>
      <trkpt lat="44.87861" lon="0.58904">
        <ele>155.401</ele>
        <time>2020-06-09T16:07:36Z</time>
      </trkpt>
      <trkpt lat="44.87855" lon="0.58904">
        <ele>155.451</ele>
        <time>2020-06-09T16:07:40Z</time>
      </trkpt>
      <trkpt lat="44.87852" lon="0.58904">
        <ele>155.476</ele>
        <time>2020-06-09T16:07:42Z</time>
      </trkpt>
      <trkpt lat="44.87849" lon="0.58903">
        <ele>155.516</ele>
        <time>2020-06-09T16:07:45Z</time>
      </trkpt>
      <trkpt lat="44.87847" lon="0.58902">
        <ele>155.542</ele>
        <time>2020-06-09T16:07:47Z</time>
      </trkpt>
      <trkpt lat="44.87841" lon="0.58903">
        <ele>155.591</ele>
        <time>2020-06-09T16:07:51Z</time>
      </trkpt>
      <trkpt lat="44.87838" lon="0.58904">
        <ele>155.614</ele>
        <time>2020-06-09T16:07:53Z</time>
      </trkpt>
      <trkpt lat="44.87834" lon="0.58905">
        <ele>155.655</ele>
        <time>2020-06-09T16:07:57Z</time>
      </trkpt>
      <trkpt lat="44.87829" lon="0.58905">
        <ele>155.692</ele>
        <time>2020-06-09T16:08:01Z</time>
      </trkpt>
      <trkpt lat="44.87825" lon="0.58905">
        <ele>155.716</ele>
        <time>2020-06-09T16:08:04Z</time>
      </trkpt>
      <trkpt lat="44.87822" lon="0.58905">
        <ele>155.73</ele>
        <time>2020-06-09T16:08:06Z</time>
      </trkpt>
      <trkpt lat="44.87817" lon="0.58903">
        <ele>155.753</ele>
        <time>2020-06-09T16:08:10Z</time>
      </trkpt>
      <trkpt lat="44.87813" lon="0.58901">
        <ele>155.769</ele>
        <time>2020-06-09T16:08:13Z</time>
      </trkpt>
      <trkpt lat="44.87806" lon="0.58896">
        <ele>155.787</ele>
        <time>2020-06-09T16:08:17Z</time>
      </trkpt>
      <trkpt lat="44.878" lon="0.58901">
        <ele>155.8</ele>
        <time>2020-06-09T16:08:20Z</time>
      </trkpt>
      <trkpt lat="44.87801" lon="0.58909">
        <ele>155.816</ele>
        <time>2020-06-09T16:08:25Z</time>
      </trkpt>
      <trkpt lat="44.87803" lon="0.58915">
        <ele>155.819</ele>
        <time>2020-06-09T16:08:28Z</time>
      </trkpt>
      <trkpt lat="44.87804" lon="0.58919">
        <ele>155.819</ele>
        <time>2020-06-09T16:08:30Z</time>
      </trkpt>
      <trkpt lat="44.87805" lon="0.58922">
        <ele>155.816</ele>
        <time>2020-06-09T16:08:32Z</time>
      </trkpt>
      <trkpt lat="44.87807" lon="0.58929">
        <ele>155.807</ele>
        <time>2020-06-09T16:08:36Z</time>
      </trkpt>
      <trkpt lat="44.87808" lon="0.58936">
        <ele>155.788</ele>
        <time>2020-06-09T16:08:41Z</time>
      </trkpt>
      <trkpt lat="44.87809" lon="0.58941">
        <ele>155.777</ele>
        <time>2020-06-09T16:08:43Z</time>
      </trkpt>
      <trkpt lat="44.87811" lon="0.58944">
        <ele>155.766</ele>
        <time>2020-06-09T16:08:45Z</time>
      </trkpt>
      <trkpt lat="44.87811" lon="0.58951">
        <ele>155.749</ele>
        <time>2020-06-09T16:08:48Z</time>
      </trkpt>
      <trkpt lat="44.87812" lon="0.58956">
        <ele>155.73</ele>
        <time>2020-06-09T16:08:51Z</time>
      </trkpt>
      <trkpt lat="44.87812" lon="0.58962">
        <ele>155.708</ele>
        <time>2020-06-09T16:08:54Z</time>
      </trkpt>
      <trkpt lat="44.87812" lon="0.5897">
        <ele>155.682</ele>
        <time>2020-06-09T16:08:57Z</time>
      </trkpt>
      <trkpt lat="44.87812" lon="0.58976">
        <ele>155.663</ele>
        <time>2020-06-09T16:08:59Z</time>
      </trkpt>
      <trkpt lat="44.87813" lon="0.58983">
        <ele>155.635</ele>
        <time>2020-06-09T16:09:02Z</time>
      </trkpt>
      <trkpt lat="44.87813" lon="0.58987">
        <ele>155.607</ele>
        <time>2020-06-09T16:09:05Z</time>
      </trkpt>
      <trkpt lat="44.87812" lon="0.58995">
        <ele>155.575</ele>
        <time>2020-06-09T16:09:09Z</time>
      </trkpt>
      <trkpt lat="44.87812" lon="0.59">
        <ele>155.554</ele>
        <time>2020-06-09T16:09:12Z</time>
      </trkpt>
      <trkpt lat="44.87813" lon="0.59007">
        <ele>155.535</ele>
        <time>2020-06-09T16:09:15Z</time>
      </trkpt>
      <trkpt lat="44.87814" lon="0.59013">
        <ele>155.517</ele>
        <time>2020-06-09T16:09:18Z</time>
      </trkpt>
      <trkpt lat="44.87814" lon="0.59021">
        <ele>155.501</ele>
        <time>2020-06-09T16:09:21Z</time>
      </trkpt>
      <trkpt lat="44.87814" lon="0.5903">
        <ele>155.487</ele>
        <time>2020-06-09T16:09:24Z</time>
      </trkpt>
      <trkpt lat="44.87815" lon="0.59034">
        <ele>155.478</ele>
        <time>2020-06-09T16:09:26Z</time>
      </trkpt>
      <trkpt lat="44.87815" lon="0.59038">
        <ele>155.469</ele>
        <time>2020-06-09T16:09:28Z</time>
      </trkpt>
      <trkpt lat="44.87815" lon="0.59042">
        <ele>155.459</ele>
        <time>2020-06-09T16:09:30Z</time>
      </trkpt>
      <trkpt lat="44.87815" lon="0.59046">
        <ele>155.448</ele>
        <time>2020-06-09T16:09:32Z</time>
      </trkpt>
      <trkpt lat="44.87813" lon="0.59053">
        <ele>155.432</ele>
        <time>2020-06-09T16:09:35Z</time>
      </trkpt>
      <trkpt lat="44.87813" lon="0.59058">
        <ele>155.42</ele>
        <time>2020-06-09T16:09:37Z</time>
      </trkpt>
      <trkpt lat="44.87812" lon="0.59065">
        <ele>155.399</ele>
        <time>2020-06-09T16:09:40Z</time>
      </trkpt>
      <trkpt lat="44.87812" lon="0.59069">
        <ele>155.384</ele>
        <time>2020-06-09T16:09:42Z</time>
      </trkpt>
      <trkpt lat="44.87812" lon="0.59073">
        <ele>155.368</ele>
        <time>2020-06-09T16:09:44Z</time>
      </trkpt>
      <trkpt lat="44.87812" lon="0.59077">
        <ele>155.352</ele>
        <time>2020-06-09T16:09:46Z</time>
      </trkpt>
      <trkpt lat="44.87811" lon="0.59083">
        <ele>155.327</ele>
        <time>2020-06-09T16:09:49Z</time>
      </trkpt>
      <trkpt lat="44.8781" lon="0.5909">
        <ele>155.29</ele>
        <time>2020-06-09T16:09:53Z</time>
      </trkpt>
      <trkpt lat="44.87811" lon="0.59098">
        <ele>155.25</ele>
        <time>2020-06-09T16:09:57Z</time>
      </trkpt>
      <trkpt lat="44.87811" lon="0.59103">
        <ele>155.229</ele>
        <time>2020-06-09T16:09:59Z</time>
      </trkpt>
      <trkpt lat="44.87815" lon="0.59108">
        <ele>155.187</ele>
        <time>2020-06-09T16:10:03Z</time>
      </trkpt>
      <trkpt lat="44.87819" lon="0.59112">
        <ele>155.15</ele>
        <time>2020-06-09T16:10:07Z</time>
      </trkpt>
      <trkpt lat="44.87825" lon="0.59114">
        <ele>155.118</ele>
        <time>2020-06-09T16:10:11Z</time>
      </trkpt>
      <trkpt lat="44.87828" lon="0.59116">
        <ele>155.103</ele>
        <time>2020-06-09T16:10:13Z</time>
      </trkpt>
      <trkpt lat="44.87832" lon="0.59118">
        <ele>155.082</ele>
        <time>2020-06-09T16:10:16Z</time>
      </trkpt>
      <trkpt lat="44.87836" lon="0.5912">
        <ele>155.063</ele>
        <time>2020-06-09T16:10:19Z</time>
      </trkpt>
      <trkpt lat="44.87842" lon="0.59121">
        <ele>155.04</ele>
        <time>2020-06-09T16:10:23Z</time>
      </trkpt>
      <trkpt lat="44.87847" lon="0.59123">
        <ele>155.03</ele>
        <time>2020-06-09T16:10:25Z</time>
      </trkpt>
      <trkpt lat="44.87855" lon="0.59125">
        <ele>155.015</ele>
        <time>2020-06-09T16:10:29Z</time>
      </trkpt>
      <trkpt lat="44.87859" lon="0.59128">
        <ele>155.006</ele>
        <time>2020-06-09T16:10:32Z</time>
      </trkpt>
      <trkpt lat="44.87864" lon="0.59131">
        <ele>154.996</ele>
        <time>2020-06-09T16:10:36Z</time>
      </trkpt>
      <trkpt lat="44.8787" lon="0.59133">
        <ele>154.988</ele>
        <time>2020-06-09T16:10:40Z</time>
      </trkpt>
      <trkpt lat="44.87875" lon="0.59135">
        <ele>154.984</ele>
        <time>2020-06-09T16:10:43Z</time>
      </trkpt>
      <trkpt lat="44.87879" lon="0.59137">
        <ele>154.982</ele>
        <time>2020-06-09T16:10:45Z</time>
      </trkpt>
      <trkpt lat="44.87882" lon="0.59139">
        <ele>154.981</ele>
        <time>2020-06-09T16:10:47Z</time>
      </trkpt>
      <trkpt lat="44.87887" lon="0.59141">
        <ele>154.98</ele>
        <time>2020-06-09T16:10:50Z</time>
      </trkpt>
      <trkpt lat="44.87892" lon="0.59143">
        <ele>154.981</ele>
        <time>2020-06-09T16:10:54Z</time>
      </trkpt>
      <trkpt lat="44.87896" lon="0.59146">
        <ele>154.985</ele>
        <time>2020-06-09T16:10:57Z</time>
      </trkpt>
      <trkpt lat="44.87901" lon="0.59148">
        <ele>154.991</ele>
        <time>2020-06-09T16:11:00Z</time>
      </trkpt>
      <trkpt lat="44.87904" lon="0.59149">
        <ele>154.996</ele>
        <time>2020-06-09T16:11:02Z</time>
      </trkpt>
      <trkpt lat="44.87907" lon="0.5915">
        <ele>155.003</ele>
        <time>2020-06-09T16:11:04Z</time>
      </trkpt>
      <trkpt lat="44.8791" lon="0.59151">
        <ele>155.01</ele>
        <time>2020-06-09T16:11:06Z</time>
      </trkpt>
      <trkpt lat="44.87912" lon="0.59152">
        <ele>155.014</ele>
        <time>2020-06-09T16:11:07Z</time>
      </trkpt>
      <trkpt lat="44.87916" lon="0.59154">
        <ele>155.022</ele>
        <time>2020-06-09T16:11:09Z</time>
      </trkpt>
      <trkpt lat="44.87919" lon="0.59155">
        <ele>155.026</ele>
        <time>2020-06-09T16:11:10Z</time>
      </trkpt>
      <trkpt lat="44.87923" lon="0.59158">
        <ele>155.04</ele>
        <time>2020-06-09T16:11:13Z</time>
      </trkpt>
      <trkpt lat="44.87929" lon="0.5916">
        <ele>155.053</ele>
        <time>2020-06-09T16:11:16Z</time>
      </trkpt>
      <trkpt lat="44.87933" lon="0.59162">
        <ele>155.061</ele>
        <time>2020-06-09T16:11:18Z</time>
      </trkpt>
      <trkpt lat="44.87935" lon="0.59163">
        <ele>155.07</ele>
        <time>2020-06-09T16:11:20Z</time>
      </trkpt>
      <trkpt lat="44.87938" lon="0.59164">
        <ele>155.088</ele>
        <time>2020-06-09T16:11:25Z</time>
      </trkpt>
      <trkpt lat="44.87941" lon="0.59166">
        <ele>155.108</ele>
        <time>2020-06-09T16:11:31Z</time>
      </trkpt>
      <trkpt lat="44.87946" lon="0.59166">
        <ele>155.116</ele>
        <time>2020-06-09T16:11:34Z</time>
      </trkpt>
      <trkpt lat="44.87952" lon="0.59168">
        <ele>155.127</ele>
        <time>2020-06-09T16:11:38Z</time>
      </trkpt>
      <trkpt lat="44.87958" lon="0.59172">
        <ele>155.137</ele>
        <time>2020-06-09T16:11:43Z</time>
      </trkpt>
      <trkpt lat="44.87962" lon="0.59172">
        <ele>155.144</ele>
        <time>2020-06-09T16:11:48Z</time>
      </trkpt>
      <trkpt lat="44.87967" lon="0.59174">
        <ele>155.149</ele>
        <time>2020-06-09T16:11:53Z</time>
      </trkpt>
      <trkpt lat="44.87973" lon="0.59176">
        <ele>155.15</ele>
        <time>2020-06-09T16:11:58Z</time>
      </trkpt>
      <trkpt lat="44.87977" lon="0.5918">
        <ele>155.151</ele>
        <time>2020-06-09T16:12:02Z</time>
      </trkpt>
      <trkpt lat="44.8798" lon="0.59185">
        <ele>155.15</ele>
        <time>2020-06-09T16:12:06Z</time>
      </trkpt>
      <trkpt lat="44.87985" lon="0.59186">
        <ele>155.148</ele>
        <time>2020-06-09T16:12:10Z</time>
      </trkpt>
      <trkpt lat="44.8799" lon="0.5919">
        <ele>155.146</ele>
        <time>2020-06-09T16:12:12Z</time>
      </trkpt>
      <trkpt lat="44.87994" lon="0.59196">
        <ele>155.144</ele>
        <time>2020-06-09T16:12:14Z</time>
      </trkpt>
      <trkpt lat="44.87997" lon="0.59201">
        <ele>155.137</ele>
        <time>2020-06-09T16:12:18Z</time>
      </trkpt>
      <trkpt lat="44.87999" lon="0.59208">
        <ele>155.132</ele>
        <time>2020-06-09T16:12:21Z</time>
      </trkpt>
      <trkpt lat="44.88004" lon="0.5921">
        <ele>155.126</ele>
        <time>2020-06-09T16:12:24Z</time>
      </trkpt>
      <trkpt lat="44.88008" lon="0.59212">
        <ele>155.121</ele>
        <time>2020-06-09T16:12:26Z</time>
      </trkpt>
      <trkpt lat="44.88012" lon="0.59218">
        <ele>155.115</ele>
        <time>2020-06-09T16:12:28Z</time>
      </trkpt>
      <trkpt lat="44.88016" lon="0.59222">
        <ele>155.108</ele>
        <time>2020-06-09T16:12:30Z</time>
      </trkpt>
      <trkpt lat="44.88021" lon="0.59226">
        <ele>155.096</ele>
        <time>2020-06-09T16:12:34Z</time>
      </trkpt>
      <trkpt lat="44.88025" lon="0.59231">
        <ele>155.088</ele>
        <time>2020-06-09T16:12:36Z</time>
      </trkpt>
      <trkpt lat="44.88026" lon="0.59234">
        <ele>155.083</ele>
        <time>2020-06-09T16:12:38Z</time>
      </trkpt>
      <trkpt lat="44.8803" lon="0.59238">
        <ele>155.063</ele>
        <time>2020-06-09T16:12:43Z</time>
      </trkpt>
      <trkpt lat="44.88035" lon="0.59239">
        <ele>155.046</ele>
        <time>2020-06-09T16:12:47Z</time>
      </trkpt>
      <trkpt lat="44.8804" lon="0.59239">
        <ele>155.025</ele>
        <time>2020-06-09T16:12:52Z</time>
      </trkpt>
      <trkpt lat="44.88043" lon="0.59239">
        <ele>155.016</ele>
        <time>2020-06-09T16:12:54Z</time>
      </trkpt>
      <trkpt lat="44.8805" lon="0.59241">
        <ele>154.998</ele>
        <time>2020-06-09T16:12:58Z</time>
      </trkpt>
      <trkpt lat="44.88053" lon="0.59243">
        <ele>154.984</ele>
        <time>2020-06-09T16:13:01Z</time>
      </trkpt>
      <trkpt lat="44.88057" lon="0.59246">
        <ele>154.979</ele>
        <time>2020-06-09T16:13:03Z</time>
      </trkpt>
      <trkpt lat="44.88062" lon="0.59245">
        <ele>154.959</ele>
        <time>2020-06-09T16:13:07Z</time>
      </trkpt>
      <trkpt lat="44.88065" lon="0.59245">
        <ele>154.945</ele>
        <time>2020-06-09T16:13:10Z</time>
      </trkpt>
      <trkpt lat="44.88068" lon="0.59249">
        <ele>154.929</ele>
        <time>2020-06-09T16:13:14Z</time>
      </trkpt>
      <trkpt lat="44.88073" lon="0.59253">
        <ele>154.916</ele>
        <time>2020-06-09T16:13:17Z</time>
      </trkpt>
      <trkpt lat="44.88078" lon="0.59253">
        <ele>154.898</ele>
        <time>2020-06-09T16:13:21Z</time>
      </trkpt>
      <trkpt lat="44.88083" lon="0.59254">
        <ele>154.881</ele>
        <time>2020-06-09T16:13:25Z</time>
      </trkpt>
      <trkpt lat="44.88089" lon="0.59254">
        <ele>154.869</ele>
        <time>2020-06-09T16:13:28Z</time>
      </trkpt>
      <trkpt lat="44.88095" lon="0.59256">
        <ele>154.851</ele>
        <time>2020-06-09T16:13:33Z</time>
      </trkpt>
      <trkpt lat="44.88098" lon="0.59258">
        <ele>154.842</ele>
        <time>2020-06-09T16:13:35Z</time>
      </trkpt>
      <trkpt lat="44.881" lon="0.59259">
        <ele>154.833</ele>
        <time>2020-06-09T16:13:38Z</time>
      </trkpt>
      <trkpt lat="44.88102" lon="0.59267">
        <ele>154.806</ele>
        <time>2020-06-09T16:13:44Z</time>
      </trkpt>
      <trkpt lat="44.88108" lon="0.59267">
        <ele>154.772</ele>
        <time>2020-06-09T16:13:50Z</time>
      </trkpt>
      <trkpt lat="44.88111" lon="0.59272">
        <ele>154.757</ele>
        <time>2020-06-09T16:13:53Z</time>
      </trkpt>
      <trkpt lat="44.88116" lon="0.59275">
        <ele>154.74</ele>
        <time>2020-06-09T16:13:57Z</time>
      </trkpt>
      <trkpt lat="44.88119" lon="0.59276">
        <ele>154.706</ele>
        <time>2020-06-09T16:14:05Z</time>
      </trkpt>
      <trkpt lat="44.88116" lon="0.59264">
        <ele>154.671</ele>
        <time>2020-06-09T16:14:15Z</time>
      </trkpt>
      <trkpt lat="44.88115" lon="0.5926">
        <ele>154.659</ele>
        <time>2020-06-09T16:14:19Z</time>
      </trkpt>
      <trkpt lat="44.88115" lon="0.59251">
        <ele>154.629</ele>
        <time>2020-06-09T16:14:29Z</time>
      </trkpt>
      <trkpt lat="44.88115" lon="0.59243">
        <ele>154.626</ele>
        <time>2020-06-09T16:14:45Z</time>
      </trkpt>
      <trkpt lat="44.88113" lon="0.59236">
        <ele>154.632</ele>
        <time>2020-06-09T16:14:49Z</time>
      </trkpt>
      <trkpt lat="44.88111" lon="0.59229">
        <ele>154.642</ele>
        <time>2020-06-09T16:14:53Z</time>
      </trkpt>
      <trkpt lat="44.88109" lon="0.59222">
        <ele>154.65</ele>
        <time>2020-06-09T16:14:56Z</time>
      </trkpt>
      <trkpt lat="44.88109" lon="0.59213">
        <ele>154.658</ele>
        <time>2020-06-09T16:14:59Z</time>
      </trkpt>
      <trkpt lat="44.88109" lon="0.59205">
        <ele>154.663</ele>
        <time>2020-06-09T16:15:01Z</time>
      </trkpt>
      <trkpt lat="44.88107" lon="0.59197">
        <ele>154.671</ele>
        <time>2020-06-09T16:15:04Z</time>
      </trkpt>
      <trkpt lat="44.88107" lon="0.59189">
        <ele>154.678</ele>
        <time>2020-06-09T16:15:08Z</time>
      </trkpt>
      <trkpt lat="44.88108" lon="0.59182">
        <ele>154.682</ele>
        <time>2020-06-09T16:15:12Z</time>
      </trkpt>
      <trkpt lat="44.88107" lon="0.59175">
        <ele>154.682</ele>
        <time>2020-06-09T16:15:17Z</time>
      </trkpt>
      <trkpt lat="44.88107" lon="0.59172">
        <ele>154.682</ele>
        <time>2020-06-09T16:15:26Z</time>
      </trkpt>
      <trkpt lat="44.88107" lon="0.59167">
        <ele>154.678</ele>
        <time>2020-06-09T16:15:29Z</time>
      </trkpt>
      <trkpt lat="44.88107" lon="0.59167">
        <ele>154.678</ele>
        <time>2020-06-09T16:15:36Z</time>
      </trkpt>
      <trkpt lat="44.88107" lon="0.59167">
        <ele>154.678</ele>
        <time>2020-06-09T16:15:37Z</time>
      </trkpt>
      <trkpt lat="44.88111" lon="0.59182">
        <ele>154.604</ele>
        <time>2020-06-09T16:16:08Z</time>
      </trkpt>
      <trkpt lat="44.88112" lon="0.59189">
        <ele>154.581</ele>
        <time>2020-06-09T16:16:12Z</time>
      </trkpt>
      <trkpt lat="44.88114" lon="0.59194">
        <ele>154.569</ele>
        <time>2020-06-09T16:16:14Z</time>
      </trkpt>
      <trkpt lat="44.88115" lon="0.59198">
        <ele>154.563</ele>
        <time>2020-06-09T16:16:15Z</time>
      </trkpt>
      <trkpt lat="44.88115" lon="0.59204">
        <ele>154.543</ele>
        <time>2020-06-09T16:16:18Z</time>
      </trkpt>
      <trkpt lat="44.88115" lon="0.59211">
        <ele>154.524</ele>
        <time>2020-06-09T16:16:21Z</time>
      </trkpt>
      <trkpt lat="44.88118" lon="0.59219">
        <ele>154.499</ele>
        <time>2020-06-09T16:16:25Z</time>
      </trkpt>
      <trkpt lat="44.88119" lon="0.59223">
        <ele>154.487</ele>
        <time>2020-06-09T16:16:27Z</time>
      </trkpt>
      <trkpt lat="44.88121" lon="0.59229">
        <ele>154.468</ele>
        <time>2020-06-09T16:16:30Z</time>
      </trkpt>
      <trkpt lat="44.88121" lon="0.59229">
        <ele>154.468</ele>
        <time>2020-06-09T16:16:35Z</time>
      </trkpt>
      <trkpt lat="44.88123" lon="0.59236">
        <ele>154.434</ele>
        <time>2020-06-09T16:16:36Z</time>
      </trkpt>
      <trkpt lat="44.88124" lon="0.59239">
        <ele>154.428</ele>
        <time>2020-06-09T16:16:37Z</time>
      </trkpt>
      <trkpt lat="44.88125" lon="0.59242">
        <ele>154.423</ele>
        <time>2020-06-09T16:16:38Z</time>
      </trkpt>
      <trkpt lat="44.88126" lon="0.59248">
        <ele>154.412</ele>
        <time>2020-06-09T16:16:40Z</time>
      </trkpt>
      <trkpt lat="44.88128" lon="0.59254">
        <ele>154.396</ele>
        <time>2020-06-09T16:16:44Z</time>
      </trkpt>
      <trkpt lat="44.88129" lon="0.59258">
        <ele>154.389</ele>
        <time>2020-06-09T16:16:46Z</time>
      </trkpt>
      <trkpt lat="44.88132" lon="0.59264">
        <ele>154.378</ele>
        <time>2020-06-09T16:16:50Z</time>
      </trkpt>
      <trkpt lat="44.88132" lon="0.59272">
        <ele>154.373</ele>
        <time>2020-06-09T16:16:54Z</time>
      </trkpt>
      <trkpt lat="44.88134" lon="0.5928">
        <ele>154.374</ele>
        <time>2020-06-09T16:16:57Z</time>
      </trkpt>
      <trkpt lat="44.88136" lon="0.59287">
        <ele>154.385</ele>
        <time>2020-06-09T16:17:02Z</time>
      </trkpt>
      <trkpt lat="44.88135" lon="0.59295">
        <ele>154.404</ele>
        <time>2020-06-09T16:17:06Z</time>
      </trkpt>
      <trkpt lat="44.88135" lon="0.59299">
        <ele>154.414</ele>
        <time>2020-06-09T16:17:08Z</time>
      </trkpt>
      <trkpt lat="44.88134" lon="0.59306">
        <ele>154.431</ele>
        <time>2020-06-09T16:17:12Z</time>
      </trkpt>
      <trkpt lat="44.88135" lon="0.59313">
        <ele>154.465</ele>
        <time>2020-06-09T16:17:19Z</time>
      </trkpt>
      <trkpt lat="44.88138" lon="0.59318">
        <ele>154.495</ele>
        <time>2020-06-09T16:17:23Z</time>
      </trkpt>
      <trkpt lat="44.88141" lon="0.59321">
        <ele>154.516</ele>
        <time>2020-06-09T16:17:25Z</time>
      </trkpt>
      <trkpt lat="44.88143" lon="0.59324">
        <ele>154.539</ele>
        <time>2020-06-09T16:17:27Z</time>
      </trkpt>
      <trkpt lat="44.88147" lon="0.59331">
        <ele>154.585</ele>
        <time>2020-06-09T16:17:31Z</time>
      </trkpt>
      <trkpt lat="44.88151" lon="0.59335">
        <ele>154.636</ele>
        <time>2020-06-09T16:17:35Z</time>
      </trkpt>
      <trkpt lat="44.88156" lon="0.59335">
        <ele>154.717</ele>
        <time>2020-06-09T16:17:44Z</time>
      </trkpt>
      <trkpt lat="44.8816" lon="0.59326">
        <ele>154.8</ele>
        <time>2020-06-09T16:17:50Z</time>
      </trkpt>
      <trkpt lat="44.88162" lon="0.5932">
        <ele>154.851</ele>
        <time>2020-06-09T16:17:54Z</time>
      </trkpt>
      <trkpt lat="44.88166" lon="0.59314">
        <ele>154.899</ele>
        <time>2020-06-09T16:17:58Z</time>
      </trkpt>
      <trkpt lat="44.88171" lon="0.5931">
        <ele>154.935</ele>
        <time>2020-06-09T16:18:01Z</time>
      </trkpt>
      <trkpt lat="44.88175" lon="0.59307">
        <ele>154.957</ele>
        <time>2020-06-09T16:18:03Z</time>
      </trkpt>
      <trkpt lat="44.88179" lon="0.59304">
        <ele>154.985</ele>
        <time>2020-06-09T16:18:10Z</time>
      </trkpt>
      <trkpt lat="44.88182" lon="0.593">
        <ele>155.005</ele>
        <time>2020-06-09T16:18:14Z</time>
      </trkpt>
      <trkpt lat="44.88184" lon="0.59297">
        <ele>155.014</ele>
        <time>2020-06-09T16:18:16Z</time>
      </trkpt>
      <trkpt lat="44.88186" lon="0.59295">
        <ele>155.022</ele>
        <time>2020-06-09T16:18:18Z</time>
      </trkpt>
      <trkpt lat="44.8819" lon="0.59289">
        <ele>155.037</ele>
        <time>2020-06-09T16:18:22Z</time>
      </trkpt>
      <trkpt lat="44.88194" lon="0.59281">
        <ele>155.06</ele>
        <time>2020-06-09T16:18:25Z</time>
      </trkpt>
      <trkpt lat="44.88197" lon="0.59277">
        <ele>155.081</ele>
        <time>2020-06-09T16:18:27Z</time>
      </trkpt>
      <trkpt lat="44.88201" lon="0.59272">
        <ele>155.117</ele>
        <time>2020-06-09T16:18:30Z</time>
      </trkpt>
      <trkpt lat="44.88203" lon="0.59269">
        <ele>155.142</ele>
        <time>2020-06-09T16:18:32Z</time>
      </trkpt>
      <trkpt lat="44.88205" lon="0.59265">
        <ele>155.169</ele>
        <time>2020-06-09T16:18:34Z</time>
      </trkpt>
      <trkpt lat="44.88208" lon="0.59262">
        <ele>155.197</ele>
        <time>2020-06-09T16:18:36Z</time>
      </trkpt>
      <trkpt lat="44.88212" lon="0.59258">
        <ele>155.24</ele>
        <time>2020-06-09T16:18:39Z</time>
      </trkpt>
      <trkpt lat="44.88215" lon="0.59251">
        <ele>155.286</ele>
        <time>2020-06-09T16:18:42Z</time>
      </trkpt>
      <trkpt lat="44.88216" lon="0.59243">
        <ele>155.336</ele>
        <time>2020-06-09T16:18:45Z</time>
      </trkpt>
      <trkpt lat="44.88217" lon="0.59236">
        <ele>155.386</ele>
        <time>2020-06-09T16:18:48Z</time>
      </trkpt>
      <trkpt lat="44.88218" lon="0.59231">
        <ele>155.487</ele>
        <time>2020-06-09T16:18:57Z</time>
      </trkpt>
      <trkpt lat="44.88222" lon="0.59227">
        <ele>155.644</ele>
        <time>2020-06-09T16:19:06Z</time>
      </trkpt>
      <trkpt lat="44.88228" lon="0.59224">
        <ele>155.78</ele>
        <time>2020-06-09T16:19:16Z</time>
      </trkpt>
      <trkpt lat="44.88236" lon="0.59216">
        <ele>155.826</ele>
        <time>2020-06-09T16:19:20Z</time>
      </trkpt>
      <trkpt lat="44.88243" lon="0.59219">
        <ele>155.847</ele>
        <time>2020-06-09T16:19:22Z</time>
      </trkpt>
      <trkpt lat="44.88251" lon="0.5921">
        <ele>155.876</ele>
        <time>2020-06-09T16:19:25Z</time>
      </trkpt>
      <trkpt lat="44.88253" lon="0.59209">
        <ele>155.894</ele>
        <time>2020-06-09T16:19:27Z</time>
      </trkpt>
      <trkpt lat="44.88258" lon="0.59209">
        <ele>155.92</ele>
        <time>2020-06-09T16:19:30Z</time>
      </trkpt>
      <trkpt lat="44.88263" lon="0.59206">
        <ele>155.95</ele>
        <time>2020-06-09T16:19:34Z</time>
      </trkpt>
      <trkpt lat="44.88266" lon="0.59201">
        <ele>155.977</ele>
        <time>2020-06-09T16:19:40Z</time>
      </trkpt>
      <trkpt lat="44.88269" lon="0.59199">
        <ele>155.993</ele>
        <time>2020-06-09T16:19:44Z</time>
      </trkpt>
      <trkpt lat="44.88272" lon="0.59193">
        <ele>156.012</ele>
        <time>2020-06-09T16:19:48Z</time>
      </trkpt>
      <trkpt lat="44.88277" lon="0.59192">
        <ele>156.023</ele>
        <time>2020-06-09T16:19:51Z</time>
      </trkpt>
      <trkpt lat="44.88281" lon="0.5919">
        <ele>156.03</ele>
        <time>2020-06-09T16:19:53Z</time>
      </trkpt>
      <trkpt lat="44.88285" lon="0.59188">
        <ele>156.036</ele>
        <time>2020-06-09T16:19:55Z</time>
      </trkpt>
      <trkpt lat="44.88288" lon="0.59187">
        <ele>156.041</ele>
        <time>2020-06-09T16:19:57Z</time>
      </trkpt>
      <trkpt lat="44.88293" lon="0.59184">
        <ele>156.051</ele>
        <time>2020-06-09T16:20:03Z</time>
      </trkpt>
      <trkpt lat="44.88301" lon="0.59179">
        <ele>156.056</ele>
        <time>2020-06-09T16:20:06Z</time>
      </trkpt>
      <trkpt lat="44.88305" lon="0.59175">
        <ele>156.059</ele>
        <time>2020-06-09T16:20:08Z</time>
      </trkpt>
      <trkpt lat="44.8831" lon="0.59175">
        <ele>156.061</ele>
        <time>2020-06-09T16:20:11Z</time>
      </trkpt>
      <trkpt lat="44.88317" lon="0.59178">
        <ele>156.061</ele>
        <time>2020-06-09T16:20:14Z</time>
      </trkpt>
      <trkpt lat="44.88322" lon="0.59178">
        <ele>156.061</ele>
        <time>2020-06-09T16:20:17Z</time>
      </trkpt>
      <trkpt lat="44.88328" lon="0.59178">
        <ele>156.058</ele>
        <time>2020-06-09T16:20:20Z</time>
      </trkpt>
      <trkpt lat="44.88334" lon="0.5918">
        <ele>156.056</ele>
        <time>2020-06-09T16:20:21Z</time>
      </trkpt>
      <trkpt lat="44.88338" lon="0.59178">
        <ele>156.051</ele>
        <time>2020-06-09T16:20:24Z</time>
      </trkpt>
      <trkpt lat="44.88342" lon="0.59177">
        <ele>156.046</ele>
        <time>2020-06-09T16:20:27Z</time>
      </trkpt>
      <trkpt lat="44.88348" lon="0.59175">
        <ele>156.04</ele>
        <time>2020-06-09T16:20:30Z</time>
      </trkpt>
      <trkpt lat="44.88354" lon="0.59175">
        <ele>156.035</ele>
        <time>2020-06-09T16:20:33Z</time>
      </trkpt>
      <trkpt lat="44.88359" lon="0.59174">
        <ele>156.03</ele>
        <time>2020-06-09T16:20:36Z</time>
      </trkpt>
      <trkpt lat="44.88362" lon="0.59174">
        <ele>156.028</ele>
        <time>2020-06-09T16:20:38Z</time>
      </trkpt>
      <trkpt lat="44.88364" lon="0.59173">
        <ele>156.025</ele>
        <time>2020-06-09T16:20:41Z</time>
      </trkpt>
      <trkpt lat="44.88368" lon="0.59169">
        <ele>156.022</ele>
        <time>2020-06-09T16:20:44Z</time>
      </trkpt>
      <trkpt lat="44.8837" lon="0.59166">
        <ele>156.021</ele>
        <time>2020-06-09T16:20:45Z</time>
      </trkpt>
      <trkpt lat="44.88374" lon="0.59163">
        <ele>156.017</ele>
        <time>2020-06-09T16:20:52Z</time>
      </trkpt>
      <trkpt lat="44.88382" lon="0.59165">
        <ele>156.012</ele>
        <time>2020-06-09T16:20:57Z</time>
      </trkpt>
      <trkpt lat="44.88386" lon="0.59166">
        <ele>156</ele>
        <time>2020-06-09T16:21:04Z</time>
      </trkpt>
      <trkpt lat="44.8839" lon="0.59161">
        <ele>155.993</ele>
        <time>2020-06-09T16:21:08Z</time>
      </trkpt>
      <trkpt lat="44.88394" lon="0.59158">
        <ele>155.989</ele>
        <time>2020-06-09T16:21:10Z</time>
      </trkpt>
      <trkpt lat="44.88398" lon="0.59157">
        <ele>155.985</ele>
        <time>2020-06-09T16:21:12Z</time>
      </trkpt>
      <trkpt lat="44.88403" lon="0.59153">
        <ele>155.981</ele>
        <time>2020-06-09T16:21:14Z</time>
      </trkpt>
      <trkpt lat="44.88407" lon="0.59149">
        <ele>155.977</ele>
        <time>2020-06-09T16:21:17Z</time>
      </trkpt>
      <trkpt lat="44.88413" lon="0.59148">
        <ele>155.972</ele>
        <time>2020-06-09T16:21:20Z</time>
      </trkpt>
      <trkpt lat="44.88417" lon="0.59145">
        <ele>155.968</ele>
        <time>2020-06-09T16:21:24Z</time>
      </trkpt>
      <trkpt lat="44.88422" lon="0.59143">
        <ele>155.965</ele>
        <time>2020-06-09T16:21:26Z</time>
      </trkpt>
      <trkpt lat="44.88426" lon="0.59141">
        <ele>155.963</ele>
        <time>2020-06-09T16:21:28Z</time>
      </trkpt>
      <trkpt lat="44.8843" lon="0.59136">
        <ele>155.961</ele>
        <time>2020-06-09T16:21:30Z</time>
      </trkpt>
      <trkpt lat="44.88434" lon="0.59133">
        <ele>155.958</ele>
        <time>2020-06-09T16:21:32Z</time>
      </trkpt>
      <trkpt lat="44.88439" lon="0.5913">
        <ele>155.952</ele>
        <time>2020-06-09T16:21:36Z</time>
      </trkpt>
      <trkpt lat="44.88444" lon="0.59126">
        <ele>155.946</ele>
        <time>2020-06-09T16:21:40Z</time>
      </trkpt>
      <trkpt lat="44.8845" lon="0.59127">
        <ele>155.94</ele>
        <time>2020-06-09T16:21:43Z</time>
      </trkpt>
      <trkpt lat="44.88454" lon="0.59125">
        <ele>155.931</ele>
        <time>2020-06-09T16:21:48Z</time>
      </trkpt>
      <trkpt lat="44.88457" lon="0.59124">
        <ele>155.926</ele>
        <time>2020-06-09T16:21:50Z</time>
      </trkpt>
      <trkpt lat="44.8846" lon="0.59122">
        <ele>155.921</ele>
        <time>2020-06-09T16:21:53Z</time>
      </trkpt>
      <trkpt lat="44.88464" lon="0.59116">
        <ele>155.914</ele>
        <time>2020-06-09T16:21:57Z</time>
      </trkpt>
      <trkpt lat="44.8847" lon="0.59115">
        <ele>155.909</ele>
        <time>2020-06-09T16:22:01Z</time>
      </trkpt>
      <trkpt lat="44.88474" lon="0.59114">
        <ele>155.904</ele>
        <time>2020-06-09T16:22:06Z</time>
      </trkpt>
      <trkpt lat="44.88481" lon="0.59106">
        <ele>155.901</ele>
        <time>2020-06-09T16:22:09Z</time>
      </trkpt>
      <trkpt lat="44.88483" lon="0.59104">
        <ele>155.899</ele>
        <time>2020-06-09T16:22:10Z</time>
      </trkpt>
      <trkpt lat="44.88488" lon="0.59104">
        <ele>155.893</ele>
        <time>2020-06-09T16:22:13Z</time>
      </trkpt>
      <trkpt lat="44.88491" lon="0.59105">
        <ele>155.887</ele>
        <time>2020-06-09T16:22:16Z</time>
      </trkpt>
      <trkpt lat="44.885" lon="0.59103">
        <ele>155.88</ele>
        <time>2020-06-09T16:22:19Z</time>
      </trkpt>
      <trkpt lat="44.88506" lon="0.59101">
        <ele>155.873</ele>
        <time>2020-06-09T16:22:21Z</time>
      </trkpt>
      <trkpt lat="44.88514" lon="0.591">
        <ele>155.866</ele>
        <time>2020-06-09T16:22:23Z</time>
      </trkpt>
      <trkpt lat="44.88519" lon="0.591">
        <ele>155.859</ele>
        <time>2020-06-09T16:22:25Z</time>
      </trkpt>
      <trkpt lat="44.88522" lon="0.59099">
        <ele>155.852</ele>
        <time>2020-06-09T16:22:27Z</time>
      </trkpt>
      <trkpt lat="44.88528" lon="0.59101">
        <ele>155.839</ele>
        <time>2020-06-09T16:22:30Z</time>
      </trkpt>
      <trkpt lat="44.88535" lon="0.59106">
        <ele>155.825</ele>
        <time>2020-06-09T16:22:33Z</time>
      </trkpt>
      <trkpt lat="44.88539" lon="0.59108">
        <ele>155.816</ele>
        <time>2020-06-09T16:22:35Z</time>
      </trkpt>
      <trkpt lat="44.88544" lon="0.59105">
        <ele>155.802</ele>
        <time>2020-06-09T16:22:38Z</time>
      </trkpt>
      <trkpt lat="44.88549" lon="0.59104">
        <ele>155.797</ele>
        <time>2020-06-09T16:22:40Z</time>
      </trkpt>
      <trkpt lat="44.88555" lon="0.59102">
        <ele>155.782</ele>
        <time>2020-06-09T16:22:43Z</time>
      </trkpt>
      <trkpt lat="44.8856" lon="0.59104">
        <ele>155.76</ele>
        <time>2020-06-09T16:22:47Z</time>
      </trkpt>
      <trkpt lat="44.88566" lon="0.591">
        <ele>155.742</ele>
        <time>2020-06-09T16:22:50Z</time>
      </trkpt>
      <trkpt lat="44.8857" lon="0.59097">
        <ele>155.723</ele>
        <time>2020-06-09T16:22:53Z</time>
      </trkpt>
      <trkpt lat="44.88575" lon="0.59097">
        <ele>155.694</ele>
        <time>2020-06-09T16:22:58Z</time>
      </trkpt>
      <trkpt lat="44.88579" lon="0.59098">
        <ele>155.668</ele>
        <time>2020-06-09T16:23:02Z</time>
      </trkpt>
      <trkpt lat="44.88584" lon="0.59098">
        <ele>155.645</ele>
        <time>2020-06-09T16:23:05Z</time>
      </trkpt>
      <trkpt lat="44.88589" lon="0.591">
        <ele>155.619</ele>
        <time>2020-06-09T16:23:08Z</time>
      </trkpt>
      <trkpt lat="44.88595" lon="0.59097">
        <ele>155.582</ele>
        <time>2020-06-09T16:23:12Z</time>
      </trkpt>
      <trkpt lat="44.886" lon="0.59098">
        <ele>155.555</ele>
        <time>2020-06-09T16:23:15Z</time>
      </trkpt>
      <trkpt lat="44.88605" lon="0.59098">
        <ele>155.531</ele>
        <time>2020-06-09T16:23:18Z</time>
      </trkpt>
      <trkpt lat="44.8861" lon="0.59098">
        <ele>155.516</ele>
        <time>2020-06-09T16:23:20Z</time>
      </trkpt>
      <trkpt lat="44.88617" lon="0.59096">
        <ele>155.496</ele>
        <time>2020-06-09T16:23:23Z</time>
      </trkpt>
      <trkpt lat="44.88621" lon="0.59094">
        <ele>155.478</ele>
        <time>2020-06-09T16:23:26Z</time>
      </trkpt>
      <trkpt lat="44.88627" lon="0.59094">
        <ele>155.458</ele>
        <time>2020-06-09T16:23:29Z</time>
      </trkpt>
      <trkpt lat="44.88629" lon="0.59094">
        <ele>155.438</ele>
        <time>2020-06-09T16:23:32Z</time>
      </trkpt>
      <trkpt lat="44.88634" lon="0.59095">
        <ele>155.419</ele>
        <time>2020-06-09T16:23:35Z</time>
      </trkpt>
      <trkpt lat="44.88642" lon="0.59096">
        <ele>155.403</ele>
        <time>2020-06-09T16:23:38Z</time>
      </trkpt>
      <trkpt lat="44.88646" lon="0.59096">
        <ele>155.387</ele>
        <time>2020-06-09T16:23:41Z</time>
      </trkpt>
      <trkpt lat="44.88652" lon="0.59099">
        <ele>155.375</ele>
        <time>2020-06-09T16:23:43Z</time>
      </trkpt>
      <trkpt lat="44.88654" lon="0.59101">
        <ele>155.368</ele>
        <time>2020-06-09T16:23:44Z</time>
      </trkpt>
      <trkpt lat="44.88657" lon="0.59102">
        <ele>155.362</ele>
        <time>2020-06-09T16:23:45Z</time>
      </trkpt>
      <trkpt lat="44.88661" lon="0.59104">
        <ele>155.347</ele>
        <time>2020-06-09T16:23:47Z</time>
      </trkpt>
      <trkpt lat="44.88666" lon="0.59103">
        <ele>155.324</ele>
        <time>2020-06-09T16:23:51Z</time>
      </trkpt>
      <trkpt lat="44.88671" lon="0.59103">
        <ele>155.3</ele>
        <time>2020-06-09T16:23:54Z</time>
      </trkpt>
      <trkpt lat="44.88676" lon="0.59104">
        <ele>155.266</ele>
        <time>2020-06-09T16:23:58Z</time>
      </trkpt>
      <trkpt lat="44.8868" lon="0.59101">
        <ele>155.241</ele>
        <time>2020-06-09T16:24:01Z</time>
      </trkpt>
      <trkpt lat="44.88684" lon="0.591">
        <ele>155.208</ele>
        <time>2020-06-09T16:24:05Z</time>
      </trkpt>
      <trkpt lat="44.88687" lon="0.591">
        <ele>155.191</ele>
        <time>2020-06-09T16:24:07Z</time>
      </trkpt>
      <trkpt lat="44.88694" lon="0.59101">
        <ele>155.157</ele>
        <time>2020-06-09T16:24:11Z</time>
      </trkpt>
      <trkpt lat="44.88698" lon="0.59099">
        <ele>155.103</ele>
        <time>2020-06-09T16:24:18Z</time>
      </trkpt>
      <trkpt lat="44.88702" lon="0.59102">
        <ele>155.084</ele>
        <time>2020-06-09T16:24:20Z</time>
      </trkpt>
      <trkpt lat="44.88708" lon="0.59101">
        <ele>155.065</ele>
        <time>2020-06-09T16:24:22Z</time>
      </trkpt>
      <trkpt lat="44.88715" lon="0.59101">
        <ele>155.045</ele>
        <time>2020-06-09T16:24:24Z</time>
      </trkpt>
      <trkpt lat="44.88719" lon="0.59097">
        <ele>155.007</ele>
        <time>2020-06-09T16:24:28Z</time>
      </trkpt>
      <trkpt lat="44.88724" lon="0.59095">
        <ele>154.969</ele>
        <time>2020-06-09T16:24:32Z</time>
      </trkpt>
      <trkpt lat="44.8873" lon="0.59095">
        <ele>154.93</ele>
        <time>2020-06-09T16:24:36Z</time>
      </trkpt>
      <trkpt lat="44.88733" lon="0.59096">
        <ele>154.901</ele>
        <time>2020-06-09T16:24:39Z</time>
      </trkpt>
      <trkpt lat="44.88737" lon="0.59097">
        <ele>154.872</ele>
        <time>2020-06-09T16:24:42Z</time>
      </trkpt>
      <trkpt lat="44.88741" lon="0.59098">
        <ele>154.853</ele>
        <time>2020-06-09T16:24:44Z</time>
      </trkpt>
      <trkpt lat="44.88749" lon="0.59096">
        <ele>154.824</ele>
        <time>2020-06-09T16:24:47Z</time>
      </trkpt>
      <trkpt lat="44.88754" lon="0.59096">
        <ele>154.804</ele>
        <time>2020-06-09T16:24:49Z</time>
      </trkpt>
      <trkpt lat="44.88759" lon="0.59092">
        <ele>154.776</ele>
        <time>2020-06-09T16:24:52Z</time>
      </trkpt>
      <trkpt lat="44.88764" lon="0.59091">
        <ele>154.721</ele>
        <time>2020-06-09T16:24:58Z</time>
      </trkpt>
      <trkpt lat="44.88769" lon="0.59091">
        <ele>154.684</ele>
        <time>2020-06-09T16:25:02Z</time>
      </trkpt>
      <trkpt lat="44.88773" lon="0.59091">
        <ele>154.665</ele>
        <time>2020-06-09T16:25:04Z</time>
      </trkpt>
      <trkpt lat="44.88778" lon="0.59094">
        <ele>154.622</ele>
        <time>2020-06-09T16:25:09Z</time>
      </trkpt>
      <trkpt lat="44.88781" lon="0.59097">
        <ele>154.613</ele>
        <time>2020-06-09T16:25:10Z</time>
      </trkpt>
      <trkpt lat="44.88787" lon="0.59099">
        <ele>154.593</ele>
        <time>2020-06-09T16:25:12Z</time>
      </trkpt>
      <trkpt lat="44.88793" lon="0.59096">
        <ele>154.572</ele>
        <time>2020-06-09T16:25:15Z</time>
      </trkpt>
      <trkpt lat="44.88801" lon="0.59098">
        <ele>154.537</ele>
        <time>2020-06-09T16:25:18Z</time>
      </trkpt>
      <trkpt lat="44.88807" lon="0.59098">
        <ele>154.51</ele>
        <time>2020-06-09T16:25:20Z</time>
      </trkpt>
      <trkpt lat="44.8881" lon="0.59097">
        <ele>154.496</ele>
        <time>2020-06-09T16:25:21Z</time>
      </trkpt>
      <trkpt lat="44.88813" lon="0.59097">
        <ele>154.482</ele>
        <time>2020-06-09T16:25:22Z</time>
      </trkpt>
      <trkpt lat="44.88815" lon="0.59097">
        <ele>154.455</ele>
        <time>2020-06-09T16:25:24Z</time>
      </trkpt>
      <trkpt lat="44.88819" lon="0.59095">
        <ele>154.429</ele>
        <time>2020-06-09T16:25:26Z</time>
      </trkpt>
      <trkpt lat="44.88824" lon="0.59095">
        <ele>154.402</ele>
        <time>2020-06-09T16:25:28Z</time>
      </trkpt>
      <trkpt lat="44.88832" lon="0.59096">
        <ele>154.349</ele>
        <time>2020-06-09T16:25:32Z</time>
      </trkpt>
      <trkpt lat="44.88837" lon="0.59098">
        <ele>154.322</ele>
        <time>2020-06-09T16:25:34Z</time>
      </trkpt>
      <trkpt lat="44.88841" lon="0.59097">
        <ele>154.296</ele>
        <time>2020-06-09T16:25:36Z</time>
      </trkpt>
      <trkpt lat="44.88851" lon="0.59095">
        <ele>154.256</ele>
        <time>2020-06-09T16:25:39Z</time>
      </trkpt>
      <trkpt lat="44.88855" lon="0.59094">
        <ele>154.243</ele>
        <time>2020-06-09T16:25:40Z</time>
      </trkpt>
      <trkpt lat="44.88858" lon="0.59094">
        <ele>154.23</ele>
        <time>2020-06-09T16:25:41Z</time>
      </trkpt>
      <trkpt lat="44.88861" lon="0.59093">
        <ele>154.217</ele>
        <time>2020-06-09T16:25:42Z</time>
      </trkpt>
      <trkpt lat="44.88866" lon="0.59091">
        <ele>154.192</ele>
        <time>2020-06-09T16:25:44Z</time>
      </trkpt>
      <trkpt lat="44.88872" lon="0.5909">
        <ele>154.153</ele>
        <time>2020-06-09T16:25:47Z</time>
      </trkpt>
      <trkpt lat="44.88877" lon="0.59087">
        <ele>154.11</ele>
        <time>2020-06-09T16:25:50Z</time>
      </trkpt>
      <trkpt lat="44.88881" lon="0.59085">
        <ele>154.062</ele>
        <time>2020-06-09T16:25:53Z</time>
      </trkpt>
      <trkpt lat="44.88887" lon="0.59083">
        <ele>154.012</ele>
        <time>2020-06-09T16:25:56Z</time>
      </trkpt>
      <trkpt lat="44.88892" lon="0.59082">
        <ele>153.958</ele>
        <time>2020-06-09T16:25:59Z</time>
      </trkpt>
      <trkpt lat="44.88895" lon="0.59082">
        <ele>153.94</ele>
        <time>2020-06-09T16:26:00Z</time>
      </trkpt>
      <trkpt lat="44.88901" lon="0.5908">
        <ele>153.884</ele>
        <time>2020-06-09T16:26:03Z</time>
      </trkpt>
      <trkpt lat="44.88904" lon="0.59079">
        <ele>153.844</ele>
        <time>2020-06-09T16:26:05Z</time>
      </trkpt>
      <trkpt lat="44.88909" lon="0.59078">
        <ele>153.803</ele>
        <time>2020-06-09T16:26:07Z</time>
      </trkpt>
      <trkpt lat="44.88913" lon="0.59077">
        <ele>153.76</ele>
        <time>2020-06-09T16:26:09Z</time>
      </trkpt>
      <trkpt lat="44.88918" lon="0.59076">
        <ele>153.693</ele>
        <time>2020-06-09T16:26:12Z</time>
      </trkpt>
      <trkpt lat="44.88923" lon="0.59075">
        <ele>153.623</ele>
        <time>2020-06-09T16:26:15Z</time>
      </trkpt>
      <trkpt lat="44.88925" lon="0.59074">
        <ele>153.574</ele>
        <time>2020-06-09T16:26:17Z</time>
      </trkpt>
      <trkpt lat="44.88928" lon="0.59073">
        <ele>153.523</ele>
        <time>2020-06-09T16:26:19Z</time>
      </trkpt>
      <trkpt lat="44.88932" lon="0.59073">
        <ele>153.442</ele>
        <time>2020-06-09T16:26:22Z</time>
      </trkpt>
      <trkpt lat="44.88935" lon="0.59073">
        <ele>153.386</ele>
        <time>2020-06-09T16:26:24Z</time>
      </trkpt>
      <trkpt lat="44.8894" lon="0.59071">
        <ele>153.3</ele>
        <time>2020-06-09T16:26:27Z</time>
      </trkpt>
      <trkpt lat="44.88944" lon="0.59069">
        <ele>153.209</ele>
        <time>2020-06-09T16:26:30Z</time>
      </trkpt>
      <trkpt lat="44.88947" lon="0.59067">
        <ele>153.144</ele>
        <time>2020-06-09T16:26:32Z</time>
      </trkpt>
      <trkpt lat="44.88952" lon="0.59065">
        <ele>153.042</ele>
        <time>2020-06-09T16:26:35Z</time>
      </trkpt>
      <trkpt lat="44.88957" lon="0.59061">
        <ele>152.936</ele>
        <time>2020-06-09T16:26:38Z</time>
      </trkpt>
      <trkpt lat="44.88962" lon="0.59058">
        <ele>152.825</ele>
        <time>2020-06-09T16:26:41Z</time>
      </trkpt>
      <trkpt lat="44.88965" lon="0.59057">
        <ele>152.786</ele>
        <time>2020-06-09T16:26:42Z</time>
      </trkpt>
      <trkpt lat="44.8897" lon="0.59055">
        <ele>152.668</ele>
        <time>2020-06-09T16:26:45Z</time>
      </trkpt>
      <trkpt lat="44.88975" lon="0.59052">
        <ele>152.546</ele>
        <time>2020-06-09T16:26:48Z</time>
      </trkpt>
      <trkpt lat="44.88978" lon="0.59051">
        <ele>152.465</ele>
        <time>2020-06-09T16:26:50Z</time>
      </trkpt>
      <trkpt lat="44.8898" lon="0.5905">
        <ele>152.384</ele>
        <time>2020-06-09T16:26:52Z</time>
      </trkpt>
      <trkpt lat="44.88986" lon="0.59049">
        <ele>152.224</ele>
        <time>2020-06-09T16:26:56Z</time>
      </trkpt>
      <trkpt lat="44.8899" lon="0.59049">
        <ele>152.105</ele>
        <time>2020-06-09T16:26:59Z</time>
      </trkpt>
      <trkpt lat="44.88996" lon="0.59047">
        <ele>151.987</ele>
        <time>2020-06-09T16:27:02Z</time>
      </trkpt>
      <trkpt lat="44.89" lon="0.59045">
        <ele>151.793</ele>
        <time>2020-06-09T16:27:07Z</time>
      </trkpt>
      <trkpt lat="44.89004" lon="0.59043">
        <ele>151.675</ele>
        <time>2020-06-09T16:27:10Z</time>
      </trkpt>
      <trkpt lat="44.89006" lon="0.59041">
        <ele>151.595</ele>
        <time>2020-06-09T16:27:12Z</time>
      </trkpt>
      <trkpt lat="44.8901" lon="0.5904">
        <ele>151.47</ele>
        <time>2020-06-09T16:27:15Z</time>
      </trkpt>
      <trkpt lat="44.89015" lon="0.59038">
        <ele>151.298</ele>
        <time>2020-06-09T16:27:19Z</time>
      </trkpt>
      <trkpt lat="44.89019" lon="0.59035">
        <ele>151.118</ele>
        <time>2020-06-09T16:27:23Z</time>
      </trkpt>
      <trkpt lat="44.89022" lon="0.59033">
        <ele>151.024</ele>
        <time>2020-06-09T16:27:25Z</time>
      </trkpt>
      <trkpt lat="44.89024" lon="0.59031">
        <ele>150.976</ele>
        <time>2020-06-09T16:27:26Z</time>
      </trkpt>
      <trkpt lat="44.89029" lon="0.59028">
        <ele>150.829</ele>
        <time>2020-06-09T16:27:29Z</time>
      </trkpt>
      <trkpt lat="44.89035" lon="0.59025">
        <ele>150.677</ele>
        <time>2020-06-09T16:27:32Z</time>
      </trkpt>
      <trkpt lat="44.8904" lon="0.59023">
        <ele>150.572</ele>
        <time>2020-06-09T16:27:34Z</time>
      </trkpt>
      <trkpt lat="44.89044" lon="0.59021">
        <ele>150.412</ele>
        <time>2020-06-09T16:27:37Z</time>
      </trkpt>
      <trkpt lat="44.8905" lon="0.59018">
        <ele>150.251</ele>
        <time>2020-06-09T16:27:40Z</time>
      </trkpt>
      <trkpt lat="44.89053" lon="0.59015">
        <ele>150.145</ele>
        <time>2020-06-09T16:27:42Z</time>
      </trkpt>
      <trkpt lat="44.89058" lon="0.59011">
        <ele>149.986</ele>
        <time>2020-06-09T16:27:45Z</time>
      </trkpt>
      <trkpt lat="44.8906" lon="0.59009">
        <ele>149.88</ele>
        <time>2020-06-09T16:27:47Z</time>
      </trkpt>
      <trkpt lat="44.89066" lon="0.59007">
        <ele>149.664</ele>
        <time>2020-06-09T16:27:51Z</time>
      </trkpt>
      <trkpt lat="44.8907" lon="0.59005">
        <ele>149.501</ele>
        <time>2020-06-09T16:27:54Z</time>
      </trkpt>
      <trkpt lat="44.89074" lon="0.59004">
        <ele>149.393</ele>
        <time>2020-06-09T16:27:56Z</time>
      </trkpt>
      <trkpt lat="44.8908" lon="0.59001">
        <ele>149.23</ele>
        <time>2020-06-09T16:27:59Z</time>
      </trkpt>
      <trkpt lat="44.89085" lon="0.58999">
        <ele>149.122</ele>
        <time>2020-06-09T16:28:01Z</time>
      </trkpt>
      <trkpt lat="44.8909" lon="0.58995">
        <ele>148.963</ele>
        <time>2020-06-09T16:28:04Z</time>
      </trkpt>
      <trkpt lat="44.89095" lon="0.58993">
        <ele>148.644</ele>
        <time>2020-06-09T16:28:10Z</time>
      </trkpt>
      <trkpt lat="44.89099" lon="0.58995">
        <ele>148.488</ele>
        <time>2020-06-09T16:28:13Z</time>
      </trkpt>
      <trkpt lat="44.89104" lon="0.58996">
        <ele>148.333</ele>
        <time>2020-06-09T16:28:16Z</time>
      </trkpt>
      <trkpt lat="44.89107" lon="0.58997">
        <ele>148.183</ele>
        <time>2020-06-09T16:28:19Z</time>
      </trkpt>
      <trkpt lat="44.89113" lon="0.59">
        <ele>147.984</ele>
        <time>2020-06-09T16:28:23Z</time>
      </trkpt>
      <trkpt lat="44.89117" lon="0.59001">
        <ele>147.886</ele>
        <time>2020-06-09T16:28:25Z</time>
      </trkpt>
      <trkpt lat="44.8912" lon="0.59002">
        <ele>147.79</ele>
        <time>2020-06-09T16:28:27Z</time>
      </trkpt>
      <trkpt lat="44.89126" lon="0.59003">
        <ele>147.649</ele>
        <time>2020-06-09T16:28:30Z</time>
      </trkpt>
      <trkpt lat="44.89131" lon="0.59003">
        <ele>147.554</ele>
        <time>2020-06-09T16:28:32Z</time>
      </trkpt>
      <trkpt lat="44.89133" lon="0.59004">
        <ele>147.507</ele>
        <time>2020-06-09T16:28:33Z</time>
      </trkpt>
      <trkpt lat="44.89136" lon="0.59004">
        <ele>147.411</ele>
        <time>2020-06-09T16:28:35Z</time>
      </trkpt>
      <trkpt lat="44.89141" lon="0.59004">
        <ele>147.314</ele>
        <time>2020-06-09T16:28:37Z</time>
      </trkpt>
      <trkpt lat="44.89144" lon="0.59004">
        <ele>147.217</ele>
        <time>2020-06-09T16:28:39Z</time>
      </trkpt>
      <trkpt lat="44.89149" lon="0.59005">
        <ele>147.067</ele>
        <time>2020-06-09T16:28:42Z</time>
      </trkpt>
      <trkpt lat="44.89151" lon="0.59006">
        <ele>146.964</ele>
        <time>2020-06-09T16:28:44Z</time>
      </trkpt>
      <trkpt lat="44.89157" lon="0.59006">
        <ele>146.806</ele>
        <time>2020-06-09T16:28:47Z</time>
      </trkpt>
      <trkpt lat="44.89161" lon="0.59006">
        <ele>146.7</ele>
        <time>2020-06-09T16:28:49Z</time>
      </trkpt>
      <trkpt lat="44.89164" lon="0.59007">
        <ele>146.594</ele>
        <time>2020-06-09T16:28:51Z</time>
      </trkpt>
      <trkpt lat="44.89169" lon="0.59009">
        <ele>146.432</ele>
        <time>2020-06-09T16:28:54Z</time>
      </trkpt>
      <trkpt lat="44.89174" lon="0.59011">
        <ele>146.264</ele>
        <time>2020-06-09T16:28:57Z</time>
      </trkpt>
      <trkpt lat="44.89179" lon="0.59012">
        <ele>146.094</ele>
        <time>2020-06-09T16:29:00Z</time>
      </trkpt>
      <trkpt lat="44.89185" lon="0.59013">
        <ele>145.866</ele>
        <time>2020-06-09T16:29:04Z</time>
      </trkpt>
      <trkpt lat="44.89189" lon="0.59013">
        <ele>145.695</ele>
        <time>2020-06-09T16:29:07Z</time>
      </trkpt>
      <trkpt lat="44.89192" lon="0.59014">
        <ele>145.579</ele>
        <time>2020-06-09T16:29:09Z</time>
      </trkpt>
      <trkpt lat="44.89195" lon="0.59015">
        <ele>145.464</ele>
        <time>2020-06-09T16:29:11Z</time>
      </trkpt>
      <trkpt lat="44.89201" lon="0.59016">
        <ele>145.236</ele>
        <time>2020-06-09T16:29:15Z</time>
      </trkpt>
      <trkpt lat="44.89206" lon="0.59015">
        <ele>145.066</ele>
        <time>2020-06-09T16:29:18Z</time>
      </trkpt>
      <trkpt lat="44.8921" lon="0.59015">
        <ele>144.953</ele>
        <time>2020-06-09T16:29:20Z</time>
      </trkpt>
      <trkpt lat="44.89213" lon="0.59014">
        <ele>144.84</ele>
        <time>2020-06-09T16:29:22Z</time>
      </trkpt>
      <trkpt lat="44.89218" lon="0.59015">
        <ele>144.674</ele>
        <time>2020-06-09T16:29:25Z</time>
      </trkpt>
      <trkpt lat="44.89222" lon="0.59016">
        <ele>144.509</ele>
        <time>2020-06-09T16:29:28Z</time>
      </trkpt>
      <trkpt lat="44.89226" lon="0.59017">
        <ele>144.345</ele>
        <time>2020-06-09T16:29:31Z</time>
      </trkpt>
      <trkpt lat="44.89232" lon="0.59017">
        <ele>144.131</ele>
        <time>2020-06-09T16:29:35Z</time>
      </trkpt>
      <trkpt lat="44.89236" lon="0.59016">
        <ele>143.967</ele>
        <time>2020-06-09T16:29:39Z</time>
      </trkpt>
      <trkpt lat="44.8924" lon="0.59016">
        <ele>143.707</ele>
        <time>2020-06-09T16:29:44Z</time>
      </trkpt>
      <trkpt lat="44.89245" lon="0.59016">
        <ele>143.555</ele>
        <time>2020-06-09T16:29:47Z</time>
      </trkpt>
      <trkpt lat="44.89248" lon="0.59016">
        <ele>143.454</ele>
        <time>2020-06-09T16:29:49Z</time>
      </trkpt>
      <trkpt lat="44.89252" lon="0.59018">
        <ele>143.301</ele>
        <time>2020-06-09T16:29:52Z</time>
      </trkpt>
      <trkpt lat="44.89259" lon="0.59018">
        <ele>143.095</ele>
        <time>2020-06-09T16:29:56Z</time>
      </trkpt>
      <trkpt lat="44.89264" lon="0.59021">
        <ele>142.94</ele>
        <time>2020-06-09T16:29:59Z</time>
      </trkpt>
      <trkpt lat="44.89266" lon="0.59022">
        <ele>142.888</ele>
        <time>2020-06-09T16:30:00Z</time>
      </trkpt>
      <trkpt lat="44.8927" lon="0.59024">
        <ele>142.783</ele>
        <time>2020-06-09T16:30:02Z</time>
      </trkpt>
      <trkpt lat="44.89275" lon="0.59026">
        <ele>142.625</ele>
        <time>2020-06-09T16:30:05Z</time>
      </trkpt>
      <trkpt lat="44.89279" lon="0.59026">
        <ele>142.465</ele>
        <time>2020-06-09T16:30:08Z</time>
      </trkpt>
      <trkpt lat="44.89284" lon="0.59027">
        <ele>142.246</ele>
        <time>2020-06-09T16:30:12Z</time>
      </trkpt>
      <trkpt lat="44.89288" lon="0.59031">
        <ele>142.028</ele>
        <time>2020-06-09T16:30:16Z</time>
      </trkpt>
      <trkpt lat="44.89291" lon="0.59035">
        <ele>141.867</ele>
        <time>2020-06-09T16:30:19Z</time>
      </trkpt>
      <trkpt lat="44.89295" lon="0.59039">
        <ele>141.657</ele>
        <time>2020-06-09T16:30:23Z</time>
      </trkpt>
      <trkpt lat="44.89297" lon="0.59041">
        <ele>141.604</ele>
        <time>2020-06-09T16:30:24Z</time>
      </trkpt>
      <trkpt lat="44.89299" lon="0.59042">
        <ele>141.552</ele>
        <time>2020-06-09T16:30:25Z</time>
      </trkpt>
      <trkpt lat="44.89304" lon="0.59047">
        <ele>141.39</ele>
        <time>2020-06-09T16:30:28Z</time>
      </trkpt>
    </trkseg>
    </trkseg>
  </trk>
</gpx>